<?xml version="1.0" encoding="UTF-8" standalone="no" ?>
<gpx xmlns="http://www.topografix.com/GPX/1/1" xmlns:xsi="http://www.w3.org/2001/XMLSchema-instance" xsi:schemaLocation="http://www.topografix.com/GPX/1/1 http://www.topografix.com/GPX/1/1/gpx.xsd" version="1.1" creator="VisuGPX - https://www.visugpx.com">
  <metadata>
    <name>LE BUET AVEC FRANCKY</name>
    <desc><![CDATA[départ du buet parking]]></desc>
  </metadata>
  <trk>
    <name><![CDATA[Tracé actuel: 02 AOU 2015 07:09]]></name>
    <trkseg>
      <trkpt lat="46.01834" lon="6.91986">
        <ele>1345.02</ele>
        <time>2015-08-02T06:09:28Z</time>
      </trkpt>
      <trkpt lat="46.01834" lon="6.91986">
        <ele>1345.02</ele>
        <time>2015-08-02T06:09:29Z</time>
      </trkpt>
      <trkpt lat="46.01833" lon="6.91986">
        <ele>1252.25</ele>
        <time>2015-08-02T06:09:34Z</time>
      </trkpt>
      <trkpt lat="46.01833" lon="6.91986">
        <ele>1252.25</ele>
        <time>2015-08-02T06:09:35Z</time>
      </trkpt>
      <trkpt lat="46.01832" lon="6.91986">
        <ele>1252.25</ele>
        <time>2015-08-02T06:09:49Z</time>
      </trkpt>
      <trkpt lat="46.01832" lon="6.91983">
        <ele>1254.18</ele>
        <time>2015-08-02T06:10:00Z</time>
      </trkpt>
      <trkpt lat="46.01833" lon="6.91984">
        <ele>1253.7</ele>
        <time>2015-08-02T06:10:20Z</time>
      </trkpt>
      <trkpt lat="46.01832" lon="6.91983">
        <ele>1254.66</ele>
        <time>2015-08-02T06:10:38Z</time>
      </trkpt>
      <trkpt lat="46.01832" lon="6.91986">
        <ele>1255.62</ele>
        <time>2015-08-02T06:10:57Z</time>
      </trkpt>
      <trkpt lat="46.0183" lon="6.91987">
        <ele>1256.1</ele>
        <time>2015-08-02T06:11:06Z</time>
      </trkpt>
      <trkpt lat="46.01831" lon="6.91985">
        <ele>1256.1</ele>
        <time>2015-08-02T06:11:08Z</time>
      </trkpt>
      <trkpt lat="46.01833" lon="6.91992">
        <ele>1256.58</ele>
        <time>2015-08-02T06:11:18Z</time>
      </trkpt>
      <trkpt lat="46.01845" lon="6.91994">
        <ele>1257.06</ele>
        <time>2015-08-02T06:11:28Z</time>
      </trkpt>
      <trkpt lat="46.01869" lon="6.91989">
        <ele>1258.02</ele>
        <time>2015-08-02T06:11:47Z</time>
      </trkpt>
      <trkpt lat="46.01874" lon="6.91987">
        <ele>1258.02</ele>
        <time>2015-08-02T06:11:52Z</time>
      </trkpt>
      <trkpt lat="46.01877" lon="6.91975">
        <ele>1258.5</ele>
        <time>2015-08-02T06:11:59Z</time>
      </trkpt>
      <trkpt lat="46.01876" lon="6.9197">
        <ele>1258.5</ele>
        <time>2015-08-02T06:12:02Z</time>
      </trkpt>
      <trkpt lat="46.0187" lon="6.91964">
        <ele>1259.94</ele>
        <time>2015-08-02T06:12:09Z</time>
      </trkpt>
      <trkpt lat="46.01868" lon="6.91958">
        <ele>1261.39</ele>
        <time>2015-08-02T06:12:23Z</time>
      </trkpt>
      <trkpt lat="46.01869" lon="6.91952">
        <ele>1261.87</ele>
        <time>2015-08-02T06:12:28Z</time>
      </trkpt>
      <trkpt lat="46.0187" lon="6.91948">
        <ele>1262.35</ele>
        <time>2015-08-02T06:12:30Z</time>
      </trkpt>
      <trkpt lat="46.01868" lon="6.91935">
        <ele>1263.31</ele>
        <time>2015-08-02T06:12:45Z</time>
      </trkpt>
      <trkpt lat="46.01866" lon="6.91917">
        <ele>1265.23</ele>
        <time>2015-08-02T06:13:02Z</time>
      </trkpt>
      <trkpt lat="46.01865" lon="6.91912">
        <ele>1265.23</ele>
        <time>2015-08-02T06:13:05Z</time>
      </trkpt>
      <trkpt lat="46.01862" lon="6.91905">
        <ele>1265.71</ele>
        <time>2015-08-02T06:13:09Z</time>
      </trkpt>
      <trkpt lat="46.01862" lon="6.91902">
        <ele>1266.19</ele>
        <time>2015-08-02T06:13:11Z</time>
      </trkpt>
      <trkpt lat="46.01869" lon="6.91873">
        <ele>1268.12</ele>
        <time>2015-08-02T06:13:28Z</time>
      </trkpt>
      <trkpt lat="46.01876" lon="6.9184">
        <ele>1270.04</ele>
        <time>2015-08-02T06:13:46Z</time>
      </trkpt>
      <trkpt lat="46.01882" lon="6.91802">
        <ele>1272.44</ele>
        <time>2015-08-02T06:14:06Z</time>
      </trkpt>
      <trkpt lat="46.01877" lon="6.9177">
        <ele>1274.85</ele>
        <time>2015-08-02T06:14:23Z</time>
      </trkpt>
      <trkpt lat="46.0187" lon="6.91731">
        <ele>1277.25</ele>
        <time>2015-08-02T06:14:43Z</time>
      </trkpt>
      <trkpt lat="46.01882" lon="6.91693">
        <ele>1279.65</ele>
        <time>2015-08-02T06:15:03Z</time>
      </trkpt>
      <trkpt lat="46.01888" lon="6.91667">
        <ele>1283.02</ele>
        <time>2015-08-02T06:15:16Z</time>
      </trkpt>
      <trkpt lat="46.01902" lon="6.91637">
        <ele>1286.38</ele>
        <time>2015-08-02T06:15:34Z</time>
      </trkpt>
      <trkpt lat="46.01921" lon="6.91605">
        <ele>1288.78</ele>
        <time>2015-08-02T06:15:55Z</time>
      </trkpt>
      <trkpt lat="46.01931" lon="6.91579">
        <ele>1292.15</ele>
        <time>2015-08-02T06:16:11Z</time>
      </trkpt>
      <trkpt lat="46.01931" lon="6.91564">
        <ele>1295.03</ele>
        <time>2015-08-02T06:16:21Z</time>
      </trkpt>
      <trkpt lat="46.01933" lon="6.91552">
        <ele>1298.4</ele>
        <time>2015-08-02T06:16:32Z</time>
      </trkpt>
      <trkpt lat="46.01935" lon="6.91537">
        <ele>1300.32</ele>
        <time>2015-08-02T06:16:42Z</time>
      </trkpt>
      <trkpt lat="46.01938" lon="6.91511">
        <ele>1301.76</ele>
        <time>2015-08-02T06:16:58Z</time>
      </trkpt>
      <trkpt lat="46.01938" lon="6.91496">
        <ele>1302.24</ele>
        <time>2015-08-02T06:17:07Z</time>
      </trkpt>
      <trkpt lat="46.0194" lon="6.91482">
        <ele>1303.2</ele>
        <time>2015-08-02T06:17:15Z</time>
      </trkpt>
      <trkpt lat="46.01941" lon="6.91476">
        <ele>1304.65</ele>
        <time>2015-08-02T06:17:19Z</time>
      </trkpt>
      <trkpt lat="46.01942" lon="6.91457">
        <ele>1308.01</ele>
        <time>2015-08-02T06:17:30Z</time>
      </trkpt>
      <trkpt lat="46.01942" lon="6.9145">
        <ele>1309.45</ele>
        <time>2015-08-02T06:17:35Z</time>
      </trkpt>
      <trkpt lat="46.01942" lon="6.91436">
        <ele>1313.3</ele>
        <time>2015-08-02T06:17:46Z</time>
      </trkpt>
      <trkpt lat="46.01942" lon="6.91432">
        <ele>1314.26</ele>
        <time>2015-08-02T06:17:50Z</time>
      </trkpt>
      <trkpt lat="46.01941" lon="6.9143">
        <ele>1314.74</ele>
        <time>2015-08-02T06:17:52Z</time>
      </trkpt>
      <trkpt lat="46.01933" lon="6.91426">
        <ele>1318.1</ele>
        <time>2015-08-02T06:18:03Z</time>
      </trkpt>
      <trkpt lat="46.01932" lon="6.91426">
        <ele>1318.1</ele>
        <time>2015-08-02T06:18:04Z</time>
      </trkpt>
      <trkpt lat="46.01924" lon="6.9142">
        <ele>1320.99</ele>
        <time>2015-08-02T06:18:14Z</time>
      </trkpt>
      <trkpt lat="46.01921" lon="6.91415">
        <ele>1322.43</ele>
        <time>2015-08-02T06:18:18Z</time>
      </trkpt>
      <trkpt lat="46.01914" lon="6.91401">
        <ele>1326.28</ele>
        <time>2015-08-02T06:18:32Z</time>
      </trkpt>
      <trkpt lat="46.01908" lon="6.91389">
        <ele>1329.16</ele>
        <time>2015-08-02T06:18:45Z</time>
      </trkpt>
      <trkpt lat="46.01906" lon="6.91387">
        <ele>1330.6</ele>
        <time>2015-08-02T06:18:50Z</time>
      </trkpt>
      <trkpt lat="46.01908" lon="6.91385">
        <ele>1333.01</ele>
        <time>2015-08-02T06:18:58Z</time>
      </trkpt>
      <trkpt lat="46.01919" lon="6.91374">
        <ele>1336.37</ele>
        <time>2015-08-02T06:19:12Z</time>
      </trkpt>
      <trkpt lat="46.01936" lon="6.91357">
        <ele>1337.33</ele>
        <time>2015-08-02T06:19:27Z</time>
      </trkpt>
      <trkpt lat="46.01938" lon="6.91357">
        <ele>1337.33</ele>
        <time>2015-08-02T06:19:29Z</time>
      </trkpt>
      <trkpt lat="46.01959" lon="6.91347">
        <ele>1340.7</ele>
        <time>2015-08-02T06:19:45Z</time>
      </trkpt>
      <trkpt lat="46.01969" lon="6.91343">
        <ele>1342.14</ele>
        <time>2015-08-02T06:19:53Z</time>
      </trkpt>
      <trkpt lat="46.01973" lon="6.91338">
        <ele>1344.54</ele>
        <time>2015-08-02T06:19:58Z</time>
      </trkpt>
      <trkpt lat="46.01978" lon="6.91332">
        <ele>1345.98</ele>
        <time>2015-08-02T06:20:04Z</time>
      </trkpt>
      <trkpt lat="46.0198" lon="6.91328">
        <ele>1346.94</ele>
        <time>2015-08-02T06:20:07Z</time>
      </trkpt>
      <trkpt lat="46.01987" lon="6.91315">
        <ele>1349.35</ele>
        <time>2015-08-02T06:20:17Z</time>
      </trkpt>
      <trkpt lat="46.01991" lon="6.91311">
        <ele>1350.31</ele>
        <time>2015-08-02T06:20:22Z</time>
      </trkpt>
      <trkpt lat="46.01993" lon="6.91306">
        <ele>1351.75</ele>
        <time>2015-08-02T06:20:26Z</time>
      </trkpt>
      <trkpt lat="46.0199" lon="6.91304">
        <ele>1352.23</ele>
        <time>2015-08-02T06:20:28Z</time>
      </trkpt>
      <trkpt lat="46.01988" lon="6.91297">
        <ele>1353.67</ele>
        <time>2015-08-02T06:20:33Z</time>
      </trkpt>
      <trkpt lat="46.01989" lon="6.91288">
        <ele>1355.6</ele>
        <time>2015-08-02T06:20:40Z</time>
      </trkpt>
      <trkpt lat="46.01975" lon="6.91283">
        <ele>1358.96</ele>
        <time>2015-08-02T06:20:54Z</time>
      </trkpt>
      <trkpt lat="46.01973" lon="6.9128">
        <ele>1359.92</ele>
        <time>2015-08-02T06:20:58Z</time>
      </trkpt>
      <trkpt lat="46.01979" lon="6.91268">
        <ele>1362.81</ele>
        <time>2015-08-02T06:21:10Z</time>
      </trkpt>
      <trkpt lat="46.01982" lon="6.9126">
        <ele>1363.77</ele>
        <time>2015-08-02T06:21:15Z</time>
      </trkpt>
      <trkpt lat="46.0198" lon="6.91252">
        <ele>1366.17</ele>
        <time>2015-08-02T06:21:22Z</time>
      </trkpt>
      <trkpt lat="46.01974" lon="6.91244">
        <ele>1369.05</ele>
        <time>2015-08-02T06:21:32Z</time>
      </trkpt>
      <trkpt lat="46.01978" lon="6.91238">
        <ele>1370.5</ele>
        <time>2015-08-02T06:21:38Z</time>
      </trkpt>
      <trkpt lat="46.01986" lon="6.91228">
        <ele>1373.38</ele>
        <time>2015-08-02T06:21:49Z</time>
      </trkpt>
      <trkpt lat="46.01989" lon="6.91217">
        <ele>1375.78</ele>
        <time>2015-08-02T06:21:57Z</time>
      </trkpt>
      <trkpt lat="46.0199" lon="6.91211">
        <ele>1376.26</ele>
        <time>2015-08-02T06:22:01Z</time>
      </trkpt>
      <trkpt lat="46.01991" lon="6.91185">
        <ele>1379.63</ele>
        <time>2015-08-02T06:22:14Z</time>
      </trkpt>
      <trkpt lat="46.01988" lon="6.91176">
        <ele>1380.59</ele>
        <time>2015-08-02T06:22:24Z</time>
      </trkpt>
      <trkpt lat="46.01988" lon="6.91179">
        <ele>1380.59</ele>
        <time>2015-08-02T06:22:29Z</time>
      </trkpt>
      <trkpt lat="46.01988" lon="6.91182">
        <ele>1381.07</ele>
        <time>2015-08-02T06:22:31Z</time>
      </trkpt>
      <trkpt lat="46.01986" lon="6.9119">
        <ele>1382.99</ele>
        <time>2015-08-02T06:22:39Z</time>
      </trkpt>
      <trkpt lat="46.01986" lon="6.91182">
        <ele>1383.96</ele>
        <time>2015-08-02T06:22:45Z</time>
      </trkpt>
      <trkpt lat="46.01987" lon="6.91173">
        <ele>1385.88</ele>
        <time>2015-08-02T06:22:54Z</time>
      </trkpt>
      <trkpt lat="46.01987" lon="6.91158">
        <ele>1387.32</ele>
        <time>2015-08-02T06:23:03Z</time>
      </trkpt>
      <trkpt lat="46.01986" lon="6.91154">
        <ele>1388.28</ele>
        <time>2015-08-02T06:23:05Z</time>
      </trkpt>
      <trkpt lat="46.01986" lon="6.91149">
        <ele>1389.24</ele>
        <time>2015-08-02T06:23:09Z</time>
      </trkpt>
      <trkpt lat="46.01985" lon="6.91138">
        <ele>1392.13</ele>
        <time>2015-08-02T06:23:17Z</time>
      </trkpt>
      <trkpt lat="46.01986" lon="6.91124">
        <ele>1392.61</ele>
        <time>2015-08-02T06:23:24Z</time>
      </trkpt>
      <trkpt lat="46.01986" lon="6.91114">
        <ele>1394.05</ele>
        <time>2015-08-02T06:23:30Z</time>
      </trkpt>
      <trkpt lat="46.01986" lon="6.91105">
        <ele>1395.49</ele>
        <time>2015-08-02T06:23:35Z</time>
      </trkpt>
      <trkpt lat="46.01983" lon="6.91093">
        <ele>1397.41</ele>
        <time>2015-08-02T06:23:42Z</time>
      </trkpt>
      <trkpt lat="46.01972" lon="6.91075">
        <ele>1400.3</ele>
        <time>2015-08-02T06:23:55Z</time>
      </trkpt>
      <trkpt lat="46.01972" lon="6.91074">
        <ele>1400.3</ele>
        <time>2015-08-02T06:23:56Z</time>
      </trkpt>
      <trkpt lat="46.01971" lon="6.91065">
        <ele>1401.74</ele>
        <time>2015-08-02T06:24:01Z</time>
      </trkpt>
      <trkpt lat="46.0197" lon="6.9106">
        <ele>1401.74</ele>
        <time>2015-08-02T06:24:04Z</time>
      </trkpt>
      <trkpt lat="46.01963" lon="6.91048">
        <ele>1404.14</ele>
        <time>2015-08-02T06:24:11Z</time>
      </trkpt>
      <trkpt lat="46.01963" lon="6.91044">
        <ele>1405.58</ele>
        <time>2015-08-02T06:24:14Z</time>
      </trkpt>
      <trkpt lat="46.01961" lon="6.91039">
        <ele>1406.55</ele>
        <time>2015-08-02T06:24:18Z</time>
      </trkpt>
      <trkpt lat="46.0196" lon="6.91034">
        <ele>1407.51</ele>
        <time>2015-08-02T06:24:21Z</time>
      </trkpt>
      <trkpt lat="46.0196" lon="6.91027">
        <ele>1408.95</ele>
        <time>2015-08-02T06:24:25Z</time>
      </trkpt>
      <trkpt lat="46.0196" lon="6.91016">
        <ele>1410.39</ele>
        <time>2015-08-02T06:24:31Z</time>
      </trkpt>
      <trkpt lat="46.01958" lon="6.9101">
        <ele>1411.35</ele>
        <time>2015-08-02T06:24:35Z</time>
      </trkpt>
      <trkpt lat="46.01956" lon="6.91006">
        <ele>1412.79</ele>
        <time>2015-08-02T06:24:39Z</time>
      </trkpt>
      <trkpt lat="46.0196" lon="6.90981">
        <ele>1415.2</ele>
        <time>2015-08-02T06:24:52Z</time>
      </trkpt>
      <trkpt lat="46.01957" lon="6.90971">
        <ele>1417.12</ele>
        <time>2015-08-02T06:25:00Z</time>
      </trkpt>
      <trkpt lat="46.01957" lon="6.90961">
        <ele>1419.52</ele>
        <time>2015-08-02T06:25:08Z</time>
      </trkpt>
      <trkpt lat="46.01955" lon="6.90954">
        <ele>1420.97</ele>
        <time>2015-08-02T06:25:12Z</time>
      </trkpt>
      <trkpt lat="46.01951" lon="6.90936">
        <ele>1424.33</ele>
        <time>2015-08-02T06:25:21Z</time>
      </trkpt>
      <trkpt lat="46.01948" lon="6.90926">
        <ele>1426.25</ele>
        <time>2015-08-02T06:25:28Z</time>
      </trkpt>
      <trkpt lat="46.01944" lon="6.90908">
        <ele>1429.62</ele>
        <time>2015-08-02T06:25:39Z</time>
      </trkpt>
      <trkpt lat="46.01944" lon="6.909">
        <ele>1430.1</ele>
        <time>2015-08-02T06:25:43Z</time>
      </trkpt>
      <trkpt lat="46.01941" lon="6.90885">
        <ele>1431.06</ele>
        <time>2015-08-02T06:25:52Z</time>
      </trkpt>
      <trkpt lat="46.0194" lon="6.90878">
        <ele>1431.54</ele>
        <time>2015-08-02T06:25:57Z</time>
      </trkpt>
      <trkpt lat="46.01944" lon="6.90871">
        <ele>1428.66</ele>
        <time>2015-08-02T06:26:03Z</time>
      </trkpt>
      <trkpt lat="46.01946" lon="6.90859">
        <ele>1427.7</ele>
        <time>2015-08-02T06:26:10Z</time>
      </trkpt>
      <trkpt lat="46.01949" lon="6.90853">
        <ele>1427.21</ele>
        <time>2015-08-02T06:26:14Z</time>
      </trkpt>
      <trkpt lat="46.01948" lon="6.90839">
        <ele>1427.21</ele>
        <time>2015-08-02T06:26:22Z</time>
      </trkpt>
      <trkpt lat="46.01947" lon="6.90829">
        <ele>1427.21</ele>
        <time>2015-08-02T06:26:26Z</time>
      </trkpt>
      <trkpt lat="46.01947" lon="6.90821">
        <ele>1427.7</ele>
        <time>2015-08-02T06:26:30Z</time>
      </trkpt>
      <trkpt lat="46.01946" lon="6.90815">
        <ele>1427.7</ele>
        <time>2015-08-02T06:26:33Z</time>
      </trkpt>
      <trkpt lat="46.01947" lon="6.9081">
        <ele>1427.7</ele>
        <time>2015-08-02T06:26:35Z</time>
      </trkpt>
      <trkpt lat="46.01946" lon="6.90797">
        <ele>1428.18</ele>
        <time>2015-08-02T06:26:41Z</time>
      </trkpt>
      <trkpt lat="46.01942" lon="6.90786">
        <ele>1428.18</ele>
        <time>2015-08-02T06:26:47Z</time>
      </trkpt>
      <trkpt lat="46.01942" lon="6.90781">
        <ele>1429.62</ele>
        <time>2015-08-02T06:26:49Z</time>
      </trkpt>
      <trkpt lat="46.01935" lon="6.90757">
        <ele>1432.98</ele>
        <time>2015-08-02T06:27:01Z</time>
      </trkpt>
      <trkpt lat="46.01927" lon="6.90747">
        <ele>1434.42</ele>
        <time>2015-08-02T06:27:08Z</time>
      </trkpt>
      <trkpt lat="46.0192" lon="6.9073">
        <ele>1437.31</ele>
        <time>2015-08-02T06:27:20Z</time>
      </trkpt>
      <trkpt lat="46.01919" lon="6.90715">
        <ele>1438.27</ele>
        <time>2015-08-02T06:27:26Z</time>
      </trkpt>
      <trkpt lat="46.01919" lon="6.90712">
        <ele>1438.27</ele>
        <time>2015-08-02T06:27:27Z</time>
      </trkpt>
      <trkpt lat="46.0192" lon="6.90709">
        <ele>1438.27</ele>
        <time>2015-08-02T06:27:28Z</time>
      </trkpt>
      <trkpt lat="46.0192" lon="6.90705">
        <ele>1438.27</ele>
        <time>2015-08-02T06:27:29Z</time>
      </trkpt>
      <trkpt lat="46.01921" lon="6.90702">
        <ele>1438.75</ele>
        <time>2015-08-02T06:27:30Z</time>
      </trkpt>
      <trkpt lat="46.0192" lon="6.90699">
        <ele>1438.75</ele>
        <time>2015-08-02T06:27:31Z</time>
      </trkpt>
      <trkpt lat="46.01917" lon="6.90683">
        <ele>1438.75</ele>
        <time>2015-08-02T06:27:36Z</time>
      </trkpt>
      <trkpt lat="46.01916" lon="6.90679">
        <ele>1438.75</ele>
        <time>2015-08-02T06:27:38Z</time>
      </trkpt>
      <trkpt lat="46.01914" lon="6.90676">
        <ele>1438.75</ele>
        <time>2015-08-02T06:27:40Z</time>
      </trkpt>
      <trkpt lat="46.01912" lon="6.90671">
        <ele>1439.71</ele>
        <time>2015-08-02T06:27:44Z</time>
      </trkpt>
      <trkpt lat="46.01911" lon="6.9067">
        <ele>1439.71</ele>
        <time>2015-08-02T06:27:45Z</time>
      </trkpt>
      <trkpt lat="46.01911" lon="6.90668">
        <ele>1439.71</ele>
        <time>2015-08-02T06:27:46Z</time>
      </trkpt>
      <trkpt lat="46.0191" lon="6.90666">
        <ele>1440.19</ele>
        <time>2015-08-02T06:27:47Z</time>
      </trkpt>
      <trkpt lat="46.01909" lon="6.90664">
        <ele>1440.19</ele>
        <time>2015-08-02T06:27:48Z</time>
      </trkpt>
      <trkpt lat="46.01907" lon="6.90662">
        <ele>1440.19</ele>
        <time>2015-08-02T06:27:49Z</time>
      </trkpt>
      <trkpt lat="46.01907" lon="6.9066">
        <ele>1440.67</ele>
        <time>2015-08-02T06:27:50Z</time>
      </trkpt>
      <trkpt lat="46.01906" lon="6.90658">
        <ele>1440.67</ele>
        <time>2015-08-02T06:27:51Z</time>
      </trkpt>
      <trkpt lat="46.01906" lon="6.90656">
        <ele>1440.67</ele>
        <time>2015-08-02T06:27:52Z</time>
      </trkpt>
      <trkpt lat="46.01905" lon="6.90654">
        <ele>1441.15</ele>
        <time>2015-08-02T06:27:53Z</time>
      </trkpt>
      <trkpt lat="46.01904" lon="6.90653">
        <ele>1441.15</ele>
        <time>2015-08-02T06:27:54Z</time>
      </trkpt>
      <trkpt lat="46.01901" lon="6.90648">
        <ele>1441.63</ele>
        <time>2015-08-02T06:27:57Z</time>
      </trkpt>
      <trkpt lat="46.01899" lon="6.90641">
        <ele>1442.6</ele>
        <time>2015-08-02T06:28:02Z</time>
      </trkpt>
      <trkpt lat="46.01899" lon="6.90639">
        <ele>1442.6</ele>
        <time>2015-08-02T06:28:03Z</time>
      </trkpt>
      <trkpt lat="46.01899" lon="6.90637">
        <ele>1442.6</ele>
        <time>2015-08-02T06:28:04Z</time>
      </trkpt>
      <trkpt lat="46.01897" lon="6.90634">
        <ele>1443.56</ele>
        <time>2015-08-02T06:28:07Z</time>
      </trkpt>
      <trkpt lat="46.01897" lon="6.90632">
        <ele>1443.56</ele>
        <time>2015-08-02T06:28:08Z</time>
      </trkpt>
      <trkpt lat="46.01893" lon="6.90615">
        <ele>1444.52</ele>
        <time>2015-08-02T06:28:20Z</time>
      </trkpt>
      <trkpt lat="46.01893" lon="6.90614">
        <ele>1445</ele>
        <time>2015-08-02T06:28:21Z</time>
      </trkpt>
      <trkpt lat="46.01894" lon="6.90613">
        <ele>1445.48</ele>
        <time>2015-08-02T06:28:22Z</time>
      </trkpt>
      <trkpt lat="46.01895" lon="6.9061">
        <ele>1445.48</ele>
        <time>2015-08-02T06:28:24Z</time>
      </trkpt>
      <trkpt lat="46.01894" lon="6.90607">
        <ele>1445.48</ele>
        <time>2015-08-02T06:28:26Z</time>
      </trkpt>
      <trkpt lat="46.01894" lon="6.90605">
        <ele>1445.48</ele>
        <time>2015-08-02T06:28:27Z</time>
      </trkpt>
      <trkpt lat="46.01894" lon="6.90603">
        <ele>1445.96</ele>
        <time>2015-08-02T06:28:28Z</time>
      </trkpt>
      <trkpt lat="46.01892" lon="6.90569">
        <ele>1447.88</ele>
        <time>2015-08-02T06:28:45Z</time>
      </trkpt>
      <trkpt lat="46.01891" lon="6.90564">
        <ele>1447.88</ele>
        <time>2015-08-02T06:28:47Z</time>
      </trkpt>
      <trkpt lat="46.01891" lon="6.90561">
        <ele>1447.88</ele>
        <time>2015-08-02T06:28:48Z</time>
      </trkpt>
      <trkpt lat="46.0189" lon="6.90558">
        <ele>1447.88</ele>
        <time>2015-08-02T06:28:49Z</time>
      </trkpt>
      <trkpt lat="46.0189" lon="6.90555">
        <ele>1447.88</ele>
        <time>2015-08-02T06:28:50Z</time>
      </trkpt>
      <trkpt lat="46.01888" lon="6.90536">
        <ele>1448.36</ele>
        <time>2015-08-02T06:28:57Z</time>
      </trkpt>
      <trkpt lat="46.01888" lon="6.90533">
        <ele>1448.36</ele>
        <time>2015-08-02T06:28:58Z</time>
      </trkpt>
      <trkpt lat="46.01887" lon="6.9053">
        <ele>1448.36</ele>
        <time>2015-08-02T06:28:59Z</time>
      </trkpt>
      <trkpt lat="46.01886" lon="6.90527">
        <ele>1448.36</ele>
        <time>2015-08-02T06:29:00Z</time>
      </trkpt>
      <trkpt lat="46.0188" lon="6.90512">
        <ele>1450.77</ele>
        <time>2015-08-02T06:29:06Z</time>
      </trkpt>
      <trkpt lat="46.01879" lon="6.90509">
        <ele>1450.77</ele>
        <time>2015-08-02T06:29:07Z</time>
      </trkpt>
      <trkpt lat="46.01878" lon="6.90507">
        <ele>1450.77</ele>
        <time>2015-08-02T06:29:08Z</time>
      </trkpt>
      <trkpt lat="46.0187" lon="6.90465">
        <ele>1452.69</ele>
        <time>2015-08-02T06:29:22Z</time>
      </trkpt>
      <trkpt lat="46.0186" lon="6.90436">
        <ele>1454.61</ele>
        <time>2015-08-02T06:29:33Z</time>
      </trkpt>
      <trkpt lat="46.01859" lon="6.90434">
        <ele>1454.61</ele>
        <time>2015-08-02T06:29:34Z</time>
      </trkpt>
      <trkpt lat="46.01857" lon="6.90432">
        <ele>1454.61</ele>
        <time>2015-08-02T06:29:35Z</time>
      </trkpt>
      <trkpt lat="46.01856" lon="6.90429">
        <ele>1454.61</ele>
        <time>2015-08-02T06:29:36Z</time>
      </trkpt>
      <trkpt lat="46.01855" lon="6.90427">
        <ele>1454.61</ele>
        <time>2015-08-02T06:29:37Z</time>
      </trkpt>
      <trkpt lat="46.01847" lon="6.90401">
        <ele>1455.57</ele>
        <time>2015-08-02T06:29:47Z</time>
      </trkpt>
      <trkpt lat="46.01847" lon="6.90399">
        <ele>1456.05</ele>
        <time>2015-08-02T06:29:48Z</time>
      </trkpt>
      <trkpt lat="46.01847" lon="6.90397">
        <ele>1456.05</ele>
        <time>2015-08-02T06:29:49Z</time>
      </trkpt>
      <trkpt lat="46.01846" lon="6.90395">
        <ele>1457.02</ele>
        <time>2015-08-02T06:29:50Z</time>
      </trkpt>
      <trkpt lat="46.01845" lon="6.90392">
        <ele>1457.02</ele>
        <time>2015-08-02T06:29:51Z</time>
      </trkpt>
      <trkpt lat="46.01844" lon="6.9039">
        <ele>1457.02</ele>
        <time>2015-08-02T06:29:52Z</time>
      </trkpt>
      <trkpt lat="46.01844" lon="6.90388">
        <ele>1457.5</ele>
        <time>2015-08-02T06:29:53Z</time>
      </trkpt>
      <trkpt lat="46.01845" lon="6.90386">
        <ele>1457.5</ele>
        <time>2015-08-02T06:29:54Z</time>
      </trkpt>
      <trkpt lat="46.01845" lon="6.90385">
        <ele>1457.98</ele>
        <time>2015-08-02T06:29:55Z</time>
      </trkpt>
      <trkpt lat="46.01844" lon="6.90371">
        <ele>1457.98</ele>
        <time>2015-08-02T06:30:02Z</time>
      </trkpt>
      <trkpt lat="46.01843" lon="6.9037">
        <ele>1458.46</ele>
        <time>2015-08-02T06:30:03Z</time>
      </trkpt>
      <trkpt lat="46.01842" lon="6.90369">
        <ele>1458.46</ele>
        <time>2015-08-02T06:30:04Z</time>
      </trkpt>
      <trkpt lat="46.01842" lon="6.90367">
        <ele>1458.94</ele>
        <time>2015-08-02T06:30:05Z</time>
      </trkpt>
      <trkpt lat="46.01841" lon="6.90365">
        <ele>1458.94</ele>
        <time>2015-08-02T06:30:06Z</time>
      </trkpt>
      <trkpt lat="46.0184" lon="6.90364">
        <ele>1458.94</ele>
        <time>2015-08-02T06:30:07Z</time>
      </trkpt>
      <trkpt lat="46.01841" lon="6.90362">
        <ele>1459.9</ele>
        <time>2015-08-02T06:30:08Z</time>
      </trkpt>
      <trkpt lat="46.01841" lon="6.9036">
        <ele>1459.9</ele>
        <time>2015-08-02T06:30:09Z</time>
      </trkpt>
      <trkpt lat="46.01841" lon="6.90358">
        <ele>1459.9</ele>
        <time>2015-08-02T06:30:10Z</time>
      </trkpt>
      <trkpt lat="46.01841" lon="6.90357">
        <ele>1460.38</ele>
        <time>2015-08-02T06:30:11Z</time>
      </trkpt>
      <trkpt lat="46.01841" lon="6.90355">
        <ele>1460.38</ele>
        <time>2015-08-02T06:30:12Z</time>
      </trkpt>
      <trkpt lat="46.01841" lon="6.90353">
        <ele>1460.38</ele>
        <time>2015-08-02T06:30:13Z</time>
      </trkpt>
      <trkpt lat="46.01841" lon="6.90352">
        <ele>1460.38</ele>
        <time>2015-08-02T06:30:14Z</time>
      </trkpt>
      <trkpt lat="46.01841" lon="6.9035">
        <ele>1460.38</ele>
        <time>2015-08-02T06:30:15Z</time>
      </trkpt>
      <trkpt lat="46.0184" lon="6.90348">
        <ele>1460.38</ele>
        <time>2015-08-02T06:30:16Z</time>
      </trkpt>
      <trkpt lat="46.01837" lon="6.90334">
        <ele>1460.86</ele>
        <time>2015-08-02T06:30:22Z</time>
      </trkpt>
      <trkpt lat="46.01838" lon="6.90332">
        <ele>1460.86</ele>
        <time>2015-08-02T06:30:23Z</time>
      </trkpt>
      <trkpt lat="46.01835" lon="6.90308">
        <ele>1462.3</ele>
        <time>2015-08-02T06:30:35Z</time>
      </trkpt>
      <trkpt lat="46.01834" lon="6.90303">
        <ele>1462.78</ele>
        <time>2015-08-02T06:30:38Z</time>
      </trkpt>
      <trkpt lat="46.01833" lon="6.90302">
        <ele>1462.78</ele>
        <time>2015-08-02T06:30:39Z</time>
      </trkpt>
      <trkpt lat="46.01833" lon="6.903">
        <ele>1462.78</ele>
        <time>2015-08-02T06:30:40Z</time>
      </trkpt>
      <trkpt lat="46.01834" lon="6.90299">
        <ele>1462.78</ele>
        <time>2015-08-02T06:30:41Z</time>
      </trkpt>
      <trkpt lat="46.01834" lon="6.90298">
        <ele>1463.26</ele>
        <time>2015-08-02T06:30:42Z</time>
      </trkpt>
      <trkpt lat="46.01835" lon="6.90297">
        <ele>1463.26</ele>
        <time>2015-08-02T06:30:44Z</time>
      </trkpt>
      <trkpt lat="46.01836" lon="6.90295">
        <ele>1463.26</ele>
        <time>2015-08-02T06:30:45Z</time>
      </trkpt>
      <trkpt lat="46.01836" lon="6.90293">
        <ele>1463.26</ele>
        <time>2015-08-02T06:30:46Z</time>
      </trkpt>
      <trkpt lat="46.01836" lon="6.90291">
        <ele>1463.26</ele>
        <time>2015-08-02T06:30:47Z</time>
      </trkpt>
      <trkpt lat="46.01836" lon="6.90289">
        <ele>1463.26</ele>
        <time>2015-08-02T06:30:48Z</time>
      </trkpt>
      <trkpt lat="46.01837" lon="6.90288">
        <ele>1463.26</ele>
        <time>2015-08-02T06:30:49Z</time>
      </trkpt>
      <trkpt lat="46.01837" lon="6.90286">
        <ele>1463.26</ele>
        <time>2015-08-02T06:30:50Z</time>
      </trkpt>
      <trkpt lat="46.01838" lon="6.90284">
        <ele>1463.26</ele>
        <time>2015-08-02T06:30:51Z</time>
      </trkpt>
      <trkpt lat="46.01838" lon="6.90282">
        <ele>1463.26</ele>
        <time>2015-08-02T06:30:52Z</time>
      </trkpt>
      <trkpt lat="46.01841" lon="6.90257">
        <ele>1465.67</ele>
        <time>2015-08-02T06:31:06Z</time>
      </trkpt>
      <trkpt lat="46.01841" lon="6.90255">
        <ele>1466.15</ele>
        <time>2015-08-02T06:31:07Z</time>
      </trkpt>
      <trkpt lat="46.01842" lon="6.90254">
        <ele>1467.11</ele>
        <time>2015-08-02T06:31:08Z</time>
      </trkpt>
      <trkpt lat="46.01842" lon="6.90253">
        <ele>1467.11</ele>
        <time>2015-08-02T06:31:09Z</time>
      </trkpt>
      <trkpt lat="46.01842" lon="6.90251">
        <ele>1467.59</ele>
        <time>2015-08-02T06:31:11Z</time>
      </trkpt>
      <trkpt lat="46.01842" lon="6.90249">
        <ele>1468.07</ele>
        <time>2015-08-02T06:31:13Z</time>
      </trkpt>
      <trkpt lat="46.01843" lon="6.90244">
        <ele>1469.03</ele>
        <time>2015-08-02T06:31:16Z</time>
      </trkpt>
      <trkpt lat="46.01843" lon="6.90242">
        <ele>1469.03</ele>
        <time>2015-08-02T06:31:17Z</time>
      </trkpt>
      <trkpt lat="46.01843" lon="6.90238">
        <ele>1469.51</ele>
        <time>2015-08-02T06:31:19Z</time>
      </trkpt>
      <trkpt lat="46.01841" lon="6.90222">
        <ele>1472.88</ele>
        <time>2015-08-02T06:31:28Z</time>
      </trkpt>
      <trkpt lat="46.01837" lon="6.90218">
        <ele>1473.36</ele>
        <time>2015-08-02T06:31:31Z</time>
      </trkpt>
      <trkpt lat="46.01835" lon="6.90217">
        <ele>1473.84</ele>
        <time>2015-08-02T06:31:32Z</time>
      </trkpt>
      <trkpt lat="46.01834" lon="6.90217">
        <ele>1473.84</ele>
        <time>2015-08-02T06:31:33Z</time>
      </trkpt>
      <trkpt lat="46.01833" lon="6.90217">
        <ele>1474.32</ele>
        <time>2015-08-02T06:31:34Z</time>
      </trkpt>
      <trkpt lat="46.01831" lon="6.90218">
        <ele>1474.32</ele>
        <time>2015-08-02T06:31:35Z</time>
      </trkpt>
      <trkpt lat="46.0183" lon="6.90217">
        <ele>1475.28</ele>
        <time>2015-08-02T06:31:36Z</time>
      </trkpt>
      <trkpt lat="46.01829" lon="6.90217">
        <ele>1474.8</ele>
        <time>2015-08-02T06:31:37Z</time>
      </trkpt>
      <trkpt lat="46.01827" lon="6.90217">
        <ele>1475.76</ele>
        <time>2015-08-02T06:31:38Z</time>
      </trkpt>
      <trkpt lat="46.01826" lon="6.90216">
        <ele>1475.76</ele>
        <time>2015-08-02T06:31:39Z</time>
      </trkpt>
      <trkpt lat="46.01824" lon="6.90215">
        <ele>1475.76</ele>
        <time>2015-08-02T06:31:40Z</time>
      </trkpt>
      <trkpt lat="46.01824" lon="6.90213">
        <ele>1475.76</ele>
        <time>2015-08-02T06:31:41Z</time>
      </trkpt>
      <trkpt lat="46.01824" lon="6.9021">
        <ele>1476.24</ele>
        <time>2015-08-02T06:31:42Z</time>
      </trkpt>
      <trkpt lat="46.01824" lon="6.90207">
        <ele>1476.24</ele>
        <time>2015-08-02T06:31:43Z</time>
      </trkpt>
      <trkpt lat="46.01822" lon="6.902">
        <ele>1477.2</ele>
        <time>2015-08-02T06:31:46Z</time>
      </trkpt>
      <trkpt lat="46.01821" lon="6.90198">
        <ele>1477.2</ele>
        <time>2015-08-02T06:31:47Z</time>
      </trkpt>
      <trkpt lat="46.01821" lon="6.90196">
        <ele>1477.68</ele>
        <time>2015-08-02T06:31:48Z</time>
      </trkpt>
      <trkpt lat="46.01808" lon="6.90176">
        <ele>1481.05</ele>
        <time>2015-08-02T06:31:58Z</time>
      </trkpt>
      <trkpt lat="46.01805" lon="6.9017">
        <ele>1481.53</ele>
        <time>2015-08-02T06:32:01Z</time>
      </trkpt>
      <trkpt lat="46.01805" lon="6.90167">
        <ele>1482.01</ele>
        <time>2015-08-02T06:32:02Z</time>
      </trkpt>
      <trkpt lat="46.01804" lon="6.90165">
        <ele>1482.49</ele>
        <time>2015-08-02T06:32:03Z</time>
      </trkpt>
      <trkpt lat="46.018" lon="6.90149">
        <ele>1485.37</ele>
        <time>2015-08-02T06:32:12Z</time>
      </trkpt>
      <trkpt lat="46.01796" lon="6.90137">
        <ele>1486.82</ele>
        <time>2015-08-02T06:32:20Z</time>
      </trkpt>
      <trkpt lat="46.0179" lon="6.90132">
        <ele>1487.3</ele>
        <time>2015-08-02T06:32:24Z</time>
      </trkpt>
      <trkpt lat="46.01788" lon="6.9013">
        <ele>1487.3</ele>
        <time>2015-08-02T06:32:25Z</time>
      </trkpt>
      <trkpt lat="46.01787" lon="6.90129">
        <ele>1487.78</ele>
        <time>2015-08-02T06:32:26Z</time>
      </trkpt>
      <trkpt lat="46.01785" lon="6.90127">
        <ele>1487.78</ele>
        <time>2015-08-02T06:32:27Z</time>
      </trkpt>
      <trkpt lat="46.01784" lon="6.90125">
        <ele>1487.78</ele>
        <time>2015-08-02T06:32:28Z</time>
      </trkpt>
      <trkpt lat="46.01781" lon="6.90123">
        <ele>1487.78</ele>
        <time>2015-08-02T06:32:29Z</time>
      </trkpt>
      <trkpt lat="46.01771" lon="6.90101">
        <ele>1488.26</ele>
        <time>2015-08-02T06:32:40Z</time>
      </trkpt>
      <trkpt lat="46.01771" lon="6.90096">
        <ele>1488.26</ele>
        <time>2015-08-02T06:32:44Z</time>
      </trkpt>
      <trkpt lat="46.01772" lon="6.90084">
        <ele>1488.74</ele>
        <time>2015-08-02T06:32:52Z</time>
      </trkpt>
      <trkpt lat="46.01773" lon="6.90083">
        <ele>1488.74</ele>
        <time>2015-08-02T06:32:53Z</time>
      </trkpt>
      <trkpt lat="46.01773" lon="6.90081">
        <ele>1489.22</ele>
        <time>2015-08-02T06:32:54Z</time>
      </trkpt>
      <trkpt lat="46.01774" lon="6.9008">
        <ele>1489.7</ele>
        <time>2015-08-02T06:32:55Z</time>
      </trkpt>
      <trkpt lat="46.01774" lon="6.90078">
        <ele>1489.7</ele>
        <time>2015-08-02T06:32:56Z</time>
      </trkpt>
      <trkpt lat="46.01775" lon="6.90077">
        <ele>1489.7</ele>
        <time>2015-08-02T06:32:57Z</time>
      </trkpt>
      <trkpt lat="46.01775" lon="6.90075">
        <ele>1490.18</ele>
        <time>2015-08-02T06:32:58Z</time>
      </trkpt>
      <trkpt lat="46.01775" lon="6.90074">
        <ele>1490.18</ele>
        <time>2015-08-02T06:32:59Z</time>
      </trkpt>
      <trkpt lat="46.01775" lon="6.90072">
        <ele>1490.66</ele>
        <time>2015-08-02T06:33:00Z</time>
      </trkpt>
      <trkpt lat="46.01774" lon="6.9007">
        <ele>1491.14</ele>
        <time>2015-08-02T06:33:01Z</time>
      </trkpt>
      <trkpt lat="46.01774" lon="6.90069">
        <ele>1491.14</ele>
        <time>2015-08-02T06:33:02Z</time>
      </trkpt>
      <trkpt lat="46.01773" lon="6.90056">
        <ele>1493.55</ele>
        <time>2015-08-02T06:33:11Z</time>
      </trkpt>
      <trkpt lat="46.01773" lon="6.90054">
        <ele>1493.55</ele>
        <time>2015-08-02T06:33:12Z</time>
      </trkpt>
      <trkpt lat="46.01773" lon="6.90052">
        <ele>1494.03</ele>
        <time>2015-08-02T06:33:13Z</time>
      </trkpt>
      <trkpt lat="46.01774" lon="6.90043">
        <ele>1495.47</ele>
        <time>2015-08-02T06:33:17Z</time>
      </trkpt>
      <trkpt lat="46.01775" lon="6.90042">
        <ele>1495.47</ele>
        <time>2015-08-02T06:33:18Z</time>
      </trkpt>
      <trkpt lat="46.01776" lon="6.90038">
        <ele>1495.95</ele>
        <time>2015-08-02T06:33:21Z</time>
      </trkpt>
      <trkpt lat="46.01776" lon="6.90023">
        <ele>1497.39</ele>
        <time>2015-08-02T06:33:28Z</time>
      </trkpt>
      <trkpt lat="46.01775" lon="6.90021">
        <ele>1497.39</ele>
        <time>2015-08-02T06:33:29Z</time>
      </trkpt>
      <trkpt lat="46.01775" lon="6.90019">
        <ele>1497.39</ele>
        <time>2015-08-02T06:33:30Z</time>
      </trkpt>
      <trkpt lat="46.01774" lon="6.90017">
        <ele>1498.35</ele>
        <time>2015-08-02T06:33:31Z</time>
      </trkpt>
      <trkpt lat="46.01774" lon="6.90015">
        <ele>1498.35</ele>
        <time>2015-08-02T06:33:32Z</time>
      </trkpt>
      <trkpt lat="46.01773" lon="6.90013">
        <ele>1498.35</ele>
        <time>2015-08-02T06:33:33Z</time>
      </trkpt>
      <trkpt lat="46.01773" lon="6.90011">
        <ele>1498.83</ele>
        <time>2015-08-02T06:33:34Z</time>
      </trkpt>
      <trkpt lat="46.01773" lon="6.90009">
        <ele>1498.83</ele>
        <time>2015-08-02T06:33:35Z</time>
      </trkpt>
      <trkpt lat="46.01772" lon="6.90007">
        <ele>1498.83</ele>
        <time>2015-08-02T06:33:36Z</time>
      </trkpt>
      <trkpt lat="46.01765" lon="6.89983">
        <ele>1502.2</ele>
        <time>2015-08-02T06:33:50Z</time>
      </trkpt>
      <trkpt lat="46.01764" lon="6.89982">
        <ele>1502.2</ele>
        <time>2015-08-02T06:33:51Z</time>
      </trkpt>
      <trkpt lat="46.01762" lon="6.89975">
        <ele>1503.64</ele>
        <time>2015-08-02T06:33:56Z</time>
      </trkpt>
      <trkpt lat="46.01758" lon="6.8995">
        <ele>1507</ele>
        <time>2015-08-02T06:34:10Z</time>
      </trkpt>
      <trkpt lat="46.01754" lon="6.89925">
        <ele>1509.41</ele>
        <time>2015-08-02T06:34:24Z</time>
      </trkpt>
      <trkpt lat="46.01753" lon="6.89918">
        <ele>1509.89</ele>
        <time>2015-08-02T06:34:28Z</time>
      </trkpt>
      <trkpt lat="46.01752" lon="6.89917">
        <ele>1510.37</ele>
        <time>2015-08-02T06:34:29Z</time>
      </trkpt>
      <trkpt lat="46.01751" lon="6.89915">
        <ele>1510.37</ele>
        <time>2015-08-02T06:34:30Z</time>
      </trkpt>
      <trkpt lat="46.0175" lon="6.89913">
        <ele>1510.85</ele>
        <time>2015-08-02T06:34:31Z</time>
      </trkpt>
      <trkpt lat="46.01749" lon="6.89912">
        <ele>1510.85</ele>
        <time>2015-08-02T06:34:32Z</time>
      </trkpt>
      <trkpt lat="46.01749" lon="6.8991">
        <ele>1510.85</ele>
        <time>2015-08-02T06:34:33Z</time>
      </trkpt>
      <trkpt lat="46.01747" lon="6.89907">
        <ele>1511.33</ele>
        <time>2015-08-02T06:34:35Z</time>
      </trkpt>
      <trkpt lat="46.01746" lon="6.89905">
        <ele>1511.33</ele>
        <time>2015-08-02T06:34:36Z</time>
      </trkpt>
      <trkpt lat="46.01744" lon="6.89904">
        <ele>1511.33</ele>
        <time>2015-08-02T06:34:37Z</time>
      </trkpt>
      <trkpt lat="46.01737" lon="6.89897">
        <ele>1513.73</ele>
        <time>2015-08-02T06:34:45Z</time>
      </trkpt>
      <trkpt lat="46.01727" lon="6.89886">
        <ele>1516.62</ele>
        <time>2015-08-02T06:34:56Z</time>
      </trkpt>
      <trkpt lat="46.01721" lon="6.89879">
        <ele>1519.02</ele>
        <time>2015-08-02T06:35:03Z</time>
      </trkpt>
      <trkpt lat="46.01719" lon="6.89878">
        <ele>1519.98</ele>
        <time>2015-08-02T06:35:04Z</time>
      </trkpt>
      <trkpt lat="46.01713" lon="6.89869">
        <ele>1522.39</ele>
        <time>2015-08-02T06:35:15Z</time>
      </trkpt>
      <trkpt lat="46.0171" lon="6.89864">
        <ele>1523.83</ele>
        <time>2015-08-02T06:35:19Z</time>
      </trkpt>
      <trkpt lat="46.01709" lon="6.89863">
        <ele>1524.31</ele>
        <time>2015-08-02T06:35:20Z</time>
      </trkpt>
      <trkpt lat="46.01694" lon="6.89855">
        <ele>1525.75</ele>
        <time>2015-08-02T06:35:31Z</time>
      </trkpt>
      <trkpt lat="46.01693" lon="6.89854">
        <ele>1525.75</ele>
        <time>2015-08-02T06:35:32Z</time>
      </trkpt>
      <trkpt lat="46.01682" lon="6.89838">
        <ele>1529.11</ele>
        <time>2015-08-02T06:35:43Z</time>
      </trkpt>
      <trkpt lat="46.01673" lon="6.89831">
        <ele>1532</ele>
        <time>2015-08-02T06:35:53Z</time>
      </trkpt>
      <trkpt lat="46.01671" lon="6.89827">
        <ele>1532.48</ele>
        <time>2015-08-02T06:35:56Z</time>
      </trkpt>
      <trkpt lat="46.01665" lon="6.89821">
        <ele>1533.92</ele>
        <time>2015-08-02T06:36:04Z</time>
      </trkpt>
      <trkpt lat="46.01663" lon="6.8982">
        <ele>1533.92</ele>
        <time>2015-08-02T06:36:05Z</time>
      </trkpt>
      <trkpt lat="46.01661" lon="6.89819">
        <ele>1534.4</ele>
        <time>2015-08-02T06:36:06Z</time>
      </trkpt>
      <trkpt lat="46.0166" lon="6.89817">
        <ele>1534.4</ele>
        <time>2015-08-02T06:36:07Z</time>
      </trkpt>
      <trkpt lat="46.01658" lon="6.89816">
        <ele>1534.4</ele>
        <time>2015-08-02T06:36:08Z</time>
      </trkpt>
      <trkpt lat="46.01656" lon="6.89814">
        <ele>1535.36</ele>
        <time>2015-08-02T06:36:09Z</time>
      </trkpt>
      <trkpt lat="46.01655" lon="6.89812">
        <ele>1535.36</ele>
        <time>2015-08-02T06:36:10Z</time>
      </trkpt>
      <trkpt lat="46.01652" lon="6.89801">
        <ele>1537.77</ele>
        <time>2015-08-02T06:36:19Z</time>
      </trkpt>
      <trkpt lat="46.01652" lon="6.89799">
        <ele>1537.77</ele>
        <time>2015-08-02T06:36:20Z</time>
      </trkpt>
      <trkpt lat="46.01651" lon="6.89798">
        <ele>1538.25</ele>
        <time>2015-08-02T06:36:21Z</time>
      </trkpt>
      <trkpt lat="46.0164" lon="6.89781">
        <ele>1541.13</ele>
        <time>2015-08-02T06:36:32Z</time>
      </trkpt>
      <trkpt lat="46.0164" lon="6.89779">
        <ele>1541.61</ele>
        <time>2015-08-02T06:36:33Z</time>
      </trkpt>
      <trkpt lat="46.01635" lon="6.89774">
        <ele>1544.01</ele>
        <time>2015-08-02T06:36:39Z</time>
      </trkpt>
      <trkpt lat="46.01635" lon="6.89772">
        <ele>1544.01</ele>
        <time>2015-08-02T06:36:40Z</time>
      </trkpt>
      <trkpt lat="46.01631" lon="6.89762">
        <ele>1546.9</ele>
        <time>2015-08-02T06:36:49Z</time>
      </trkpt>
      <trkpt lat="46.01629" lon="6.89755">
        <ele>1548.82</ele>
        <time>2015-08-02T06:36:55Z</time>
      </trkpt>
      <trkpt lat="46.01623" lon="6.89743">
        <ele>1551.71</ele>
        <time>2015-08-02T06:37:06Z</time>
      </trkpt>
      <trkpt lat="46.01618" lon="6.8973">
        <ele>1554.59</ele>
        <time>2015-08-02T06:37:16Z</time>
      </trkpt>
      <trkpt lat="46.01614" lon="6.89719">
        <ele>1557.47</ele>
        <time>2015-08-02T06:37:28Z</time>
      </trkpt>
      <trkpt lat="46.01612" lon="6.89711">
        <ele>1560.36</ele>
        <time>2015-08-02T06:37:38Z</time>
      </trkpt>
      <trkpt lat="46.01606" lon="6.89701">
        <ele>1563.72</ele>
        <time>2015-08-02T06:37:49Z</time>
      </trkpt>
      <trkpt lat="46.01604" lon="6.89691">
        <ele>1565.16</ele>
        <time>2015-08-02T06:37:54Z</time>
      </trkpt>
      <trkpt lat="46.01599" lon="6.8968">
        <ele>1568.53</ele>
        <time>2015-08-02T06:38:04Z</time>
      </trkpt>
      <trkpt lat="46.01595" lon="6.89671">
        <ele>1570.93</ele>
        <time>2015-08-02T06:38:14Z</time>
      </trkpt>
      <trkpt lat="46.01593" lon="6.89668">
        <ele>1571.41</ele>
        <time>2015-08-02T06:38:16Z</time>
      </trkpt>
      <trkpt lat="46.0159" lon="6.89659">
        <ele>1571.89</ele>
        <time>2015-08-02T06:38:23Z</time>
      </trkpt>
      <trkpt lat="46.01586" lon="6.89655">
        <ele>1572.85</ele>
        <time>2015-08-02T06:38:28Z</time>
      </trkpt>
      <trkpt lat="46.01585" lon="6.89653">
        <ele>1572.85</ele>
        <time>2015-08-02T06:38:29Z</time>
      </trkpt>
      <trkpt lat="46.01582" lon="6.89649">
        <ele>1572.85</ele>
        <time>2015-08-02T06:38:33Z</time>
      </trkpt>
      <trkpt lat="46.01575" lon="6.89639">
        <ele>1574.78</ele>
        <time>2015-08-02T06:38:43Z</time>
      </trkpt>
      <trkpt lat="46.01572" lon="6.89634">
        <ele>1576.22</ele>
        <time>2015-08-02T06:38:47Z</time>
      </trkpt>
      <trkpt lat="46.01568" lon="6.89628">
        <ele>1577.66</ele>
        <time>2015-08-02T06:38:54Z</time>
      </trkpt>
      <trkpt lat="46.01562" lon="6.89617">
        <ele>1580.54</ele>
        <time>2015-08-02T06:39:03Z</time>
      </trkpt>
      <trkpt lat="46.01561" lon="6.89616">
        <ele>1580.54</ele>
        <time>2015-08-02T06:39:04Z</time>
      </trkpt>
      <trkpt lat="46.01558" lon="6.89612">
        <ele>1581.03</ele>
        <time>2015-08-02T06:39:07Z</time>
      </trkpt>
      <trkpt lat="46.01556" lon="6.89609">
        <ele>1581.51</ele>
        <time>2015-08-02T06:39:11Z</time>
      </trkpt>
      <trkpt lat="46.01555" lon="6.89607">
        <ele>1581.99</ele>
        <time>2015-08-02T06:39:12Z</time>
      </trkpt>
      <trkpt lat="46.01548" lon="6.89596">
        <ele>1583.91</ele>
        <time>2015-08-02T06:39:21Z</time>
      </trkpt>
      <trkpt lat="46.01547" lon="6.89594">
        <ele>1583.91</ele>
        <time>2015-08-02T06:39:22Z</time>
      </trkpt>
      <trkpt lat="46.01546" lon="6.89593">
        <ele>1584.39</ele>
        <time>2015-08-02T06:39:23Z</time>
      </trkpt>
      <trkpt lat="46.01545" lon="6.89591">
        <ele>1584.39</ele>
        <time>2015-08-02T06:39:24Z</time>
      </trkpt>
      <trkpt lat="46.01543" lon="6.89586">
        <ele>1585.83</ele>
        <time>2015-08-02T06:39:27Z</time>
      </trkpt>
      <trkpt lat="46.01542" lon="6.89585">
        <ele>1586.31</ele>
        <time>2015-08-02T06:39:28Z</time>
      </trkpt>
      <trkpt lat="46.01539" lon="6.89583">
        <ele>1587.27</ele>
        <time>2015-08-02T06:39:31Z</time>
      </trkpt>
      <trkpt lat="46.01539" lon="6.89583">
        <ele>1587.75</ele>
        <time>2015-08-02T06:39:32Z</time>
      </trkpt>
      <trkpt lat="46.01542" lon="6.89582">
        <ele>1589.2</ele>
        <time>2015-08-02T06:39:36Z</time>
      </trkpt>
      <trkpt lat="46.01542" lon="6.8958">
        <ele>1589.68</ele>
        <time>2015-08-02T06:39:38Z</time>
      </trkpt>
      <trkpt lat="46.01537" lon="6.89574">
        <ele>1592.08</ele>
        <time>2015-08-02T06:39:45Z</time>
      </trkpt>
      <trkpt lat="46.01536" lon="6.8957">
        <ele>1593.04</ele>
        <time>2015-08-02T06:39:48Z</time>
      </trkpt>
      <trkpt lat="46.01533" lon="6.89565">
        <ele>1594.48</ele>
        <time>2015-08-02T06:39:53Z</time>
      </trkpt>
      <trkpt lat="46.01529" lon="6.89562">
        <ele>1595.45</ele>
        <time>2015-08-02T06:39:57Z</time>
      </trkpt>
      <trkpt lat="46.01523" lon="6.89549">
        <ele>1598.33</ele>
        <time>2015-08-02T06:40:08Z</time>
      </trkpt>
      <trkpt lat="46.01519" lon="6.89537">
        <ele>1600.73</ele>
        <time>2015-08-02T06:40:17Z</time>
      </trkpt>
      <trkpt lat="46.01518" lon="6.89533">
        <ele>1602.66</ele>
        <time>2015-08-02T06:40:22Z</time>
      </trkpt>
      <trkpt lat="46.01521" lon="6.89535">
        <ele>1603.62</ele>
        <time>2015-08-02T06:40:27Z</time>
      </trkpt>
      <trkpt lat="46.01523" lon="6.89534">
        <ele>1604.58</ele>
        <time>2015-08-02T06:40:30Z</time>
      </trkpt>
      <trkpt lat="46.01532" lon="6.89539">
        <ele>1606.98</ele>
        <time>2015-08-02T06:40:43Z</time>
      </trkpt>
      <trkpt lat="46.01533" lon="6.89538">
        <ele>1607.46</ele>
        <time>2015-08-02T06:40:45Z</time>
      </trkpt>
      <trkpt lat="46.01539" lon="6.89539">
        <ele>1610.83</ele>
        <time>2015-08-02T06:40:54Z</time>
      </trkpt>
      <trkpt lat="46.01545" lon="6.89532">
        <ele>1613.71</ele>
        <time>2015-08-02T06:41:08Z</time>
      </trkpt>
      <trkpt lat="46.01541" lon="6.89526">
        <ele>1614.67</ele>
        <time>2015-08-02T06:41:22Z</time>
      </trkpt>
      <trkpt lat="46.01535" lon="6.89512">
        <ele>1617.56</ele>
        <time>2015-08-02T06:41:34Z</time>
      </trkpt>
      <trkpt lat="46.01534" lon="6.89504">
        <ele>1619.48</ele>
        <time>2015-08-02T06:41:43Z</time>
      </trkpt>
      <trkpt lat="46.0153" lon="6.89499">
        <ele>1620.92</ele>
        <time>2015-08-02T06:41:48Z</time>
      </trkpt>
      <trkpt lat="46.01524" lon="6.8949">
        <ele>1622.36</ele>
        <time>2015-08-02T06:41:55Z</time>
      </trkpt>
      <trkpt lat="46.01521" lon="6.89483">
        <ele>1623.32</ele>
        <time>2015-08-02T06:41:59Z</time>
      </trkpt>
      <trkpt lat="46.0152" lon="6.89475">
        <ele>1624.28</ele>
        <time>2015-08-02T06:42:04Z</time>
      </trkpt>
      <trkpt lat="46.01513" lon="6.89453">
        <ele>1626.69</ele>
        <time>2015-08-02T06:42:18Z</time>
      </trkpt>
      <trkpt lat="46.01509" lon="6.89439">
        <ele>1629.57</ele>
        <time>2015-08-02T06:42:28Z</time>
      </trkpt>
      <trkpt lat="46.01503" lon="6.89431">
        <ele>1630.53</ele>
        <time>2015-08-02T06:42:37Z</time>
      </trkpt>
      <trkpt lat="46.015" lon="6.89427">
        <ele>1629.09</ele>
        <time>2015-08-02T06:42:41Z</time>
      </trkpt>
      <trkpt lat="46.01495" lon="6.89418">
        <ele>1629.57</ele>
        <time>2015-08-02T06:42:54Z</time>
      </trkpt>
      <trkpt lat="46.01492" lon="6.89401">
        <ele>1630.05</ele>
        <time>2015-08-02T06:43:07Z</time>
      </trkpt>
      <trkpt lat="46.01489" lon="6.89387">
        <ele>1630.05</ele>
        <time>2015-08-02T06:43:14Z</time>
      </trkpt>
      <trkpt lat="46.01483" lon="6.8935">
        <ele>1630.53</ele>
        <time>2015-08-02T06:43:28Z</time>
      </trkpt>
      <trkpt lat="46.01482" lon="6.8934">
        <ele>1631.49</ele>
        <time>2015-08-02T06:43:31Z</time>
      </trkpt>
      <trkpt lat="46.01482" lon="6.89328">
        <ele>1631.98</ele>
        <time>2015-08-02T06:43:36Z</time>
      </trkpt>
      <trkpt lat="46.01481" lon="6.89326">
        <ele>1631.98</ele>
        <time>2015-08-02T06:43:37Z</time>
      </trkpt>
      <trkpt lat="46.01481" lon="6.89324">
        <ele>1631.98</ele>
        <time>2015-08-02T06:43:38Z</time>
      </trkpt>
      <trkpt lat="46.0148" lon="6.89321">
        <ele>1631.98</ele>
        <time>2015-08-02T06:43:39Z</time>
      </trkpt>
      <trkpt lat="46.0148" lon="6.89318">
        <ele>1631.98</ele>
        <time>2015-08-02T06:43:40Z</time>
      </trkpt>
      <trkpt lat="46.0148" lon="6.89315">
        <ele>1631.98</ele>
        <time>2015-08-02T06:43:41Z</time>
      </trkpt>
      <trkpt lat="46.0148" lon="6.89312">
        <ele>1632.46</ele>
        <time>2015-08-02T06:43:42Z</time>
      </trkpt>
      <trkpt lat="46.0148" lon="6.89309">
        <ele>1632.46</ele>
        <time>2015-08-02T06:43:43Z</time>
      </trkpt>
      <trkpt lat="46.0148" lon="6.89306">
        <ele>1632.46</ele>
        <time>2015-08-02T06:43:44Z</time>
      </trkpt>
      <trkpt lat="46.0148" lon="6.89303">
        <ele>1632.94</ele>
        <time>2015-08-02T06:43:45Z</time>
      </trkpt>
      <trkpt lat="46.01479" lon="6.893">
        <ele>1632.94</ele>
        <time>2015-08-02T06:43:46Z</time>
      </trkpt>
      <trkpt lat="46.01478" lon="6.89298">
        <ele>1633.42</ele>
        <time>2015-08-02T06:43:47Z</time>
      </trkpt>
      <trkpt lat="46.01477" lon="6.89295">
        <ele>1633.9</ele>
        <time>2015-08-02T06:43:48Z</time>
      </trkpt>
      <trkpt lat="46.01476" lon="6.89293">
        <ele>1633.9</ele>
        <time>2015-08-02T06:43:49Z</time>
      </trkpt>
      <trkpt lat="46.01474" lon="6.89291">
        <ele>1633.9</ele>
        <time>2015-08-02T06:43:50Z</time>
      </trkpt>
      <trkpt lat="46.01474" lon="6.89288">
        <ele>1634.38</ele>
        <time>2015-08-02T06:43:51Z</time>
      </trkpt>
      <trkpt lat="46.01473" lon="6.89285">
        <ele>1634.38</ele>
        <time>2015-08-02T06:43:52Z</time>
      </trkpt>
      <trkpt lat="46.01472" lon="6.89282">
        <ele>1634.38</ele>
        <time>2015-08-02T06:43:53Z</time>
      </trkpt>
      <trkpt lat="46.01472" lon="6.8928">
        <ele>1634.38</ele>
        <time>2015-08-02T06:43:54Z</time>
      </trkpt>
      <trkpt lat="46.01472" lon="6.89277">
        <ele>1634.38</ele>
        <time>2015-08-02T06:43:55Z</time>
      </trkpt>
      <trkpt lat="46.01471" lon="6.89274">
        <ele>1634.38</ele>
        <time>2015-08-02T06:43:56Z</time>
      </trkpt>
      <trkpt lat="46.0147" lon="6.89272">
        <ele>1634.38</ele>
        <time>2015-08-02T06:43:57Z</time>
      </trkpt>
      <trkpt lat="46.01468" lon="6.8927">
        <ele>1634.38</ele>
        <time>2015-08-02T06:43:58Z</time>
      </trkpt>
      <trkpt lat="46.01466" lon="6.89269">
        <ele>1634.38</ele>
        <time>2015-08-02T06:43:59Z</time>
      </trkpt>
      <trkpt lat="46.01464" lon="6.89266">
        <ele>1634.38</ele>
        <time>2015-08-02T06:44:00Z</time>
      </trkpt>
      <trkpt lat="46.01462" lon="6.89263">
        <ele>1634.38</ele>
        <time>2015-08-02T06:44:01Z</time>
      </trkpt>
      <trkpt lat="46.01444" lon="6.89231">
        <ele>1634.86</ele>
        <time>2015-08-02T06:44:14Z</time>
      </trkpt>
      <trkpt lat="46.0144" lon="6.89219">
        <ele>1635.34</ele>
        <time>2015-08-02T06:44:19Z</time>
      </trkpt>
      <trkpt lat="46.01438" lon="6.89219">
        <ele>1635.82</ele>
        <time>2015-08-02T06:44:20Z</time>
      </trkpt>
      <trkpt lat="46.01437" lon="6.89218">
        <ele>1635.82</ele>
        <time>2015-08-02T06:44:21Z</time>
      </trkpt>
      <trkpt lat="46.01435" lon="6.89216">
        <ele>1636.78</ele>
        <time>2015-08-02T06:44:22Z</time>
      </trkpt>
      <trkpt lat="46.01434" lon="6.89214">
        <ele>1636.78</ele>
        <time>2015-08-02T06:44:23Z</time>
      </trkpt>
      <trkpt lat="46.01423" lon="6.89203">
        <ele>1637.26</ele>
        <time>2015-08-02T06:44:30Z</time>
      </trkpt>
      <trkpt lat="46.01422" lon="6.89201">
        <ele>1637.26</ele>
        <time>2015-08-02T06:44:31Z</time>
      </trkpt>
      <trkpt lat="46.01422" lon="6.89198">
        <ele>1637.26</ele>
        <time>2015-08-02T06:44:32Z</time>
      </trkpt>
      <trkpt lat="46.01406" lon="6.8917">
        <ele>1637.74</ele>
        <time>2015-08-02T06:44:44Z</time>
      </trkpt>
      <trkpt lat="46.01389" lon="6.89138">
        <ele>1638.7</ele>
        <time>2015-08-02T06:44:58Z</time>
      </trkpt>
      <trkpt lat="46.01386" lon="6.89108">
        <ele>1641.59</ele>
        <time>2015-08-02T06:45:09Z</time>
      </trkpt>
      <trkpt lat="46.0138" lon="6.89084">
        <ele>1643.51</ele>
        <time>2015-08-02T06:45:19Z</time>
      </trkpt>
      <trkpt lat="46.01379" lon="6.8908">
        <ele>1643.51</ele>
        <time>2015-08-02T06:45:20Z</time>
      </trkpt>
      <trkpt lat="46.01379" lon="6.89077">
        <ele>1643.51</ele>
        <time>2015-08-02T06:45:21Z</time>
      </trkpt>
      <trkpt lat="46.01379" lon="6.89074">
        <ele>1643.51</ele>
        <time>2015-08-02T06:45:22Z</time>
      </trkpt>
      <trkpt lat="46.01379" lon="6.89071">
        <ele>1643.51</ele>
        <time>2015-08-02T06:45:23Z</time>
      </trkpt>
      <trkpt lat="46.01379" lon="6.89068">
        <ele>1643.51</ele>
        <time>2015-08-02T06:45:24Z</time>
      </trkpt>
      <trkpt lat="46.01379" lon="6.89064">
        <ele>1643.51</ele>
        <time>2015-08-02T06:45:25Z</time>
      </trkpt>
      <trkpt lat="46.01374" lon="6.89038">
        <ele>1643.51</ele>
        <time>2015-08-02T06:45:33Z</time>
      </trkpt>
      <trkpt lat="46.01373" lon="6.89036">
        <ele>1643.51</ele>
        <time>2015-08-02T06:45:34Z</time>
      </trkpt>
      <trkpt lat="46.01372" lon="6.89033">
        <ele>1643.51</ele>
        <time>2015-08-02T06:45:35Z</time>
      </trkpt>
      <trkpt lat="46.01371" lon="6.8903">
        <ele>1643.51</ele>
        <time>2015-08-02T06:45:36Z</time>
      </trkpt>
      <trkpt lat="46.0137" lon="6.89027">
        <ele>1643.51</ele>
        <time>2015-08-02T06:45:37Z</time>
      </trkpt>
      <trkpt lat="46.01369" lon="6.89024">
        <ele>1643.51</ele>
        <time>2015-08-02T06:45:38Z</time>
      </trkpt>
      <trkpt lat="46.01369" lon="6.8902">
        <ele>1643.51</ele>
        <time>2015-08-02T06:45:39Z</time>
      </trkpt>
      <trkpt lat="46.01368" lon="6.89018">
        <ele>1643.51</ele>
        <time>2015-08-02T06:45:40Z</time>
      </trkpt>
      <trkpt lat="46.01367" lon="6.89015">
        <ele>1643.51</ele>
        <time>2015-08-02T06:45:41Z</time>
      </trkpt>
      <trkpt lat="46.01366" lon="6.89012">
        <ele>1643.51</ele>
        <time>2015-08-02T06:45:42Z</time>
      </trkpt>
      <trkpt lat="46.01365" lon="6.89009">
        <ele>1643.51</ele>
        <time>2015-08-02T06:45:43Z</time>
      </trkpt>
      <trkpt lat="46.01348" lon="6.88972">
        <ele>1644.95</ele>
        <time>2015-08-02T06:45:57Z</time>
      </trkpt>
      <trkpt lat="46.01338" lon="6.88956">
        <ele>1645.43</ele>
        <time>2015-08-02T06:46:04Z</time>
      </trkpt>
      <trkpt lat="46.01337" lon="6.88953">
        <ele>1645.43</ele>
        <time>2015-08-02T06:46:05Z</time>
      </trkpt>
      <trkpt lat="46.01335" lon="6.88951">
        <ele>1645.91</ele>
        <time>2015-08-02T06:46:06Z</time>
      </trkpt>
      <trkpt lat="46.01332" lon="6.88947">
        <ele>1645.91</ele>
        <time>2015-08-02T06:46:08Z</time>
      </trkpt>
      <trkpt lat="46.01331" lon="6.88945">
        <ele>1645.91</ele>
        <time>2015-08-02T06:46:09Z</time>
      </trkpt>
      <trkpt lat="46.0133" lon="6.88942">
        <ele>1645.91</ele>
        <time>2015-08-02T06:46:10Z</time>
      </trkpt>
      <trkpt lat="46.01328" lon="6.88941">
        <ele>1645.91</ele>
        <time>2015-08-02T06:46:11Z</time>
      </trkpt>
      <trkpt lat="46.01326" lon="6.8894">
        <ele>1646.4</ele>
        <time>2015-08-02T06:46:12Z</time>
      </trkpt>
      <trkpt lat="46.01324" lon="6.88939">
        <ele>1646.4</ele>
        <time>2015-08-02T06:46:13Z</time>
      </trkpt>
      <trkpt lat="46.01322" lon="6.88936">
        <ele>1646.4</ele>
        <time>2015-08-02T06:46:14Z</time>
      </trkpt>
      <trkpt lat="46.0132" lon="6.88935">
        <ele>1646.4</ele>
        <time>2015-08-02T06:46:15Z</time>
      </trkpt>
      <trkpt lat="46.01319" lon="6.88933">
        <ele>1646.4</ele>
        <time>2015-08-02T06:46:16Z</time>
      </trkpt>
      <trkpt lat="46.01317" lon="6.88931">
        <ele>1646.88</ele>
        <time>2015-08-02T06:46:17Z</time>
      </trkpt>
      <trkpt lat="46.01316" lon="6.88929">
        <ele>1646.88</ele>
        <time>2015-08-02T06:46:18Z</time>
      </trkpt>
      <trkpt lat="46.01315" lon="6.88927">
        <ele>1646.88</ele>
        <time>2015-08-02T06:46:19Z</time>
      </trkpt>
      <trkpt lat="46.01307" lon="6.88896">
        <ele>1648.32</ele>
        <time>2015-08-02T06:46:30Z</time>
      </trkpt>
      <trkpt lat="46.01306" lon="6.88893">
        <ele>1648.8</ele>
        <time>2015-08-02T06:46:31Z</time>
      </trkpt>
      <trkpt lat="46.01305" lon="6.88891">
        <ele>1648.8</ele>
        <time>2015-08-02T06:46:32Z</time>
      </trkpt>
      <trkpt lat="46.01303" lon="6.88889">
        <ele>1649.28</ele>
        <time>2015-08-02T06:46:33Z</time>
      </trkpt>
      <trkpt lat="46.013" lon="6.88887">
        <ele>1649.28</ele>
        <time>2015-08-02T06:46:34Z</time>
      </trkpt>
      <trkpt lat="46.01298" lon="6.88885">
        <ele>1649.28</ele>
        <time>2015-08-02T06:46:35Z</time>
      </trkpt>
      <trkpt lat="46.01297" lon="6.88883">
        <ele>1649.28</ele>
        <time>2015-08-02T06:46:36Z</time>
      </trkpt>
      <trkpt lat="46.01295" lon="6.88882">
        <ele>1649.28</ele>
        <time>2015-08-02T06:46:37Z</time>
      </trkpt>
      <trkpt lat="46.01293" lon="6.88881">
        <ele>1649.28</ele>
        <time>2015-08-02T06:46:38Z</time>
      </trkpt>
      <trkpt lat="46.01292" lon="6.8888">
        <ele>1649.28</ele>
        <time>2015-08-02T06:46:39Z</time>
      </trkpt>
      <trkpt lat="46.0129" lon="6.88879">
        <ele>1649.76</ele>
        <time>2015-08-02T06:46:40Z</time>
      </trkpt>
      <trkpt lat="46.01288" lon="6.88878">
        <ele>1650.24</ele>
        <time>2015-08-02T06:46:41Z</time>
      </trkpt>
      <trkpt lat="46.01286" lon="6.88877">
        <ele>1650.24</ele>
        <time>2015-08-02T06:46:42Z</time>
      </trkpt>
      <trkpt lat="46.01284" lon="6.88875">
        <ele>1650.24</ele>
        <time>2015-08-02T06:46:43Z</time>
      </trkpt>
      <trkpt lat="46.01283" lon="6.88874">
        <ele>1650.24</ele>
        <time>2015-08-02T06:46:44Z</time>
      </trkpt>
      <trkpt lat="46.01282" lon="6.88871">
        <ele>1650.24</ele>
        <time>2015-08-02T06:46:45Z</time>
      </trkpt>
      <trkpt lat="46.01281" lon="6.88868">
        <ele>1650.24</ele>
        <time>2015-08-02T06:46:46Z</time>
      </trkpt>
      <trkpt lat="46.01279" lon="6.88866">
        <ele>1651.2</ele>
        <time>2015-08-02T06:46:47Z</time>
      </trkpt>
      <trkpt lat="46.01278" lon="6.88865">
        <ele>1651.2</ele>
        <time>2015-08-02T06:46:48Z</time>
      </trkpt>
      <trkpt lat="46.01276" lon="6.88863">
        <ele>1651.2</ele>
        <time>2015-08-02T06:46:49Z</time>
      </trkpt>
      <trkpt lat="46.01274" lon="6.88861">
        <ele>1651.2</ele>
        <time>2015-08-02T06:46:50Z</time>
      </trkpt>
      <trkpt lat="46.01273" lon="6.88859">
        <ele>1651.68</ele>
        <time>2015-08-02T06:46:51Z</time>
      </trkpt>
      <trkpt lat="46.01272" lon="6.88857">
        <ele>1651.68</ele>
        <time>2015-08-02T06:46:52Z</time>
      </trkpt>
      <trkpt lat="46.01271" lon="6.88854">
        <ele>1651.68</ele>
        <time>2015-08-02T06:46:53Z</time>
      </trkpt>
      <trkpt lat="46.01271" lon="6.88852">
        <ele>1651.68</ele>
        <time>2015-08-02T06:46:54Z</time>
      </trkpt>
      <trkpt lat="46.01271" lon="6.8885">
        <ele>1652.64</ele>
        <time>2015-08-02T06:46:55Z</time>
      </trkpt>
      <trkpt lat="46.0127" lon="6.88848">
        <ele>1652.64</ele>
        <time>2015-08-02T06:46:56Z</time>
      </trkpt>
      <trkpt lat="46.01268" lon="6.88846">
        <ele>1653.12</ele>
        <time>2015-08-02T06:46:58Z</time>
      </trkpt>
      <trkpt lat="46.01267" lon="6.88846">
        <ele>1653.6</ele>
        <time>2015-08-02T06:46:59Z</time>
      </trkpt>
      <trkpt lat="46.01263" lon="6.88842">
        <ele>1655.53</ele>
        <time>2015-08-02T06:47:06Z</time>
      </trkpt>
      <trkpt lat="46.01263" lon="6.8884">
        <ele>1655.53</ele>
        <time>2015-08-02T06:47:07Z</time>
      </trkpt>
      <trkpt lat="46.01262" lon="6.88839">
        <ele>1656.01</ele>
        <time>2015-08-02T06:47:08Z</time>
      </trkpt>
      <trkpt lat="46.01262" lon="6.88836">
        <ele>1656.01</ele>
        <time>2015-08-02T06:47:09Z</time>
      </trkpt>
      <trkpt lat="46.01262" lon="6.88834">
        <ele>1656.01</ele>
        <time>2015-08-02T06:47:10Z</time>
      </trkpt>
      <trkpt lat="46.01261" lon="6.88833">
        <ele>1656.01</ele>
        <time>2015-08-02T06:47:11Z</time>
      </trkpt>
      <trkpt lat="46.01261" lon="6.88831">
        <ele>1656.97</ele>
        <time>2015-08-02T06:47:12Z</time>
      </trkpt>
      <trkpt lat="46.01261" lon="6.88828">
        <ele>1657.45</ele>
        <time>2015-08-02T06:47:15Z</time>
      </trkpt>
      <trkpt lat="46.01261" lon="6.88827">
        <ele>1657.45</ele>
        <time>2015-08-02T06:47:16Z</time>
      </trkpt>
      <trkpt lat="46.01262" lon="6.88825">
        <ele>1657.93</ele>
        <time>2015-08-02T06:47:17Z</time>
      </trkpt>
      <trkpt lat="46.01262" lon="6.88823">
        <ele>1657.93</ele>
        <time>2015-08-02T06:47:18Z</time>
      </trkpt>
      <trkpt lat="46.01263" lon="6.88821">
        <ele>1657.93</ele>
        <time>2015-08-02T06:47:19Z</time>
      </trkpt>
      <trkpt lat="46.01264" lon="6.88819">
        <ele>1657.93</ele>
        <time>2015-08-02T06:47:20Z</time>
      </trkpt>
      <trkpt lat="46.01265" lon="6.88795">
        <ele>1661.3</ele>
        <time>2015-08-02T06:47:32Z</time>
      </trkpt>
      <trkpt lat="46.0126" lon="6.88784">
        <ele>1663.22</ele>
        <time>2015-08-02T06:47:40Z</time>
      </trkpt>
      <trkpt lat="46.01259" lon="6.88783">
        <ele>1663.22</ele>
        <time>2015-08-02T06:47:41Z</time>
      </trkpt>
      <trkpt lat="46.01255" lon="6.88776">
        <ele>1664.66</ele>
        <time>2015-08-02T06:47:47Z</time>
      </trkpt>
      <trkpt lat="46.01254" lon="6.88774">
        <ele>1665.62</ele>
        <time>2015-08-02T06:47:48Z</time>
      </trkpt>
      <trkpt lat="46.01254" lon="6.88772">
        <ele>1665.62</ele>
        <time>2015-08-02T06:47:49Z</time>
      </trkpt>
      <trkpt lat="46.01254" lon="6.88771">
        <ele>1665.62</ele>
        <time>2015-08-02T06:47:50Z</time>
      </trkpt>
      <trkpt lat="46.01253" lon="6.88769">
        <ele>1666.1</ele>
        <time>2015-08-02T06:47:51Z</time>
      </trkpt>
      <trkpt lat="46.01252" lon="6.88761">
        <ele>1668.99</ele>
        <time>2015-08-02T06:48:01Z</time>
      </trkpt>
      <trkpt lat="46.01249" lon="6.88754">
        <ele>1670.43</ele>
        <time>2015-08-02T06:48:06Z</time>
      </trkpt>
      <trkpt lat="46.01248" lon="6.88751">
        <ele>1670.91</ele>
        <time>2015-08-02T06:48:08Z</time>
      </trkpt>
      <trkpt lat="46.01247" lon="6.88748">
        <ele>1671.39</ele>
        <time>2015-08-02T06:48:09Z</time>
      </trkpt>
      <trkpt lat="46.01246" lon="6.88746">
        <ele>1671.39</ele>
        <time>2015-08-02T06:48:10Z</time>
      </trkpt>
      <trkpt lat="46.01229" lon="6.88729">
        <ele>1674.27</ele>
        <time>2015-08-02T06:48:23Z</time>
      </trkpt>
      <trkpt lat="46.01217" lon="6.88716">
        <ele>1676.68</ele>
        <time>2015-08-02T06:48:34Z</time>
      </trkpt>
      <trkpt lat="46.01216" lon="6.88713">
        <ele>1677.16</ele>
        <time>2015-08-02T06:48:36Z</time>
      </trkpt>
      <trkpt lat="46.01217" lon="6.88711">
        <ele>1677.64</ele>
        <time>2015-08-02T06:48:39Z</time>
      </trkpt>
      <trkpt lat="46.01222" lon="6.88715">
        <ele>1679.56</ele>
        <time>2015-08-02T06:48:45Z</time>
      </trkpt>
      <trkpt lat="46.01229" lon="6.88716">
        <ele>1680.52</ele>
        <time>2015-08-02T06:48:53Z</time>
      </trkpt>
      <trkpt lat="46.01233" lon="6.88716">
        <ele>1682.44</ele>
        <time>2015-08-02T06:48:59Z</time>
      </trkpt>
      <trkpt lat="46.01236" lon="6.88716">
        <ele>1683.41</ele>
        <time>2015-08-02T06:49:02Z</time>
      </trkpt>
      <trkpt lat="46.01237" lon="6.88715">
        <ele>1682.93</ele>
        <time>2015-08-02T06:49:03Z</time>
      </trkpt>
      <trkpt lat="46.0124" lon="6.88712">
        <ele>1683.89</ele>
        <time>2015-08-02T06:49:08Z</time>
      </trkpt>
      <trkpt lat="46.01233" lon="6.887">
        <ele>1686.29</ele>
        <time>2015-08-02T06:49:20Z</time>
      </trkpt>
      <trkpt lat="46.01231" lon="6.88699">
        <ele>1687.25</ele>
        <time>2015-08-02T06:49:22Z</time>
      </trkpt>
      <trkpt lat="46.0123" lon="6.88698">
        <ele>1687.25</ele>
        <time>2015-08-02T06:49:23Z</time>
      </trkpt>
      <trkpt lat="46.01221" lon="6.8869">
        <ele>1689.65</ele>
        <time>2015-08-02T06:49:33Z</time>
      </trkpt>
      <trkpt lat="46.01206" lon="6.8867">
        <ele>1689.17</ele>
        <time>2015-08-02T06:49:46Z</time>
      </trkpt>
      <trkpt lat="46.01197" lon="6.88652">
        <ele>1688.69</ele>
        <time>2015-08-02T06:49:53Z</time>
      </trkpt>
      <trkpt lat="46.01197" lon="6.88649">
        <ele>1688.69</ele>
        <time>2015-08-02T06:49:54Z</time>
      </trkpt>
      <trkpt lat="46.01196" lon="6.88647">
        <ele>1688.69</ele>
        <time>2015-08-02T06:49:55Z</time>
      </trkpt>
      <trkpt lat="46.01191" lon="6.88633">
        <ele>1690.14</ele>
        <time>2015-08-02T06:50:00Z</time>
      </trkpt>
      <trkpt lat="46.01189" lon="6.88629">
        <ele>1690.14</ele>
        <time>2015-08-02T06:50:02Z</time>
      </trkpt>
      <trkpt lat="46.01188" lon="6.88626">
        <ele>1690.14</ele>
        <time>2015-08-02T06:50:03Z</time>
      </trkpt>
      <trkpt lat="46.01188" lon="6.88624">
        <ele>1691.1</ele>
        <time>2015-08-02T06:50:04Z</time>
      </trkpt>
      <trkpt lat="46.01187" lon="6.88621">
        <ele>1691.1</ele>
        <time>2015-08-02T06:50:05Z</time>
      </trkpt>
      <trkpt lat="46.01186" lon="6.88619">
        <ele>1691.1</ele>
        <time>2015-08-02T06:50:06Z</time>
      </trkpt>
      <trkpt lat="46.01186" lon="6.88616">
        <ele>1691.1</ele>
        <time>2015-08-02T06:50:07Z</time>
      </trkpt>
      <trkpt lat="46.01185" lon="6.88613">
        <ele>1691.1</ele>
        <time>2015-08-02T06:50:08Z</time>
      </trkpt>
      <trkpt lat="46.01174" lon="6.88577">
        <ele>1692.54</ele>
        <time>2015-08-02T06:50:20Z</time>
      </trkpt>
      <trkpt lat="46.01164" lon="6.88546">
        <ele>1693.98</ele>
        <time>2015-08-02T06:50:31Z</time>
      </trkpt>
      <trkpt lat="46.01149" lon="6.88512">
        <ele>1693.98</ele>
        <time>2015-08-02T06:50:44Z</time>
      </trkpt>
      <trkpt lat="46.01146" lon="6.88505">
        <ele>1693.98</ele>
        <time>2015-08-02T06:50:47Z</time>
      </trkpt>
      <trkpt lat="46.01144" lon="6.88503">
        <ele>1693.98</ele>
        <time>2015-08-02T06:50:48Z</time>
      </trkpt>
      <trkpt lat="46.01142" lon="6.885">
        <ele>1693.02</ele>
        <time>2015-08-02T06:50:49Z</time>
      </trkpt>
      <trkpt lat="46.01141" lon="6.88498">
        <ele>1693.02</ele>
        <time>2015-08-02T06:50:50Z</time>
      </trkpt>
      <trkpt lat="46.01139" lon="6.88496">
        <ele>1692.54</ele>
        <time>2015-08-02T06:50:51Z</time>
      </trkpt>
      <trkpt lat="46.01128" lon="6.88476">
        <ele>1692.06</ele>
        <time>2015-08-02T06:51:00Z</time>
      </trkpt>
      <trkpt lat="46.01127" lon="6.88473">
        <ele>1692.06</ele>
        <time>2015-08-02T06:51:01Z</time>
      </trkpt>
      <trkpt lat="46.01126" lon="6.88472">
        <ele>1693.5</ele>
        <time>2015-08-02T06:51:02Z</time>
      </trkpt>
      <trkpt lat="46.01125" lon="6.8847">
        <ele>1693.5</ele>
        <time>2015-08-02T06:51:03Z</time>
      </trkpt>
      <trkpt lat="46.01123" lon="6.88469">
        <ele>1693.5</ele>
        <time>2015-08-02T06:51:04Z</time>
      </trkpt>
      <trkpt lat="46.01122" lon="6.88467">
        <ele>1693.5</ele>
        <time>2015-08-02T06:51:05Z</time>
      </trkpt>
      <trkpt lat="46.01121" lon="6.88465">
        <ele>1693.5</ele>
        <time>2015-08-02T06:51:06Z</time>
      </trkpt>
      <trkpt lat="46.0112" lon="6.88463">
        <ele>1693.5</ele>
        <time>2015-08-02T06:51:07Z</time>
      </trkpt>
      <trkpt lat="46.01118" lon="6.88461">
        <ele>1693.5</ele>
        <time>2015-08-02T06:51:08Z</time>
      </trkpt>
      <trkpt lat="46.01116" lon="6.8846">
        <ele>1693.5</ele>
        <time>2015-08-02T06:51:09Z</time>
      </trkpt>
      <trkpt lat="46.01108" lon="6.88447">
        <ele>1693.5</ele>
        <time>2015-08-02T06:51:15Z</time>
      </trkpt>
      <trkpt lat="46.01108" lon="6.88444">
        <ele>1694.46</ele>
        <time>2015-08-02T06:51:16Z</time>
      </trkpt>
      <trkpt lat="46.01108" lon="6.88442">
        <ele>1694.46</ele>
        <time>2015-08-02T06:51:17Z</time>
      </trkpt>
      <trkpt lat="46.01107" lon="6.88439">
        <ele>1694.94</ele>
        <time>2015-08-02T06:51:18Z</time>
      </trkpt>
      <trkpt lat="46.01106" lon="6.88437">
        <ele>1695.42</ele>
        <time>2015-08-02T06:51:19Z</time>
      </trkpt>
      <trkpt lat="46.01105" lon="6.88435">
        <ele>1695.42</ele>
        <time>2015-08-02T06:51:20Z</time>
      </trkpt>
      <trkpt lat="46.01104" lon="6.88434">
        <ele>1695.42</ele>
        <time>2015-08-02T06:51:21Z</time>
      </trkpt>
      <trkpt lat="46.01103" lon="6.88432">
        <ele>1696.38</ele>
        <time>2015-08-02T06:51:22Z</time>
      </trkpt>
      <trkpt lat="46.01103" lon="6.88431">
        <ele>1696.38</ele>
        <time>2015-08-02T06:51:23Z</time>
      </trkpt>
      <trkpt lat="46.01102" lon="6.88429">
        <ele>1696.38</ele>
        <time>2015-08-02T06:51:24Z</time>
      </trkpt>
      <trkpt lat="46.01102" lon="6.88428">
        <ele>1697.34</ele>
        <time>2015-08-02T06:51:25Z</time>
      </trkpt>
      <trkpt lat="46.01101" lon="6.88427">
        <ele>1697.34</ele>
        <time>2015-08-02T06:51:26Z</time>
      </trkpt>
      <trkpt lat="46.01094" lon="6.88412">
        <ele>1697.34</ele>
        <time>2015-08-02T06:51:34Z</time>
      </trkpt>
      <trkpt lat="46.01093" lon="6.8841">
        <ele>1697.83</ele>
        <time>2015-08-02T06:51:35Z</time>
      </trkpt>
      <trkpt lat="46.01093" lon="6.88407">
        <ele>1697.83</ele>
        <time>2015-08-02T06:51:36Z</time>
      </trkpt>
      <trkpt lat="46.01092" lon="6.88405">
        <ele>1697.83</ele>
        <time>2015-08-02T06:51:37Z</time>
      </trkpt>
      <trkpt lat="46.01092" lon="6.88402">
        <ele>1697.83</ele>
        <time>2015-08-02T06:51:38Z</time>
      </trkpt>
      <trkpt lat="46.01083" lon="6.88386">
        <ele>1699.27</ele>
        <time>2015-08-02T06:51:48Z</time>
      </trkpt>
      <trkpt lat="46.01073" lon="6.88369">
        <ele>1699.75</ele>
        <time>2015-08-02T06:52:01Z</time>
      </trkpt>
      <trkpt lat="46.01072" lon="6.88367">
        <ele>1700.23</ele>
        <time>2015-08-02T06:52:02Z</time>
      </trkpt>
      <trkpt lat="46.01062" lon="6.88353">
        <ele>1701.19</ele>
        <time>2015-08-02T06:52:08Z</time>
      </trkpt>
      <trkpt lat="46.01054" lon="6.88344">
        <ele>1701.67</ele>
        <time>2015-08-02T06:52:13Z</time>
      </trkpt>
      <trkpt lat="46.01054" lon="6.88342">
        <ele>1702.63</ele>
        <time>2015-08-02T06:52:14Z</time>
      </trkpt>
      <trkpt lat="46.01053" lon="6.88339">
        <ele>1702.63</ele>
        <time>2015-08-02T06:52:15Z</time>
      </trkpt>
      <trkpt lat="46.01053" lon="6.88337">
        <ele>1702.63</ele>
        <time>2015-08-02T06:52:16Z</time>
      </trkpt>
      <trkpt lat="46.01053" lon="6.88334">
        <ele>1703.59</ele>
        <time>2015-08-02T06:52:17Z</time>
      </trkpt>
      <trkpt lat="46.01052" lon="6.88332">
        <ele>1703.59</ele>
        <time>2015-08-02T06:52:18Z</time>
      </trkpt>
      <trkpt lat="46.01051" lon="6.88331">
        <ele>1704.07</ele>
        <time>2015-08-02T06:52:19Z</time>
      </trkpt>
      <trkpt lat="46.0105" lon="6.88329">
        <ele>1704.55</ele>
        <time>2015-08-02T06:52:20Z</time>
      </trkpt>
      <trkpt lat="46.01049" lon="6.88327">
        <ele>1704.55</ele>
        <time>2015-08-02T06:52:21Z</time>
      </trkpt>
      <trkpt lat="46.01048" lon="6.88325">
        <ele>1704.55</ele>
        <time>2015-08-02T06:52:22Z</time>
      </trkpt>
      <trkpt lat="46.01045" lon="6.88317">
        <ele>1705.04</ele>
        <time>2015-08-02T06:52:26Z</time>
      </trkpt>
      <trkpt lat="46.01044" lon="6.88315">
        <ele>1705.04</ele>
        <time>2015-08-02T06:52:27Z</time>
      </trkpt>
      <trkpt lat="46.01044" lon="6.88313">
        <ele>1706</ele>
        <time>2015-08-02T06:52:28Z</time>
      </trkpt>
      <trkpt lat="46.01043" lon="6.88311">
        <ele>1706</ele>
        <time>2015-08-02T06:52:29Z</time>
      </trkpt>
      <trkpt lat="46.01041" lon="6.88311">
        <ele>1706</ele>
        <time>2015-08-02T06:52:30Z</time>
      </trkpt>
      <trkpt lat="46.0104" lon="6.88311">
        <ele>1706</ele>
        <time>2015-08-02T06:52:31Z</time>
      </trkpt>
      <trkpt lat="46.01038" lon="6.88312">
        <ele>1706</ele>
        <time>2015-08-02T06:52:32Z</time>
      </trkpt>
      <trkpt lat="46.01036" lon="6.88313">
        <ele>1706</ele>
        <time>2015-08-02T06:52:33Z</time>
      </trkpt>
      <trkpt lat="46.01034" lon="6.88312">
        <ele>1706</ele>
        <time>2015-08-02T06:52:34Z</time>
      </trkpt>
      <trkpt lat="46.01033" lon="6.88311">
        <ele>1706.48</ele>
        <time>2015-08-02T06:52:35Z</time>
      </trkpt>
      <trkpt lat="46.01032" lon="6.8831">
        <ele>1706.48</ele>
        <time>2015-08-02T06:52:36Z</time>
      </trkpt>
      <trkpt lat="46.01028" lon="6.88306">
        <ele>1707.92</ele>
        <time>2015-08-02T06:52:40Z</time>
      </trkpt>
      <trkpt lat="46.01027" lon="6.88305">
        <ele>1707.92</ele>
        <time>2015-08-02T06:52:41Z</time>
      </trkpt>
      <trkpt lat="46.01023" lon="6.88296">
        <ele>1711.28</ele>
        <time>2015-08-02T06:52:51Z</time>
      </trkpt>
      <trkpt lat="46.01023" lon="6.88293">
        <ele>1711.76</ele>
        <time>2015-08-02T06:52:54Z</time>
      </trkpt>
      <trkpt lat="46.01022" lon="6.88291">
        <ele>1712.25</ele>
        <time>2015-08-02T06:52:55Z</time>
      </trkpt>
      <trkpt lat="46.0102" lon="6.88284">
        <ele>1713.69</ele>
        <time>2015-08-02T06:53:00Z</time>
      </trkpt>
      <trkpt lat="46.01019" lon="6.88283">
        <ele>1713.69</ele>
        <time>2015-08-02T06:53:01Z</time>
      </trkpt>
      <trkpt lat="46.01018" lon="6.8828">
        <ele>1714.65</ele>
        <time>2015-08-02T06:53:04Z</time>
      </trkpt>
      <trkpt lat="46.01014" lon="6.88272">
        <ele>1716.09</ele>
        <time>2015-08-02T06:53:11Z</time>
      </trkpt>
      <trkpt lat="46.0101" lon="6.88266">
        <ele>1718.49</ele>
        <time>2015-08-02T06:53:18Z</time>
      </trkpt>
      <trkpt lat="46.0101" lon="6.88265">
        <ele>1718.49</ele>
        <time>2015-08-02T06:53:19Z</time>
      </trkpt>
      <trkpt lat="46.01008" lon="6.88262">
        <ele>1718.97</ele>
        <time>2015-08-02T06:53:21Z</time>
      </trkpt>
      <trkpt lat="46.01005" lon="6.88257">
        <ele>1720.42</ele>
        <time>2015-08-02T06:53:26Z</time>
      </trkpt>
      <trkpt lat="46.01004" lon="6.88257">
        <ele>1719.94</ele>
        <time>2015-08-02T06:53:27Z</time>
      </trkpt>
      <trkpt lat="46.01001" lon="6.88255">
        <ele>1720.9</ele>
        <time>2015-08-02T06:53:30Z</time>
      </trkpt>
      <trkpt lat="46.01001" lon="6.88249">
        <ele>1721.86</ele>
        <time>2015-08-02T06:53:34Z</time>
      </trkpt>
      <trkpt lat="46.00993" lon="6.88235">
        <ele>1724.26</ele>
        <time>2015-08-02T06:53:45Z</time>
      </trkpt>
      <trkpt lat="46.00992" lon="6.88234">
        <ele>1724.26</ele>
        <time>2015-08-02T06:53:46Z</time>
      </trkpt>
      <trkpt lat="46.00988" lon="6.88227">
        <ele>1725.22</ele>
        <time>2015-08-02T06:53:52Z</time>
      </trkpt>
      <trkpt lat="46.00978" lon="6.88216">
        <ele>1725.7</ele>
        <time>2015-08-02T06:54:01Z</time>
      </trkpt>
      <trkpt lat="46.00977" lon="6.88213">
        <ele>1725.7</ele>
        <time>2015-08-02T06:54:02Z</time>
      </trkpt>
      <trkpt lat="46.00976" lon="6.88211">
        <ele>1725.7</ele>
        <time>2015-08-02T06:54:03Z</time>
      </trkpt>
      <trkpt lat="46.00974" lon="6.88209">
        <ele>1725.7</ele>
        <time>2015-08-02T06:54:04Z</time>
      </trkpt>
      <trkpt lat="46.00973" lon="6.88206">
        <ele>1725.7</ele>
        <time>2015-08-02T06:54:05Z</time>
      </trkpt>
      <trkpt lat="46.00971" lon="6.88204">
        <ele>1725.7</ele>
        <time>2015-08-02T06:54:06Z</time>
      </trkpt>
      <trkpt lat="46.00961" lon="6.88173">
        <ele>1727.63</ele>
        <time>2015-08-02T06:54:18Z</time>
      </trkpt>
      <trkpt lat="46.00959" lon="6.88168">
        <ele>1727.63</ele>
        <time>2015-08-02T06:54:20Z</time>
      </trkpt>
      <trkpt lat="46.00957" lon="6.88166">
        <ele>1728.59</ele>
        <time>2015-08-02T06:54:21Z</time>
      </trkpt>
      <trkpt lat="46.00955" lon="6.88165">
        <ele>1728.59</ele>
        <time>2015-08-02T06:54:22Z</time>
      </trkpt>
      <trkpt lat="46.00953" lon="6.88164">
        <ele>1729.07</ele>
        <time>2015-08-02T06:54:23Z</time>
      </trkpt>
      <trkpt lat="46.00952" lon="6.88164">
        <ele>1729.07</ele>
        <time>2015-08-02T06:54:24Z</time>
      </trkpt>
      <trkpt lat="46.0095" lon="6.88163">
        <ele>1729.55</ele>
        <time>2015-08-02T06:54:25Z</time>
      </trkpt>
      <trkpt lat="46.00948" lon="6.88162">
        <ele>1729.55</ele>
        <time>2015-08-02T06:54:26Z</time>
      </trkpt>
      <trkpt lat="46.00946" lon="6.88161">
        <ele>1729.55</ele>
        <time>2015-08-02T06:54:27Z</time>
      </trkpt>
      <trkpt lat="46.00945" lon="6.8816">
        <ele>1729.55</ele>
        <time>2015-08-02T06:54:28Z</time>
      </trkpt>
      <trkpt lat="46.00926" lon="6.88149">
        <ele>1730.99</ele>
        <time>2015-08-02T06:54:39Z</time>
      </trkpt>
      <trkpt lat="46.0091" lon="6.88125">
        <ele>1732.43</ele>
        <time>2015-08-02T06:54:52Z</time>
      </trkpt>
      <trkpt lat="46.00893" lon="6.88096">
        <ele>1733.39</ele>
        <time>2015-08-02T06:55:04Z</time>
      </trkpt>
      <trkpt lat="46.00876" lon="6.88069">
        <ele>1734.36</ele>
        <time>2015-08-02T06:55:16Z</time>
      </trkpt>
      <trkpt lat="46.00872" lon="6.88062">
        <ele>1734.36</ele>
        <time>2015-08-02T06:55:19Z</time>
      </trkpt>
      <trkpt lat="46.0087" lon="6.88059">
        <ele>1734.36</ele>
        <time>2015-08-02T06:55:20Z</time>
      </trkpt>
      <trkpt lat="46.00853" lon="6.88032">
        <ele>1734.36</ele>
        <time>2015-08-02T06:55:31Z</time>
      </trkpt>
      <trkpt lat="46.00844" lon="6.88017">
        <ele>1735.32</ele>
        <time>2015-08-02T06:55:37Z</time>
      </trkpt>
      <trkpt lat="46.00842" lon="6.88015">
        <ele>1735.8</ele>
        <time>2015-08-02T06:55:38Z</time>
      </trkpt>
      <trkpt lat="46.00824" lon="6.87988">
        <ele>1736.76</ele>
        <time>2015-08-02T06:55:50Z</time>
      </trkpt>
      <trkpt lat="46.0081" lon="6.87952">
        <ele>1737.24</ele>
        <time>2015-08-02T06:56:03Z</time>
      </trkpt>
      <trkpt lat="46.00796" lon="6.8792">
        <ele>1737.72</ele>
        <time>2015-08-02T06:56:16Z</time>
      </trkpt>
      <trkpt lat="46.0078" lon="6.87893">
        <ele>1741.08</ele>
        <time>2015-08-02T06:56:29Z</time>
      </trkpt>
      <trkpt lat="46.00772" lon="6.87881">
        <ele>1741.57</ele>
        <time>2015-08-02T06:56:34Z</time>
      </trkpt>
      <trkpt lat="46.00771" lon="6.87879">
        <ele>1741.57</ele>
        <time>2015-08-02T06:56:35Z</time>
      </trkpt>
      <trkpt lat="46.0077" lon="6.87877">
        <ele>1741.57</ele>
        <time>2015-08-02T06:56:36Z</time>
      </trkpt>
      <trkpt lat="46.00753" lon="6.87847">
        <ele>1743.49</ele>
        <time>2015-08-02T06:56:50Z</time>
      </trkpt>
      <trkpt lat="46.00751" lon="6.87844">
        <ele>1743.49</ele>
        <time>2015-08-02T06:56:51Z</time>
      </trkpt>
      <trkpt lat="46.00747" lon="6.87828">
        <ele>1744.45</ele>
        <time>2015-08-02T06:57:01Z</time>
      </trkpt>
      <trkpt lat="46.00744" lon="6.87811">
        <ele>1745.89</ele>
        <time>2015-08-02T06:57:11Z</time>
      </trkpt>
      <trkpt lat="46.00744" lon="6.87808">
        <ele>1746.37</ele>
        <time>2015-08-02T06:57:13Z</time>
      </trkpt>
      <trkpt lat="46.00742" lon="6.87804">
        <ele>1746.85</ele>
        <time>2015-08-02T06:57:16Z</time>
      </trkpt>
      <trkpt lat="46.00736" lon="6.87786">
        <ele>1750.22</ele>
        <time>2015-08-02T06:57:29Z</time>
      </trkpt>
      <trkpt lat="46.00735" lon="6.87781">
        <ele>1750.7</ele>
        <time>2015-08-02T06:57:33Z</time>
      </trkpt>
      <trkpt lat="46.00734" lon="6.8778">
        <ele>1750.7</ele>
        <time>2015-08-02T06:57:34Z</time>
      </trkpt>
      <trkpt lat="46.00732" lon="6.87777">
        <ele>1751.18</ele>
        <time>2015-08-02T06:57:37Z</time>
      </trkpt>
      <trkpt lat="46.00731" lon="6.87763">
        <ele>1754.54</ele>
        <time>2015-08-02T06:57:50Z</time>
      </trkpt>
      <trkpt lat="46.0073" lon="6.87757">
        <ele>1755.99</ele>
        <time>2015-08-02T06:57:55Z</time>
      </trkpt>
      <trkpt lat="46.00729" lon="6.87756">
        <ele>1755.99</ele>
        <time>2015-08-02T06:57:56Z</time>
      </trkpt>
      <trkpt lat="46.00726" lon="6.87745">
        <ele>1758.87</ele>
        <time>2015-08-02T06:58:07Z</time>
      </trkpt>
      <trkpt lat="46.00726" lon="6.87744">
        <ele>1758.87</ele>
        <time>2015-08-02T06:58:08Z</time>
      </trkpt>
      <trkpt lat="46.00726" lon="6.87741">
        <ele>1759.35</ele>
        <time>2015-08-02T06:58:10Z</time>
      </trkpt>
      <trkpt lat="46.00724" lon="6.87732">
        <ele>1760.79</ele>
        <time>2015-08-02T06:58:17Z</time>
      </trkpt>
      <trkpt lat="46.00724" lon="6.87731">
        <ele>1761.27</ele>
        <time>2015-08-02T06:58:18Z</time>
      </trkpt>
      <trkpt lat="46.00723" lon="6.87729">
        <ele>1761.27</ele>
        <time>2015-08-02T06:58:19Z</time>
      </trkpt>
      <trkpt lat="46.00722" lon="6.87728">
        <ele>1761.27</ele>
        <time>2015-08-02T06:58:20Z</time>
      </trkpt>
      <trkpt lat="46.00718" lon="6.8771">
        <ele>1763.68</ele>
        <time>2015-08-02T06:58:33Z</time>
      </trkpt>
      <trkpt lat="46.00716" lon="6.87704">
        <ele>1765.12</ele>
        <time>2015-08-02T06:58:38Z</time>
      </trkpt>
      <trkpt lat="46.00715" lon="6.87702">
        <ele>1765.12</ele>
        <time>2015-08-02T06:58:39Z</time>
      </trkpt>
      <trkpt lat="46.00715" lon="6.87701">
        <ele>1765.12</ele>
        <time>2015-08-02T06:58:40Z</time>
      </trkpt>
      <trkpt lat="46.00714" lon="6.87699">
        <ele>1765.6</ele>
        <time>2015-08-02T06:58:41Z</time>
      </trkpt>
      <trkpt lat="46.00714" lon="6.87698">
        <ele>1765.6</ele>
        <time>2015-08-02T06:58:42Z</time>
      </trkpt>
      <trkpt lat="46.00714" lon="6.87697">
        <ele>1766.08</ele>
        <time>2015-08-02T06:58:43Z</time>
      </trkpt>
      <trkpt lat="46.00713" lon="6.87695">
        <ele>1766.08</ele>
        <time>2015-08-02T06:58:44Z</time>
      </trkpt>
      <trkpt lat="46.0071" lon="6.87686">
        <ele>1767.52</ele>
        <time>2015-08-02T06:58:51Z</time>
      </trkpt>
      <trkpt lat="46.00709" lon="6.87683">
        <ele>1768</ele>
        <time>2015-08-02T06:58:53Z</time>
      </trkpt>
      <trkpt lat="46.00708" lon="6.87682">
        <ele>1768.48</ele>
        <time>2015-08-02T06:58:54Z</time>
      </trkpt>
      <trkpt lat="46.00708" lon="6.87681">
        <ele>1768.48</ele>
        <time>2015-08-02T06:58:55Z</time>
      </trkpt>
      <trkpt lat="46.00708" lon="6.87679">
        <ele>1768.96</ele>
        <time>2015-08-02T06:58:56Z</time>
      </trkpt>
      <trkpt lat="46.00707" lon="6.87668">
        <ele>1771.37</ele>
        <time>2015-08-02T06:59:05Z</time>
      </trkpt>
      <trkpt lat="46.00706" lon="6.87663">
        <ele>1772.33</ele>
        <time>2015-08-02T06:59:09Z</time>
      </trkpt>
      <trkpt lat="46.00705" lon="6.87646">
        <ele>1774.73</ele>
        <time>2015-08-02T06:59:21Z</time>
      </trkpt>
      <trkpt lat="46.00703" lon="6.87632">
        <ele>1777.61</ele>
        <time>2015-08-02T06:59:34Z</time>
      </trkpt>
      <trkpt lat="46.00701" lon="6.87631">
        <ele>1778.1</ele>
        <time>2015-08-02T06:59:47Z</time>
      </trkpt>
      <trkpt lat="46.00699" lon="6.87624">
        <ele>1779.06</ele>
        <time>2015-08-02T06:59:54Z</time>
      </trkpt>
      <trkpt lat="46.00695" lon="6.876">
        <ele>1781.46</ele>
        <time>2015-08-02T07:00:08Z</time>
      </trkpt>
      <trkpt lat="46.00695" lon="6.8759">
        <ele>1782.42</ele>
        <time>2015-08-02T07:00:14Z</time>
      </trkpt>
      <trkpt lat="46.00696" lon="6.87576">
        <ele>1784.82</ele>
        <time>2015-08-02T07:00:24Z</time>
      </trkpt>
      <trkpt lat="46.00696" lon="6.87559">
        <ele>1787.23</ele>
        <time>2015-08-02T07:00:35Z</time>
      </trkpt>
      <trkpt lat="46.00697" lon="6.87556">
        <ele>1786.75</ele>
        <time>2015-08-02T07:00:37Z</time>
      </trkpt>
      <trkpt lat="46.00698" lon="6.87553">
        <ele>1787.23</ele>
        <time>2015-08-02T07:00:40Z</time>
      </trkpt>
      <trkpt lat="46.00698" lon="6.87549">
        <ele>1788.19</ele>
        <time>2015-08-02T07:00:43Z</time>
      </trkpt>
      <trkpt lat="46.00697" lon="6.87547">
        <ele>1788.19</ele>
        <time>2015-08-02T07:00:44Z</time>
      </trkpt>
      <trkpt lat="46.00696" lon="6.87545">
        <ele>1788.19</ele>
        <time>2015-08-02T07:00:45Z</time>
      </trkpt>
      <trkpt lat="46.00695" lon="6.87544">
        <ele>1788.67</ele>
        <time>2015-08-02T07:00:46Z</time>
      </trkpt>
      <trkpt lat="46.00695" lon="6.87542">
        <ele>1788.67</ele>
        <time>2015-08-02T07:00:47Z</time>
      </trkpt>
      <trkpt lat="46.00695" lon="6.8754">
        <ele>1788.67</ele>
        <time>2015-08-02T07:00:48Z</time>
      </trkpt>
      <trkpt lat="46.00688" lon="6.8752">
        <ele>1789.63</ele>
        <time>2015-08-02T07:01:00Z</time>
      </trkpt>
      <trkpt lat="46.00688" lon="6.87519">
        <ele>1789.63</ele>
        <time>2015-08-02T07:01:01Z</time>
      </trkpt>
      <trkpt lat="46.00681" lon="6.875">
        <ele>1792.52</ele>
        <time>2015-08-02T07:01:13Z</time>
      </trkpt>
      <trkpt lat="46.00673" lon="6.87475">
        <ele>1794.44</ele>
        <time>2015-08-02T07:01:29Z</time>
      </trkpt>
      <trkpt lat="46.00671" lon="6.87469">
        <ele>1795.88</ele>
        <time>2015-08-02T07:01:34Z</time>
      </trkpt>
      <trkpt lat="46.00668" lon="6.8746">
        <ele>1796.36</ele>
        <time>2015-08-02T07:01:39Z</time>
      </trkpt>
      <trkpt lat="46.00663" lon="6.87447">
        <ele>1796.36</ele>
        <time>2015-08-02T07:01:47Z</time>
      </trkpt>
      <trkpt lat="46.00659" lon="6.87437">
        <ele>1797.8</ele>
        <time>2015-08-02T07:01:55Z</time>
      </trkpt>
      <trkpt lat="46.00654" lon="6.87428">
        <ele>1798.76</ele>
        <time>2015-08-02T07:02:02Z</time>
      </trkpt>
      <trkpt lat="46.00653" lon="6.87426">
        <ele>1800.21</ele>
        <time>2015-08-02T07:02:03Z</time>
      </trkpt>
      <trkpt lat="46.0064" lon="6.87409">
        <ele>1802.13</ele>
        <time>2015-08-02T07:02:17Z</time>
      </trkpt>
      <trkpt lat="46.00638" lon="6.87407">
        <ele>1802.13</ele>
        <time>2015-08-02T07:02:19Z</time>
      </trkpt>
      <trkpt lat="46.00637" lon="6.87405">
        <ele>1802.13</ele>
        <time>2015-08-02T07:02:20Z</time>
      </trkpt>
      <trkpt lat="46.00625" lon="6.87385">
        <ele>1802.13</ele>
        <time>2015-08-02T07:02:33Z</time>
      </trkpt>
      <trkpt lat="46.00624" lon="6.87383">
        <ele>1802.13</ele>
        <time>2015-08-02T07:02:34Z</time>
      </trkpt>
      <trkpt lat="46.00623" lon="6.87382">
        <ele>1802.13</ele>
        <time>2015-08-02T07:02:35Z</time>
      </trkpt>
      <trkpt lat="46.00622" lon="6.8738">
        <ele>1802.13</ele>
        <time>2015-08-02T07:02:36Z</time>
      </trkpt>
      <trkpt lat="46.00621" lon="6.87379">
        <ele>1802.13</ele>
        <time>2015-08-02T07:02:37Z</time>
      </trkpt>
      <trkpt lat="46.0062" lon="6.87377">
        <ele>1801.17</ele>
        <time>2015-08-02T07:02:38Z</time>
      </trkpt>
      <trkpt lat="46.00619" lon="6.87375">
        <ele>1801.17</ele>
        <time>2015-08-02T07:02:39Z</time>
      </trkpt>
      <trkpt lat="46.00618" lon="6.87374">
        <ele>1801.17</ele>
        <time>2015-08-02T07:02:40Z</time>
      </trkpt>
      <trkpt lat="46.00617" lon="6.87373">
        <ele>1800.69</ele>
        <time>2015-08-02T07:02:41Z</time>
      </trkpt>
      <trkpt lat="46.00608" lon="6.87362">
        <ele>1800.21</ele>
        <time>2015-08-02T07:02:51Z</time>
      </trkpt>
      <trkpt lat="46.00607" lon="6.87361">
        <ele>1800.21</ele>
        <time>2015-08-02T07:02:52Z</time>
      </trkpt>
      <trkpt lat="46.00606" lon="6.8736">
        <ele>1800.21</ele>
        <time>2015-08-02T07:02:53Z</time>
      </trkpt>
      <trkpt lat="46.00606" lon="6.87359">
        <ele>1800.21</ele>
        <time>2015-08-02T07:02:54Z</time>
      </trkpt>
      <trkpt lat="46.00603" lon="6.87354">
        <ele>1801.65</ele>
        <time>2015-08-02T07:02:59Z</time>
      </trkpt>
      <trkpt lat="46.006" lon="6.87349">
        <ele>1802.61</ele>
        <time>2015-08-02T07:03:03Z</time>
      </trkpt>
      <trkpt lat="46.00599" lon="6.87347">
        <ele>1802.61</ele>
        <time>2015-08-02T07:03:04Z</time>
      </trkpt>
      <trkpt lat="46.00597" lon="6.87346">
        <ele>1803.57</ele>
        <time>2015-08-02T07:03:06Z</time>
      </trkpt>
      <trkpt lat="46.00596" lon="6.87345">
        <ele>1804.05</ele>
        <time>2015-08-02T07:03:07Z</time>
      </trkpt>
      <trkpt lat="46.00586" lon="6.87342">
        <ele>1805.01</ele>
        <time>2015-08-02T07:03:15Z</time>
      </trkpt>
      <trkpt lat="46.00585" lon="6.87341">
        <ele>1805.97</ele>
        <time>2015-08-02T07:03:16Z</time>
      </trkpt>
      <trkpt lat="46.00584" lon="6.8734">
        <ele>1805.97</ele>
        <time>2015-08-02T07:03:17Z</time>
      </trkpt>
      <trkpt lat="46.00581" lon="6.8734">
        <ele>1805.97</ele>
        <time>2015-08-02T07:03:19Z</time>
      </trkpt>
      <trkpt lat="46.0058" lon="6.87339">
        <ele>1806.45</ele>
        <time>2015-08-02T07:03:20Z</time>
      </trkpt>
      <trkpt lat="46.00579" lon="6.87338">
        <ele>1806.45</ele>
        <time>2015-08-02T07:03:21Z</time>
      </trkpt>
      <trkpt lat="46.00578" lon="6.87338">
        <ele>1806.94</ele>
        <time>2015-08-02T07:03:22Z</time>
      </trkpt>
      <trkpt lat="46.00576" lon="6.87339">
        <ele>1806.94</ele>
        <time>2015-08-02T07:03:23Z</time>
      </trkpt>
      <trkpt lat="46.00575" lon="6.87338">
        <ele>1806.94</ele>
        <time>2015-08-02T07:03:24Z</time>
      </trkpt>
      <trkpt lat="46.00574" lon="6.87338">
        <ele>1806.94</ele>
        <time>2015-08-02T07:03:25Z</time>
      </trkpt>
      <trkpt lat="46.00574" lon="6.87337">
        <ele>1806.94</ele>
        <time>2015-08-02T07:03:26Z</time>
      </trkpt>
      <trkpt lat="46.00571" lon="6.87326">
        <ele>1809.34</ele>
        <time>2015-08-02T07:03:35Z</time>
      </trkpt>
      <trkpt lat="46.00571" lon="6.87324">
        <ele>1809.82</ele>
        <time>2015-08-02T07:03:36Z</time>
      </trkpt>
      <trkpt lat="46.00569" lon="6.87322">
        <ele>1809.82</ele>
        <time>2015-08-02T07:03:38Z</time>
      </trkpt>
      <trkpt lat="46.00567" lon="6.87317">
        <ele>1810.3</ele>
        <time>2015-08-02T07:03:42Z</time>
      </trkpt>
      <trkpt lat="46.00556" lon="6.87313">
        <ele>1810.78</ele>
        <time>2015-08-02T07:03:50Z</time>
      </trkpt>
      <trkpt lat="46.00555" lon="6.87311">
        <ele>1810.78</ele>
        <time>2015-08-02T07:03:51Z</time>
      </trkpt>
      <trkpt lat="46.00554" lon="6.8731">
        <ele>1810.78</ele>
        <time>2015-08-02T07:03:52Z</time>
      </trkpt>
      <trkpt lat="46.00553" lon="6.87308">
        <ele>1810.3</ele>
        <time>2015-08-02T07:03:53Z</time>
      </trkpt>
      <trkpt lat="46.00552" lon="6.87307">
        <ele>1810.3</ele>
        <time>2015-08-02T07:03:54Z</time>
      </trkpt>
      <trkpt lat="46.00551" lon="6.87306">
        <ele>1810.3</ele>
        <time>2015-08-02T07:03:55Z</time>
      </trkpt>
      <trkpt lat="46.0055" lon="6.87305">
        <ele>1810.3</ele>
        <time>2015-08-02T07:03:56Z</time>
      </trkpt>
      <trkpt lat="46.00548" lon="6.87304">
        <ele>1810.3</ele>
        <time>2015-08-02T07:03:57Z</time>
      </trkpt>
      <trkpt lat="46.00535" lon="6.873">
        <ele>1808.86</ele>
        <time>2015-08-02T07:04:03Z</time>
      </trkpt>
      <trkpt lat="46.00533" lon="6.87298">
        <ele>1807.9</ele>
        <time>2015-08-02T07:04:04Z</time>
      </trkpt>
      <trkpt lat="46.00531" lon="6.87297">
        <ele>1807.9</ele>
        <time>2015-08-02T07:04:05Z</time>
      </trkpt>
      <trkpt lat="46.00529" lon="6.87295">
        <ele>1807.42</ele>
        <time>2015-08-02T07:04:06Z</time>
      </trkpt>
      <trkpt lat="46.00526" lon="6.87293">
        <ele>1806.94</ele>
        <time>2015-08-02T07:04:07Z</time>
      </trkpt>
      <trkpt lat="46.00524" lon="6.87291">
        <ele>1806.94</ele>
        <time>2015-08-02T07:04:08Z</time>
      </trkpt>
      <trkpt lat="46.00521" lon="6.8729">
        <ele>1806.94</ele>
        <time>2015-08-02T07:04:09Z</time>
      </trkpt>
      <trkpt lat="46.00519" lon="6.87288">
        <ele>1806.94</ele>
        <time>2015-08-02T07:04:10Z</time>
      </trkpt>
      <trkpt lat="46.00516" lon="6.87287">
        <ele>1806.94</ele>
        <time>2015-08-02T07:04:11Z</time>
      </trkpt>
      <trkpt lat="46.00501" lon="6.87277">
        <ele>1805.97</ele>
        <time>2015-08-02T07:04:18Z</time>
      </trkpt>
      <trkpt lat="46.005" lon="6.87277">
        <ele>1805.01</ele>
        <time>2015-08-02T07:04:19Z</time>
      </trkpt>
      <trkpt lat="46.00495" lon="6.87276">
        <ele>1803.09</ele>
        <time>2015-08-02T07:04:22Z</time>
      </trkpt>
      <trkpt lat="46.00494" lon="6.87275">
        <ele>1803.09</ele>
        <time>2015-08-02T07:04:23Z</time>
      </trkpt>
      <trkpt lat="46.00492" lon="6.87274">
        <ele>1802.13</ele>
        <time>2015-08-02T07:04:24Z</time>
      </trkpt>
      <trkpt lat="46.00489" lon="6.87273">
        <ele>1802.13</ele>
        <time>2015-08-02T07:04:25Z</time>
      </trkpt>
      <trkpt lat="46.00486" lon="6.87271">
        <ele>1801.65</ele>
        <time>2015-08-02T07:04:26Z</time>
      </trkpt>
      <trkpt lat="46.00481" lon="6.8727">
        <ele>1801.17</ele>
        <time>2015-08-02T07:04:28Z</time>
      </trkpt>
      <trkpt lat="46.00479" lon="6.8727">
        <ele>1801.17</ele>
        <time>2015-08-02T07:04:29Z</time>
      </trkpt>
      <trkpt lat="46.00478" lon="6.87271">
        <ele>1802.13</ele>
        <time>2015-08-02T07:04:30Z</time>
      </trkpt>
      <trkpt lat="46.00477" lon="6.87272">
        <ele>1802.61</ele>
        <time>2015-08-02T07:04:31Z</time>
      </trkpt>
      <trkpt lat="46.00476" lon="6.87272">
        <ele>1803.09</ele>
        <time>2015-08-02T07:04:32Z</time>
      </trkpt>
      <trkpt lat="46.00475" lon="6.8727">
        <ele>1803.09</ele>
        <time>2015-08-02T07:04:33Z</time>
      </trkpt>
      <trkpt lat="46.00473" lon="6.8727">
        <ele>1803.09</ele>
        <time>2015-08-02T07:04:34Z</time>
      </trkpt>
      <trkpt lat="46.00471" lon="6.87269">
        <ele>1803.57</ele>
        <time>2015-08-02T07:04:35Z</time>
      </trkpt>
      <trkpt lat="46.0047" lon="6.87269">
        <ele>1803.09</ele>
        <time>2015-08-02T07:04:36Z</time>
      </trkpt>
      <trkpt lat="46.00468" lon="6.87267">
        <ele>1803.57</ele>
        <time>2015-08-02T07:04:37Z</time>
      </trkpt>
      <trkpt lat="46.00466" lon="6.87265">
        <ele>1803.57</ele>
        <time>2015-08-02T07:04:38Z</time>
      </trkpt>
      <trkpt lat="46.00464" lon="6.87263">
        <ele>1803.57</ele>
        <time>2015-08-02T07:04:39Z</time>
      </trkpt>
      <trkpt lat="46.00462" lon="6.87262">
        <ele>1803.57</ele>
        <time>2015-08-02T07:04:40Z</time>
      </trkpt>
      <trkpt lat="46.00461" lon="6.8726">
        <ele>1803.57</ele>
        <time>2015-08-02T07:04:41Z</time>
      </trkpt>
      <trkpt lat="46.0046" lon="6.87258">
        <ele>1804.05</ele>
        <time>2015-08-02T07:04:42Z</time>
      </trkpt>
      <trkpt lat="46.00458" lon="6.87257">
        <ele>1804.05</ele>
        <time>2015-08-02T07:04:43Z</time>
      </trkpt>
      <trkpt lat="46.00456" lon="6.87257">
        <ele>1804.05</ele>
        <time>2015-08-02T07:04:44Z</time>
      </trkpt>
      <trkpt lat="46.00455" lon="6.87257">
        <ele>1804.05</ele>
        <time>2015-08-02T07:04:45Z</time>
      </trkpt>
      <trkpt lat="46.00453" lon="6.87258">
        <ele>1804.05</ele>
        <time>2015-08-02T07:04:46Z</time>
      </trkpt>
      <trkpt lat="46.0045" lon="6.87262">
        <ele>1805.01</ele>
        <time>2015-08-02T07:04:50Z</time>
      </trkpt>
      <trkpt lat="46.00449" lon="6.87263">
        <ele>1805.01</ele>
        <time>2015-08-02T07:04:51Z</time>
      </trkpt>
      <trkpt lat="46.00449" lon="6.87265">
        <ele>1805.01</ele>
        <time>2015-08-02T07:04:52Z</time>
      </trkpt>
      <trkpt lat="46.0044" lon="6.87273">
        <ele>1807.42</ele>
        <time>2015-08-02T07:05:00Z</time>
      </trkpt>
      <trkpt lat="46.00435" lon="6.87276">
        <ele>1808.38</ele>
        <time>2015-08-02T07:05:04Z</time>
      </trkpt>
      <trkpt lat="46.00434" lon="6.87277">
        <ele>1808.38</ele>
        <time>2015-08-02T07:05:05Z</time>
      </trkpt>
      <trkpt lat="46.00429" lon="6.87281">
        <ele>1809.82</ele>
        <time>2015-08-02T07:05:11Z</time>
      </trkpt>
      <trkpt lat="46.00426" lon="6.87282">
        <ele>1809.82</ele>
        <time>2015-08-02T07:05:13Z</time>
      </trkpt>
      <trkpt lat="46.00424" lon="6.87283">
        <ele>1810.78</ele>
        <time>2015-08-02T07:05:17Z</time>
      </trkpt>
      <trkpt lat="46.00417" lon="6.87283">
        <ele>1813.18</ele>
        <time>2015-08-02T07:05:26Z</time>
      </trkpt>
      <trkpt lat="46.00416" lon="6.87282">
        <ele>1813.66</ele>
        <time>2015-08-02T07:05:28Z</time>
      </trkpt>
      <trkpt lat="46.00414" lon="6.87278">
        <ele>1816.07</ele>
        <time>2015-08-02T07:05:36Z</time>
      </trkpt>
      <trkpt lat="46.00415" lon="6.87279">
        <ele>1816.07</ele>
        <time>2015-08-02T07:05:38Z</time>
      </trkpt>
      <trkpt lat="46.00416" lon="6.8728">
        <ele>1816.55</ele>
        <time>2015-08-02T07:05:39Z</time>
      </trkpt>
      <trkpt lat="46.00417" lon="6.87279">
        <ele>1816.55</ele>
        <time>2015-08-02T07:05:41Z</time>
      </trkpt>
      <trkpt lat="46.00424" lon="6.87261">
        <ele>1819.91</ele>
        <time>2015-08-02T07:05:55Z</time>
      </trkpt>
      <trkpt lat="46.00425" lon="6.87256">
        <ele>1820.87</ele>
        <time>2015-08-02T07:05:59Z</time>
      </trkpt>
      <trkpt lat="46.00425" lon="6.87253">
        <ele>1821.35</ele>
        <time>2015-08-02T07:06:01Z</time>
      </trkpt>
      <trkpt lat="46.00424" lon="6.87252">
        <ele>1821.84</ele>
        <time>2015-08-02T07:06:02Z</time>
      </trkpt>
      <trkpt lat="46.00422" lon="6.87251">
        <ele>1822.32</ele>
        <time>2015-08-02T07:06:04Z</time>
      </trkpt>
      <trkpt lat="46.00421" lon="6.87252">
        <ele>1822.32</ele>
        <time>2015-08-02T07:06:05Z</time>
      </trkpt>
      <trkpt lat="46.00419" lon="6.87252">
        <ele>1823.76</ele>
        <time>2015-08-02T07:06:11Z</time>
      </trkpt>
      <trkpt lat="46.00418" lon="6.87244">
        <ele>1825.68</ele>
        <time>2015-08-02T07:06:19Z</time>
      </trkpt>
      <trkpt lat="46.00419" lon="6.87235">
        <ele>1827.12</ele>
        <time>2015-08-02T07:06:25Z</time>
      </trkpt>
      <trkpt lat="46.00419" lon="6.87234">
        <ele>1827.12</ele>
        <time>2015-08-02T07:06:26Z</time>
      </trkpt>
      <trkpt lat="46.00417" lon="6.87228">
        <ele>1828.56</ele>
        <time>2015-08-02T07:06:31Z</time>
      </trkpt>
      <trkpt lat="46.00416" lon="6.87225">
        <ele>1829.05</ele>
        <time>2015-08-02T07:06:33Z</time>
      </trkpt>
      <trkpt lat="46.00411" lon="6.87216">
        <ele>1831.93</ele>
        <time>2015-08-02T07:06:45Z</time>
      </trkpt>
      <trkpt lat="46.00403" lon="6.87209">
        <ele>1834.81</ele>
        <time>2015-08-02T07:06:58Z</time>
      </trkpt>
      <trkpt lat="46.00397" lon="6.87205">
        <ele>1837.22</ele>
        <time>2015-08-02T07:07:09Z</time>
      </trkpt>
      <trkpt lat="46.00393" lon="6.87206">
        <ele>1838.66</ele>
        <time>2015-08-02T07:07:13Z</time>
      </trkpt>
      <trkpt lat="46.00385" lon="6.87202">
        <ele>1840.58</ele>
        <time>2015-08-02T07:07:22Z</time>
      </trkpt>
      <trkpt lat="46.00384" lon="6.87201">
        <ele>1840.58</ele>
        <time>2015-08-02T07:07:23Z</time>
      </trkpt>
      <trkpt lat="46.00383" lon="6.87201">
        <ele>1840.58</ele>
        <time>2015-08-02T07:07:24Z</time>
      </trkpt>
      <trkpt lat="46.00382" lon="6.872">
        <ele>1840.58</ele>
        <time>2015-08-02T07:07:25Z</time>
      </trkpt>
      <trkpt lat="46.00381" lon="6.872">
        <ele>1841.06</ele>
        <time>2015-08-02T07:07:26Z</time>
      </trkpt>
      <trkpt lat="46.0038" lon="6.872">
        <ele>1841.06</ele>
        <time>2015-08-02T07:07:27Z</time>
      </trkpt>
      <trkpt lat="46.00377" lon="6.87198">
        <ele>1841.54</ele>
        <time>2015-08-02T07:07:31Z</time>
      </trkpt>
      <trkpt lat="46.00377" lon="6.87197">
        <ele>1841.54</ele>
        <time>2015-08-02T07:07:32Z</time>
      </trkpt>
      <trkpt lat="46.00376" lon="6.87196">
        <ele>1842.5</ele>
        <time>2015-08-02T07:07:33Z</time>
      </trkpt>
      <trkpt lat="46.00373" lon="6.87195">
        <ele>1842.98</ele>
        <time>2015-08-02T07:07:36Z</time>
      </trkpt>
      <trkpt lat="46.00372" lon="6.87196">
        <ele>1842.98</ele>
        <time>2015-08-02T07:07:37Z</time>
      </trkpt>
      <trkpt lat="46.00368" lon="6.87194">
        <ele>1843.95</ele>
        <time>2015-08-02T07:07:42Z</time>
      </trkpt>
      <trkpt lat="46.00368" lon="6.87193">
        <ele>1843.95</ele>
        <time>2015-08-02T07:07:43Z</time>
      </trkpt>
      <trkpt lat="46.00365" lon="6.8719">
        <ele>1844.43</ele>
        <time>2015-08-02T07:07:46Z</time>
      </trkpt>
      <trkpt lat="46.0036" lon="6.87186">
        <ele>1845.39</ele>
        <time>2015-08-02T07:07:51Z</time>
      </trkpt>
      <trkpt lat="46.0036" lon="6.87185">
        <ele>1845.39</ele>
        <time>2015-08-02T07:07:52Z</time>
      </trkpt>
      <trkpt lat="46.00359" lon="6.87184">
        <ele>1846.35</ele>
        <time>2015-08-02T07:07:53Z</time>
      </trkpt>
      <trkpt lat="46.00358" lon="6.87183">
        <ele>1846.35</ele>
        <time>2015-08-02T07:07:54Z</time>
      </trkpt>
      <trkpt lat="46.00357" lon="6.87182">
        <ele>1846.35</ele>
        <time>2015-08-02T07:07:55Z</time>
      </trkpt>
      <trkpt lat="46.00355" lon="6.8718">
        <ele>1846.83</ele>
        <time>2015-08-02T07:07:57Z</time>
      </trkpt>
      <trkpt lat="46.00352" lon="6.87175">
        <ele>1848.75</ele>
        <time>2015-08-02T07:08:03Z</time>
      </trkpt>
      <trkpt lat="46.00351" lon="6.87174">
        <ele>1848.75</ele>
        <time>2015-08-02T07:08:04Z</time>
      </trkpt>
      <trkpt lat="46.00343" lon="6.87167">
        <ele>1852.12</ele>
        <time>2015-08-02T07:08:16Z</time>
      </trkpt>
      <trkpt lat="46.00342" lon="6.87168">
        <ele>1853.08</ele>
        <time>2015-08-02T07:08:18Z</time>
      </trkpt>
      <trkpt lat="46.00344" lon="6.87165">
        <ele>1854.04</ele>
        <time>2015-08-02T07:08:25Z</time>
      </trkpt>
      <trkpt lat="46.00346" lon="6.8716">
        <ele>1855.48</ele>
        <time>2015-08-02T07:08:32Z</time>
      </trkpt>
      <trkpt lat="46.00344" lon="6.87157">
        <ele>1856.92</ele>
        <time>2015-08-02T07:08:35Z</time>
      </trkpt>
      <trkpt lat="46.00342" lon="6.87156">
        <ele>1856.92</ele>
        <time>2015-08-02T07:08:38Z</time>
      </trkpt>
      <trkpt lat="46.00339" lon="6.87155">
        <ele>1857.89</ele>
        <time>2015-08-02T07:08:42Z</time>
      </trkpt>
      <trkpt lat="46.00336" lon="6.87155">
        <ele>1858.85</ele>
        <time>2015-08-02T07:08:45Z</time>
      </trkpt>
      <trkpt lat="46.00334" lon="6.87154">
        <ele>1859.81</ele>
        <time>2015-08-02T07:08:47Z</time>
      </trkpt>
      <trkpt lat="46.00334" lon="6.87152">
        <ele>1860.29</ele>
        <time>2015-08-02T07:08:50Z</time>
      </trkpt>
      <trkpt lat="46.0034" lon="6.87147">
        <ele>1861.25</ele>
        <time>2015-08-02T07:08:57Z</time>
      </trkpt>
      <trkpt lat="46.0034" lon="6.87144">
        <ele>1861.73</ele>
        <time>2015-08-02T07:09:00Z</time>
      </trkpt>
      <trkpt lat="46.00338" lon="6.87142">
        <ele>1862.69</ele>
        <time>2015-08-02T07:09:02Z</time>
      </trkpt>
      <trkpt lat="46.00335" lon="6.87141">
        <ele>1863.65</ele>
        <time>2015-08-02T07:09:06Z</time>
      </trkpt>
      <trkpt lat="46.00334" lon="6.87139">
        <ele>1863.65</ele>
        <time>2015-08-02T07:09:08Z</time>
      </trkpt>
      <trkpt lat="46.00328" lon="6.87135">
        <ele>1866.06</ele>
        <time>2015-08-02T07:09:15Z</time>
      </trkpt>
      <trkpt lat="46.00324" lon="6.8713">
        <ele>1867.02</ele>
        <time>2015-08-02T07:09:21Z</time>
      </trkpt>
      <trkpt lat="46.00322" lon="6.87126">
        <ele>1868.94</ele>
        <time>2015-08-02T07:09:31Z</time>
      </trkpt>
      <trkpt lat="46.00325" lon="6.87125">
        <ele>1869.9</ele>
        <time>2015-08-02T07:09:36Z</time>
      </trkpt>
      <trkpt lat="46.00324" lon="6.87118">
        <ele>1871.82</ele>
        <time>2015-08-02T07:09:43Z</time>
      </trkpt>
      <trkpt lat="46.00317" lon="6.87108">
        <ele>1875.19</ele>
        <time>2015-08-02T07:09:55Z</time>
      </trkpt>
      <trkpt lat="46.00315" lon="6.87105">
        <ele>1875.67</ele>
        <time>2015-08-02T07:09:58Z</time>
      </trkpt>
      <trkpt lat="46.00316" lon="6.87098">
        <ele>1879.03</ele>
        <time>2015-08-02T07:10:10Z</time>
      </trkpt>
      <trkpt lat="46.00318" lon="6.87097">
        <ele>1880.48</ele>
        <time>2015-08-02T07:10:12Z</time>
      </trkpt>
      <trkpt lat="46.00323" lon="6.87098">
        <ele>1881.44</ele>
        <time>2015-08-02T07:10:19Z</time>
      </trkpt>
      <trkpt lat="46.00332" lon="6.87103">
        <ele>1883.84</ele>
        <time>2015-08-02T07:10:31Z</time>
      </trkpt>
      <trkpt lat="46.00332" lon="6.871">
        <ele>1884.32</ele>
        <time>2015-08-02T07:10:34Z</time>
      </trkpt>
      <trkpt lat="46.00331" lon="6.87096">
        <ele>1885.28</ele>
        <time>2015-08-02T07:10:37Z</time>
      </trkpt>
      <trkpt lat="46.00329" lon="6.8709">
        <ele>1886.24</ele>
        <time>2015-08-02T07:10:42Z</time>
      </trkpt>
      <trkpt lat="46.0033" lon="6.87088">
        <ele>1886.72</ele>
        <time>2015-08-02T07:10:44Z</time>
      </trkpt>
      <trkpt lat="46.00324" lon="6.87065">
        <ele>1888.17</ele>
        <time>2015-08-02T07:10:58Z</time>
      </trkpt>
      <trkpt lat="46.00322" lon="6.87058">
        <ele>1888.17</ele>
        <time>2015-08-02T07:11:02Z</time>
      </trkpt>
      <trkpt lat="46.00317" lon="6.8703">
        <ele>1891.53</ele>
        <time>2015-08-02T07:11:19Z</time>
      </trkpt>
      <trkpt lat="46.00313" lon="6.87023">
        <ele>1892.97</ele>
        <time>2015-08-02T07:11:25Z</time>
      </trkpt>
      <trkpt lat="46.00311" lon="6.87012">
        <ele>1893.45</ele>
        <time>2015-08-02T07:11:32Z</time>
      </trkpt>
      <trkpt lat="46.00307" lon="6.86998">
        <ele>1894.9</ele>
        <time>2015-08-02T07:11:40Z</time>
      </trkpt>
      <trkpt lat="46.00306" lon="6.86986">
        <ele>1896.34</ele>
        <time>2015-08-02T07:11:47Z</time>
      </trkpt>
      <trkpt lat="46.0031" lon="6.86964">
        <ele>1898.74</ele>
        <time>2015-08-02T07:12:01Z</time>
      </trkpt>
      <trkpt lat="46.0031" lon="6.86963">
        <ele>1898.74</ele>
        <time>2015-08-02T07:12:02Z</time>
      </trkpt>
      <trkpt lat="46.00308" lon="6.86959">
        <ele>1899.7</ele>
        <time>2015-08-02T07:12:05Z</time>
      </trkpt>
      <trkpt lat="46.003" lon="6.86948">
        <ele>1902.59</ele>
        <time>2015-08-02T07:12:16Z</time>
      </trkpt>
      <trkpt lat="46.00297" lon="6.86944">
        <ele>1904.03</ele>
        <time>2015-08-02T07:12:20Z</time>
      </trkpt>
      <trkpt lat="46.00295" lon="6.86933">
        <ele>1905.47</ele>
        <time>2015-08-02T07:12:28Z</time>
      </trkpt>
      <trkpt lat="46.00295" lon="6.8693">
        <ele>1905.95</ele>
        <time>2015-08-02T07:12:30Z</time>
      </trkpt>
      <trkpt lat="46.00297" lon="6.86924">
        <ele>1906.43</ele>
        <time>2015-08-02T07:12:35Z</time>
      </trkpt>
      <trkpt lat="46.00297" lon="6.86909">
        <ele>1909.32</ele>
        <time>2015-08-02T07:12:47Z</time>
      </trkpt>
      <trkpt lat="46.00296" lon="6.86907">
        <ele>1909.32</ele>
        <time>2015-08-02T07:12:49Z</time>
      </trkpt>
      <trkpt lat="46.00297" lon="6.86898">
        <ele>1911.72</ele>
        <time>2015-08-02T07:12:56Z</time>
      </trkpt>
      <trkpt lat="46.00304" lon="6.8688">
        <ele>1914.6</ele>
        <time>2015-08-02T07:13:10Z</time>
      </trkpt>
      <trkpt lat="46.00304" lon="6.86877">
        <ele>1915.08</ele>
        <time>2015-08-02T07:13:12Z</time>
      </trkpt>
      <trkpt lat="46.00302" lon="6.86875">
        <ele>1915.56</ele>
        <time>2015-08-02T07:13:14Z</time>
      </trkpt>
      <trkpt lat="46.00299" lon="6.86875">
        <ele>1916.53</ele>
        <time>2015-08-02T07:13:25Z</time>
      </trkpt>
      <trkpt lat="46.00299" lon="6.86875">
        <ele>1916.53</ele>
        <time>2015-08-02T07:13:37Z</time>
      </trkpt>
      <trkpt lat="46.00301" lon="6.86879">
        <ele>1916.53</ele>
        <time>2015-08-02T07:14:03Z</time>
      </trkpt>
      <trkpt lat="46.00299" lon="6.86879">
        <ele>1917.49</ele>
        <time>2015-08-02T07:14:26Z</time>
      </trkpt>
      <trkpt lat="46.00298" lon="6.8688">
        <ele>1917.49</ele>
        <time>2015-08-02T07:14:49Z</time>
      </trkpt>
      <trkpt lat="46.00298" lon="6.86886">
        <ele>1917.01</ele>
        <time>2015-08-02T07:15:24Z</time>
      </trkpt>
      <trkpt lat="46.00297" lon="6.86878">
        <ele>1917.49</ele>
        <time>2015-08-02T07:16:03Z</time>
      </trkpt>
      <trkpt lat="46.00297" lon="6.86883">
        <ele>1917.49</ele>
        <time>2015-08-02T07:16:40Z</time>
      </trkpt>
      <trkpt lat="46.00298" lon="6.8688">
        <ele>1917.97</ele>
        <time>2015-08-02T07:17:12Z</time>
      </trkpt>
      <trkpt lat="46.00298" lon="6.86882">
        <ele>1917.97</ele>
        <time>2015-08-02T07:17:42Z</time>
      </trkpt>
      <trkpt lat="46.00299" lon="6.86882">
        <ele>1918.45</ele>
        <time>2015-08-02T07:18:17Z</time>
      </trkpt>
      <trkpt lat="46.00299" lon="6.86881">
        <ele>1918.93</ele>
        <time>2015-08-02T07:18:47Z</time>
      </trkpt>
      <trkpt lat="46.00298" lon="6.86876">
        <ele>1918.93</ele>
        <time>2015-08-02T07:19:18Z</time>
      </trkpt>
      <trkpt lat="46.00302" lon="6.86875">
        <ele>1918.93</ele>
        <time>2015-08-02T07:19:41Z</time>
      </trkpt>
      <trkpt lat="46.00297" lon="6.86873">
        <ele>1918.93</ele>
        <time>2015-08-02T07:20:09Z</time>
      </trkpt>
      <trkpt lat="46.00297" lon="6.86876">
        <ele>1919.41</ele>
        <time>2015-08-02T07:20:36Z</time>
      </trkpt>
      <trkpt lat="46.00296" lon="6.86873">
        <ele>1919.41</ele>
        <time>2015-08-02T07:20:58Z</time>
      </trkpt>
      <trkpt lat="46.00298" lon="6.86877">
        <ele>1918.45</ele>
        <time>2015-08-02T07:21:22Z</time>
      </trkpt>
      <trkpt lat="46.00296" lon="6.8688">
        <ele>1919.89</ele>
        <time>2015-08-02T07:21:34Z</time>
      </trkpt>
      <trkpt lat="46.00299" lon="6.86875">
        <ele>1919.89</ele>
        <time>2015-08-02T07:21:48Z</time>
      </trkpt>
      <trkpt lat="46.00302" lon="6.86876">
        <ele>1919.89</ele>
        <time>2015-08-02T07:21:57Z</time>
      </trkpt>
      <trkpt lat="46.00304" lon="6.86875">
        <ele>1920.37</ele>
        <time>2015-08-02T07:21:59Z</time>
      </trkpt>
      <trkpt lat="46.00307" lon="6.86871">
        <ele>1920.37</ele>
        <time>2015-08-02T07:22:03Z</time>
      </trkpt>
      <trkpt lat="46.00315" lon="6.86859">
        <ele>1920.85</ele>
        <time>2015-08-02T07:22:15Z</time>
      </trkpt>
      <trkpt lat="46.00314" lon="6.86846">
        <ele>1923.25</ele>
        <time>2015-08-02T07:22:28Z</time>
      </trkpt>
      <trkpt lat="46.00314" lon="6.86846">
        <ele>1923.74</ele>
        <time>2015-08-02T07:22:29Z</time>
      </trkpt>
      <trkpt lat="46.00316" lon="6.86844">
        <ele>1924.22</ele>
        <time>2015-08-02T07:22:31Z</time>
      </trkpt>
      <trkpt lat="46.00326" lon="6.86832">
        <ele>1926.62</ele>
        <time>2015-08-02T07:22:46Z</time>
      </trkpt>
      <trkpt lat="46.00328" lon="6.86828">
        <ele>1927.58</ele>
        <time>2015-08-02T07:22:50Z</time>
      </trkpt>
      <trkpt lat="46.00339" lon="6.86817">
        <ele>1930.95</ele>
        <time>2015-08-02T07:23:03Z</time>
      </trkpt>
      <trkpt lat="46.00344" lon="6.86813">
        <ele>1930.95</ele>
        <time>2015-08-02T07:23:08Z</time>
      </trkpt>
      <trkpt lat="46.00349" lon="6.868">
        <ele>1933.35</ele>
        <time>2015-08-02T07:23:18Z</time>
      </trkpt>
      <trkpt lat="46.0035" lon="6.86793">
        <ele>1934.79</ele>
        <time>2015-08-02T07:23:23Z</time>
      </trkpt>
      <trkpt lat="46.00354" lon="6.86779">
        <ele>1937.67</ele>
        <time>2015-08-02T07:23:34Z</time>
      </trkpt>
      <trkpt lat="46.00354" lon="6.86778">
        <ele>1937.67</ele>
        <time>2015-08-02T07:23:35Z</time>
      </trkpt>
      <trkpt lat="46.00356" lon="6.86774">
        <ele>1938.16</ele>
        <time>2015-08-02T07:23:40Z</time>
      </trkpt>
      <trkpt lat="46.00357" lon="6.86774">
        <ele>1939.6</ele>
        <time>2015-08-02T07:23:43Z</time>
      </trkpt>
      <trkpt lat="46.00362" lon="6.86767">
        <ele>1941.04</ele>
        <time>2015-08-02T07:23:53Z</time>
      </trkpt>
      <trkpt lat="46.00369" lon="6.86758">
        <ele>1944.4</ele>
        <time>2015-08-02T07:24:04Z</time>
      </trkpt>
      <trkpt lat="46.0037" lon="6.86757">
        <ele>1944.88</ele>
        <time>2015-08-02T07:24:05Z</time>
      </trkpt>
      <trkpt lat="46.00375" lon="6.86752">
        <ele>1946.33</ele>
        <time>2015-08-02T07:24:12Z</time>
      </trkpt>
      <trkpt lat="46.00378" lon="6.86749">
        <ele>1947.29</ele>
        <time>2015-08-02T07:24:17Z</time>
      </trkpt>
      <trkpt lat="46.00391" lon="6.86747">
        <ele>1950.65</ele>
        <time>2015-08-02T07:24:30Z</time>
      </trkpt>
      <trkpt lat="46.00395" lon="6.86745">
        <ele>1951.13</ele>
        <time>2015-08-02T07:24:34Z</time>
      </trkpt>
      <trkpt lat="46.00399" lon="6.86742">
        <ele>1953.06</ele>
        <time>2015-08-02T07:24:40Z</time>
      </trkpt>
      <trkpt lat="46.00402" lon="6.86742">
        <ele>1954.02</ele>
        <time>2015-08-02T07:24:43Z</time>
      </trkpt>
      <trkpt lat="46.00407" lon="6.86738">
        <ele>1957.38</ele>
        <time>2015-08-02T07:24:53Z</time>
      </trkpt>
      <trkpt lat="46.00412" lon="6.86739">
        <ele>1958.82</ele>
        <time>2015-08-02T07:25:02Z</time>
      </trkpt>
      <trkpt lat="46.00414" lon="6.86741">
        <ele>1959.78</ele>
        <time>2015-08-02T07:25:06Z</time>
      </trkpt>
      <trkpt lat="46.0042" lon="6.8674">
        <ele>1960.75</ele>
        <time>2015-08-02T07:25:13Z</time>
      </trkpt>
      <trkpt lat="46.00421" lon="6.86733">
        <ele>1963.15</ele>
        <time>2015-08-02T07:25:21Z</time>
      </trkpt>
      <trkpt lat="46.00426" lon="6.86724">
        <ele>1965.07</ele>
        <time>2015-08-02T07:25:32Z</time>
      </trkpt>
      <trkpt lat="46.00427" lon="6.8672">
        <ele>1966.51</ele>
        <time>2015-08-02T07:25:37Z</time>
      </trkpt>
      <trkpt lat="46.00426" lon="6.86713">
        <ele>1969.88</ele>
        <time>2015-08-02T07:25:48Z</time>
      </trkpt>
      <trkpt lat="46.00425" lon="6.86709">
        <ele>1969.88</ele>
        <time>2015-08-02T07:25:51Z</time>
      </trkpt>
      <trkpt lat="46.0042" lon="6.86698">
        <ele>1973.24</ele>
        <time>2015-08-02T07:26:04Z</time>
      </trkpt>
      <trkpt lat="46.00416" lon="6.8669">
        <ele>1975.17</ele>
        <time>2015-08-02T07:26:14Z</time>
      </trkpt>
      <trkpt lat="46.00413" lon="6.86683">
        <ele>1978.05</ele>
        <time>2015-08-02T07:26:24Z</time>
      </trkpt>
      <trkpt lat="46.00413" lon="6.86683">
        <ele>1978.05</ele>
        <time>2015-08-02T07:26:27Z</time>
      </trkpt>
      <trkpt lat="46.00423" lon="6.86685">
        <ele>1980.93</ele>
        <time>2015-08-02T07:26:40Z</time>
      </trkpt>
      <trkpt lat="46.00431" lon="6.86689">
        <ele>1981.9</ele>
        <time>2015-08-02T07:26:48Z</time>
      </trkpt>
      <trkpt lat="46.00441" lon="6.8669">
        <ele>1984.3</ele>
        <time>2015-08-02T07:26:58Z</time>
      </trkpt>
      <trkpt lat="46.00442" lon="6.86687">
        <ele>1984.78</ele>
        <time>2015-08-02T07:27:02Z</time>
      </trkpt>
      <trkpt lat="46.00451" lon="6.86694">
        <ele>1987.18</ele>
        <time>2015-08-02T07:27:13Z</time>
      </trkpt>
      <trkpt lat="46.00454" lon="6.86694">
        <ele>1988.14</ele>
        <time>2015-08-02T07:27:16Z</time>
      </trkpt>
      <trkpt lat="46.00461" lon="6.86696">
        <ele>1988.62</ele>
        <time>2015-08-02T07:27:22Z</time>
      </trkpt>
      <trkpt lat="46.0047" lon="6.86699">
        <ele>1991.99</ele>
        <time>2015-08-02T07:27:35Z</time>
      </trkpt>
      <trkpt lat="46.0047" lon="6.86699">
        <ele>1991.99</ele>
        <time>2015-08-02T07:27:36Z</time>
      </trkpt>
      <trkpt lat="46.00471" lon="6.86701">
        <ele>1991.99</ele>
        <time>2015-08-02T07:27:38Z</time>
      </trkpt>
      <trkpt lat="46.00474" lon="6.867">
        <ele>1994.39</ele>
        <time>2015-08-02T07:27:48Z</time>
      </trkpt>
      <trkpt lat="46.00478" lon="6.86698">
        <ele>1996.32</ele>
        <time>2015-08-02T07:27:54Z</time>
      </trkpt>
      <trkpt lat="46.00481" lon="6.86701">
        <ele>1998.24</ele>
        <time>2015-08-02T07:28:00Z</time>
      </trkpt>
      <trkpt lat="46.00485" lon="6.86693">
        <ele>2000.64</ele>
        <time>2015-08-02T07:28:11Z</time>
      </trkpt>
      <trkpt lat="46.00489" lon="6.86686">
        <ele>2002.08</ele>
        <time>2015-08-02T07:28:22Z</time>
      </trkpt>
      <trkpt lat="46.00491" lon="6.86681">
        <ele>2005.45</ele>
        <time>2015-08-02T07:28:34Z</time>
      </trkpt>
      <trkpt lat="46.00495" lon="6.86682">
        <ele>2006.41</ele>
        <time>2015-08-02T07:28:39Z</time>
      </trkpt>
      <trkpt lat="46.00496" lon="6.86675">
        <ele>2008.33</ele>
        <time>2015-08-02T07:28:50Z</time>
      </trkpt>
      <trkpt lat="46.00502" lon="6.86675">
        <ele>2011.22</ele>
        <time>2015-08-02T07:29:00Z</time>
      </trkpt>
      <trkpt lat="46.00505" lon="6.86672">
        <ele>2013.62</ele>
        <time>2015-08-02T07:29:09Z</time>
      </trkpt>
      <trkpt lat="46.0051" lon="6.86669">
        <ele>2015.54</ele>
        <time>2015-08-02T07:29:21Z</time>
      </trkpt>
      <trkpt lat="46.00511" lon="6.86667">
        <ele>2016.5</ele>
        <time>2015-08-02T07:29:24Z</time>
      </trkpt>
      <trkpt lat="46.00515" lon="6.86664">
        <ele>2018.43</ele>
        <time>2015-08-02T07:29:36Z</time>
      </trkpt>
      <trkpt lat="46.00514" lon="6.86658">
        <ele>2020.35</ele>
        <time>2015-08-02T07:29:48Z</time>
      </trkpt>
      <trkpt lat="46.00509" lon="6.86646">
        <ele>2018.91</ele>
        <time>2015-08-02T07:30:00Z</time>
      </trkpt>
      <trkpt lat="46.00502" lon="6.86635">
        <ele>2020.35</ele>
        <time>2015-08-02T07:30:12Z</time>
      </trkpt>
      <trkpt lat="46.00497" lon="6.86628">
        <ele>2022.75</ele>
        <time>2015-08-02T07:30:22Z</time>
      </trkpt>
      <trkpt lat="46.00491" lon="6.86626">
        <ele>2023.23</ele>
        <time>2015-08-02T07:30:28Z</time>
      </trkpt>
      <trkpt lat="46.00486" lon="6.86621">
        <ele>2024.19</ele>
        <time>2015-08-02T07:30:36Z</time>
      </trkpt>
      <trkpt lat="46.0048" lon="6.86609">
        <ele>2027.08</ele>
        <time>2015-08-02T07:30:49Z</time>
      </trkpt>
      <trkpt lat="46.0048" lon="6.86598">
        <ele>2029.96</ele>
        <time>2015-08-02T07:31:02Z</time>
      </trkpt>
      <trkpt lat="46.00479" lon="6.86595">
        <ele>2030.92</ele>
        <time>2015-08-02T07:31:06Z</time>
      </trkpt>
      <trkpt lat="46.00479" lon="6.86586">
        <ele>2032.84</ele>
        <time>2015-08-02T07:31:16Z</time>
      </trkpt>
      <trkpt lat="46.00478" lon="6.86581">
        <ele>2033.33</ele>
        <time>2015-08-02T07:31:21Z</time>
      </trkpt>
      <trkpt lat="46.00476" lon="6.86576">
        <ele>2034.77</ele>
        <time>2015-08-02T07:31:26Z</time>
      </trkpt>
      <trkpt lat="46.00475" lon="6.86572">
        <ele>2035.73</ele>
        <time>2015-08-02T07:31:32Z</time>
      </trkpt>
      <trkpt lat="46.0047" lon="6.86561">
        <ele>2037.65</ele>
        <time>2015-08-02T07:31:45Z</time>
      </trkpt>
      <trkpt lat="46.0046" lon="6.86556">
        <ele>2039.57</ele>
        <time>2015-08-02T07:31:58Z</time>
      </trkpt>
      <trkpt lat="46.0046" lon="6.86556">
        <ele>2039.57</ele>
        <time>2015-08-02T07:31:59Z</time>
      </trkpt>
      <trkpt lat="46.00456" lon="6.86554">
        <ele>2041.02</ele>
        <time>2015-08-02T07:32:05Z</time>
      </trkpt>
      <trkpt lat="46.00449" lon="6.86549">
        <ele>2042.94</ele>
        <time>2015-08-02T07:32:19Z</time>
      </trkpt>
      <trkpt lat="46.00447" lon="6.86547">
        <ele>2044.38</ele>
        <time>2015-08-02T07:32:24Z</time>
      </trkpt>
      <trkpt lat="46.00442" lon="6.86546">
        <ele>2044.86</ele>
        <time>2015-08-02T07:32:32Z</time>
      </trkpt>
      <trkpt lat="46.0044" lon="6.86544">
        <ele>2045.82</ele>
        <time>2015-08-02T07:32:35Z</time>
      </trkpt>
      <trkpt lat="46.00432" lon="6.86538">
        <ele>2048.23</ele>
        <time>2015-08-02T07:32:47Z</time>
      </trkpt>
      <trkpt lat="46.00429" lon="6.86536">
        <ele>2048.23</ele>
        <time>2015-08-02T07:32:50Z</time>
      </trkpt>
      <trkpt lat="46.0042" lon="6.86522">
        <ele>2049.67</ele>
        <time>2015-08-02T07:33:03Z</time>
      </trkpt>
      <trkpt lat="46.00411" lon="6.86508">
        <ele>2051.59</ele>
        <time>2015-08-02T07:33:16Z</time>
      </trkpt>
      <trkpt lat="46.00405" lon="6.86498">
        <ele>2053.99</ele>
        <time>2015-08-02T07:33:28Z</time>
      </trkpt>
      <trkpt lat="46.00401" lon="6.86496">
        <ele>2054.47</ele>
        <time>2015-08-02T07:33:31Z</time>
      </trkpt>
      <trkpt lat="46.00394" lon="6.86493">
        <ele>2056.4</ele>
        <time>2015-08-02T07:33:38Z</time>
      </trkpt>
      <trkpt lat="46.00383" lon="6.8649">
        <ele>2058.32</ele>
        <time>2015-08-02T07:33:50Z</time>
      </trkpt>
      <trkpt lat="46.00382" lon="6.86489">
        <ele>2058.32</ele>
        <time>2015-08-02T07:33:52Z</time>
      </trkpt>
      <trkpt lat="46.00374" lon="6.86482">
        <ele>2060.72</ele>
        <time>2015-08-02T07:34:07Z</time>
      </trkpt>
      <trkpt lat="46.00371" lon="6.86481">
        <ele>2062.65</ele>
        <time>2015-08-02T07:34:17Z</time>
      </trkpt>
      <trkpt lat="46.00369" lon="6.86481">
        <ele>2062.65</ele>
        <time>2015-08-02T07:34:19Z</time>
      </trkpt>
      <trkpt lat="46.00362" lon="6.8647">
        <ele>2065.53</ele>
        <time>2015-08-02T07:34:34Z</time>
      </trkpt>
      <trkpt lat="46.00357" lon="6.86463">
        <ele>2068.41</ele>
        <time>2015-08-02T07:34:45Z</time>
      </trkpt>
      <trkpt lat="46.00356" lon="6.86462">
        <ele>2068.89</ele>
        <time>2015-08-02T07:34:47Z</time>
      </trkpt>
      <trkpt lat="46.00349" lon="6.86461">
        <ele>2071.78</ele>
        <time>2015-08-02T07:34:56Z</time>
      </trkpt>
      <trkpt lat="46.00342" lon="6.8646">
        <ele>2073.22</ele>
        <time>2015-08-02T07:35:07Z</time>
      </trkpt>
      <trkpt lat="46.00341" lon="6.86451">
        <ele>2075.62</ele>
        <time>2015-08-02T07:35:19Z</time>
      </trkpt>
      <trkpt lat="46.00338" lon="6.86444">
        <ele>2078.51</ele>
        <time>2015-08-02T07:35:31Z</time>
      </trkpt>
      <trkpt lat="46.00337" lon="6.86443">
        <ele>2078.99</ele>
        <time>2015-08-02T07:35:32Z</time>
      </trkpt>
      <trkpt lat="46.00336" lon="6.86446">
        <ele>2078.99</ele>
        <time>2015-08-02T07:35:34Z</time>
      </trkpt>
      <trkpt lat="46.00325" lon="6.86447">
        <ele>2080.91</ele>
        <time>2015-08-02T07:35:46Z</time>
      </trkpt>
      <trkpt lat="46.00317" lon="6.86442">
        <ele>2082.35</ele>
        <time>2015-08-02T07:35:57Z</time>
      </trkpt>
      <trkpt lat="46.00311" lon="6.86436">
        <ele>2086.2</ele>
        <time>2015-08-02T07:36:08Z</time>
      </trkpt>
      <trkpt lat="46.00308" lon="6.8643">
        <ele>2087.64</ele>
        <time>2015-08-02T07:36:21Z</time>
      </trkpt>
      <trkpt lat="46.00309" lon="6.86425">
        <ele>2090.04</ele>
        <time>2015-08-02T07:36:31Z</time>
      </trkpt>
      <trkpt lat="46.00311" lon="6.86425">
        <ele>2090.52</ele>
        <time>2015-08-02T07:36:33Z</time>
      </trkpt>
      <trkpt lat="46.00313" lon="6.86424">
        <ele>2090.52</ele>
        <time>2015-08-02T07:36:35Z</time>
      </trkpt>
      <trkpt lat="46.00319" lon="6.86417">
        <ele>2093.41</ele>
        <time>2015-08-02T07:36:48Z</time>
      </trkpt>
      <trkpt lat="46.00322" lon="6.86417">
        <ele>2093.89</ele>
        <time>2015-08-02T07:36:50Z</time>
      </trkpt>
      <trkpt lat="46.00321" lon="6.86408">
        <ele>2096.77</ele>
        <time>2015-08-02T07:37:04Z</time>
      </trkpt>
      <trkpt lat="46.00319" lon="6.86405">
        <ele>2098.7</ele>
        <time>2015-08-02T07:37:10Z</time>
      </trkpt>
      <trkpt lat="46.00317" lon="6.86404">
        <ele>2098.7</ele>
        <time>2015-08-02T07:37:12Z</time>
      </trkpt>
      <trkpt lat="46.00315" lon="6.86402">
        <ele>2099.18</ele>
        <time>2015-08-02T07:37:14Z</time>
      </trkpt>
      <trkpt lat="46.00306" lon="6.86394">
        <ele>2102.54</ele>
        <time>2015-08-02T07:37:28Z</time>
      </trkpt>
      <trkpt lat="46.00306" lon="6.86391">
        <ele>2103.5</ele>
        <time>2015-08-02T07:37:35Z</time>
      </trkpt>
      <trkpt lat="46.00309" lon="6.86391">
        <ele>2104.94</ele>
        <time>2015-08-02T07:37:37Z</time>
      </trkpt>
      <trkpt lat="46.00316" lon="6.86388">
        <ele>2107.35</ele>
        <time>2015-08-02T07:37:47Z</time>
      </trkpt>
      <trkpt lat="46.00318" lon="6.86388">
        <ele>2107.35</ele>
        <time>2015-08-02T07:37:49Z</time>
      </trkpt>
      <trkpt lat="46.00322" lon="6.86386">
        <ele>2108.79</ele>
        <time>2015-08-02T07:37:57Z</time>
      </trkpt>
      <trkpt lat="46.00329" lon="6.86382">
        <ele>2111.67</ele>
        <time>2015-08-02T07:38:09Z</time>
      </trkpt>
      <trkpt lat="46.00332" lon="6.86369">
        <ele>2114.56</ele>
        <time>2015-08-02T07:38:23Z</time>
      </trkpt>
      <trkpt lat="46.00329" lon="6.86365">
        <ele>2116.48</ele>
        <time>2015-08-02T07:38:32Z</time>
      </trkpt>
      <trkpt lat="46.00326" lon="6.86366">
        <ele>2116.96</ele>
        <time>2015-08-02T07:38:36Z</time>
      </trkpt>
      <trkpt lat="46.0032" lon="6.8636">
        <ele>2118.88</ele>
        <time>2015-08-02T07:38:46Z</time>
      </trkpt>
      <trkpt lat="46.00323" lon="6.86354">
        <ele>2120.81</ele>
        <time>2015-08-02T07:38:55Z</time>
      </trkpt>
      <trkpt lat="46.00328" lon="6.86347">
        <ele>2122.73</ele>
        <time>2015-08-02T07:39:02Z</time>
      </trkpt>
      <trkpt lat="46.00337" lon="6.8634">
        <ele>2125.13</ele>
        <time>2015-08-02T07:39:15Z</time>
      </trkpt>
      <trkpt lat="46.00345" lon="6.86339">
        <ele>2127.05</ele>
        <time>2015-08-02T07:39:26Z</time>
      </trkpt>
      <trkpt lat="46.00345" lon="6.86339">
        <ele>2127.53</ele>
        <time>2015-08-02T07:39:27Z</time>
      </trkpt>
      <trkpt lat="46.00354" lon="6.86334">
        <ele>2130.42</ele>
        <time>2015-08-02T07:39:40Z</time>
      </trkpt>
      <trkpt lat="46.00354" lon="6.86333">
        <ele>2130.42</ele>
        <time>2015-08-02T07:39:41Z</time>
      </trkpt>
      <trkpt lat="46.00359" lon="6.86323">
        <ele>2132.34</ele>
        <time>2015-08-02T07:39:53Z</time>
      </trkpt>
      <trkpt lat="46.00368" lon="6.86321">
        <ele>2135.71</ele>
        <time>2015-08-02T07:40:07Z</time>
      </trkpt>
      <trkpt lat="46.0037" lon="6.86322">
        <ele>2136.19</ele>
        <time>2015-08-02T07:40:10Z</time>
      </trkpt>
      <trkpt lat="46.00377" lon="6.86322">
        <ele>2137.15</ele>
        <time>2015-08-02T07:40:18Z</time>
      </trkpt>
      <trkpt lat="46.00377" lon="6.86309">
        <ele>2140.03</ele>
        <time>2015-08-02T07:40:31Z</time>
      </trkpt>
      <trkpt lat="46.00376" lon="6.86307">
        <ele>2140.99</ele>
        <time>2015-08-02T07:40:33Z</time>
      </trkpt>
      <trkpt lat="46.00372" lon="6.86299">
        <ele>2143.4</ele>
        <time>2015-08-02T07:40:45Z</time>
      </trkpt>
      <trkpt lat="46.00372" lon="6.86296">
        <ele>2144.84</ele>
        <time>2015-08-02T07:40:49Z</time>
      </trkpt>
      <trkpt lat="46.00366" lon="6.86286">
        <ele>2148.2</ele>
        <time>2015-08-02T07:41:03Z</time>
      </trkpt>
      <trkpt lat="46.00364" lon="6.8628">
        <ele>2150.13</ele>
        <time>2015-08-02T07:41:13Z</time>
      </trkpt>
      <trkpt lat="46.00359" lon="6.86273">
        <ele>2153.49</ele>
        <time>2015-08-02T07:41:26Z</time>
      </trkpt>
      <trkpt lat="46.00352" lon="6.86263">
        <ele>2155.89</ele>
        <time>2015-08-02T07:41:39Z</time>
      </trkpt>
      <trkpt lat="46.00355" lon="6.86259">
        <ele>2159.26</ele>
        <time>2015-08-02T07:41:51Z</time>
      </trkpt>
      <trkpt lat="46.0036" lon="6.86256">
        <ele>2161.66</ele>
        <time>2015-08-02T07:42:00Z</time>
      </trkpt>
      <trkpt lat="46.00362" lon="6.86257">
        <ele>2161.66</ele>
        <time>2015-08-02T07:42:02Z</time>
      </trkpt>
      <trkpt lat="46.00367" lon="6.86254">
        <ele>2163.1</ele>
        <time>2015-08-02T07:42:08Z</time>
      </trkpt>
      <trkpt lat="46.00368" lon="6.86252">
        <ele>2163.58</ele>
        <time>2015-08-02T07:42:10Z</time>
      </trkpt>
      <trkpt lat="46.00376" lon="6.86243">
        <ele>2164.55</ele>
        <time>2015-08-02T07:42:19Z</time>
      </trkpt>
      <trkpt lat="46.00383" lon="6.86234">
        <ele>2167.43</ele>
        <time>2015-08-02T07:42:31Z</time>
      </trkpt>
      <trkpt lat="46.00385" lon="6.86232">
        <ele>2168.39</ele>
        <time>2015-08-02T07:42:35Z</time>
      </trkpt>
      <trkpt lat="46.00396" lon="6.86234">
        <ele>2170.79</ele>
        <time>2015-08-02T07:42:49Z</time>
      </trkpt>
      <trkpt lat="46.00403" lon="6.86238">
        <ele>2173.2</ele>
        <time>2015-08-02T07:43:00Z</time>
      </trkpt>
      <trkpt lat="46.00411" lon="6.86239">
        <ele>2175.12</ele>
        <time>2015-08-02T07:43:13Z</time>
      </trkpt>
      <trkpt lat="46.00419" lon="6.86239">
        <ele>2177.52</ele>
        <time>2015-08-02T07:43:27Z</time>
      </trkpt>
      <trkpt lat="46.00423" lon="6.86239">
        <ele>2179.45</ele>
        <time>2015-08-02T07:43:35Z</time>
      </trkpt>
      <trkpt lat="46.00432" lon="6.86241">
        <ele>2182.33</ele>
        <time>2015-08-02T07:43:49Z</time>
      </trkpt>
      <trkpt lat="46.00438" lon="6.86244">
        <ele>2183.77</ele>
        <time>2015-08-02T07:43:58Z</time>
      </trkpt>
      <trkpt lat="46.0044" lon="6.86244">
        <ele>2184.25</ele>
        <time>2015-08-02T07:44:00Z</time>
      </trkpt>
      <trkpt lat="46.00447" lon="6.86248">
        <ele>2187.14</ele>
        <time>2015-08-02T07:44:09Z</time>
      </trkpt>
      <trkpt lat="46.00455" lon="6.86245">
        <ele>2190.02</ele>
        <time>2015-08-02T07:44:21Z</time>
      </trkpt>
      <trkpt lat="46.00461" lon="6.86241">
        <ele>2191.94</ele>
        <time>2015-08-02T07:44:34Z</time>
      </trkpt>
      <trkpt lat="46.00466" lon="6.86241">
        <ele>2194.35</ele>
        <time>2015-08-02T07:44:44Z</time>
      </trkpt>
      <trkpt lat="46.00476" lon="6.86238">
        <ele>2196.75</ele>
        <time>2015-08-02T07:44:57Z</time>
      </trkpt>
      <trkpt lat="46.00483" lon="6.86233">
        <ele>2198.19</ele>
        <time>2015-08-02T07:45:06Z</time>
      </trkpt>
      <trkpt lat="46.0049" lon="6.8623">
        <ele>2200.59</ele>
        <time>2015-08-02T07:45:18Z</time>
      </trkpt>
      <trkpt lat="46.00491" lon="6.86231">
        <ele>2201.08</ele>
        <time>2015-08-02T07:45:20Z</time>
      </trkpt>
      <trkpt lat="46.005" lon="6.86237">
        <ele>2204.44</ele>
        <time>2015-08-02T07:45:34Z</time>
      </trkpt>
      <trkpt lat="46.00506" lon="6.86235">
        <ele>2207.32</ele>
        <time>2015-08-02T07:45:46Z</time>
      </trkpt>
      <trkpt lat="46.00504" lon="6.86217">
        <ele>2210.69</ele>
        <time>2015-08-02T07:46:00Z</time>
      </trkpt>
      <trkpt lat="46.00504" lon="6.86215">
        <ele>2212.13</ele>
        <time>2015-08-02T07:46:04Z</time>
      </trkpt>
      <trkpt lat="46.00502" lon="6.86203">
        <ele>2214.05</ele>
        <time>2015-08-02T07:46:16Z</time>
      </trkpt>
      <trkpt lat="46.00501" lon="6.86195">
        <ele>2216.46</ele>
        <time>2015-08-02T07:46:24Z</time>
      </trkpt>
      <trkpt lat="46.00499" lon="6.8619">
        <ele>2217.42</ele>
        <time>2015-08-02T07:46:29Z</time>
      </trkpt>
      <trkpt lat="46.00503" lon="6.86187">
        <ele>2220.3</ele>
        <time>2015-08-02T07:46:41Z</time>
      </trkpt>
      <trkpt lat="46.00505" lon="6.86187">
        <ele>2221.26</ele>
        <time>2015-08-02T07:46:46Z</time>
      </trkpt>
      <trkpt lat="46.00509" lon="6.86191">
        <ele>2222.22</ele>
        <time>2015-08-02T07:46:53Z</time>
      </trkpt>
      <trkpt lat="46.00515" lon="6.86194">
        <ele>2225.11</ele>
        <time>2015-08-02T07:47:03Z</time>
      </trkpt>
      <trkpt lat="46.00519" lon="6.86198">
        <ele>2227.51</ele>
        <time>2015-08-02T07:47:11Z</time>
      </trkpt>
      <trkpt lat="46.00524" lon="6.86199">
        <ele>2228.47</ele>
        <time>2015-08-02T07:47:18Z</time>
      </trkpt>
      <trkpt lat="46.00532" lon="6.86191">
        <ele>2232.32</ele>
        <time>2015-08-02T07:47:32Z</time>
      </trkpt>
      <trkpt lat="46.00529" lon="6.86189">
        <ele>2233.28</ele>
        <time>2015-08-02T07:47:40Z</time>
      </trkpt>
      <trkpt lat="46.00528" lon="6.86182">
        <ele>2235.68</ele>
        <time>2015-08-02T07:47:51Z</time>
      </trkpt>
      <trkpt lat="46.00532" lon="6.86173">
        <ele>2239.05</ele>
        <time>2015-08-02T07:48:04Z</time>
      </trkpt>
      <trkpt lat="46.00534" lon="6.86171">
        <ele>2240.01</ele>
        <time>2015-08-02T07:48:09Z</time>
      </trkpt>
      <trkpt lat="46.00534" lon="6.86159">
        <ele>2242.89</ele>
        <time>2015-08-02T07:48:23Z</time>
      </trkpt>
      <trkpt lat="46.00532" lon="6.8615">
        <ele>2244.82</ele>
        <time>2015-08-02T07:48:35Z</time>
      </trkpt>
      <trkpt lat="46.00531" lon="6.86144">
        <ele>2246.26</ele>
        <time>2015-08-02T07:48:42Z</time>
      </trkpt>
      <trkpt lat="46.00524" lon="6.86132">
        <ele>2249.62</ele>
        <time>2015-08-02T07:48:55Z</time>
      </trkpt>
      <trkpt lat="46.00515" lon="6.86128">
        <ele>2251.54</ele>
        <time>2015-08-02T07:49:07Z</time>
      </trkpt>
      <trkpt lat="46.00507" lon="6.86123">
        <ele>2254.91</ele>
        <time>2015-08-02T07:49:21Z</time>
      </trkpt>
      <trkpt lat="46.0051" lon="6.86117">
        <ele>2257.79</ele>
        <time>2015-08-02T07:49:35Z</time>
      </trkpt>
      <trkpt lat="46.00507" lon="6.86112">
        <ele>2259.72</ele>
        <time>2015-08-02T07:49:47Z</time>
      </trkpt>
      <trkpt lat="46.00506" lon="6.86106">
        <ele>2262.12</ele>
        <time>2015-08-02T07:50:00Z</time>
      </trkpt>
      <trkpt lat="46.00498" lon="6.86097">
        <ele>2265</ele>
        <time>2015-08-02T07:50:16Z</time>
      </trkpt>
      <trkpt lat="46.00501" lon="6.86091">
        <ele>2268.37</ele>
        <time>2015-08-02T07:50:29Z</time>
      </trkpt>
      <trkpt lat="46.00499" lon="6.86084">
        <ele>2269.81</ele>
        <time>2015-08-02T07:50:39Z</time>
      </trkpt>
      <trkpt lat="46.00496" lon="6.8608">
        <ele>2272.21</ele>
        <time>2015-08-02T07:50:50Z</time>
      </trkpt>
      <trkpt lat="46.00492" lon="6.86073">
        <ele>2274.62</ele>
        <time>2015-08-02T07:51:01Z</time>
      </trkpt>
      <trkpt lat="46.00492" lon="6.86066">
        <ele>2277.5</ele>
        <time>2015-08-02T07:51:13Z</time>
      </trkpt>
      <trkpt lat="46.00498" lon="6.86066">
        <ele>2279.9</ele>
        <time>2015-08-02T07:51:25Z</time>
      </trkpt>
      <trkpt lat="46.00501" lon="6.86063">
        <ele>2281.83</ele>
        <time>2015-08-02T07:51:35Z</time>
      </trkpt>
      <trkpt lat="46.00511" lon="6.86063">
        <ele>2285.19</ele>
        <time>2015-08-02T07:51:49Z</time>
      </trkpt>
      <trkpt lat="46.00518" lon="6.86063">
        <ele>2288.08</ele>
        <time>2015-08-02T07:52:03Z</time>
      </trkpt>
      <trkpt lat="46.00523" lon="6.86065">
        <ele>2290</ele>
        <time>2015-08-02T07:52:14Z</time>
      </trkpt>
      <trkpt lat="46.00524" lon="6.86057">
        <ele>2292.4</ele>
        <time>2015-08-02T07:52:27Z</time>
      </trkpt>
      <trkpt lat="46.00525" lon="6.86051">
        <ele>2294.8</ele>
        <time>2015-08-02T07:52:39Z</time>
      </trkpt>
      <trkpt lat="46.00527" lon="6.86044">
        <ele>2297.69</ele>
        <time>2015-08-02T07:52:50Z</time>
      </trkpt>
      <trkpt lat="46.00531" lon="6.86047">
        <ele>2299.61</ele>
        <time>2015-08-02T07:53:02Z</time>
      </trkpt>
      <trkpt lat="46.00533" lon="6.86043">
        <ele>2302.49</ele>
        <time>2015-08-02T07:53:13Z</time>
      </trkpt>
      <trkpt lat="46.00537" lon="6.86047">
        <ele>2304.9</ele>
        <time>2015-08-02T07:53:25Z</time>
      </trkpt>
      <trkpt lat="46.00542" lon="6.86044">
        <ele>2307.78</ele>
        <time>2015-08-02T07:53:39Z</time>
      </trkpt>
      <trkpt lat="46.00542" lon="6.86044">
        <ele>2307.78</ele>
        <time>2015-08-02T07:53:41Z</time>
      </trkpt>
      <trkpt lat="46.00544" lon="6.86047">
        <ele>2308.26</ele>
        <time>2015-08-02T07:53:45Z</time>
      </trkpt>
      <trkpt lat="46.00551" lon="6.86048">
        <ele>2309.22</ele>
        <time>2015-08-02T07:53:52Z</time>
      </trkpt>
      <trkpt lat="46.00558" lon="6.86039">
        <ele>2312.59</ele>
        <time>2015-08-02T07:54:04Z</time>
      </trkpt>
      <trkpt lat="46.00558" lon="6.86038">
        <ele>2312.59</ele>
        <time>2015-08-02T07:54:05Z</time>
      </trkpt>
      <trkpt lat="46.00565" lon="6.86029">
        <ele>2315.47</ele>
        <time>2015-08-02T07:54:19Z</time>
      </trkpt>
      <trkpt lat="46.00568" lon="6.86028">
        <ele>2316.91</ele>
        <time>2015-08-02T07:54:24Z</time>
      </trkpt>
      <trkpt lat="46.00574" lon="6.86021">
        <ele>2319.32</ele>
        <time>2015-08-02T07:54:37Z</time>
      </trkpt>
      <trkpt lat="46.00571" lon="6.86013">
        <ele>2320.76</ele>
        <time>2015-08-02T07:54:46Z</time>
      </trkpt>
      <trkpt lat="46.00577" lon="6.86004">
        <ele>2322.68</ele>
        <time>2015-08-02T07:54:59Z</time>
      </trkpt>
      <trkpt lat="46.00584" lon="6.86">
        <ele>2322.68</ele>
        <time>2015-08-02T07:55:14Z</time>
      </trkpt>
      <trkpt lat="46.00586" lon="6.86">
        <ele>2322.68</ele>
        <time>2015-08-02T07:55:17Z</time>
      </trkpt>
      <trkpt lat="46.0059" lon="6.85995">
        <ele>2325.57</ele>
        <time>2015-08-02T07:55:28Z</time>
      </trkpt>
      <trkpt lat="46.00594" lon="6.85992">
        <ele>2327.97</ele>
        <time>2015-08-02T07:55:42Z</time>
      </trkpt>
      <trkpt lat="46.00598" lon="6.85987">
        <ele>2330.85</ele>
        <time>2015-08-02T07:55:55Z</time>
      </trkpt>
      <trkpt lat="46.00598" lon="6.85986">
        <ele>2330.85</ele>
        <time>2015-08-02T07:55:56Z</time>
      </trkpt>
      <trkpt lat="46.00601" lon="6.85978">
        <ele>2334.22</ele>
        <time>2015-08-02T07:56:08Z</time>
      </trkpt>
      <trkpt lat="46.00598" lon="6.85971">
        <ele>2336.62</ele>
        <time>2015-08-02T07:56:20Z</time>
      </trkpt>
      <trkpt lat="46.00598" lon="6.85969">
        <ele>2336.62</ele>
        <time>2015-08-02T07:56:22Z</time>
      </trkpt>
      <trkpt lat="46.00595" lon="6.85958">
        <ele>2339.02</ele>
        <time>2015-08-02T07:56:35Z</time>
      </trkpt>
      <trkpt lat="46.006" lon="6.85956">
        <ele>2341.43</ele>
        <time>2015-08-02T07:56:46Z</time>
      </trkpt>
      <trkpt lat="46.00605" lon="6.85953">
        <ele>2344.31</ele>
        <time>2015-08-02T07:56:57Z</time>
      </trkpt>
      <trkpt lat="46.00607" lon="6.85943">
        <ele>2346.72</ele>
        <time>2015-08-02T07:57:09Z</time>
      </trkpt>
      <trkpt lat="46.0061" lon="6.85938">
        <ele>2348.64</ele>
        <time>2015-08-02T07:57:21Z</time>
      </trkpt>
      <trkpt lat="46.00617" lon="6.85939">
        <ele>2350.56</ele>
        <time>2015-08-02T07:57:33Z</time>
      </trkpt>
      <trkpt lat="46.00617" lon="6.85939">
        <ele>2350.56</ele>
        <time>2015-08-02T07:57:34Z</time>
      </trkpt>
      <trkpt lat="46.00616" lon="6.8594">
        <ele>2351.04</ele>
        <time>2015-08-02T07:57:39Z</time>
      </trkpt>
      <trkpt lat="46.00623" lon="6.8594">
        <ele>2352.96</ele>
        <time>2015-08-02T07:57:51Z</time>
      </trkpt>
      <trkpt lat="46.00627" lon="6.85935">
        <ele>2353.93</ele>
        <time>2015-08-02T07:58:01Z</time>
      </trkpt>
      <trkpt lat="46.00629" lon="6.85929">
        <ele>2356.33</ele>
        <time>2015-08-02T07:58:14Z</time>
      </trkpt>
      <trkpt lat="46.0063" lon="6.85923">
        <ele>2358.73</ele>
        <time>2015-08-02T07:58:27Z</time>
      </trkpt>
      <trkpt lat="46.00634" lon="6.85924">
        <ele>2360.17</ele>
        <time>2015-08-02T07:58:35Z</time>
      </trkpt>
      <trkpt lat="46.00638" lon="6.85916">
        <ele>2363.06</ele>
        <time>2015-08-02T07:58:48Z</time>
      </trkpt>
      <trkpt lat="46.00641" lon="6.85912">
        <ele>2364.98</ele>
        <time>2015-08-02T07:58:58Z</time>
      </trkpt>
      <trkpt lat="46.00641" lon="6.85911">
        <ele>2364.98</ele>
        <time>2015-08-02T07:58:59Z</time>
      </trkpt>
      <trkpt lat="46.00641" lon="6.85903">
        <ele>2367.86</ele>
        <time>2015-08-02T07:59:12Z</time>
      </trkpt>
      <trkpt lat="46.00643" lon="6.85898">
        <ele>2369.31</ele>
        <time>2015-08-02T07:59:23Z</time>
      </trkpt>
      <trkpt lat="46.00644" lon="6.8589">
        <ele>2371.23</ele>
        <time>2015-08-02T07:59:33Z</time>
      </trkpt>
      <trkpt lat="46.00645" lon="6.85882">
        <ele>2372.67</ele>
        <time>2015-08-02T07:59:44Z</time>
      </trkpt>
      <trkpt lat="46.00648" lon="6.85877">
        <ele>2374.59</ele>
        <time>2015-08-02T07:59:59Z</time>
      </trkpt>
      <trkpt lat="46.00652" lon="6.85874">
        <ele>2375.07</ele>
        <time>2015-08-02T08:00:10Z</time>
      </trkpt>
      <trkpt lat="46.00658" lon="6.85871">
        <ele>2375.55</ele>
        <time>2015-08-02T08:00:23Z</time>
      </trkpt>
      <trkpt lat="46.0066" lon="6.85869">
        <ele>2377</ele>
        <time>2015-08-02T08:00:29Z</time>
      </trkpt>
      <trkpt lat="46.00662" lon="6.85868">
        <ele>2377.96</ele>
        <time>2015-08-02T08:00:32Z</time>
      </trkpt>
      <trkpt lat="46.00664" lon="6.85868">
        <ele>2378.92</ele>
        <time>2015-08-02T08:00:36Z</time>
      </trkpt>
      <trkpt lat="46.00666" lon="6.85868">
        <ele>2380.84</ele>
        <time>2015-08-02T08:00:38Z</time>
      </trkpt>
      <trkpt lat="46.00671" lon="6.85865">
        <ele>2381.32</ele>
        <time>2015-08-02T08:00:50Z</time>
      </trkpt>
      <trkpt lat="46.00675" lon="6.85863">
        <ele>2384.69</ele>
        <time>2015-08-02T08:01:00Z</time>
      </trkpt>
      <trkpt lat="46.00679" lon="6.85861">
        <ele>2386.13</ele>
        <time>2015-08-02T08:01:12Z</time>
      </trkpt>
      <trkpt lat="46.00682" lon="6.85862">
        <ele>2388.53</ele>
        <time>2015-08-02T08:01:18Z</time>
      </trkpt>
      <trkpt lat="46.00688" lon="6.85861">
        <ele>2389.49</ele>
        <time>2015-08-02T08:01:28Z</time>
      </trkpt>
      <trkpt lat="46.00694" lon="6.85856">
        <ele>2390.46</ele>
        <time>2015-08-02T08:01:39Z</time>
      </trkpt>
      <trkpt lat="46.00701" lon="6.8585">
        <ele>2392.86</ele>
        <time>2015-08-02T08:01:52Z</time>
      </trkpt>
      <trkpt lat="46.00706" lon="6.8584">
        <ele>2394.3</ele>
        <time>2015-08-02T08:02:05Z</time>
      </trkpt>
      <trkpt lat="46.00709" lon="6.85834">
        <ele>2396.22</ele>
        <time>2015-08-02T08:02:17Z</time>
      </trkpt>
      <trkpt lat="46.0071" lon="6.85834">
        <ele>2396.7</ele>
        <time>2015-08-02T08:02:20Z</time>
      </trkpt>
      <trkpt lat="46.00711" lon="6.85834">
        <ele>2398.15</ele>
        <time>2015-08-02T08:02:23Z</time>
      </trkpt>
      <trkpt lat="46.00715" lon="6.85831">
        <ele>2400.07</ele>
        <time>2015-08-02T08:02:30Z</time>
      </trkpt>
      <trkpt lat="46.00716" lon="6.85832">
        <ele>2399.59</ele>
        <time>2015-08-02T08:02:32Z</time>
      </trkpt>
      <trkpt lat="46.00717" lon="6.85833">
        <ele>2399.59</ele>
        <time>2015-08-02T08:02:34Z</time>
      </trkpt>
      <trkpt lat="46.0072" lon="6.85834">
        <ele>2401.51</ele>
        <time>2015-08-02T08:02:43Z</time>
      </trkpt>
      <trkpt lat="46.00728" lon="6.85838">
        <ele>2403.91</ele>
        <time>2015-08-02T08:02:55Z</time>
      </trkpt>
      <trkpt lat="46.0073" lon="6.85838">
        <ele>2404.88</ele>
        <time>2015-08-02T08:02:59Z</time>
      </trkpt>
      <trkpt lat="46.00738" lon="6.85838">
        <ele>2406.8</ele>
        <time>2015-08-02T08:03:11Z</time>
      </trkpt>
      <trkpt lat="46.00743" lon="6.85832">
        <ele>2408.24</ele>
        <time>2015-08-02T08:03:21Z</time>
      </trkpt>
      <trkpt lat="46.0075" lon="6.85826">
        <ele>2410.64</ele>
        <time>2015-08-02T08:03:33Z</time>
      </trkpt>
      <trkpt lat="46.00759" lon="6.85824">
        <ele>2412.09</ele>
        <time>2015-08-02T08:03:46Z</time>
      </trkpt>
      <trkpt lat="46.00762" lon="6.85822">
        <ele>2413.53</ele>
        <time>2015-08-02T08:03:51Z</time>
      </trkpt>
      <trkpt lat="46.00766" lon="6.85819">
        <ele>2414.97</ele>
        <time>2015-08-02T08:03:58Z</time>
      </trkpt>
      <trkpt lat="46.00776" lon="6.85819">
        <ele>2414.97</ele>
        <time>2015-08-02T08:04:12Z</time>
      </trkpt>
      <trkpt lat="46.00778" lon="6.85817">
        <ele>2413.53</ele>
        <time>2015-08-02T08:04:15Z</time>
      </trkpt>
      <trkpt lat="46.0078" lon="6.85816">
        <ele>2414.97</ele>
        <time>2015-08-02T08:04:20Z</time>
      </trkpt>
      <trkpt lat="46.00783" lon="6.85811">
        <ele>2417.85</ele>
        <time>2015-08-02T08:04:34Z</time>
      </trkpt>
      <trkpt lat="46.00786" lon="6.85805">
        <ele>2420.26</ele>
        <time>2015-08-02T08:04:46Z</time>
      </trkpt>
      <trkpt lat="46.00789" lon="6.85802">
        <ele>2422.18</ele>
        <time>2015-08-02T08:04:58Z</time>
      </trkpt>
      <trkpt lat="46.00792" lon="6.85799">
        <ele>2424.1</ele>
        <time>2015-08-02T08:05:12Z</time>
      </trkpt>
      <trkpt lat="46.00793" lon="6.85797">
        <ele>2424.58</ele>
        <time>2015-08-02T08:05:27Z</time>
      </trkpt>
      <trkpt lat="46.00789" lon="6.85794">
        <ele>2426.02</ele>
        <time>2015-08-02T08:05:41Z</time>
      </trkpt>
      <trkpt lat="46.00789" lon="6.85792">
        <ele>2427.95</ele>
        <time>2015-08-02T08:05:54Z</time>
      </trkpt>
      <trkpt lat="46.00792" lon="6.85788">
        <ele>2428.91</ele>
        <time>2015-08-02T08:06:05Z</time>
      </trkpt>
      <trkpt lat="46.00791" lon="6.85781">
        <ele>2429.87</ele>
        <time>2015-08-02T08:06:15Z</time>
      </trkpt>
      <trkpt lat="46.00791" lon="6.85781">
        <ele>2430.83</ele>
        <time>2015-08-02T08:06:16Z</time>
      </trkpt>
      <trkpt lat="46.00791" lon="6.85773">
        <ele>2433.71</ele>
        <time>2015-08-02T08:06:27Z</time>
      </trkpt>
      <trkpt lat="46.00789" lon="6.85763">
        <ele>2434.2</ele>
        <time>2015-08-02T08:06:39Z</time>
      </trkpt>
      <trkpt lat="46.00789" lon="6.85761">
        <ele>2436.12</ele>
        <time>2015-08-02T08:06:50Z</time>
      </trkpt>
      <trkpt lat="46.00789" lon="6.85757">
        <ele>2437.08</ele>
        <time>2015-08-02T08:06:53Z</time>
      </trkpt>
      <trkpt lat="46.00789" lon="6.8575">
        <ele>2439</ele>
        <time>2015-08-02T08:07:04Z</time>
      </trkpt>
      <trkpt lat="46.0079" lon="6.85741">
        <ele>2441.41</ele>
        <time>2015-08-02T08:07:16Z</time>
      </trkpt>
      <trkpt lat="46.00789" lon="6.85732">
        <ele>2442.37</ele>
        <time>2015-08-02T08:07:26Z</time>
      </trkpt>
      <trkpt lat="46.00789" lon="6.85731">
        <ele>2442.37</ele>
        <time>2015-08-02T08:07:27Z</time>
      </trkpt>
      <trkpt lat="46.00792" lon="6.85724">
        <ele>2445.25</ele>
        <time>2015-08-02T08:07:39Z</time>
      </trkpt>
      <trkpt lat="46.00793" lon="6.85714">
        <ele>2448.13</ele>
        <time>2015-08-02T08:07:52Z</time>
      </trkpt>
      <trkpt lat="46.0079" lon="6.85712">
        <ele>2448.13</ele>
        <time>2015-08-02T08:07:55Z</time>
      </trkpt>
      <trkpt lat="46.0079" lon="6.85702">
        <ele>2451.02</ele>
        <time>2015-08-02T08:08:07Z</time>
      </trkpt>
      <trkpt lat="46.00793" lon="6.85692">
        <ele>2452.94</ele>
        <time>2015-08-02T08:08:20Z</time>
      </trkpt>
      <trkpt lat="46.00796" lon="6.85686">
        <ele>2455.82</ele>
        <time>2015-08-02T08:08:33Z</time>
      </trkpt>
      <trkpt lat="46.00798" lon="6.85683">
        <ele>2457.27</ele>
        <time>2015-08-02T08:08:44Z</time>
      </trkpt>
      <trkpt lat="46.00799" lon="6.85686">
        <ele>2459.19</ele>
        <time>2015-08-02T08:08:55Z</time>
      </trkpt>
      <trkpt lat="46.00803" lon="6.8568">
        <ele>2460.63</ele>
        <time>2015-08-02T08:09:08Z</time>
      </trkpt>
      <trkpt lat="46.00809" lon="6.85678">
        <ele>2463.52</ele>
        <time>2015-08-02T08:09:22Z</time>
      </trkpt>
      <trkpt lat="46.00815" lon="6.85676">
        <ele>2466.4</ele>
        <time>2015-08-02T08:09:35Z</time>
      </trkpt>
      <trkpt lat="46.0082" lon="6.85676">
        <ele>2468.32</ele>
        <time>2015-08-02T08:09:47Z</time>
      </trkpt>
      <trkpt lat="46.00822" lon="6.85675">
        <ele>2468.8</ele>
        <time>2015-08-02T08:09:50Z</time>
      </trkpt>
      <trkpt lat="46.0083" lon="6.85668">
        <ele>2470.73</ele>
        <time>2015-08-02T08:10:04Z</time>
      </trkpt>
      <trkpt lat="46.0083" lon="6.85664">
        <ele>2472.65</ele>
        <time>2015-08-02T08:10:10Z</time>
      </trkpt>
      <trkpt lat="46.00838" lon="6.85659">
        <ele>2475.05</ele>
        <time>2015-08-02T08:10:24Z</time>
      </trkpt>
      <trkpt lat="46.00842" lon="6.85658">
        <ele>2477.45</ele>
        <time>2015-08-02T08:10:34Z</time>
      </trkpt>
      <trkpt lat="46.00849" lon="6.85656">
        <ele>2479.86</ele>
        <time>2015-08-02T08:10:46Z</time>
      </trkpt>
      <trkpt lat="46.00857" lon="6.85649">
        <ele>2481.3</ele>
        <time>2015-08-02T08:10:58Z</time>
      </trkpt>
      <trkpt lat="46.00866" lon="6.85645">
        <ele>2482.74</ele>
        <time>2015-08-02T08:11:08Z</time>
      </trkpt>
      <trkpt lat="46.00883" lon="6.85635">
        <ele>2485.15</ele>
        <time>2015-08-02T08:11:25Z</time>
      </trkpt>
      <trkpt lat="46.00896" lon="6.85635">
        <ele>2485.63</ele>
        <time>2015-08-02T08:11:38Z</time>
      </trkpt>
      <trkpt lat="46.00905" lon="6.85633">
        <ele>2485.63</ele>
        <time>2015-08-02T08:11:45Z</time>
      </trkpt>
      <trkpt lat="46.00908" lon="6.85632">
        <ele>2485.63</ele>
        <time>2015-08-02T08:11:47Z</time>
      </trkpt>
      <trkpt lat="46.00919" lon="6.85626">
        <ele>2486.11</ele>
        <time>2015-08-02T08:11:56Z</time>
      </trkpt>
      <trkpt lat="46.00925" lon="6.85628">
        <ele>2484.66</ele>
        <time>2015-08-02T08:12:00Z</time>
      </trkpt>
      <trkpt lat="46.00927" lon="6.85628">
        <ele>2484.66</ele>
        <time>2015-08-02T08:12:01Z</time>
      </trkpt>
      <trkpt lat="46.00928" lon="6.85628">
        <ele>2484.66</ele>
        <time>2015-08-02T08:12:02Z</time>
      </trkpt>
      <trkpt lat="46.0093" lon="6.85628">
        <ele>2484.18</ele>
        <time>2015-08-02T08:12:03Z</time>
      </trkpt>
      <trkpt lat="46.00932" lon="6.85627">
        <ele>2483.7</ele>
        <time>2015-08-02T08:12:04Z</time>
      </trkpt>
      <trkpt lat="46.00933" lon="6.85627">
        <ele>2484.18</ele>
        <time>2015-08-02T08:12:05Z</time>
      </trkpt>
      <trkpt lat="46.00934" lon="6.85627">
        <ele>2484.18</ele>
        <time>2015-08-02T08:12:06Z</time>
      </trkpt>
      <trkpt lat="46.00936" lon="6.85627">
        <ele>2483.22</ele>
        <time>2015-08-02T08:12:07Z</time>
      </trkpt>
      <trkpt lat="46.00938" lon="6.85626">
        <ele>2483.22</ele>
        <time>2015-08-02T08:12:08Z</time>
      </trkpt>
      <trkpt lat="46.00939" lon="6.85625">
        <ele>2483.22</ele>
        <time>2015-08-02T08:12:09Z</time>
      </trkpt>
      <trkpt lat="46.0094" lon="6.85624">
        <ele>2483.22</ele>
        <time>2015-08-02T08:12:10Z</time>
      </trkpt>
      <trkpt lat="46.00941" lon="6.85623">
        <ele>2483.22</ele>
        <time>2015-08-02T08:12:11Z</time>
      </trkpt>
      <trkpt lat="46.00942" lon="6.85621">
        <ele>2484.66</ele>
        <time>2015-08-02T08:12:12Z</time>
      </trkpt>
      <trkpt lat="46.00943" lon="6.8562">
        <ele>2484.66</ele>
        <time>2015-08-02T08:12:13Z</time>
      </trkpt>
      <trkpt lat="46.00944" lon="6.85618">
        <ele>2484.66</ele>
        <time>2015-08-02T08:12:14Z</time>
      </trkpt>
      <trkpt lat="46.00945" lon="6.85617">
        <ele>2484.66</ele>
        <time>2015-08-02T08:12:15Z</time>
      </trkpt>
      <trkpt lat="46.00946" lon="6.85616">
        <ele>2485.15</ele>
        <time>2015-08-02T08:12:16Z</time>
      </trkpt>
      <trkpt lat="46.00947" lon="6.85616">
        <ele>2485.15</ele>
        <time>2015-08-02T08:12:17Z</time>
      </trkpt>
      <trkpt lat="46.0096" lon="6.85613">
        <ele>2485.63</ele>
        <time>2015-08-02T08:12:29Z</time>
      </trkpt>
      <trkpt lat="46.00961" lon="6.85612">
        <ele>2485.63</ele>
        <time>2015-08-02T08:12:30Z</time>
      </trkpt>
      <trkpt lat="46.00963" lon="6.85612">
        <ele>2486.59</ele>
        <time>2015-08-02T08:12:32Z</time>
      </trkpt>
      <trkpt lat="46.00979" lon="6.85614">
        <ele>2488.03</ele>
        <time>2015-08-02T08:12:44Z</time>
      </trkpt>
      <trkpt lat="46.0098" lon="6.85614">
        <ele>2488.51</ele>
        <time>2015-08-02T08:12:45Z</time>
      </trkpt>
      <trkpt lat="46.00981" lon="6.85615">
        <ele>2488.51</ele>
        <time>2015-08-02T08:12:46Z</time>
      </trkpt>
      <trkpt lat="46.00982" lon="6.85615">
        <ele>2488.51</ele>
        <time>2015-08-02T08:12:47Z</time>
      </trkpt>
      <trkpt lat="46.00997" lon="6.85613">
        <ele>2491.87</ele>
        <time>2015-08-02T08:13:01Z</time>
      </trkpt>
      <trkpt lat="46.00999" lon="6.85612">
        <ele>2491.87</ele>
        <time>2015-08-02T08:13:03Z</time>
      </trkpt>
      <trkpt lat="46.01" lon="6.85612">
        <ele>2491.87</ele>
        <time>2015-08-02T08:13:04Z</time>
      </trkpt>
      <trkpt lat="46.01001" lon="6.85611">
        <ele>2491.87</ele>
        <time>2015-08-02T08:13:05Z</time>
      </trkpt>
      <trkpt lat="46.01011" lon="6.85606">
        <ele>2495.24</ele>
        <time>2015-08-02T08:13:16Z</time>
      </trkpt>
      <trkpt lat="46.01025" lon="6.8561">
        <ele>2495.72</ele>
        <time>2015-08-02T08:13:28Z</time>
      </trkpt>
      <trkpt lat="46.01031" lon="6.8561">
        <ele>2496.68</ele>
        <time>2015-08-02T08:13:33Z</time>
      </trkpt>
      <trkpt lat="46.01032" lon="6.85609">
        <ele>2496.68</ele>
        <time>2015-08-02T08:13:34Z</time>
      </trkpt>
      <trkpt lat="46.01035" lon="6.85608">
        <ele>2498.12</ele>
        <time>2015-08-02T08:13:37Z</time>
      </trkpt>
      <trkpt lat="46.01038" lon="6.85605">
        <ele>2499.08</ele>
        <time>2015-08-02T08:13:40Z</time>
      </trkpt>
      <trkpt lat="46.01039" lon="6.85605">
        <ele>2499.08</ele>
        <time>2015-08-02T08:13:41Z</time>
      </trkpt>
      <trkpt lat="46.01041" lon="6.85605">
        <ele>2499.57</ele>
        <time>2015-08-02T08:13:42Z</time>
      </trkpt>
      <trkpt lat="46.01042" lon="6.85605">
        <ele>2499.57</ele>
        <time>2015-08-02T08:13:43Z</time>
      </trkpt>
      <trkpt lat="46.01043" lon="6.85605">
        <ele>2499.57</ele>
        <time>2015-08-02T08:13:44Z</time>
      </trkpt>
      <trkpt lat="46.01062" lon="6.85605">
        <ele>2500.05</ele>
        <time>2015-08-02T08:13:58Z</time>
      </trkpt>
      <trkpt lat="46.01069" lon="6.85597">
        <ele>2501.97</ele>
        <time>2015-08-02T08:14:07Z</time>
      </trkpt>
      <trkpt lat="46.01071" lon="6.85596">
        <ele>2503.41</ele>
        <time>2015-08-02T08:14:10Z</time>
      </trkpt>
      <trkpt lat="46.01076" lon="6.85591">
        <ele>2505.81</ele>
        <time>2015-08-02T08:14:17Z</time>
      </trkpt>
      <trkpt lat="46.01077" lon="6.85585">
        <ele>2507.26</ele>
        <time>2015-08-02T08:14:21Z</time>
      </trkpt>
      <trkpt lat="46.01079" lon="6.85579">
        <ele>2508.7</ele>
        <time>2015-08-02T08:14:27Z</time>
      </trkpt>
      <trkpt lat="46.01082" lon="6.85574">
        <ele>2510.62</ele>
        <time>2015-08-02T08:14:31Z</time>
      </trkpt>
      <trkpt lat="46.01084" lon="6.85571">
        <ele>2510.62</ele>
        <time>2015-08-02T08:14:35Z</time>
      </trkpt>
      <trkpt lat="46.01084" lon="6.85569">
        <ele>2510.62</ele>
        <time>2015-08-02T08:14:36Z</time>
      </trkpt>
      <trkpt lat="46.01084" lon="6.85567">
        <ele>2510.62</ele>
        <time>2015-08-02T08:14:37Z</time>
      </trkpt>
      <trkpt lat="46.01083" lon="6.85541">
        <ele>2512.06</ele>
        <time>2015-08-02T08:14:53Z</time>
      </trkpt>
      <trkpt lat="46.01084" lon="6.8554">
        <ele>2512.06</ele>
        <time>2015-08-02T08:14:54Z</time>
      </trkpt>
      <trkpt lat="46.01087" lon="6.85519">
        <ele>2513.02</ele>
        <time>2015-08-02T08:15:07Z</time>
      </trkpt>
      <trkpt lat="46.01089" lon="6.85511">
        <ele>2513.02</ele>
        <time>2015-08-02T08:15:12Z</time>
      </trkpt>
      <trkpt lat="46.01089" lon="6.85509">
        <ele>2513.02</ele>
        <time>2015-08-02T08:15:13Z</time>
      </trkpt>
      <trkpt lat="46.01089" lon="6.85507">
        <ele>2513.02</ele>
        <time>2015-08-02T08:15:14Z</time>
      </trkpt>
      <trkpt lat="46.01089" lon="6.85505">
        <ele>2513.02</ele>
        <time>2015-08-02T08:15:15Z</time>
      </trkpt>
      <trkpt lat="46.01089" lon="6.85503">
        <ele>2513.02</ele>
        <time>2015-08-02T08:15:16Z</time>
      </trkpt>
      <trkpt lat="46.01089" lon="6.85501">
        <ele>2513.02</ele>
        <time>2015-08-02T08:15:17Z</time>
      </trkpt>
      <trkpt lat="46.01089" lon="6.85499">
        <ele>2513.02</ele>
        <time>2015-08-02T08:15:18Z</time>
      </trkpt>
      <trkpt lat="46.01089" lon="6.85497">
        <ele>2513.98</ele>
        <time>2015-08-02T08:15:19Z</time>
      </trkpt>
      <trkpt lat="46.01089" lon="6.85495">
        <ele>2513.98</ele>
        <time>2015-08-02T08:15:20Z</time>
      </trkpt>
      <trkpt lat="46.01089" lon="6.85493">
        <ele>2513.98</ele>
        <time>2015-08-02T08:15:21Z</time>
      </trkpt>
      <trkpt lat="46.01089" lon="6.85491">
        <ele>2514.47</ele>
        <time>2015-08-02T08:15:22Z</time>
      </trkpt>
      <trkpt lat="46.01089" lon="6.85489">
        <ele>2514.47</ele>
        <time>2015-08-02T08:15:23Z</time>
      </trkpt>
      <trkpt lat="46.0109" lon="6.85487">
        <ele>2514.95</ele>
        <time>2015-08-02T08:15:24Z</time>
      </trkpt>
      <trkpt lat="46.0109" lon="6.85482">
        <ele>2515.43</ele>
        <time>2015-08-02T08:15:28Z</time>
      </trkpt>
      <trkpt lat="46.01091" lon="6.85469">
        <ele>2516.87</ele>
        <time>2015-08-02T08:15:36Z</time>
      </trkpt>
      <trkpt lat="46.01091" lon="6.85467">
        <ele>2516.87</ele>
        <time>2015-08-02T08:15:37Z</time>
      </trkpt>
      <trkpt lat="46.01096" lon="6.85449">
        <ele>2517.35</ele>
        <time>2015-08-02T08:15:45Z</time>
      </trkpt>
      <trkpt lat="46.01096" lon="6.85447">
        <ele>2517.35</ele>
        <time>2015-08-02T08:15:46Z</time>
      </trkpt>
      <trkpt lat="46.01098" lon="6.85437">
        <ele>2517.35</ele>
        <time>2015-08-02T08:15:51Z</time>
      </trkpt>
      <trkpt lat="46.01098" lon="6.85435">
        <ele>2517.35</ele>
        <time>2015-08-02T08:15:52Z</time>
      </trkpt>
      <trkpt lat="46.01099" lon="6.85433">
        <ele>2517.35</ele>
        <time>2015-08-02T08:15:53Z</time>
      </trkpt>
      <trkpt lat="46.011" lon="6.85431">
        <ele>2517.35</ele>
        <time>2015-08-02T08:15:54Z</time>
      </trkpt>
      <trkpt lat="46.011" lon="6.85429">
        <ele>2517.83</ele>
        <time>2015-08-02T08:15:55Z</time>
      </trkpt>
      <trkpt lat="46.011" lon="6.85427">
        <ele>2518.31</ele>
        <time>2015-08-02T08:15:56Z</time>
      </trkpt>
      <trkpt lat="46.011" lon="6.85425">
        <ele>2518.31</ele>
        <time>2015-08-02T08:15:57Z</time>
      </trkpt>
      <trkpt lat="46.011" lon="6.85423">
        <ele>2518.31</ele>
        <time>2015-08-02T08:15:58Z</time>
      </trkpt>
      <trkpt lat="46.011" lon="6.8542">
        <ele>2518.79</ele>
        <time>2015-08-02T08:16:00Z</time>
      </trkpt>
      <trkpt lat="46.011" lon="6.85418">
        <ele>2518.79</ele>
        <time>2015-08-02T08:16:01Z</time>
      </trkpt>
      <trkpt lat="46.01101" lon="6.85417">
        <ele>2519.27</ele>
        <time>2015-08-02T08:16:02Z</time>
      </trkpt>
      <trkpt lat="46.01101" lon="6.85415">
        <ele>2519.75</ele>
        <time>2015-08-02T08:16:03Z</time>
      </trkpt>
      <trkpt lat="46.01101" lon="6.85413">
        <ele>2520.23</ele>
        <time>2015-08-02T08:16:04Z</time>
      </trkpt>
      <trkpt lat="46.01102" lon="6.85412">
        <ele>2520.23</ele>
        <time>2015-08-02T08:16:05Z</time>
      </trkpt>
      <trkpt lat="46.01103" lon="6.85411">
        <ele>2520.23</ele>
        <time>2015-08-02T08:16:06Z</time>
      </trkpt>
      <trkpt lat="46.01103" lon="6.85409">
        <ele>2520.71</ele>
        <time>2015-08-02T08:16:07Z</time>
      </trkpt>
      <trkpt lat="46.01116" lon="6.85385">
        <ele>2524.08</ele>
        <time>2015-08-02T08:16:18Z</time>
      </trkpt>
      <trkpt lat="46.01124" lon="6.85368">
        <ele>2525.52</ele>
        <time>2015-08-02T08:16:27Z</time>
      </trkpt>
      <trkpt lat="46.01126" lon="6.85363">
        <ele>2527.44</ele>
        <time>2015-08-02T08:16:33Z</time>
      </trkpt>
      <trkpt lat="46.01126" lon="6.8536">
        <ele>2528.4</ele>
        <time>2015-08-02T08:16:36Z</time>
      </trkpt>
      <trkpt lat="46.01127" lon="6.85357">
        <ele>2528.89</ele>
        <time>2015-08-02T08:16:39Z</time>
      </trkpt>
      <trkpt lat="46.01131" lon="6.85345">
        <ele>2530.33</ele>
        <time>2015-08-02T08:16:48Z</time>
      </trkpt>
      <trkpt lat="46.01133" lon="6.8534">
        <ele>2530.81</ele>
        <time>2015-08-02T08:16:52Z</time>
      </trkpt>
      <trkpt lat="46.01139" lon="6.85328">
        <ele>2533.69</ele>
        <time>2015-08-02T08:17:06Z</time>
      </trkpt>
      <trkpt lat="46.01143" lon="6.85322">
        <ele>2537.06</ele>
        <time>2015-08-02T08:17:18Z</time>
      </trkpt>
      <trkpt lat="46.01153" lon="6.85318">
        <ele>2539.94</ele>
        <time>2015-08-02T08:17:30Z</time>
      </trkpt>
      <trkpt lat="46.01163" lon="6.85315">
        <ele>2542.34</ele>
        <time>2015-08-02T08:17:43Z</time>
      </trkpt>
      <trkpt lat="46.01166" lon="6.85308">
        <ele>2544.75</ele>
        <time>2015-08-02T08:17:51Z</time>
      </trkpt>
      <trkpt lat="46.01173" lon="6.85301">
        <ele>2546.67</ele>
        <time>2015-08-02T08:18:01Z</time>
      </trkpt>
      <trkpt lat="46.01174" lon="6.853">
        <ele>2546.67</ele>
        <time>2015-08-02T08:18:02Z</time>
      </trkpt>
      <trkpt lat="46.01177" lon="6.85298">
        <ele>2547.15</ele>
        <time>2015-08-02T08:18:06Z</time>
      </trkpt>
      <trkpt lat="46.01183" lon="6.85293">
        <ele>2549.07</ele>
        <time>2015-08-02T08:18:16Z</time>
      </trkpt>
      <trkpt lat="46.01184" lon="6.85292">
        <ele>2549.55</ele>
        <time>2015-08-02T08:18:17Z</time>
      </trkpt>
      <trkpt lat="46.01185" lon="6.85291">
        <ele>2549.07</ele>
        <time>2015-08-02T08:18:18Z</time>
      </trkpt>
      <trkpt lat="46.01186" lon="6.8529">
        <ele>2549.07</ele>
        <time>2015-08-02T08:18:19Z</time>
      </trkpt>
      <trkpt lat="46.01187" lon="6.85289">
        <ele>2549.07</ele>
        <time>2015-08-02T08:18:20Z</time>
      </trkpt>
      <trkpt lat="46.01187" lon="6.8529">
        <ele>2549.07</ele>
        <time>2015-08-02T08:18:21Z</time>
      </trkpt>
      <trkpt lat="46.01188" lon="6.85288">
        <ele>2549.07</ele>
        <time>2015-08-02T08:18:22Z</time>
      </trkpt>
      <trkpt lat="46.01198" lon="6.85275">
        <ele>2552.44</ele>
        <time>2015-08-02T08:18:37Z</time>
      </trkpt>
      <trkpt lat="46.0121" lon="6.8526">
        <ele>2554.36</ele>
        <time>2015-08-02T08:18:51Z</time>
      </trkpt>
      <trkpt lat="46.01215" lon="6.85244">
        <ele>2557.24</ele>
        <time>2015-08-02T08:19:03Z</time>
      </trkpt>
      <trkpt lat="46.01219" lon="6.8523">
        <ele>2560.61</ele>
        <time>2015-08-02T08:19:14Z</time>
      </trkpt>
      <trkpt lat="46.0122" lon="6.85219">
        <ele>2563.49</ele>
        <time>2015-08-02T08:19:27Z</time>
      </trkpt>
      <trkpt lat="46.01228" lon="6.85207">
        <ele>2565.9</ele>
        <time>2015-08-02T08:19:40Z</time>
      </trkpt>
      <trkpt lat="46.01231" lon="6.85199">
        <ele>2569.26</ele>
        <time>2015-08-02T08:19:51Z</time>
      </trkpt>
      <trkpt lat="46.01236" lon="6.85188">
        <ele>2572.14</ele>
        <time>2015-08-02T08:20:04Z</time>
      </trkpt>
      <trkpt lat="46.01241" lon="6.85177">
        <ele>2574.55</ele>
        <time>2015-08-02T08:20:17Z</time>
      </trkpt>
      <trkpt lat="46.01248" lon="6.85165">
        <ele>2578.39</ele>
        <time>2015-08-02T08:20:31Z</time>
      </trkpt>
      <trkpt lat="46.01255" lon="6.85151">
        <ele>2581.76</ele>
        <time>2015-08-02T08:20:46Z</time>
      </trkpt>
      <trkpt lat="46.01261" lon="6.85141">
        <ele>2585.12</ele>
        <time>2015-08-02T08:20:58Z</time>
      </trkpt>
      <trkpt lat="46.01266" lon="6.85128">
        <ele>2588.01</ele>
        <time>2015-08-02T08:21:10Z</time>
      </trkpt>
      <trkpt lat="46.01273" lon="6.8512">
        <ele>2591.37</ele>
        <time>2015-08-02T08:21:21Z</time>
      </trkpt>
      <trkpt lat="46.01274" lon="6.85119">
        <ele>2591.37</ele>
        <time>2015-08-02T08:21:22Z</time>
      </trkpt>
      <trkpt lat="46.01277" lon="6.85116">
        <ele>2592.81</ele>
        <time>2015-08-02T08:21:29Z</time>
      </trkpt>
      <trkpt lat="46.01278" lon="6.85111">
        <ele>2594.74</ele>
        <time>2015-08-02T08:21:34Z</time>
      </trkpt>
      <trkpt lat="46.01292" lon="6.85106">
        <ele>2598.1</ele>
        <time>2015-08-02T08:21:50Z</time>
      </trkpt>
      <trkpt lat="46.013" lon="6.85099">
        <ele>2600.5</ele>
        <time>2015-08-02T08:22:01Z</time>
      </trkpt>
      <trkpt lat="46.01303" lon="6.85092">
        <ele>2601.46</ele>
        <time>2015-08-02T08:22:08Z</time>
      </trkpt>
      <trkpt lat="46.01301" lon="6.8508">
        <ele>2604.35</ele>
        <time>2015-08-02T08:22:21Z</time>
      </trkpt>
      <trkpt lat="46.01307" lon="6.85073">
        <ele>2607.71</ele>
        <time>2015-08-02T08:22:31Z</time>
      </trkpt>
      <trkpt lat="46.01314" lon="6.85066">
        <ele>2610.6</ele>
        <time>2015-08-02T08:22:45Z</time>
      </trkpt>
      <trkpt lat="46.0132" lon="6.85058">
        <ele>2613</ele>
        <time>2015-08-02T08:22:57Z</time>
      </trkpt>
      <trkpt lat="46.01324" lon="6.8505">
        <ele>2615.88</ele>
        <time>2015-08-02T08:23:11Z</time>
      </trkpt>
      <trkpt lat="46.01334" lon="6.85047">
        <ele>2619.25</ele>
        <time>2015-08-02T08:23:25Z</time>
      </trkpt>
      <trkpt lat="46.01344" lon="6.85042">
        <ele>2622.13</ele>
        <time>2015-08-02T08:23:39Z</time>
      </trkpt>
      <trkpt lat="46.01357" lon="6.85035">
        <ele>2624.06</ele>
        <time>2015-08-02T08:23:55Z</time>
      </trkpt>
      <trkpt lat="46.01359" lon="6.85035">
        <ele>2625.02</ele>
        <time>2015-08-02T08:23:57Z</time>
      </trkpt>
      <trkpt lat="46.0137" lon="6.85036">
        <ele>2626.46</ele>
        <time>2015-08-02T08:24:11Z</time>
      </trkpt>
      <trkpt lat="46.01382" lon="6.85031">
        <ele>2628.86</ele>
        <time>2015-08-02T08:24:26Z</time>
      </trkpt>
      <trkpt lat="46.01384" lon="6.85029">
        <ele>2629.82</ele>
        <time>2015-08-02T08:24:29Z</time>
      </trkpt>
      <trkpt lat="46.01393" lon="6.85018">
        <ele>2633.19</ele>
        <time>2015-08-02T08:24:45Z</time>
      </trkpt>
      <trkpt lat="46.01399" lon="6.85009">
        <ele>2636.55</ele>
        <time>2015-08-02T08:24:58Z</time>
      </trkpt>
      <trkpt lat="46.01404" lon="6.85002">
        <ele>2639.92</ele>
        <time>2015-08-02T08:25:11Z</time>
      </trkpt>
      <trkpt lat="46.01408" lon="6.84996">
        <ele>2641.84</ele>
        <time>2015-08-02T08:25:23Z</time>
      </trkpt>
      <trkpt lat="46.01412" lon="6.8499">
        <ele>2644.72</ele>
        <time>2015-08-02T08:25:35Z</time>
      </trkpt>
      <trkpt lat="46.01422" lon="6.84988">
        <ele>2647.61</ele>
        <time>2015-08-02T08:25:51Z</time>
      </trkpt>
      <trkpt lat="46.0143" lon="6.84991">
        <ele>2650.97</ele>
        <time>2015-08-02T08:26:04Z</time>
      </trkpt>
      <trkpt lat="46.01441" lon="6.84992">
        <ele>2653.38</ele>
        <time>2015-08-02T08:26:19Z</time>
      </trkpt>
      <trkpt lat="46.0145" lon="6.84986">
        <ele>2656.26</ele>
        <time>2015-08-02T08:26:35Z</time>
      </trkpt>
      <trkpt lat="46.01461" lon="6.84982">
        <ele>2658.66</ele>
        <time>2015-08-02T08:26:51Z</time>
      </trkpt>
      <trkpt lat="46.01466" lon="6.84987">
        <ele>2661.55</ele>
        <time>2015-08-02T08:27:04Z</time>
      </trkpt>
      <trkpt lat="46.01472" lon="6.84992">
        <ele>2664.43</ele>
        <time>2015-08-02T08:27:17Z</time>
      </trkpt>
      <trkpt lat="46.0148" lon="6.85">
        <ele>2667.31</ele>
        <time>2015-08-02T08:27:33Z</time>
      </trkpt>
      <trkpt lat="46.01485" lon="6.85006">
        <ele>2669.24</ele>
        <time>2015-08-02T08:27:46Z</time>
      </trkpt>
      <trkpt lat="46.01494" lon="6.85011">
        <ele>2671.16</ele>
        <time>2015-08-02T08:28:00Z</time>
      </trkpt>
      <trkpt lat="46.01499" lon="6.85017">
        <ele>2673.56</ele>
        <time>2015-08-02T08:28:10Z</time>
      </trkpt>
      <trkpt lat="46.0151" lon="6.85026">
        <ele>2675.97</ele>
        <time>2015-08-02T08:28:26Z</time>
      </trkpt>
      <trkpt lat="46.0152" lon="6.85032">
        <ele>2679.33</ele>
        <time>2015-08-02T08:28:39Z</time>
      </trkpt>
      <trkpt lat="46.01531" lon="6.85036">
        <ele>2681.73</ele>
        <time>2015-08-02T08:28:53Z</time>
      </trkpt>
      <trkpt lat="46.0154" lon="6.85046">
        <ele>2685.1</ele>
        <time>2015-08-02T08:29:09Z</time>
      </trkpt>
      <trkpt lat="46.0155" lon="6.85055">
        <ele>2687.02</ele>
        <time>2015-08-02T08:29:23Z</time>
      </trkpt>
      <trkpt lat="46.01553" lon="6.85058">
        <ele>2687.98</ele>
        <time>2015-08-02T08:29:28Z</time>
      </trkpt>
      <trkpt lat="46.01562" lon="6.85066">
        <ele>2690.87</ele>
        <time>2015-08-02T08:29:43Z</time>
      </trkpt>
      <trkpt lat="46.01573" lon="6.85064">
        <ele>2692.31</ele>
        <time>2015-08-02T08:29:57Z</time>
      </trkpt>
      <trkpt lat="46.01582" lon="6.85065">
        <ele>2695.67</ele>
        <time>2015-08-02T08:30:11Z</time>
      </trkpt>
      <trkpt lat="46.01588" lon="6.85072">
        <ele>2698.08</ele>
        <time>2015-08-02T08:30:25Z</time>
      </trkpt>
      <trkpt lat="46.01596" lon="6.85082">
        <ele>2701.44</ele>
        <time>2015-08-02T08:30:41Z</time>
      </trkpt>
      <trkpt lat="46.01604" lon="6.85091">
        <ele>2704.33</ele>
        <time>2015-08-02T08:30:55Z</time>
      </trkpt>
      <trkpt lat="46.01611" lon="6.85099">
        <ele>2706.25</ele>
        <time>2015-08-02T08:31:09Z</time>
      </trkpt>
      <trkpt lat="46.01617" lon="6.85106">
        <ele>2709.13</ele>
        <time>2015-08-02T08:31:22Z</time>
      </trkpt>
      <trkpt lat="46.01619" lon="6.85108">
        <ele>2709.61</ele>
        <time>2015-08-02T08:31:26Z</time>
      </trkpt>
      <trkpt lat="46.01628" lon="6.85114">
        <ele>2712.5</ele>
        <time>2015-08-02T08:31:40Z</time>
      </trkpt>
      <trkpt lat="46.01634" lon="6.85122">
        <ele>2714.9</ele>
        <time>2015-08-02T08:31:53Z</time>
      </trkpt>
      <trkpt lat="46.01643" lon="6.85126">
        <ele>2717.3</ele>
        <time>2015-08-02T08:32:06Z</time>
      </trkpt>
      <trkpt lat="46.01652" lon="6.85132">
        <ele>2720.19</ele>
        <time>2015-08-02T08:32:21Z</time>
      </trkpt>
      <trkpt lat="46.01663" lon="6.85141">
        <ele>2723.55</ele>
        <time>2015-08-02T08:32:37Z</time>
      </trkpt>
      <trkpt lat="46.01664" lon="6.85142">
        <ele>2723.55</ele>
        <time>2015-08-02T08:32:39Z</time>
      </trkpt>
      <trkpt lat="46.01666" lon="6.85143">
        <ele>2723.55</ele>
        <time>2015-08-02T08:32:41Z</time>
      </trkpt>
      <trkpt lat="46.01671" lon="6.85145">
        <ele>2724.03</ele>
        <time>2015-08-02T08:32:46Z</time>
      </trkpt>
      <trkpt lat="46.01682" lon="6.8515">
        <ele>2725.96</ele>
        <time>2015-08-02T08:32:59Z</time>
      </trkpt>
      <trkpt lat="46.01689" lon="6.85157">
        <ele>2727.4</ele>
        <time>2015-08-02T08:33:10Z</time>
      </trkpt>
      <trkpt lat="46.01689" lon="6.85161">
        <ele>2728.36</ele>
        <time>2015-08-02T08:33:13Z</time>
      </trkpt>
      <trkpt lat="46.01696" lon="6.85167">
        <ele>2730.76</ele>
        <time>2015-08-02T08:33:27Z</time>
      </trkpt>
      <trkpt lat="46.01706" lon="6.85165">
        <ele>2734.13</ele>
        <time>2015-08-02T08:33:41Z</time>
      </trkpt>
      <trkpt lat="46.01711" lon="6.85169">
        <ele>2737.49</ele>
        <time>2015-08-02T08:33:55Z</time>
      </trkpt>
      <trkpt lat="46.01717" lon="6.85177">
        <ele>2740.38</ele>
        <time>2015-08-02T08:34:08Z</time>
      </trkpt>
      <trkpt lat="46.01726" lon="6.8517">
        <ele>2743.26</ele>
        <time>2015-08-02T08:34:22Z</time>
      </trkpt>
      <trkpt lat="46.01731" lon="6.85167">
        <ele>2746.62</ele>
        <time>2015-08-02T08:34:36Z</time>
      </trkpt>
      <trkpt lat="46.01736" lon="6.85172">
        <ele>2749.51</ele>
        <time>2015-08-02T08:34:50Z</time>
      </trkpt>
      <trkpt lat="46.01741" lon="6.85178">
        <ele>2751.43</ele>
        <time>2015-08-02T08:35:00Z</time>
      </trkpt>
      <trkpt lat="46.01747" lon="6.85177">
        <ele>2754.31</ele>
        <time>2015-08-02T08:35:14Z</time>
      </trkpt>
      <trkpt lat="46.01753" lon="6.8518">
        <ele>2756.72</ele>
        <time>2015-08-02T08:35:27Z</time>
      </trkpt>
      <trkpt lat="46.01755" lon="6.85183">
        <ele>2759.12</ele>
        <time>2015-08-02T08:35:37Z</time>
      </trkpt>
      <trkpt lat="46.01763" lon="6.8518">
        <ele>2761.52</ele>
        <time>2015-08-02T08:35:50Z</time>
      </trkpt>
      <trkpt lat="46.01765" lon="6.85182">
        <ele>2762.97</ele>
        <time>2015-08-02T08:35:54Z</time>
      </trkpt>
      <trkpt lat="46.01769" lon="6.85191">
        <ele>2765.85</ele>
        <time>2015-08-02T08:36:09Z</time>
      </trkpt>
      <trkpt lat="46.01777" lon="6.85184">
        <ele>2768.73</ele>
        <time>2015-08-02T08:36:24Z</time>
      </trkpt>
      <trkpt lat="46.0178" lon="6.85189">
        <ele>2771.62</ele>
        <time>2015-08-02T08:36:39Z</time>
      </trkpt>
      <trkpt lat="46.01784" lon="6.85188">
        <ele>2774.5</ele>
        <time>2015-08-02T08:36:53Z</time>
      </trkpt>
      <trkpt lat="46.01787" lon="6.85194">
        <ele>2777.87</ele>
        <time>2015-08-02T08:37:05Z</time>
      </trkpt>
      <trkpt lat="46.01791" lon="6.85202">
        <ele>2781.23</ele>
        <time>2015-08-02T08:37:21Z</time>
      </trkpt>
      <trkpt lat="46.01799" lon="6.85206">
        <ele>2784.12</ele>
        <time>2015-08-02T08:37:38Z</time>
      </trkpt>
      <trkpt lat="46.01802" lon="6.85213">
        <ele>2787.48</ele>
        <time>2015-08-02T08:37:52Z</time>
      </trkpt>
      <trkpt lat="46.01806" lon="6.85221">
        <ele>2790.84</ele>
        <time>2015-08-02T08:38:06Z</time>
      </trkpt>
      <trkpt lat="46.01813" lon="6.85216">
        <ele>2793.73</ele>
        <time>2015-08-02T08:38:20Z</time>
      </trkpt>
      <trkpt lat="46.01816" lon="6.85215">
        <ele>2796.13</ele>
        <time>2015-08-02T08:38:35Z</time>
      </trkpt>
      <trkpt lat="46.01821" lon="6.85211">
        <ele>2799.02</ele>
        <time>2015-08-02T08:38:49Z</time>
      </trkpt>
      <trkpt lat="46.01823" lon="6.85208">
        <ele>2802.38</ele>
        <time>2015-08-02T08:39:00Z</time>
      </trkpt>
      <trkpt lat="46.01827" lon="6.85208">
        <ele>2805.75</ele>
        <time>2015-08-02T08:39:16Z</time>
      </trkpt>
      <trkpt lat="46.01833" lon="6.85199">
        <ele>2807.67</ele>
        <time>2015-08-02T08:39:30Z</time>
      </trkpt>
      <trkpt lat="46.01837" lon="6.85194">
        <ele>2810.55</ele>
        <time>2015-08-02T08:39:44Z</time>
      </trkpt>
      <trkpt lat="46.0184" lon="6.85201">
        <ele>2813.92</ele>
        <time>2015-08-02T08:40:02Z</time>
      </trkpt>
      <trkpt lat="46.01845" lon="6.852">
        <ele>2816.32</ele>
        <time>2015-08-02T08:40:18Z</time>
      </trkpt>
      <trkpt lat="46.01846" lon="6.85205">
        <ele>2818.24</ele>
        <time>2015-08-02T08:40:29Z</time>
      </trkpt>
      <trkpt lat="46.01851" lon="6.85199">
        <ele>2821.61</ele>
        <time>2015-08-02T08:40:42Z</time>
      </trkpt>
      <trkpt lat="46.01854" lon="6.85206">
        <ele>2824.01</ele>
        <time>2015-08-02T08:40:56Z</time>
      </trkpt>
      <trkpt lat="46.0186" lon="6.85198">
        <ele>2826.41</ele>
        <time>2015-08-02T08:41:09Z</time>
      </trkpt>
      <trkpt lat="46.01861" lon="6.85197">
        <ele>2829.78</ele>
        <time>2015-08-02T08:41:23Z</time>
      </trkpt>
      <trkpt lat="46.01865" lon="6.85201">
        <ele>2832.18</ele>
        <time>2015-08-02T08:41:36Z</time>
      </trkpt>
      <trkpt lat="46.01871" lon="6.85195">
        <ele>2834.1</ele>
        <time>2015-08-02T08:41:51Z</time>
      </trkpt>
      <trkpt lat="46.01873" lon="6.85195">
        <ele>2837.47</ele>
        <time>2015-08-02T08:42:04Z</time>
      </trkpt>
      <trkpt lat="46.01877" lon="6.85197">
        <ele>2837.47</ele>
        <time>2015-08-02T08:42:13Z</time>
      </trkpt>
      <trkpt lat="46.0188" lon="6.85193">
        <ele>2840.83</ele>
        <time>2015-08-02T08:42:27Z</time>
      </trkpt>
      <trkpt lat="46.01883" lon="6.85196">
        <ele>2843.24</ele>
        <time>2015-08-02T08:42:36Z</time>
      </trkpt>
      <trkpt lat="46.01888" lon="6.85194">
        <ele>2845.64</ele>
        <time>2015-08-02T08:42:51Z</time>
      </trkpt>
      <trkpt lat="46.01893" lon="6.85182">
        <ele>2849</ele>
        <time>2015-08-02T08:43:12Z</time>
      </trkpt>
      <trkpt lat="46.01897" lon="6.85185">
        <ele>2851.89</ele>
        <time>2015-08-02T08:43:25Z</time>
      </trkpt>
      <trkpt lat="46.01902" lon="6.85172">
        <ele>2854.77</ele>
        <time>2015-08-02T08:43:42Z</time>
      </trkpt>
      <trkpt lat="46.01905" lon="6.85165">
        <ele>2858.14</ele>
        <time>2015-08-02T08:43:59Z</time>
      </trkpt>
      <trkpt lat="46.01908" lon="6.85164">
        <ele>2861.02</ele>
        <time>2015-08-02T08:44:12Z</time>
      </trkpt>
      <trkpt lat="46.01913" lon="6.85171">
        <ele>2864.39</ele>
        <time>2015-08-02T08:44:29Z</time>
      </trkpt>
      <trkpt lat="46.01921" lon="6.85175">
        <ele>2867.75</ele>
        <time>2015-08-02T08:44:46Z</time>
      </trkpt>
      <trkpt lat="46.01925" lon="6.85165">
        <ele>2869.67</ele>
        <time>2015-08-02T08:45:01Z</time>
      </trkpt>
      <trkpt lat="46.01927" lon="6.85159">
        <ele>2873.04</ele>
        <time>2015-08-02T08:45:15Z</time>
      </trkpt>
      <trkpt lat="46.01931" lon="6.85158">
        <ele>2875.44</ele>
        <time>2015-08-02T08:45:28Z</time>
      </trkpt>
      <trkpt lat="46.01934" lon="6.85163">
        <ele>2878.32</ele>
        <time>2015-08-02T08:45:41Z</time>
      </trkpt>
      <trkpt lat="46.01939" lon="6.8516">
        <ele>2880.25</ele>
        <time>2015-08-02T08:45:54Z</time>
      </trkpt>
      <trkpt lat="46.01939" lon="6.85157">
        <ele>2881.69</ele>
        <time>2015-08-02T08:46:00Z</time>
      </trkpt>
      <trkpt lat="46.01942" lon="6.85147">
        <ele>2884.09</ele>
        <time>2015-08-02T08:46:15Z</time>
      </trkpt>
      <trkpt lat="46.01944" lon="6.85153">
        <ele>2886.5</ele>
        <time>2015-08-02T08:46:29Z</time>
      </trkpt>
      <trkpt lat="46.01949" lon="6.85151">
        <ele>2889.38</ele>
        <time>2015-08-02T08:46:44Z</time>
      </trkpt>
      <trkpt lat="46.01953" lon="6.85151">
        <ele>2891.78</ele>
        <time>2015-08-02T08:46:58Z</time>
      </trkpt>
      <trkpt lat="46.01958" lon="6.85154">
        <ele>2895.15</ele>
        <time>2015-08-02T08:47:13Z</time>
      </trkpt>
      <trkpt lat="46.01963" lon="6.85155">
        <ele>2897.55</ele>
        <time>2015-08-02T08:47:27Z</time>
      </trkpt>
      <trkpt lat="46.01969" lon="6.8516">
        <ele>2900.44</ele>
        <time>2015-08-02T08:47:44Z</time>
      </trkpt>
      <trkpt lat="46.01974" lon="6.8516">
        <ele>2902.84</ele>
        <time>2015-08-02T08:47:56Z</time>
      </trkpt>
      <trkpt lat="46.01979" lon="6.85158">
        <ele>2904.76</ele>
        <time>2015-08-02T08:48:10Z</time>
      </trkpt>
      <trkpt lat="46.01983" lon="6.85155">
        <ele>2906.2</ele>
        <time>2015-08-02T08:48:20Z</time>
      </trkpt>
      <trkpt lat="46.01981" lon="6.85143">
        <ele>2907.65</ele>
        <time>2015-08-02T08:48:32Z</time>
      </trkpt>
      <trkpt lat="46.01982" lon="6.85138">
        <ele>2908.61</ele>
        <time>2015-08-02T08:48:37Z</time>
      </trkpt>
      <trkpt lat="46.01986" lon="6.8512">
        <ele>2910.53</ele>
        <time>2015-08-02T08:48:54Z</time>
      </trkpt>
      <trkpt lat="46.01986" lon="6.85119">
        <ele>2910.53</ele>
        <time>2015-08-02T08:48:55Z</time>
      </trkpt>
      <trkpt lat="46.01988" lon="6.851">
        <ele>2912.45</ele>
        <time>2015-08-02T08:49:11Z</time>
      </trkpt>
      <trkpt lat="46.01992" lon="6.85087">
        <ele>2915.82</ele>
        <time>2015-08-02T08:49:25Z</time>
      </trkpt>
      <trkpt lat="46.01997" lon="6.85071">
        <ele>2918.22</ele>
        <time>2015-08-02T08:49:40Z</time>
      </trkpt>
      <trkpt lat="46.02002" lon="6.85055">
        <ele>2920.62</ele>
        <time>2015-08-02T08:49:55Z</time>
      </trkpt>
      <trkpt lat="46.02004" lon="6.8505">
        <ele>2921.58</ele>
        <time>2015-08-02T08:50:02Z</time>
      </trkpt>
      <trkpt lat="46.02006" lon="6.85034">
        <ele>2924.47</ele>
        <time>2015-08-02T08:50:17Z</time>
      </trkpt>
      <trkpt lat="46.0201" lon="6.85023">
        <ele>2927.83</ele>
        <time>2015-08-02T08:50:31Z</time>
      </trkpt>
      <trkpt lat="46.0201" lon="6.85019">
        <ele>2928.79</ele>
        <time>2015-08-02T08:50:36Z</time>
      </trkpt>
      <trkpt lat="46.02012" lon="6.85002">
        <ele>2931.2</ele>
        <time>2015-08-02T08:50:54Z</time>
      </trkpt>
      <trkpt lat="46.02015" lon="6.85003">
        <ele>2935.04</ele>
        <time>2015-08-02T08:51:06Z</time>
      </trkpt>
      <trkpt lat="46.02021" lon="6.8501">
        <ele>2937.45</ele>
        <time>2015-08-02T08:51:23Z</time>
      </trkpt>
      <trkpt lat="46.02026" lon="6.85012">
        <ele>2940.33</ele>
        <time>2015-08-02T08:51:37Z</time>
      </trkpt>
      <trkpt lat="46.02032" lon="6.85009">
        <ele>2942.25</ele>
        <time>2015-08-02T08:51:51Z</time>
      </trkpt>
      <trkpt lat="46.02032" lon="6.85003">
        <ele>2943.69</ele>
        <time>2015-08-02T08:52:05Z</time>
      </trkpt>
      <trkpt lat="46.02036" lon="6.84997">
        <ele>2946.58</ele>
        <time>2015-08-02T08:52:22Z</time>
      </trkpt>
      <trkpt lat="46.02038" lon="6.84997">
        <ele>2948.5</ele>
        <time>2015-08-02T08:52:31Z</time>
      </trkpt>
      <trkpt lat="46.02044" lon="6.85001">
        <ele>2951.87</ele>
        <time>2015-08-02T08:52:46Z</time>
      </trkpt>
      <trkpt lat="46.02053" lon="6.85005">
        <ele>2954.75</ele>
        <time>2015-08-02T08:53:03Z</time>
      </trkpt>
      <trkpt lat="46.02058" lon="6.85004">
        <ele>2957.63</ele>
        <time>2015-08-02T08:53:17Z</time>
      </trkpt>
      <trkpt lat="46.02062" lon="6.85004">
        <ele>2961</ele>
        <time>2015-08-02T08:53:34Z</time>
      </trkpt>
      <trkpt lat="46.02066" lon="6.85">
        <ele>2963.4</ele>
        <time>2015-08-02T08:53:49Z</time>
      </trkpt>
      <trkpt lat="46.02069" lon="6.84994">
        <ele>2966.29</ele>
        <time>2015-08-02T08:54:05Z</time>
      </trkpt>
      <trkpt lat="46.02075" lon="6.84993">
        <ele>2969.17</ele>
        <time>2015-08-02T08:54:20Z</time>
      </trkpt>
      <trkpt lat="46.02077" lon="6.84987">
        <ele>2971.57</ele>
        <time>2015-08-02T08:54:35Z</time>
      </trkpt>
      <trkpt lat="46.0208" lon="6.84985">
        <ele>2974.94</ele>
        <time>2015-08-02T08:54:50Z</time>
      </trkpt>
      <trkpt lat="46.02084" lon="6.84984">
        <ele>2976.86</ele>
        <time>2015-08-02T08:55:05Z</time>
      </trkpt>
      <trkpt lat="46.02092" lon="6.84987">
        <ele>2980.71</ele>
        <time>2015-08-02T08:55:22Z</time>
      </trkpt>
      <trkpt lat="46.02095" lon="6.84989">
        <ele>2982.63</ele>
        <time>2015-08-02T08:55:31Z</time>
      </trkpt>
      <trkpt lat="46.02101" lon="6.84983">
        <ele>2984.55</ele>
        <time>2015-08-02T08:55:46Z</time>
      </trkpt>
      <trkpt lat="46.02102" lon="6.8498">
        <ele>2987.43</ele>
        <time>2015-08-02T08:55:58Z</time>
      </trkpt>
      <trkpt lat="46.02111" lon="6.84979">
        <ele>2989.84</ele>
        <time>2015-08-02T08:56:13Z</time>
      </trkpt>
      <trkpt lat="46.02117" lon="6.84978">
        <ele>2992.72</ele>
        <time>2015-08-02T08:56:26Z</time>
      </trkpt>
      <trkpt lat="46.02121" lon="6.84972">
        <ele>2995.12</ele>
        <time>2015-08-02T08:56:40Z</time>
      </trkpt>
      <trkpt lat="46.02123" lon="6.84968">
        <ele>2998.01</ele>
        <time>2015-08-02T08:56:52Z</time>
      </trkpt>
      <trkpt lat="46.02124" lon="6.84958">
        <ele>3000.41</ele>
        <time>2015-08-02T08:57:08Z</time>
      </trkpt>
      <trkpt lat="46.02124" lon="6.8495">
        <ele>3003.78</ele>
        <time>2015-08-02T08:57:22Z</time>
      </trkpt>
      <trkpt lat="46.02129" lon="6.8495">
        <ele>3005.7</ele>
        <time>2015-08-02T08:57:37Z</time>
      </trkpt>
      <trkpt lat="46.02139" lon="6.84949">
        <ele>3008.58</ele>
        <time>2015-08-02T08:57:54Z</time>
      </trkpt>
      <trkpt lat="46.02143" lon="6.84949">
        <ele>3008.58</ele>
        <time>2015-08-02T08:58:00Z</time>
      </trkpt>
      <trkpt lat="46.02149" lon="6.8495">
        <ele>3009.54</ele>
        <time>2015-08-02T08:58:06Z</time>
      </trkpt>
      <trkpt lat="46.02159" lon="6.84954">
        <ele>3011.95</ele>
        <time>2015-08-02T08:58:20Z</time>
      </trkpt>
      <trkpt lat="46.0216" lon="6.84955">
        <ele>3011.95</ele>
        <time>2015-08-02T08:58:21Z</time>
      </trkpt>
      <trkpt lat="46.02167" lon="6.84954">
        <ele>3014.35</ele>
        <time>2015-08-02T08:58:35Z</time>
      </trkpt>
      <trkpt lat="46.02174" lon="6.84958">
        <ele>3017.72</ele>
        <time>2015-08-02T08:58:47Z</time>
      </trkpt>
      <trkpt lat="46.02175" lon="6.84958">
        <ele>3017.72</ele>
        <time>2015-08-02T08:58:48Z</time>
      </trkpt>
      <trkpt lat="46.0218" lon="6.84959">
        <ele>3021.08</ele>
        <time>2015-08-02T08:58:58Z</time>
      </trkpt>
      <trkpt lat="46.02184" lon="6.84965">
        <ele>3021.08</ele>
        <time>2015-08-02T08:59:06Z</time>
      </trkpt>
      <trkpt lat="46.02192" lon="6.84974">
        <ele>3022.52</ele>
        <time>2015-08-02T08:59:21Z</time>
      </trkpt>
      <trkpt lat="46.02192" lon="6.84975">
        <ele>3022.04</ele>
        <time>2015-08-02T08:59:22Z</time>
      </trkpt>
      <trkpt lat="46.02196" lon="6.84976">
        <ele>3023.96</ele>
        <time>2015-08-02T08:59:29Z</time>
      </trkpt>
      <trkpt lat="46.02203" lon="6.84981">
        <ele>3023.96</ele>
        <time>2015-08-02T08:59:42Z</time>
      </trkpt>
      <trkpt lat="46.02203" lon="6.84983">
        <ele>3025.41</ele>
        <time>2015-08-02T08:59:45Z</time>
      </trkpt>
      <trkpt lat="46.02206" lon="6.84984">
        <ele>3025.89</ele>
        <time>2015-08-02T08:59:53Z</time>
      </trkpt>
      <trkpt lat="46.02208" lon="6.84987">
        <ele>3025.89</ele>
        <time>2015-08-02T08:59:59Z</time>
      </trkpt>
      <trkpt lat="46.02218" lon="6.8499">
        <ele>3026.85</ele>
        <time>2015-08-02T09:00:14Z</time>
      </trkpt>
      <trkpt lat="46.02227" lon="6.84997">
        <ele>3029.73</ele>
        <time>2015-08-02T09:00:29Z</time>
      </trkpt>
      <trkpt lat="46.02232" lon="6.84999">
        <ele>3030.21</ele>
        <time>2015-08-02T09:00:37Z</time>
      </trkpt>
      <trkpt lat="46.02244" lon="6.84996">
        <ele>3032.62</ele>
        <time>2015-08-02T09:00:51Z</time>
      </trkpt>
      <trkpt lat="46.0225" lon="6.85001">
        <ele>3033.58</ele>
        <time>2015-08-02T09:01:03Z</time>
      </trkpt>
      <trkpt lat="46.02254" lon="6.85003">
        <ele>3034.54</ele>
        <time>2015-08-02T09:01:08Z</time>
      </trkpt>
      <trkpt lat="46.02255" lon="6.85005">
        <ele>3034.54</ele>
        <time>2015-08-02T09:01:10Z</time>
      </trkpt>
      <trkpt lat="46.02273" lon="6.85012">
        <ele>3036.46</ele>
        <time>2015-08-02T09:01:27Z</time>
      </trkpt>
      <trkpt lat="46.02288" lon="6.85024">
        <ele>3037.9</ele>
        <time>2015-08-02T09:01:43Z</time>
      </trkpt>
      <trkpt lat="46.02293" lon="6.85027">
        <ele>3037.9</ele>
        <time>2015-08-02T09:01:48Z</time>
      </trkpt>
      <trkpt lat="46.02307" lon="6.85031">
        <ele>3039.83</ele>
        <time>2015-08-02T09:02:02Z</time>
      </trkpt>
      <trkpt lat="46.02322" lon="6.85044">
        <ele>3040.79</ele>
        <time>2015-08-02T09:02:18Z</time>
      </trkpt>
      <trkpt lat="46.0233" lon="6.8505">
        <ele>3041.27</ele>
        <time>2015-08-02T09:02:26Z</time>
      </trkpt>
      <trkpt lat="46.02336" lon="6.85061">
        <ele>3043.67</ele>
        <time>2015-08-02T09:02:36Z</time>
      </trkpt>
      <trkpt lat="46.02342" lon="6.85069">
        <ele>3045.11</ele>
        <time>2015-08-02T09:02:43Z</time>
      </trkpt>
      <trkpt lat="46.02345" lon="6.85072">
        <ele>3046.07</ele>
        <time>2015-08-02T09:02:46Z</time>
      </trkpt>
      <trkpt lat="46.0235" lon="6.85083">
        <ele>3047.04</ele>
        <time>2015-08-02T09:02:54Z</time>
      </trkpt>
      <trkpt lat="46.02358" lon="6.851">
        <ele>3047.52</ele>
        <time>2015-08-02T09:03:06Z</time>
      </trkpt>
      <trkpt lat="46.02364" lon="6.85108">
        <ele>3048.48</ele>
        <time>2015-08-02T09:03:13Z</time>
      </trkpt>
      <trkpt lat="46.02365" lon="6.85113">
        <ele>3048.96</ele>
        <time>2015-08-02T09:03:17Z</time>
      </trkpt>
      <trkpt lat="46.02367" lon="6.85118">
        <ele>3049.92</ele>
        <time>2015-08-02T09:03:20Z</time>
      </trkpt>
      <trkpt lat="46.02368" lon="6.8512">
        <ele>3049.92</ele>
        <time>2015-08-02T09:03:22Z</time>
      </trkpt>
      <trkpt lat="46.02378" lon="6.85131">
        <ele>3052.8</ele>
        <time>2015-08-02T09:03:37Z</time>
      </trkpt>
      <trkpt lat="46.02382" lon="6.85138">
        <ele>3054.25</ele>
        <time>2015-08-02T09:03:45Z</time>
      </trkpt>
      <trkpt lat="46.02396" lon="6.85146">
        <ele>3058.09</ele>
        <time>2015-08-02T09:04:01Z</time>
      </trkpt>
      <trkpt lat="46.02404" lon="6.8516">
        <ele>3060.49</ele>
        <time>2015-08-02T09:04:14Z</time>
      </trkpt>
      <trkpt lat="46.02413" lon="6.85166">
        <ele>3064.34</ele>
        <time>2015-08-02T09:04:27Z</time>
      </trkpt>
      <trkpt lat="46.02419" lon="6.85171">
        <ele>3065.78</ele>
        <time>2015-08-02T09:04:35Z</time>
      </trkpt>
      <trkpt lat="46.02424" lon="6.85185">
        <ele>3067.7</ele>
        <time>2015-08-02T09:04:47Z</time>
      </trkpt>
      <trkpt lat="46.02433" lon="6.85202">
        <ele>3071.07</ele>
        <time>2015-08-02T09:05:02Z</time>
      </trkpt>
      <trkpt lat="46.02434" lon="6.85202">
        <ele>3071.55</ele>
        <time>2015-08-02T09:05:04Z</time>
      </trkpt>
      <trkpt lat="46.02448" lon="6.85204">
        <ele>3074.91</ele>
        <time>2015-08-02T09:05:19Z</time>
      </trkpt>
      <trkpt lat="46.0246" lon="6.85211">
        <ele>3077.32</ele>
        <time>2015-08-02T09:05:34Z</time>
      </trkpt>
      <trkpt lat="46.02467" lon="6.85217">
        <ele>3080.68</ele>
        <time>2015-08-02T09:05:43Z</time>
      </trkpt>
      <trkpt lat="46.02467" lon="6.85218">
        <ele>3081.16</ele>
        <time>2015-08-02T09:05:44Z</time>
      </trkpt>
      <trkpt lat="46.02469" lon="6.85226">
        <ele>3083.09</ele>
        <time>2015-08-02T09:05:50Z</time>
      </trkpt>
      <trkpt lat="46.02471" lon="6.85232">
        <ele>3084.05</ele>
        <time>2015-08-02T09:05:55Z</time>
      </trkpt>
      <trkpt lat="46.02473" lon="6.85233">
        <ele>3084.05</ele>
        <time>2015-08-02T09:05:57Z</time>
      </trkpt>
      <trkpt lat="46.02475" lon="6.85241">
        <ele>3085.49</ele>
        <time>2015-08-02T09:06:05Z</time>
      </trkpt>
      <trkpt lat="46.02478" lon="6.85257">
        <ele>3087.89</ele>
        <time>2015-08-02T09:06:20Z</time>
      </trkpt>
      <trkpt lat="46.02478" lon="6.85256">
        <ele>3087.41</ele>
        <time>2015-08-02T09:06:33Z</time>
      </trkpt>
      <trkpt lat="46.02478" lon="6.85256">
        <ele>3088.85</ele>
        <time>2015-08-02T09:06:43Z</time>
      </trkpt>
      <trkpt lat="46.02478" lon="6.85256">
        <ele>3087.41</ele>
        <time>2015-08-02T09:06:50Z</time>
      </trkpt>
      <trkpt lat="46.02478" lon="6.85257">
        <ele>3087.41</ele>
        <time>2015-08-02T09:07:11Z</time>
      </trkpt>
      <trkpt lat="46.02479" lon="6.85257">
        <ele>3086.93</ele>
        <time>2015-08-02T09:07:42Z</time>
      </trkpt>
      <trkpt lat="46.02479" lon="6.85257">
        <ele>3087.41</ele>
        <time>2015-08-02T09:08:06Z</time>
      </trkpt>
      <trkpt lat="46.02479" lon="6.85258">
        <ele>3087.41</ele>
        <time>2015-08-02T09:08:29Z</time>
      </trkpt>
      <trkpt lat="46.02479" lon="6.8526">
        <ele>3087.41</ele>
        <time>2015-08-02T09:09:04Z</time>
      </trkpt>
      <trkpt lat="46.02479" lon="6.8526">
        <ele>3087.41</ele>
        <time>2015-08-02T09:09:36Z</time>
      </trkpt>
      <trkpt lat="46.02479" lon="6.8526">
        <ele>3086.93</ele>
        <time>2015-08-02T09:10:12Z</time>
      </trkpt>
      <trkpt lat="46.02479" lon="6.85262">
        <ele>3087.41</ele>
        <time>2015-08-02T09:10:40Z</time>
      </trkpt>
      <trkpt lat="46.02479" lon="6.8526">
        <ele>3087.41</ele>
        <time>2015-08-02T09:11:13Z</time>
      </trkpt>
      <trkpt lat="46.02479" lon="6.85262">
        <ele>3088.85</ele>
        <time>2015-08-02T09:11:40Z</time>
      </trkpt>
      <trkpt lat="46.02479" lon="6.85258">
        <ele>3089.33</ele>
        <time>2015-08-02T09:12:08Z</time>
      </trkpt>
      <trkpt lat="46.02479" lon="6.85258">
        <ele>3089.33</ele>
        <time>2015-08-02T09:12:43Z</time>
      </trkpt>
      <trkpt lat="46.02479" lon="6.85259">
        <ele>3089.81</ele>
        <time>2015-08-02T09:13:17Z</time>
      </trkpt>
      <trkpt lat="46.02479" lon="6.85259">
        <ele>3088.85</ele>
        <time>2015-08-02T09:13:26Z</time>
      </trkpt>
      <trkpt lat="46.02479" lon="6.85257">
        <ele>3088.85</ele>
        <time>2015-08-02T09:13:55Z</time>
      </trkpt>
      <trkpt lat="46.02479" lon="6.85258">
        <ele>3089.81</ele>
        <time>2015-08-02T09:14:34Z</time>
      </trkpt>
      <trkpt lat="46.02481" lon="6.85257">
        <ele>3089.81</ele>
        <time>2015-08-02T09:14:52Z</time>
      </trkpt>
      <trkpt lat="46.02479" lon="6.85258">
        <ele>3090.29</ele>
        <time>2015-08-02T09:15:13Z</time>
      </trkpt>
      <trkpt lat="46.02478" lon="6.85258">
        <ele>3090.78</ele>
        <time>2015-08-02T09:15:34Z</time>
      </trkpt>
      <trkpt lat="46.02478" lon="6.85258">
        <ele>3089.33</ele>
        <time>2015-08-02T09:15:38Z</time>
      </trkpt>
      <trkpt lat="46.02478" lon="6.85256">
        <ele>3088.85</ele>
        <time>2015-08-02T09:16:19Z</time>
      </trkpt>
      <trkpt lat="46.02479" lon="6.85256">
        <ele>3090.29</ele>
        <time>2015-08-02T09:17:13Z</time>
      </trkpt>
      <trkpt lat="46.02478" lon="6.85256">
        <ele>3091.74</ele>
        <time>2015-08-02T09:17:28Z</time>
      </trkpt>
      <trkpt lat="46.02478" lon="6.85255">
        <ele>3092.22</ele>
        <time>2015-08-02T09:17:41Z</time>
      </trkpt>
      <trkpt lat="46.02474" lon="6.85238">
        <ele>3089.81</ele>
        <time>2015-08-02T09:17:49Z</time>
      </trkpt>
      <trkpt lat="46.02472" lon="6.85236">
        <ele>3089.81</ele>
        <time>2015-08-02T09:17:50Z</time>
      </trkpt>
      <trkpt lat="46.02471" lon="6.85234">
        <ele>3087.41</ele>
        <time>2015-08-02T09:17:51Z</time>
      </trkpt>
      <trkpt lat="46.0247" lon="6.85231">
        <ele>3086.45</ele>
        <time>2015-08-02T09:17:52Z</time>
      </trkpt>
      <trkpt lat="46.0247" lon="6.85229">
        <ele>3086.45</ele>
        <time>2015-08-02T09:17:53Z</time>
      </trkpt>
      <trkpt lat="46.02469" lon="6.85227">
        <ele>3085.49</ele>
        <time>2015-08-02T09:17:54Z</time>
      </trkpt>
      <trkpt lat="46.02467" lon="6.85218">
        <ele>3084.53</ele>
        <time>2015-08-02T09:17:58Z</time>
      </trkpt>
      <trkpt lat="46.02466" lon="6.85216">
        <ele>3083.57</ele>
        <time>2015-08-02T09:17:59Z</time>
      </trkpt>
      <trkpt lat="46.02462" lon="6.85212">
        <ele>3082.12</ele>
        <time>2015-08-02T09:18:02Z</time>
      </trkpt>
      <trkpt lat="46.0246" lon="6.85211">
        <ele>3081.16</ele>
        <time>2015-08-02T09:18:03Z</time>
      </trkpt>
      <trkpt lat="46.02458" lon="6.8521">
        <ele>3081.16</ele>
        <time>2015-08-02T09:18:04Z</time>
      </trkpt>
      <trkpt lat="46.02457" lon="6.85209">
        <ele>3080.68</ele>
        <time>2015-08-02T09:18:05Z</time>
      </trkpt>
      <trkpt lat="46.02455" lon="6.85208">
        <ele>3080.68</ele>
        <time>2015-08-02T09:18:06Z</time>
      </trkpt>
      <trkpt lat="46.02453" lon="6.85208">
        <ele>3079.72</ele>
        <time>2015-08-02T09:18:07Z</time>
      </trkpt>
      <trkpt lat="46.02451" lon="6.85206">
        <ele>3079.24</ele>
        <time>2015-08-02T09:18:08Z</time>
      </trkpt>
      <trkpt lat="46.02449" lon="6.85205">
        <ele>3078.76</ele>
        <time>2015-08-02T09:18:09Z</time>
      </trkpt>
      <trkpt lat="46.02447" lon="6.85204">
        <ele>3078.28</ele>
        <time>2015-08-02T09:18:10Z</time>
      </trkpt>
      <trkpt lat="46.02434" lon="6.85201">
        <ele>3075.4</ele>
        <time>2015-08-02T09:18:17Z</time>
      </trkpt>
      <trkpt lat="46.02432" lon="6.85199">
        <ele>3074.43</ele>
        <time>2015-08-02T09:18:18Z</time>
      </trkpt>
      <trkpt lat="46.02431" lon="6.85197">
        <ele>3073.95</ele>
        <time>2015-08-02T09:18:19Z</time>
      </trkpt>
      <trkpt lat="46.0243" lon="6.85196">
        <ele>3073.95</ele>
        <time>2015-08-02T09:18:20Z</time>
      </trkpt>
      <trkpt lat="46.02429" lon="6.85194">
        <ele>3072.99</ele>
        <time>2015-08-02T09:18:21Z</time>
      </trkpt>
      <trkpt lat="46.02428" lon="6.85192">
        <ele>3072.99</ele>
        <time>2015-08-02T09:18:22Z</time>
      </trkpt>
      <trkpt lat="46.02421" lon="6.85181">
        <ele>3070.11</ele>
        <time>2015-08-02T09:18:27Z</time>
      </trkpt>
      <trkpt lat="46.0242" lon="6.85174">
        <ele>3068.67</ele>
        <time>2015-08-02T09:18:29Z</time>
      </trkpt>
      <trkpt lat="46.02418" lon="6.85172">
        <ele>3069.15</ele>
        <time>2015-08-02T09:18:30Z</time>
      </trkpt>
      <trkpt lat="46.02417" lon="6.8517">
        <ele>3068.19</ele>
        <time>2015-08-02T09:18:31Z</time>
      </trkpt>
      <trkpt lat="46.02415" lon="6.85168">
        <ele>3068.19</ele>
        <time>2015-08-02T09:18:32Z</time>
      </trkpt>
      <trkpt lat="46.02414" lon="6.85167">
        <ele>3067.7</ele>
        <time>2015-08-02T09:18:33Z</time>
      </trkpt>
      <trkpt lat="46.02411" lon="6.85163">
        <ele>3066.26</ele>
        <time>2015-08-02T09:18:35Z</time>
      </trkpt>
      <trkpt lat="46.0241" lon="6.8516">
        <ele>3065.78</ele>
        <time>2015-08-02T09:18:36Z</time>
      </trkpt>
      <trkpt lat="46.02409" lon="6.85158">
        <ele>3065.78</ele>
        <time>2015-08-02T09:18:37Z</time>
      </trkpt>
      <trkpt lat="46.02407" lon="6.85157">
        <ele>3064.82</ele>
        <time>2015-08-02T09:18:38Z</time>
      </trkpt>
      <trkpt lat="46.02405" lon="6.85155">
        <ele>3064.82</ele>
        <time>2015-08-02T09:18:39Z</time>
      </trkpt>
      <trkpt lat="46.02403" lon="6.85154">
        <ele>3063.38</ele>
        <time>2015-08-02T09:18:40Z</time>
      </trkpt>
      <trkpt lat="46.02401" lon="6.85153">
        <ele>3062.9</ele>
        <time>2015-08-02T09:18:41Z</time>
      </trkpt>
      <trkpt lat="46.024" lon="6.85152">
        <ele>3062.42</ele>
        <time>2015-08-02T09:18:42Z</time>
      </trkpt>
      <trkpt lat="46.02398" lon="6.85151">
        <ele>3061.94</ele>
        <time>2015-08-02T09:18:43Z</time>
      </trkpt>
      <trkpt lat="46.02396" lon="6.85149">
        <ele>3060.98</ele>
        <time>2015-08-02T09:18:44Z</time>
      </trkpt>
      <trkpt lat="46.02394" lon="6.85147">
        <ele>3060.98</ele>
        <time>2015-08-02T09:18:45Z</time>
      </trkpt>
      <trkpt lat="46.02393" lon="6.85145">
        <ele>3060.01</ele>
        <time>2015-08-02T09:18:46Z</time>
      </trkpt>
      <trkpt lat="46.02392" lon="6.85143">
        <ele>3060.01</ele>
        <time>2015-08-02T09:18:47Z</time>
      </trkpt>
      <trkpt lat="46.0239" lon="6.85143">
        <ele>3060.01</ele>
        <time>2015-08-02T09:18:48Z</time>
      </trkpt>
      <trkpt lat="46.02388" lon="6.85142">
        <ele>3060.01</ele>
        <time>2015-08-02T09:18:49Z</time>
      </trkpt>
      <trkpt lat="46.02386" lon="6.8514">
        <ele>3058.57</ele>
        <time>2015-08-02T09:18:50Z</time>
      </trkpt>
      <trkpt lat="46.02384" lon="6.85139">
        <ele>3058.57</ele>
        <time>2015-08-02T09:18:51Z</time>
      </trkpt>
      <trkpt lat="46.02379" lon="6.8513">
        <ele>3056.65</ele>
        <time>2015-08-02T09:18:55Z</time>
      </trkpt>
      <trkpt lat="46.02378" lon="6.85129">
        <ele>3056.17</ele>
        <time>2015-08-02T09:18:56Z</time>
      </trkpt>
      <trkpt lat="46.02376" lon="6.85128">
        <ele>3056.17</ele>
        <time>2015-08-02T09:18:57Z</time>
      </trkpt>
      <trkpt lat="46.02374" lon="6.85126">
        <ele>3055.21</ele>
        <time>2015-08-02T09:18:58Z</time>
      </trkpt>
      <trkpt lat="46.02373" lon="6.85124">
        <ele>3055.21</ele>
        <time>2015-08-02T09:18:59Z</time>
      </trkpt>
      <trkpt lat="46.02372" lon="6.85121">
        <ele>3054.73</ele>
        <time>2015-08-02T09:19:00Z</time>
      </trkpt>
      <trkpt lat="46.02365" lon="6.85108">
        <ele>3053.28</ele>
        <time>2015-08-02T09:19:05Z</time>
      </trkpt>
      <trkpt lat="46.02364" lon="6.85106">
        <ele>3053.28</ele>
        <time>2015-08-02T09:19:06Z</time>
      </trkpt>
      <trkpt lat="46.02363" lon="6.85104">
        <ele>3052.32</ele>
        <time>2015-08-02T09:19:07Z</time>
      </trkpt>
      <trkpt lat="46.02361" lon="6.85102">
        <ele>3052.32</ele>
        <time>2015-08-02T09:19:08Z</time>
      </trkpt>
      <trkpt lat="46.0236" lon="6.851">
        <ele>3051.36</ele>
        <time>2015-08-02T09:19:09Z</time>
      </trkpt>
      <trkpt lat="46.02359" lon="6.85097">
        <ele>3051.36</ele>
        <time>2015-08-02T09:19:10Z</time>
      </trkpt>
      <trkpt lat="46.02357" lon="6.85094">
        <ele>3051.36</ele>
        <time>2015-08-02T09:19:11Z</time>
      </trkpt>
      <trkpt lat="46.02356" lon="6.85092">
        <ele>3050.88</ele>
        <time>2015-08-02T09:19:12Z</time>
      </trkpt>
      <trkpt lat="46.02355" lon="6.85089">
        <ele>3050.88</ele>
        <time>2015-08-02T09:19:13Z</time>
      </trkpt>
      <trkpt lat="46.02354" lon="6.85086">
        <ele>3050.4</ele>
        <time>2015-08-02T09:19:14Z</time>
      </trkpt>
      <trkpt lat="46.02352" lon="6.85084">
        <ele>3050.4</ele>
        <time>2015-08-02T09:19:15Z</time>
      </trkpt>
      <trkpt lat="46.02351" lon="6.85082">
        <ele>3050.4</ele>
        <time>2015-08-02T09:19:16Z</time>
      </trkpt>
      <trkpt lat="46.02349" lon="6.85079">
        <ele>3049.92</ele>
        <time>2015-08-02T09:19:17Z</time>
      </trkpt>
      <trkpt lat="46.02349" lon="6.85076">
        <ele>3049.92</ele>
        <time>2015-08-02T09:19:18Z</time>
      </trkpt>
      <trkpt lat="46.02347" lon="6.85074">
        <ele>3048.96</ele>
        <time>2015-08-02T09:19:19Z</time>
      </trkpt>
      <trkpt lat="46.02346" lon="6.85071">
        <ele>3048.96</ele>
        <time>2015-08-02T09:19:20Z</time>
      </trkpt>
      <trkpt lat="46.02344" lon="6.85069">
        <ele>3048.96</ele>
        <time>2015-08-02T09:19:21Z</time>
      </trkpt>
      <trkpt lat="46.02343" lon="6.85066">
        <ele>3048</ele>
        <time>2015-08-02T09:19:22Z</time>
      </trkpt>
      <trkpt lat="46.02341" lon="6.85064">
        <ele>3048</ele>
        <time>2015-08-02T09:19:23Z</time>
      </trkpt>
      <trkpt lat="46.02339" lon="6.85063">
        <ele>3048</ele>
        <time>2015-08-02T09:19:24Z</time>
      </trkpt>
      <trkpt lat="46.02338" lon="6.85061">
        <ele>3048</ele>
        <time>2015-08-02T09:19:25Z</time>
      </trkpt>
      <trkpt lat="46.02336" lon="6.85058">
        <ele>3046.56</ele>
        <time>2015-08-02T09:19:26Z</time>
      </trkpt>
      <trkpt lat="46.02335" lon="6.85055">
        <ele>3046.56</ele>
        <time>2015-08-02T09:19:27Z</time>
      </trkpt>
      <trkpt lat="46.02333" lon="6.85053">
        <ele>3046.07</ele>
        <time>2015-08-02T09:19:28Z</time>
      </trkpt>
      <trkpt lat="46.02331" lon="6.85051">
        <ele>3046.07</ele>
        <time>2015-08-02T09:19:29Z</time>
      </trkpt>
      <trkpt lat="46.023" lon="6.85029">
        <ele>3043.67</ele>
        <time>2015-08-02T09:19:42Z</time>
      </trkpt>
      <trkpt lat="46.02289" lon="6.85023">
        <ele>3041.75</ele>
        <time>2015-08-02T09:19:47Z</time>
      </trkpt>
      <trkpt lat="46.02262" lon="6.85008">
        <ele>3039.83</ele>
        <time>2015-08-02T09:19:59Z</time>
      </trkpt>
      <trkpt lat="46.02258" lon="6.85008">
        <ele>3039.83</ele>
        <time>2015-08-02T09:20:01Z</time>
      </trkpt>
      <trkpt lat="46.02256" lon="6.85009">
        <ele>3039.83</ele>
        <time>2015-08-02T09:20:02Z</time>
      </trkpt>
      <trkpt lat="46.02253" lon="6.85009">
        <ele>3039.83</ele>
        <time>2015-08-02T09:20:03Z</time>
      </trkpt>
      <trkpt lat="46.02251" lon="6.85009">
        <ele>3038.38</ele>
        <time>2015-08-02T09:20:04Z</time>
      </trkpt>
      <trkpt lat="46.02248" lon="6.85008">
        <ele>3038.38</ele>
        <time>2015-08-02T09:20:05Z</time>
      </trkpt>
      <trkpt lat="46.02246" lon="6.85008">
        <ele>3037.9</ele>
        <time>2015-08-02T09:20:06Z</time>
      </trkpt>
      <trkpt lat="46.02244" lon="6.85008">
        <ele>3036.46</ele>
        <time>2015-08-02T09:20:07Z</time>
      </trkpt>
      <trkpt lat="46.02242" lon="6.85008">
        <ele>3036.46</ele>
        <time>2015-08-02T09:20:08Z</time>
      </trkpt>
      <trkpt lat="46.0224" lon="6.85008">
        <ele>3036.46</ele>
        <time>2015-08-02T09:20:09Z</time>
      </trkpt>
      <trkpt lat="46.02237" lon="6.85006">
        <ele>3036.46</ele>
        <time>2015-08-02T09:20:10Z</time>
      </trkpt>
      <trkpt lat="46.02235" lon="6.85005">
        <ele>3035.5</ele>
        <time>2015-08-02T09:20:11Z</time>
      </trkpt>
      <trkpt lat="46.0223" lon="6.85002">
        <ele>3034.54</ele>
        <time>2015-08-02T09:20:13Z</time>
      </trkpt>
      <trkpt lat="46.02224" lon="6.84998">
        <ele>3034.06</ele>
        <time>2015-08-02T09:20:17Z</time>
      </trkpt>
      <trkpt lat="46.02223" lon="6.84994">
        <ele>3032.62</ele>
        <time>2015-08-02T09:20:20Z</time>
      </trkpt>
      <trkpt lat="46.02223" lon="6.84993">
        <ele>3032.62</ele>
        <time>2015-08-02T09:20:21Z</time>
      </trkpt>
      <trkpt lat="46.02221" lon="6.84992">
        <ele>3032.62</ele>
        <time>2015-08-02T09:20:22Z</time>
      </trkpt>
      <trkpt lat="46.0222" lon="6.84991">
        <ele>3032.14</ele>
        <time>2015-08-02T09:20:23Z</time>
      </trkpt>
      <trkpt lat="46.0222" lon="6.8499">
        <ele>3031.66</ele>
        <time>2015-08-02T09:20:24Z</time>
      </trkpt>
      <trkpt lat="46.02219" lon="6.84989">
        <ele>3031.17</ele>
        <time>2015-08-02T09:20:25Z</time>
      </trkpt>
      <trkpt lat="46.02218" lon="6.84988">
        <ele>3031.17</ele>
        <time>2015-08-02T09:20:26Z</time>
      </trkpt>
      <trkpt lat="46.02212" lon="6.84983">
        <ele>3028.29</ele>
        <time>2015-08-02T09:20:36Z</time>
      </trkpt>
      <trkpt lat="46.0221" lon="6.8498">
        <ele>3027.33</ele>
        <time>2015-08-02T09:20:39Z</time>
      </trkpt>
      <trkpt lat="46.02206" lon="6.84977">
        <ele>3026.37</ele>
        <time>2015-08-02T09:20:43Z</time>
      </trkpt>
      <trkpt lat="46.02205" lon="6.84976">
        <ele>3026.37</ele>
        <time>2015-08-02T09:20:44Z</time>
      </trkpt>
      <trkpt lat="46.02203" lon="6.84976">
        <ele>3026.37</ele>
        <time>2015-08-02T09:20:45Z</time>
      </trkpt>
      <trkpt lat="46.022" lon="6.84976">
        <ele>3026.37</ele>
        <time>2015-08-02T09:20:47Z</time>
      </trkpt>
      <trkpt lat="46.02199" lon="6.84975">
        <ele>3026.37</ele>
        <time>2015-08-02T09:20:48Z</time>
      </trkpt>
      <trkpt lat="46.02198" lon="6.84974">
        <ele>3026.37</ele>
        <time>2015-08-02T09:20:49Z</time>
      </trkpt>
      <trkpt lat="46.02191" lon="6.8497">
        <ele>3025.89</ele>
        <time>2015-08-02T09:20:54Z</time>
      </trkpt>
      <trkpt lat="46.02188" lon="6.8497">
        <ele>3025.89</ele>
        <time>2015-08-02T09:20:56Z</time>
      </trkpt>
      <trkpt lat="46.02186" lon="6.84969">
        <ele>3026.85</ele>
        <time>2015-08-02T09:20:58Z</time>
      </trkpt>
      <trkpt lat="46.02185" lon="6.84967">
        <ele>3026.85</ele>
        <time>2015-08-02T09:20:59Z</time>
      </trkpt>
      <trkpt lat="46.02184" lon="6.84966">
        <ele>3026.85</ele>
        <time>2015-08-02T09:21:00Z</time>
      </trkpt>
      <trkpt lat="46.02183" lon="6.84965">
        <ele>3025.89</ele>
        <time>2015-08-02T09:21:01Z</time>
      </trkpt>
      <trkpt lat="46.02182" lon="6.84964">
        <ele>3025.89</ele>
        <time>2015-08-02T09:21:02Z</time>
      </trkpt>
      <trkpt lat="46.0218" lon="6.84962">
        <ele>3025.89</ele>
        <time>2015-08-02T09:21:03Z</time>
      </trkpt>
      <trkpt lat="46.02161" lon="6.84944">
        <ele>3025.89</ele>
        <time>2015-08-02T09:21:19Z</time>
      </trkpt>
      <trkpt lat="46.02149" lon="6.84935">
        <ele>3024.44</ele>
        <time>2015-08-02T09:21:27Z</time>
      </trkpt>
      <trkpt lat="46.0214" lon="6.84929">
        <ele>3023.48</ele>
        <time>2015-08-02T09:21:32Z</time>
      </trkpt>
      <trkpt lat="46.02139" lon="6.84929">
        <ele>3023.48</ele>
        <time>2015-08-02T09:21:33Z</time>
      </trkpt>
      <trkpt lat="46.02138" lon="6.84929">
        <ele>3023.48</ele>
        <time>2015-08-02T09:21:34Z</time>
      </trkpt>
      <trkpt lat="46.02135" lon="6.84928">
        <ele>3022.52</ele>
        <time>2015-08-02T09:21:37Z</time>
      </trkpt>
      <trkpt lat="46.02131" lon="6.8493">
        <ele>3020.12</ele>
        <time>2015-08-02T09:21:46Z</time>
      </trkpt>
      <trkpt lat="46.02128" lon="6.84936">
        <ele>3017.23</ele>
        <time>2015-08-02T09:21:57Z</time>
      </trkpt>
      <trkpt lat="46.02125" lon="6.84941">
        <ele>3014.83</ele>
        <time>2015-08-02T09:22:06Z</time>
      </trkpt>
      <trkpt lat="46.02122" lon="6.84941">
        <ele>3013.39</ele>
        <time>2015-08-02T09:22:11Z</time>
      </trkpt>
      <trkpt lat="46.02121" lon="6.84945">
        <ele>3011.95</ele>
        <time>2015-08-02T09:22:14Z</time>
      </trkpt>
      <trkpt lat="46.02121" lon="6.84947">
        <ele>3011.95</ele>
        <time>2015-08-02T09:22:15Z</time>
      </trkpt>
      <trkpt lat="46.0212" lon="6.84954">
        <ele>3009.06</ele>
        <time>2015-08-02T09:22:21Z</time>
      </trkpt>
      <trkpt lat="46.02119" lon="6.84963">
        <ele>3006.66</ele>
        <time>2015-08-02T09:22:30Z</time>
      </trkpt>
      <trkpt lat="46.02119" lon="6.84965">
        <ele>3005.22</ele>
        <time>2015-08-02T09:22:33Z</time>
      </trkpt>
      <trkpt lat="46.02119" lon="6.8497">
        <ele>3003.3</ele>
        <time>2015-08-02T09:22:38Z</time>
      </trkpt>
      <trkpt lat="46.02118" lon="6.84974">
        <ele>3001.37</ele>
        <time>2015-08-02T09:22:42Z</time>
      </trkpt>
      <trkpt lat="46.02117" lon="6.84975">
        <ele>3000.89</ele>
        <time>2015-08-02T09:22:44Z</time>
      </trkpt>
      <trkpt lat="46.02115" lon="6.84977">
        <ele>2999.45</ele>
        <time>2015-08-02T09:22:48Z</time>
      </trkpt>
      <trkpt lat="46.02114" lon="6.84977">
        <ele>2998.97</ele>
        <time>2015-08-02T09:22:49Z</time>
      </trkpt>
      <trkpt lat="46.02114" lon="6.84977">
        <ele>2998.97</ele>
        <time>2015-08-02T09:22:50Z</time>
      </trkpt>
      <trkpt lat="46.02112" lon="6.84977">
        <ele>2998.49</ele>
        <time>2015-08-02T09:22:52Z</time>
      </trkpt>
      <trkpt lat="46.02109" lon="6.84977">
        <ele>2996.09</ele>
        <time>2015-08-02T09:22:55Z</time>
      </trkpt>
      <trkpt lat="46.02107" lon="6.84977">
        <ele>2996.09</ele>
        <time>2015-08-02T09:22:56Z</time>
      </trkpt>
      <trkpt lat="46.02106" lon="6.84977">
        <ele>2995.12</ele>
        <time>2015-08-02T09:22:57Z</time>
      </trkpt>
      <trkpt lat="46.02105" lon="6.84977">
        <ele>2995.12</ele>
        <time>2015-08-02T09:22:58Z</time>
      </trkpt>
      <trkpt lat="46.02103" lon="6.84976">
        <ele>2994.16</ele>
        <time>2015-08-02T09:22:59Z</time>
      </trkpt>
      <trkpt lat="46.02102" lon="6.84977">
        <ele>2994.16</ele>
        <time>2015-08-02T09:23:00Z</time>
      </trkpt>
      <trkpt lat="46.02102" lon="6.84978">
        <ele>2993.68</ele>
        <time>2015-08-02T09:23:01Z</time>
      </trkpt>
      <trkpt lat="46.021" lon="6.8498">
        <ele>2992.72</ele>
        <time>2015-08-02T09:23:03Z</time>
      </trkpt>
      <trkpt lat="46.021" lon="6.84984">
        <ele>2991.28</ele>
        <time>2015-08-02T09:23:06Z</time>
      </trkpt>
      <trkpt lat="46.02097" lon="6.84987">
        <ele>2989.84</ele>
        <time>2015-08-02T09:23:09Z</time>
      </trkpt>
      <trkpt lat="46.02094" lon="6.84986">
        <ele>2988.88</ele>
        <time>2015-08-02T09:23:11Z</time>
      </trkpt>
      <trkpt lat="46.02093" lon="6.84986">
        <ele>2988.88</ele>
        <time>2015-08-02T09:23:12Z</time>
      </trkpt>
      <trkpt lat="46.02085" lon="6.84985">
        <ele>2986.47</ele>
        <time>2015-08-02T09:23:19Z</time>
      </trkpt>
      <trkpt lat="46.02084" lon="6.84984">
        <ele>2984.55</ele>
        <time>2015-08-02T09:23:21Z</time>
      </trkpt>
      <trkpt lat="46.02084" lon="6.84984">
        <ele>2984.55</ele>
        <time>2015-08-02T09:23:22Z</time>
      </trkpt>
      <trkpt lat="46.02078" lon="6.84983">
        <ele>2981.19</ele>
        <time>2015-08-02T09:23:31Z</time>
      </trkpt>
      <trkpt lat="46.02076" lon="6.84982">
        <ele>2980.71</ele>
        <time>2015-08-02T09:23:33Z</time>
      </trkpt>
      <trkpt lat="46.02074" lon="6.84985">
        <ele>2981.67</ele>
        <time>2015-08-02T09:23:37Z</time>
      </trkpt>
      <trkpt lat="46.02073" lon="6.84992">
        <ele>2978.3</ele>
        <time>2015-08-02T09:23:42Z</time>
      </trkpt>
      <trkpt lat="46.0207" lon="6.84991">
        <ele>2975.9</ele>
        <time>2015-08-02T09:23:45Z</time>
      </trkpt>
      <trkpt lat="46.02066" lon="6.8499">
        <ele>2974.46</ele>
        <time>2015-08-02T09:23:49Z</time>
      </trkpt>
      <trkpt lat="46.02065" lon="6.85001">
        <ele>2972.53</ele>
        <time>2015-08-02T09:23:55Z</time>
      </trkpt>
      <trkpt lat="46.02063" lon="6.85003">
        <ele>2970.13</ele>
        <time>2015-08-02T09:23:58Z</time>
      </trkpt>
      <trkpt lat="46.02061" lon="6.85002">
        <ele>2968.69</ele>
        <time>2015-08-02T09:24:01Z</time>
      </trkpt>
      <trkpt lat="46.02056" lon="6.85002">
        <ele>2965.32</ele>
        <time>2015-08-02T09:24:06Z</time>
      </trkpt>
      <trkpt lat="46.02051" lon="6.85003">
        <ele>2963.4</ele>
        <time>2015-08-02T09:24:10Z</time>
      </trkpt>
      <trkpt lat="46.02049" lon="6.85001">
        <ele>2961.96</ele>
        <time>2015-08-02T09:24:12Z</time>
      </trkpt>
      <trkpt lat="46.02045" lon="6.84999">
        <ele>2960.52</ele>
        <time>2015-08-02T09:24:16Z</time>
      </trkpt>
      <trkpt lat="46.02042" lon="6.84998">
        <ele>2958.11</ele>
        <time>2015-08-02T09:24:18Z</time>
      </trkpt>
      <trkpt lat="46.0204" lon="6.84997">
        <ele>2957.63</ele>
        <time>2015-08-02T09:24:20Z</time>
      </trkpt>
      <trkpt lat="46.02038" lon="6.84996">
        <ele>2958.11</ele>
        <time>2015-08-02T09:24:22Z</time>
      </trkpt>
      <trkpt lat="46.02037" lon="6.85">
        <ele>2956.67</ele>
        <time>2015-08-02T09:24:26Z</time>
      </trkpt>
      <trkpt lat="46.02035" lon="6.84999">
        <ele>2953.79</ele>
        <time>2015-08-02T09:24:29Z</time>
      </trkpt>
      <trkpt lat="46.02032" lon="6.84997">
        <ele>2953.31</ele>
        <time>2015-08-02T09:24:34Z</time>
      </trkpt>
      <trkpt lat="46.02029" lon="6.85004">
        <ele>2952.35</ele>
        <time>2015-08-02T09:24:39Z</time>
      </trkpt>
      <trkpt lat="46.02025" lon="6.85004">
        <ele>2949.46</ele>
        <time>2015-08-02T09:24:43Z</time>
      </trkpt>
      <trkpt lat="46.02023" lon="6.85003">
        <ele>2948.02</ele>
        <time>2015-08-02T09:24:46Z</time>
      </trkpt>
      <trkpt lat="46.02021" lon="6.85007">
        <ele>2948.02</ele>
        <time>2015-08-02T09:24:50Z</time>
      </trkpt>
      <trkpt lat="46.02016" lon="6.85004">
        <ele>2943.69</ele>
        <time>2015-08-02T09:24:56Z</time>
      </trkpt>
      <trkpt lat="46.0201" lon="6.85002">
        <ele>2940.81</ele>
        <time>2015-08-02T09:25:02Z</time>
      </trkpt>
      <trkpt lat="46.02008" lon="6.85011">
        <ele>2939.37</ele>
        <time>2015-08-02T09:25:06Z</time>
      </trkpt>
      <trkpt lat="46.02008" lon="6.85017">
        <ele>2938.41</ele>
        <time>2015-08-02T09:25:08Z</time>
      </trkpt>
      <trkpt lat="46.02007" lon="6.85021">
        <ele>2937.93</ele>
        <time>2015-08-02T09:25:10Z</time>
      </trkpt>
      <trkpt lat="46.02006" lon="6.85023">
        <ele>2937.45</ele>
        <time>2015-08-02T09:25:11Z</time>
      </trkpt>
      <trkpt lat="46.02004" lon="6.85025">
        <ele>2936</ele>
        <time>2015-08-02T09:25:12Z</time>
      </trkpt>
      <trkpt lat="46.02004" lon="6.85027">
        <ele>2936</ele>
        <time>2015-08-02T09:25:13Z</time>
      </trkpt>
      <trkpt lat="46.02004" lon="6.8503">
        <ele>2935.04</ele>
        <time>2015-08-02T09:25:14Z</time>
      </trkpt>
      <trkpt lat="46.02003" lon="6.85033">
        <ele>2935.04</ele>
        <time>2015-08-02T09:25:15Z</time>
      </trkpt>
      <trkpt lat="46.02003" lon="6.8504">
        <ele>2933.6</ele>
        <time>2015-08-02T09:25:18Z</time>
      </trkpt>
      <trkpt lat="46.02002" lon="6.85042">
        <ele>2933.12</ele>
        <time>2015-08-02T09:25:19Z</time>
      </trkpt>
      <trkpt lat="46.02002" lon="6.85044">
        <ele>2932.64</ele>
        <time>2015-08-02T09:25:20Z</time>
      </trkpt>
      <trkpt lat="46.02002" lon="6.85046">
        <ele>2932.64</ele>
        <time>2015-08-02T09:25:21Z</time>
      </trkpt>
      <trkpt lat="46.02002" lon="6.85048">
        <ele>2932.64</ele>
        <time>2015-08-02T09:25:22Z</time>
      </trkpt>
      <trkpt lat="46.02002" lon="6.8505">
        <ele>2931.68</ele>
        <time>2015-08-02T09:25:23Z</time>
      </trkpt>
      <trkpt lat="46.02001" lon="6.85052">
        <ele>2931.68</ele>
        <time>2015-08-02T09:25:24Z</time>
      </trkpt>
      <trkpt lat="46.02001" lon="6.85054">
        <ele>2930.72</ele>
        <time>2015-08-02T09:25:25Z</time>
      </trkpt>
      <trkpt lat="46.02" lon="6.85055">
        <ele>2930.24</ele>
        <time>2015-08-02T09:25:26Z</time>
      </trkpt>
      <trkpt lat="46.01999" lon="6.85056">
        <ele>2930.24</ele>
        <time>2015-08-02T09:25:27Z</time>
      </trkpt>
      <trkpt lat="46.01999" lon="6.85057">
        <ele>2929.27</ele>
        <time>2015-08-02T09:25:28Z</time>
      </trkpt>
      <trkpt lat="46.01998" lon="6.8506">
        <ele>2929.27</ele>
        <time>2015-08-02T09:25:29Z</time>
      </trkpt>
      <trkpt lat="46.01998" lon="6.85062">
        <ele>2929.27</ele>
        <time>2015-08-02T09:25:30Z</time>
      </trkpt>
      <trkpt lat="46.01997" lon="6.85065">
        <ele>2929.27</ele>
        <time>2015-08-02T09:25:31Z</time>
      </trkpt>
      <trkpt lat="46.01997" lon="6.85068">
        <ele>2929.27</ele>
        <time>2015-08-02T09:25:32Z</time>
      </trkpt>
      <trkpt lat="46.01996" lon="6.85071">
        <ele>2928.31</ele>
        <time>2015-08-02T09:25:33Z</time>
      </trkpt>
      <trkpt lat="46.01995" lon="6.85074">
        <ele>2928.31</ele>
        <time>2015-08-02T09:25:34Z</time>
      </trkpt>
      <trkpt lat="46.01994" lon="6.85077">
        <ele>2928.31</ele>
        <time>2015-08-02T09:25:35Z</time>
      </trkpt>
      <trkpt lat="46.01993" lon="6.85079">
        <ele>2927.83</ele>
        <time>2015-08-02T09:25:36Z</time>
      </trkpt>
      <trkpt lat="46.01992" lon="6.85081">
        <ele>2927.83</ele>
        <time>2015-08-02T09:25:37Z</time>
      </trkpt>
      <trkpt lat="46.01991" lon="6.85083">
        <ele>2927.35</ele>
        <time>2015-08-02T09:25:38Z</time>
      </trkpt>
      <trkpt lat="46.0199" lon="6.85086">
        <ele>2927.35</ele>
        <time>2015-08-02T09:25:39Z</time>
      </trkpt>
      <trkpt lat="46.01989" lon="6.85088">
        <ele>2927.35</ele>
        <time>2015-08-02T09:25:40Z</time>
      </trkpt>
      <trkpt lat="46.01988" lon="6.85091">
        <ele>2925.91</ele>
        <time>2015-08-02T09:25:41Z</time>
      </trkpt>
      <trkpt lat="46.01987" lon="6.85094">
        <ele>2925.91</ele>
        <time>2015-08-02T09:25:42Z</time>
      </trkpt>
      <trkpt lat="46.01987" lon="6.85098">
        <ele>2924.95</ele>
        <time>2015-08-02T09:25:43Z</time>
      </trkpt>
      <trkpt lat="46.01986" lon="6.85101">
        <ele>2924.47</ele>
        <time>2015-08-02T09:25:44Z</time>
      </trkpt>
      <trkpt lat="46.01986" lon="6.85104">
        <ele>2924.47</ele>
        <time>2015-08-02T09:25:45Z</time>
      </trkpt>
      <trkpt lat="46.01985" lon="6.85108">
        <ele>2923.51</ele>
        <time>2015-08-02T09:25:46Z</time>
      </trkpt>
      <trkpt lat="46.01985" lon="6.85111">
        <ele>2923.51</ele>
        <time>2015-08-02T09:25:47Z</time>
      </trkpt>
      <trkpt lat="46.01984" lon="6.85114">
        <ele>2922.54</ele>
        <time>2015-08-02T09:25:48Z</time>
      </trkpt>
      <trkpt lat="46.01983" lon="6.85117">
        <ele>2922.06</ele>
        <time>2015-08-02T09:25:49Z</time>
      </trkpt>
      <trkpt lat="46.01979" lon="6.85141">
        <ele>2919.66</ele>
        <time>2015-08-02T09:25:56Z</time>
      </trkpt>
      <trkpt lat="46.0198" lon="6.85144">
        <ele>2918.7</ele>
        <time>2015-08-02T09:25:57Z</time>
      </trkpt>
      <trkpt lat="46.0198" lon="6.85147">
        <ele>2918.22</ele>
        <time>2015-08-02T09:25:58Z</time>
      </trkpt>
      <trkpt lat="46.01981" lon="6.8515">
        <ele>2917.26</ele>
        <time>2015-08-02T09:25:59Z</time>
      </trkpt>
      <trkpt lat="46.01981" lon="6.85152">
        <ele>2916.78</ele>
        <time>2015-08-02T09:26:00Z</time>
      </trkpt>
      <trkpt lat="46.01981" lon="6.85154">
        <ele>2916.3</ele>
        <time>2015-08-02T09:26:01Z</time>
      </trkpt>
      <trkpt lat="46.0198" lon="6.85157">
        <ele>2916.3</ele>
        <time>2015-08-02T09:26:02Z</time>
      </trkpt>
      <trkpt lat="46.01979" lon="6.85158">
        <ele>2915.34</ele>
        <time>2015-08-02T09:26:03Z</time>
      </trkpt>
      <trkpt lat="46.01978" lon="6.8516">
        <ele>2915.34</ele>
        <time>2015-08-02T09:26:04Z</time>
      </trkpt>
      <trkpt lat="46.01976" lon="6.8516">
        <ele>2914.85</ele>
        <time>2015-08-02T09:26:05Z</time>
      </trkpt>
      <trkpt lat="46.01975" lon="6.85159">
        <ele>2914.85</ele>
        <time>2015-08-02T09:26:06Z</time>
      </trkpt>
      <trkpt lat="46.01975" lon="6.85157">
        <ele>2914.85</ele>
        <time>2015-08-02T09:26:07Z</time>
      </trkpt>
      <trkpt lat="46.01974" lon="6.85155">
        <ele>2914.85</ele>
        <time>2015-08-02T09:26:08Z</time>
      </trkpt>
      <trkpt lat="46.01973" lon="6.85153">
        <ele>2914.85</ele>
        <time>2015-08-02T09:26:09Z</time>
      </trkpt>
      <trkpt lat="46.01972" lon="6.85151">
        <ele>2914.85</ele>
        <time>2015-08-02T09:26:10Z</time>
      </trkpt>
      <trkpt lat="46.01967" lon="6.85146">
        <ele>2912.45</ele>
        <time>2015-08-02T09:26:16Z</time>
      </trkpt>
      <trkpt lat="46.01966" lon="6.85144">
        <ele>2911.97</ele>
        <time>2015-08-02T09:26:18Z</time>
      </trkpt>
      <trkpt lat="46.01963" lon="6.85146">
        <ele>2909.09</ele>
        <time>2015-08-02T09:26:28Z</time>
      </trkpt>
      <trkpt lat="46.01963" lon="6.85146">
        <ele>2908.61</ele>
        <time>2015-08-02T09:26:30Z</time>
      </trkpt>
      <trkpt lat="46.01961" lon="6.85147">
        <ele>2908.13</ele>
        <time>2015-08-02T09:26:36Z</time>
      </trkpt>
      <trkpt lat="46.01958" lon="6.8515">
        <ele>2904.28</ele>
        <time>2015-08-02T09:26:42Z</time>
      </trkpt>
      <trkpt lat="46.01957" lon="6.8515">
        <ele>2904.28</ele>
        <time>2015-08-02T09:26:43Z</time>
      </trkpt>
      <trkpt lat="46.01956" lon="6.85149">
        <ele>2904.28</ele>
        <time>2015-08-02T09:26:44Z</time>
      </trkpt>
      <trkpt lat="46.01952" lon="6.85146">
        <ele>2900.92</ele>
        <time>2015-08-02T09:26:50Z</time>
      </trkpt>
      <trkpt lat="46.0195" lon="6.85147">
        <ele>2900.92</ele>
        <time>2015-08-02T09:26:52Z</time>
      </trkpt>
      <trkpt lat="46.01948" lon="6.85154">
        <ele>2898.51</ele>
        <time>2015-08-02T09:26:57Z</time>
      </trkpt>
      <trkpt lat="46.01946" lon="6.85154">
        <ele>2898.03</ele>
        <time>2015-08-02T09:26:58Z</time>
      </trkpt>
      <trkpt lat="46.01945" lon="6.85153">
        <ele>2897.55</ele>
        <time>2015-08-02T09:26:59Z</time>
      </trkpt>
      <trkpt lat="46.0194" lon="6.85147">
        <ele>2894.67</ele>
        <time>2015-08-02T09:27:05Z</time>
      </trkpt>
      <trkpt lat="46.01939" lon="6.85148">
        <ele>2894.67</ele>
        <time>2015-08-02T09:27:06Z</time>
      </trkpt>
      <trkpt lat="46.01938" lon="6.8515">
        <ele>2894.19</ele>
        <time>2015-08-02T09:27:07Z</time>
      </trkpt>
      <trkpt lat="46.01938" lon="6.85154">
        <ele>2892.74</ele>
        <time>2015-08-02T09:27:10Z</time>
      </trkpt>
      <trkpt lat="46.01937" lon="6.85156">
        <ele>2892.74</ele>
        <time>2015-08-02T09:27:11Z</time>
      </trkpt>
      <trkpt lat="46.01936" lon="6.85157">
        <ele>2892.26</ele>
        <time>2015-08-02T09:27:12Z</time>
      </trkpt>
      <trkpt lat="46.01933" lon="6.8516">
        <ele>2888.42</ele>
        <time>2015-08-02T09:27:21Z</time>
      </trkpt>
      <trkpt lat="46.0193" lon="6.85158">
        <ele>2887.46</ele>
        <time>2015-08-02T09:27:25Z</time>
      </trkpt>
      <trkpt lat="46.0193" lon="6.85157">
        <ele>2886.98</ele>
        <time>2015-08-02T09:27:26Z</time>
      </trkpt>
      <trkpt lat="46.01929" lon="6.85155">
        <ele>2886.02</ele>
        <time>2015-08-02T09:27:27Z</time>
      </trkpt>
      <trkpt lat="46.01928" lon="6.85155">
        <ele>2886.02</ele>
        <time>2015-08-02T09:27:28Z</time>
      </trkpt>
      <trkpt lat="46.01927" lon="6.85156">
        <ele>2884.57</ele>
        <time>2015-08-02T09:27:29Z</time>
      </trkpt>
      <trkpt lat="46.01926" lon="6.85157">
        <ele>2884.57</ele>
        <time>2015-08-02T09:27:30Z</time>
      </trkpt>
      <trkpt lat="46.01925" lon="6.85158">
        <ele>2884.09</ele>
        <time>2015-08-02T09:27:31Z</time>
      </trkpt>
      <trkpt lat="46.01924" lon="6.8516">
        <ele>2883.13</ele>
        <time>2015-08-02T09:27:32Z</time>
      </trkpt>
      <trkpt lat="46.01923" lon="6.85164">
        <ele>2882.17</ele>
        <time>2015-08-02T09:27:35Z</time>
      </trkpt>
      <trkpt lat="46.01923" lon="6.85166">
        <ele>2881.21</ele>
        <time>2015-08-02T09:27:36Z</time>
      </trkpt>
      <trkpt lat="46.01922" lon="6.85168">
        <ele>2880.73</ele>
        <time>2015-08-02T09:27:37Z</time>
      </trkpt>
      <trkpt lat="46.01921" lon="6.85169">
        <ele>2880.25</ele>
        <time>2015-08-02T09:27:38Z</time>
      </trkpt>
      <trkpt lat="46.0192" lon="6.8517">
        <ele>2880.25</ele>
        <time>2015-08-02T09:27:39Z</time>
      </trkpt>
      <trkpt lat="46.01919" lon="6.85171">
        <ele>2879.77</ele>
        <time>2015-08-02T09:27:40Z</time>
      </trkpt>
      <trkpt lat="46.0192" lon="6.85173">
        <ele>2878.81</ele>
        <time>2015-08-02T09:27:41Z</time>
      </trkpt>
      <trkpt lat="46.01918" lon="6.85173">
        <ele>2876.88</ele>
        <time>2015-08-02T09:27:45Z</time>
      </trkpt>
      <trkpt lat="46.01917" lon="6.85172">
        <ele>2875.92</ele>
        <time>2015-08-02T09:27:46Z</time>
      </trkpt>
      <trkpt lat="46.01915" lon="6.85171">
        <ele>2875.44</ele>
        <time>2015-08-02T09:27:47Z</time>
      </trkpt>
      <trkpt lat="46.01914" lon="6.8517">
        <ele>2874.96</ele>
        <time>2015-08-02T09:27:48Z</time>
      </trkpt>
      <trkpt lat="46.01914" lon="6.85169">
        <ele>2874.48</ele>
        <time>2015-08-02T09:27:49Z</time>
      </trkpt>
      <trkpt lat="46.01913" lon="6.85168">
        <ele>2874</ele>
        <time>2015-08-02T09:27:50Z</time>
      </trkpt>
      <trkpt lat="46.01912" lon="6.85166">
        <ele>2873.52</ele>
        <time>2015-08-02T09:27:51Z</time>
      </trkpt>
      <trkpt lat="46.01911" lon="6.85165">
        <ele>2873.52</ele>
        <time>2015-08-02T09:27:52Z</time>
      </trkpt>
      <trkpt lat="46.0191" lon="6.85166">
        <ele>2873.52</ele>
        <time>2015-08-02T09:27:53Z</time>
      </trkpt>
      <trkpt lat="46.01908" lon="6.85165">
        <ele>2872.08</ele>
        <time>2015-08-02T09:27:54Z</time>
      </trkpt>
      <trkpt lat="46.01907" lon="6.85164">
        <ele>2871.6</ele>
        <time>2015-08-02T09:27:55Z</time>
      </trkpt>
      <trkpt lat="46.01906" lon="6.85162">
        <ele>2870.63</ele>
        <time>2015-08-02T09:27:56Z</time>
      </trkpt>
      <trkpt lat="46.01904" lon="6.85162">
        <ele>2870.63</ele>
        <time>2015-08-02T09:27:57Z</time>
      </trkpt>
      <trkpt lat="46.01904" lon="6.85163">
        <ele>2870.15</ele>
        <time>2015-08-02T09:27:58Z</time>
      </trkpt>
      <trkpt lat="46.01903" lon="6.85165">
        <ele>2870.15</ele>
        <time>2015-08-02T09:27:59Z</time>
      </trkpt>
      <trkpt lat="46.01902" lon="6.85167">
        <ele>2869.67</ele>
        <time>2015-08-02T09:28:00Z</time>
      </trkpt>
      <trkpt lat="46.01899" lon="6.85174">
        <ele>2867.27</ele>
        <time>2015-08-02T09:28:05Z</time>
      </trkpt>
      <trkpt lat="46.01898" lon="6.85177">
        <ele>2865.83</ele>
        <time>2015-08-02T09:28:07Z</time>
      </trkpt>
      <trkpt lat="46.01895" lon="6.85183">
        <ele>2862.46</ele>
        <time>2015-08-02T09:28:14Z</time>
      </trkpt>
      <trkpt lat="46.01894" lon="6.85182">
        <ele>2861.5</ele>
        <time>2015-08-02T09:28:15Z</time>
      </trkpt>
      <trkpt lat="46.01893" lon="6.85181">
        <ele>2861.02</ele>
        <time>2015-08-02T09:28:16Z</time>
      </trkpt>
      <trkpt lat="46.01892" lon="6.8518">
        <ele>2861.02</ele>
        <time>2015-08-02T09:28:17Z</time>
      </trkpt>
      <trkpt lat="46.01892" lon="6.85181">
        <ele>2860.54</ele>
        <time>2015-08-02T09:28:18Z</time>
      </trkpt>
      <trkpt lat="46.01891" lon="6.85183">
        <ele>2860.54</ele>
        <time>2015-08-02T09:28:19Z</time>
      </trkpt>
      <trkpt lat="46.0189" lon="6.85184">
        <ele>2860.06</ele>
        <time>2015-08-02T09:28:20Z</time>
      </trkpt>
      <trkpt lat="46.0189" lon="6.85186">
        <ele>2860.06</ele>
        <time>2015-08-02T09:28:21Z</time>
      </trkpt>
      <trkpt lat="46.01889" lon="6.85187">
        <ele>2859.1</ele>
        <time>2015-08-02T09:28:22Z</time>
      </trkpt>
      <trkpt lat="46.01888" lon="6.85189">
        <ele>2859.1</ele>
        <time>2015-08-02T09:28:23Z</time>
      </trkpt>
      <trkpt lat="46.01887" lon="6.8519">
        <ele>2857.66</ele>
        <time>2015-08-02T09:28:24Z</time>
      </trkpt>
      <trkpt lat="46.01887" lon="6.85192">
        <ele>2857.66</ele>
        <time>2015-08-02T09:28:25Z</time>
      </trkpt>
      <trkpt lat="46.01885" lon="6.85193">
        <ele>2857.66</ele>
        <time>2015-08-02T09:28:26Z</time>
      </trkpt>
      <trkpt lat="46.01884" lon="6.85193">
        <ele>2855.25</ele>
        <time>2015-08-02T09:28:27Z</time>
      </trkpt>
      <trkpt lat="46.01882" lon="6.85193">
        <ele>2854.77</ele>
        <time>2015-08-02T09:28:29Z</time>
      </trkpt>
      <trkpt lat="46.01881" lon="6.85193">
        <ele>2852.85</ele>
        <time>2015-08-02T09:28:30Z</time>
      </trkpt>
      <trkpt lat="46.0188" lon="6.85192">
        <ele>2852.37</ele>
        <time>2015-08-02T09:28:31Z</time>
      </trkpt>
      <trkpt lat="46.01878" lon="6.8519">
        <ele>2851.41</ele>
        <time>2015-08-02T09:28:33Z</time>
      </trkpt>
      <trkpt lat="46.01877" lon="6.8519">
        <ele>2851.41</ele>
        <time>2015-08-02T09:28:34Z</time>
      </trkpt>
      <trkpt lat="46.01876" lon="6.85191">
        <ele>2851.41</ele>
        <time>2015-08-02T09:28:35Z</time>
      </trkpt>
      <trkpt lat="46.01875" lon="6.85194">
        <ele>2851.41</ele>
        <time>2015-08-02T09:28:37Z</time>
      </trkpt>
      <trkpt lat="46.01874" lon="6.85194">
        <ele>2850.45</ele>
        <time>2015-08-02T09:28:38Z</time>
      </trkpt>
      <trkpt lat="46.01873" lon="6.85194">
        <ele>2848.52</ele>
        <time>2015-08-02T09:28:39Z</time>
      </trkpt>
      <trkpt lat="46.01872" lon="6.85193">
        <ele>2847.56</ele>
        <time>2015-08-02T09:28:40Z</time>
      </trkpt>
      <trkpt lat="46.01871" lon="6.85191">
        <ele>2847.08</ele>
        <time>2015-08-02T09:28:41Z</time>
      </trkpt>
      <trkpt lat="46.01871" lon="6.85191">
        <ele>2847.08</ele>
        <time>2015-08-02T09:28:42Z</time>
      </trkpt>
      <trkpt lat="46.0187" lon="6.85192">
        <ele>2847.08</ele>
        <time>2015-08-02T09:28:43Z</time>
      </trkpt>
      <trkpt lat="46.01869" lon="6.85193">
        <ele>2847.08</ele>
        <time>2015-08-02T09:28:44Z</time>
      </trkpt>
      <trkpt lat="46.01868" lon="6.85195">
        <ele>2847.08</ele>
        <time>2015-08-02T09:28:45Z</time>
      </trkpt>
      <trkpt lat="46.01868" lon="6.85198">
        <ele>2846.6</ele>
        <time>2015-08-02T09:28:46Z</time>
      </trkpt>
      <trkpt lat="46.01868" lon="6.852">
        <ele>2846.12</ele>
        <time>2015-08-02T09:28:47Z</time>
      </trkpt>
      <trkpt lat="46.01866" lon="6.85202">
        <ele>2842.76</ele>
        <time>2015-08-02T09:28:50Z</time>
      </trkpt>
      <trkpt lat="46.01865" lon="6.85201">
        <ele>2842.76</ele>
        <time>2015-08-02T09:28:51Z</time>
      </trkpt>
      <trkpt lat="46.01863" lon="6.85199">
        <ele>2842.28</ele>
        <time>2015-08-02T09:28:53Z</time>
      </trkpt>
      <trkpt lat="46.01863" lon="6.85198">
        <ele>2841.31</ele>
        <time>2015-08-02T09:28:54Z</time>
      </trkpt>
      <trkpt lat="46.01862" lon="6.85197">
        <ele>2841.31</ele>
        <time>2015-08-02T09:28:55Z</time>
      </trkpt>
      <trkpt lat="46.0186" lon="6.85195">
        <ele>2839.87</ele>
        <time>2015-08-02T09:28:57Z</time>
      </trkpt>
      <trkpt lat="46.01859" lon="6.85195">
        <ele>2839.39</ele>
        <time>2015-08-02T09:28:58Z</time>
      </trkpt>
      <trkpt lat="46.01858" lon="6.85197">
        <ele>2839.39</ele>
        <time>2015-08-02T09:28:59Z</time>
      </trkpt>
      <trkpt lat="46.01857" lon="6.85199">
        <ele>2838.91</ele>
        <time>2015-08-02T09:29:00Z</time>
      </trkpt>
      <trkpt lat="46.01856" lon="6.85201">
        <ele>2837.95</ele>
        <time>2015-08-02T09:29:01Z</time>
      </trkpt>
      <trkpt lat="46.01856" lon="6.85203">
        <ele>2837.47</ele>
        <time>2015-08-02T09:29:02Z</time>
      </trkpt>
      <trkpt lat="46.01855" lon="6.85204">
        <ele>2837.47</ele>
        <time>2015-08-02T09:29:03Z</time>
      </trkpt>
      <trkpt lat="46.01854" lon="6.85204">
        <ele>2836.51</ele>
        <time>2015-08-02T09:29:04Z</time>
      </trkpt>
      <trkpt lat="46.01853" lon="6.85203">
        <ele>2835.06</ele>
        <time>2015-08-02T09:29:05Z</time>
      </trkpt>
      <trkpt lat="46.01852" lon="6.85202">
        <ele>2834.58</ele>
        <time>2015-08-02T09:29:06Z</time>
      </trkpt>
      <trkpt lat="46.01852" lon="6.852">
        <ele>2834.1</ele>
        <time>2015-08-02T09:29:07Z</time>
      </trkpt>
      <trkpt lat="46.01851" lon="6.85198">
        <ele>2833.62</ele>
        <time>2015-08-02T09:29:08Z</time>
      </trkpt>
      <trkpt lat="46.01849" lon="6.852">
        <ele>2833.14</ele>
        <time>2015-08-02T09:29:10Z</time>
      </trkpt>
      <trkpt lat="46.01849" lon="6.85202">
        <ele>2832.66</ele>
        <time>2015-08-02T09:29:11Z</time>
      </trkpt>
      <trkpt lat="46.01848" lon="6.85204">
        <ele>2831.7</ele>
        <time>2015-08-02T09:29:13Z</time>
      </trkpt>
      <trkpt lat="46.01847" lon="6.85203">
        <ele>2830.74</ele>
        <time>2015-08-02T09:29:14Z</time>
      </trkpt>
      <trkpt lat="46.01847" lon="6.85201">
        <ele>2830.26</ele>
        <time>2015-08-02T09:29:15Z</time>
      </trkpt>
      <trkpt lat="46.01846" lon="6.852">
        <ele>2830.26</ele>
        <time>2015-08-02T09:29:16Z</time>
      </trkpt>
      <trkpt lat="46.01845" lon="6.85199">
        <ele>2829.3</ele>
        <time>2015-08-02T09:29:17Z</time>
      </trkpt>
      <trkpt lat="46.01844" lon="6.852">
        <ele>2829.3</ele>
        <time>2015-08-02T09:29:18Z</time>
      </trkpt>
      <trkpt lat="46.01843" lon="6.85201">
        <ele>2828.34</ele>
        <time>2015-08-02T09:29:19Z</time>
      </trkpt>
      <trkpt lat="46.01842" lon="6.85201">
        <ele>2827.85</ele>
        <time>2015-08-02T09:29:20Z</time>
      </trkpt>
      <trkpt lat="46.0184" lon="6.852">
        <ele>2826.41</ele>
        <time>2015-08-02T09:29:21Z</time>
      </trkpt>
      <trkpt lat="46.0184" lon="6.85199">
        <ele>2825.93</ele>
        <time>2015-08-02T09:29:22Z</time>
      </trkpt>
      <trkpt lat="46.01839" lon="6.85197">
        <ele>2824.97</ele>
        <time>2015-08-02T09:29:23Z</time>
      </trkpt>
      <trkpt lat="46.01838" lon="6.85196">
        <ele>2824.97</ele>
        <time>2015-08-02T09:29:24Z</time>
      </trkpt>
      <trkpt lat="46.01838" lon="6.85194">
        <ele>2824.01</ele>
        <time>2015-08-02T09:29:25Z</time>
      </trkpt>
      <trkpt lat="46.01836" lon="6.85193">
        <ele>2824.01</ele>
        <time>2015-08-02T09:29:26Z</time>
      </trkpt>
      <trkpt lat="46.01836" lon="6.85193">
        <ele>2823.53</ele>
        <time>2015-08-02T09:29:27Z</time>
      </trkpt>
      <trkpt lat="46.01835" lon="6.85194">
        <ele>2823.53</ele>
        <time>2015-08-02T09:29:28Z</time>
      </trkpt>
      <trkpt lat="46.01835" lon="6.85196">
        <ele>2822.57</ele>
        <time>2015-08-02T09:29:29Z</time>
      </trkpt>
      <trkpt lat="46.01834" lon="6.85197">
        <ele>2821.61</ele>
        <time>2015-08-02T09:29:30Z</time>
      </trkpt>
      <trkpt lat="46.01833" lon="6.85198">
        <ele>2821.13</ele>
        <time>2015-08-02T09:29:31Z</time>
      </trkpt>
      <trkpt lat="46.01832" lon="6.85199">
        <ele>2820.65</ele>
        <time>2015-08-02T09:29:32Z</time>
      </trkpt>
      <trkpt lat="46.01831" lon="6.852">
        <ele>2820.16</ele>
        <time>2015-08-02T09:29:33Z</time>
      </trkpt>
      <trkpt lat="46.0183" lon="6.85204">
        <ele>2819.2</ele>
        <time>2015-08-02T09:29:35Z</time>
      </trkpt>
      <trkpt lat="46.01829" lon="6.85206">
        <ele>2818.24</ele>
        <time>2015-08-02T09:29:37Z</time>
      </trkpt>
      <trkpt lat="46.01827" lon="6.85206">
        <ele>2817.28</ele>
        <time>2015-08-02T09:29:38Z</time>
      </trkpt>
      <trkpt lat="46.01825" lon="6.85204">
        <ele>2815.84</ele>
        <time>2015-08-02T09:29:40Z</time>
      </trkpt>
      <trkpt lat="46.01824" lon="6.85206">
        <ele>2815.84</ele>
        <time>2015-08-02T09:29:41Z</time>
      </trkpt>
      <trkpt lat="46.01824" lon="6.85207">
        <ele>2814.88</ele>
        <time>2015-08-02T09:29:42Z</time>
      </trkpt>
      <trkpt lat="46.01822" lon="6.85207">
        <ele>2813.92</ele>
        <time>2015-08-02T09:29:43Z</time>
      </trkpt>
      <trkpt lat="46.01821" lon="6.85207">
        <ele>2813.92</ele>
        <time>2015-08-02T09:29:44Z</time>
      </trkpt>
      <trkpt lat="46.01821" lon="6.85208">
        <ele>2812.96</ele>
        <time>2015-08-02T09:29:45Z</time>
      </trkpt>
      <trkpt lat="46.01819" lon="6.8521">
        <ele>2812.47</ele>
        <time>2015-08-02T09:29:47Z</time>
      </trkpt>
      <trkpt lat="46.01818" lon="6.85211">
        <ele>2811.51</ele>
        <time>2015-08-02T09:29:48Z</time>
      </trkpt>
      <trkpt lat="46.01817" lon="6.8521">
        <ele>2810.07</ele>
        <time>2015-08-02T09:29:50Z</time>
      </trkpt>
      <trkpt lat="46.01814" lon="6.85215">
        <ele>2808.63</ele>
        <time>2015-08-02T09:29:56Z</time>
      </trkpt>
      <trkpt lat="46.01811" lon="6.85215">
        <ele>2806.23</ele>
        <time>2015-08-02T09:30:00Z</time>
      </trkpt>
      <trkpt lat="46.01809" lon="6.85218">
        <ele>2804.3</ele>
        <time>2015-08-02T09:30:03Z</time>
      </trkpt>
      <trkpt lat="46.01808" lon="6.85219">
        <ele>2804.3</ele>
        <time>2015-08-02T09:30:04Z</time>
      </trkpt>
      <trkpt lat="46.01807" lon="6.85219">
        <ele>2803.82</ele>
        <time>2015-08-02T09:30:05Z</time>
      </trkpt>
      <trkpt lat="46.01806" lon="6.85218">
        <ele>2802.38</ele>
        <time>2015-08-02T09:30:06Z</time>
      </trkpt>
      <trkpt lat="46.01805" lon="6.85217">
        <ele>2801.42</ele>
        <time>2015-08-02T09:30:07Z</time>
      </trkpt>
      <trkpt lat="46.018" lon="6.85209">
        <ele>2799.5</ele>
        <time>2015-08-02T09:30:13Z</time>
      </trkpt>
      <trkpt lat="46.01794" lon="6.85206">
        <ele>2795.17</ele>
        <time>2015-08-02T09:30:19Z</time>
      </trkpt>
      <trkpt lat="46.01791" lon="6.85198">
        <ele>2792.29</ele>
        <time>2015-08-02T09:30:23Z</time>
      </trkpt>
      <trkpt lat="46.01783" lon="6.85187">
        <ele>2787.48</ele>
        <time>2015-08-02T09:30:29Z</time>
      </trkpt>
      <trkpt lat="46.01781" lon="6.85186">
        <ele>2786.04</ele>
        <time>2015-08-02T09:30:31Z</time>
      </trkpt>
      <trkpt lat="46.01776" lon="6.85184">
        <ele>2782.19</ele>
        <time>2015-08-02T09:30:37Z</time>
      </trkpt>
      <trkpt lat="46.01775" lon="6.85183">
        <ele>2782.19</ele>
        <time>2015-08-02T09:30:38Z</time>
      </trkpt>
      <trkpt lat="46.01772" lon="6.85186">
        <ele>2780.75</ele>
        <time>2015-08-02T09:30:41Z</time>
      </trkpt>
      <trkpt lat="46.01766" lon="6.85188">
        <ele>2777.39</ele>
        <time>2015-08-02T09:30:46Z</time>
      </trkpt>
      <trkpt lat="46.0176" lon="6.85181">
        <ele>2774.02</ele>
        <time>2015-08-02T09:30:53Z</time>
      </trkpt>
      <trkpt lat="46.01754" lon="6.85178">
        <ele>2770.66</ele>
        <time>2015-08-02T09:30:58Z</time>
      </trkpt>
      <trkpt lat="46.01749" lon="6.85181">
        <ele>2768.25</ele>
        <time>2015-08-02T09:31:02Z</time>
      </trkpt>
      <trkpt lat="46.01748" lon="6.85178">
        <ele>2767.29</ele>
        <time>2015-08-02T09:31:03Z</time>
      </trkpt>
      <trkpt lat="46.01747" lon="6.85176">
        <ele>2766.81</ele>
        <time>2015-08-02T09:31:04Z</time>
      </trkpt>
      <trkpt lat="46.01746" lon="6.85173">
        <ele>2766.33</ele>
        <time>2015-08-02T09:31:05Z</time>
      </trkpt>
      <trkpt lat="46.01744" lon="6.85172">
        <ele>2766.33</ele>
        <time>2015-08-02T09:31:06Z</time>
      </trkpt>
      <trkpt lat="46.01743" lon="6.85174">
        <ele>2766.33</ele>
        <time>2015-08-02T09:31:07Z</time>
      </trkpt>
      <trkpt lat="46.01741" lon="6.85175">
        <ele>2765.37</ele>
        <time>2015-08-02T09:31:08Z</time>
      </trkpt>
      <trkpt lat="46.0174" lon="6.85175">
        <ele>2764.89</ele>
        <time>2015-08-02T09:31:09Z</time>
      </trkpt>
      <trkpt lat="46.01738" lon="6.85175">
        <ele>2763.45</ele>
        <time>2015-08-02T09:31:10Z</time>
      </trkpt>
      <trkpt lat="46.01737" lon="6.85173">
        <ele>2762.49</ele>
        <time>2015-08-02T09:31:11Z</time>
      </trkpt>
      <trkpt lat="46.01736" lon="6.85172">
        <ele>2762.49</ele>
        <time>2015-08-02T09:31:12Z</time>
      </trkpt>
      <trkpt lat="46.01735" lon="6.8517">
        <ele>2761.52</ele>
        <time>2015-08-02T09:31:13Z</time>
      </trkpt>
      <trkpt lat="46.01734" lon="6.85169">
        <ele>2761.52</ele>
        <time>2015-08-02T09:31:14Z</time>
      </trkpt>
      <trkpt lat="46.01733" lon="6.8517">
        <ele>2761.52</ele>
        <time>2015-08-02T09:31:15Z</time>
      </trkpt>
      <trkpt lat="46.01731" lon="6.85169">
        <ele>2760.56</ele>
        <time>2015-08-02T09:31:16Z</time>
      </trkpt>
      <trkpt lat="46.01731" lon="6.85166">
        <ele>2759.6</ele>
        <time>2015-08-02T09:31:17Z</time>
      </trkpt>
      <trkpt lat="46.0173" lon="6.85164">
        <ele>2759.12</ele>
        <time>2015-08-02T09:31:18Z</time>
      </trkpt>
      <trkpt lat="46.01728" lon="6.85164">
        <ele>2758.64</ele>
        <time>2015-08-02T09:31:19Z</time>
      </trkpt>
      <trkpt lat="46.01727" lon="6.85166">
        <ele>2758.16</ele>
        <time>2015-08-02T09:31:20Z</time>
      </trkpt>
      <trkpt lat="46.01725" lon="6.85172">
        <ele>2758.64</ele>
        <time>2015-08-02T09:31:22Z</time>
      </trkpt>
      <trkpt lat="46.01725" lon="6.85174">
        <ele>2757.2</ele>
        <time>2015-08-02T09:31:23Z</time>
      </trkpt>
      <trkpt lat="46.01723" lon="6.85176">
        <ele>2756.72</ele>
        <time>2015-08-02T09:31:24Z</time>
      </trkpt>
      <trkpt lat="46.01722" lon="6.85177">
        <ele>2755.76</ele>
        <time>2015-08-02T09:31:25Z</time>
      </trkpt>
      <trkpt lat="46.0172" lon="6.85177">
        <ele>2755.28</ele>
        <time>2015-08-02T09:31:26Z</time>
      </trkpt>
      <trkpt lat="46.01719" lon="6.85175">
        <ele>2754.31</ele>
        <time>2015-08-02T09:31:27Z</time>
      </trkpt>
      <trkpt lat="46.01718" lon="6.85172">
        <ele>2753.83</ele>
        <time>2015-08-02T09:31:28Z</time>
      </trkpt>
      <trkpt lat="46.01716" lon="6.85171">
        <ele>2752.87</ele>
        <time>2015-08-02T09:31:29Z</time>
      </trkpt>
      <trkpt lat="46.01715" lon="6.85171">
        <ele>2752.39</ele>
        <time>2015-08-02T09:31:30Z</time>
      </trkpt>
      <trkpt lat="46.01713" lon="6.85172">
        <ele>2751.91</ele>
        <time>2015-08-02T09:31:31Z</time>
      </trkpt>
      <trkpt lat="46.01711" lon="6.85172">
        <ele>2750.95</ele>
        <time>2015-08-02T09:31:32Z</time>
      </trkpt>
      <trkpt lat="46.01709" lon="6.8517">
        <ele>2750.47</ele>
        <time>2015-08-02T09:31:33Z</time>
      </trkpt>
      <trkpt lat="46.01708" lon="6.85169">
        <ele>2749.99</ele>
        <time>2015-08-02T09:31:34Z</time>
      </trkpt>
      <trkpt lat="46.01706" lon="6.85169">
        <ele>2749.51</ele>
        <time>2015-08-02T09:31:35Z</time>
      </trkpt>
      <trkpt lat="46.01704" lon="6.85168">
        <ele>2748.55</ele>
        <time>2015-08-02T09:31:36Z</time>
      </trkpt>
      <trkpt lat="46.01702" lon="6.85167">
        <ele>2747.59</ele>
        <time>2015-08-02T09:31:37Z</time>
      </trkpt>
      <trkpt lat="46.017" lon="6.85165">
        <ele>2746.62</ele>
        <time>2015-08-02T09:31:38Z</time>
      </trkpt>
      <trkpt lat="46.01699" lon="6.85166">
        <ele>2745.66</ele>
        <time>2015-08-02T09:31:39Z</time>
      </trkpt>
      <trkpt lat="46.01697" lon="6.85166">
        <ele>2745.18</ele>
        <time>2015-08-02T09:31:40Z</time>
      </trkpt>
      <trkpt lat="46.01695" lon="6.85167">
        <ele>2744.7</ele>
        <time>2015-08-02T09:31:41Z</time>
      </trkpt>
      <trkpt lat="46.01694" lon="6.85167">
        <ele>2743.74</ele>
        <time>2015-08-02T09:31:42Z</time>
      </trkpt>
      <trkpt lat="46.01692" lon="6.85165">
        <ele>2743.74</ele>
        <time>2015-08-02T09:31:43Z</time>
      </trkpt>
      <trkpt lat="46.01689" lon="6.85155">
        <ele>2741.82</ele>
        <time>2015-08-02T09:31:46Z</time>
      </trkpt>
      <trkpt lat="46.01687" lon="6.85153">
        <ele>2740.38</ele>
        <time>2015-08-02T09:31:47Z</time>
      </trkpt>
      <trkpt lat="46.01682" lon="6.85149">
        <ele>2739.89</ele>
        <time>2015-08-02T09:31:49Z</time>
      </trkpt>
      <trkpt lat="46.01662" lon="6.85138">
        <ele>2736.53</ele>
        <time>2015-08-02T09:31:57Z</time>
      </trkpt>
      <trkpt lat="46.0165" lon="6.8513">
        <ele>2734.61</ele>
        <time>2015-08-02T09:32:02Z</time>
      </trkpt>
      <trkpt lat="46.01645" lon="6.85126">
        <ele>2732.68</ele>
        <time>2015-08-02T09:32:04Z</time>
      </trkpt>
      <trkpt lat="46.01643" lon="6.85126">
        <ele>2732.2</ele>
        <time>2015-08-02T09:32:05Z</time>
      </trkpt>
      <trkpt lat="46.0164" lon="6.85125">
        <ele>2732.2</ele>
        <time>2015-08-02T09:32:06Z</time>
      </trkpt>
      <trkpt lat="46.01638" lon="6.85125">
        <ele>2731.24</ele>
        <time>2015-08-02T09:32:07Z</time>
      </trkpt>
      <trkpt lat="46.01636" lon="6.85124">
        <ele>2730.28</ele>
        <time>2015-08-02T09:32:08Z</time>
      </trkpt>
      <trkpt lat="46.01634" lon="6.85123">
        <ele>2730.28</ele>
        <time>2015-08-02T09:32:09Z</time>
      </trkpt>
      <trkpt lat="46.01629" lon="6.85121">
        <ele>2728.84</ele>
        <time>2015-08-02T09:32:12Z</time>
      </trkpt>
      <trkpt lat="46.01628" lon="6.85119">
        <ele>2728.36</ele>
        <time>2015-08-02T09:32:13Z</time>
      </trkpt>
      <trkpt lat="46.01623" lon="6.85113">
        <ele>2725.48</ele>
        <time>2015-08-02T09:32:17Z</time>
      </trkpt>
      <trkpt lat="46.01621" lon="6.85112">
        <ele>2724.99</ele>
        <time>2015-08-02T09:32:18Z</time>
      </trkpt>
      <trkpt lat="46.01619" lon="6.8511">
        <ele>2724.51</ele>
        <time>2015-08-02T09:32:19Z</time>
      </trkpt>
      <trkpt lat="46.01617" lon="6.85109">
        <ele>2724.51</ele>
        <time>2015-08-02T09:32:20Z</time>
      </trkpt>
      <trkpt lat="46.01616" lon="6.85108">
        <ele>2723.55</ele>
        <time>2015-08-02T09:32:21Z</time>
      </trkpt>
      <trkpt lat="46.01614" lon="6.85107">
        <ele>2723.07</ele>
        <time>2015-08-02T09:32:22Z</time>
      </trkpt>
      <trkpt lat="46.01613" lon="6.85105">
        <ele>2723.07</ele>
        <time>2015-08-02T09:32:23Z</time>
      </trkpt>
      <trkpt lat="46.01612" lon="6.85103">
        <ele>2722.59</ele>
        <time>2015-08-02T09:32:24Z</time>
      </trkpt>
      <trkpt lat="46.01611" lon="6.85102">
        <ele>2721.63</ele>
        <time>2015-08-02T09:32:25Z</time>
      </trkpt>
      <trkpt lat="46.01607" lon="6.85095">
        <ele>2719.23</ele>
        <time>2015-08-02T09:32:29Z</time>
      </trkpt>
      <trkpt lat="46.016" lon="6.85089">
        <ele>2717.3</ele>
        <time>2015-08-02T09:32:33Z</time>
      </trkpt>
      <trkpt lat="46.01585" lon="6.85079">
        <ele>2713.94</ele>
        <time>2015-08-02T09:32:41Z</time>
      </trkpt>
      <trkpt lat="46.01584" lon="6.85077">
        <ele>2713.94</ele>
        <time>2015-08-02T09:32:42Z</time>
      </trkpt>
      <trkpt lat="46.01579" lon="6.8507">
        <ele>2710.57</ele>
        <time>2015-08-02T09:32:46Z</time>
      </trkpt>
      <trkpt lat="46.01572" lon="6.85064">
        <ele>2707.21</ele>
        <time>2015-08-02T09:32:50Z</time>
      </trkpt>
      <trkpt lat="46.01567" lon="6.85063">
        <ele>2706.73</ele>
        <time>2015-08-02T09:32:52Z</time>
      </trkpt>
      <trkpt lat="46.01562" lon="6.85061">
        <ele>2705.77</ele>
        <time>2015-08-02T09:32:54Z</time>
      </trkpt>
      <trkpt lat="46.01559" lon="6.8506">
        <ele>2705.29</ele>
        <time>2015-08-02T09:32:55Z</time>
      </trkpt>
      <trkpt lat="46.01552" lon="6.85055">
        <ele>2704.81</ele>
        <time>2015-08-02T09:32:58Z</time>
      </trkpt>
      <trkpt lat="46.0155" lon="6.85052">
        <ele>2703.85</ele>
        <time>2015-08-02T09:32:59Z</time>
      </trkpt>
      <trkpt lat="46.01548" lon="6.85051">
        <ele>2702.4</ele>
        <time>2015-08-02T09:33:00Z</time>
      </trkpt>
      <trkpt lat="46.01546" lon="6.8505">
        <ele>2702.4</ele>
        <time>2015-08-02T09:33:01Z</time>
      </trkpt>
      <trkpt lat="46.01544" lon="6.85048">
        <ele>2702.4</ele>
        <time>2015-08-02T09:33:02Z</time>
      </trkpt>
      <trkpt lat="46.01543" lon="6.85046">
        <ele>2701.44</ele>
        <time>2015-08-02T09:33:03Z</time>
      </trkpt>
      <trkpt lat="46.01541" lon="6.85046">
        <ele>2700.96</ele>
        <time>2015-08-02T09:33:04Z</time>
      </trkpt>
      <trkpt lat="46.0154" lon="6.85045">
        <ele>2700.96</ele>
        <time>2015-08-02T09:33:05Z</time>
      </trkpt>
      <trkpt lat="46.01538" lon="6.85044">
        <ele>2700.48</ele>
        <time>2015-08-02T09:33:07Z</time>
      </trkpt>
      <trkpt lat="46.01536" lon="6.8504">
        <ele>2698.56</ele>
        <time>2015-08-02T09:33:10Z</time>
      </trkpt>
      <trkpt lat="46.01525" lon="6.85032">
        <ele>2695.67</ele>
        <time>2015-08-02T09:33:18Z</time>
      </trkpt>
      <trkpt lat="46.01518" lon="6.85031">
        <ele>2694.23</ele>
        <time>2015-08-02T09:33:22Z</time>
      </trkpt>
      <trkpt lat="46.01506" lon="6.85024">
        <ele>2690.87</ele>
        <time>2015-08-02T09:33:29Z</time>
      </trkpt>
      <trkpt lat="46.01502" lon="6.8502">
        <ele>2689.43</ele>
        <time>2015-08-02T09:33:33Z</time>
      </trkpt>
      <trkpt lat="46.01495" lon="6.85011">
        <ele>2687.02</ele>
        <time>2015-08-02T09:33:39Z</time>
      </trkpt>
      <trkpt lat="46.01486" lon="6.85007">
        <ele>2684.14</ele>
        <time>2015-08-02T09:33:44Z</time>
      </trkpt>
      <trkpt lat="46.01478" lon="6.84999">
        <ele>2681.25</ele>
        <time>2015-08-02T09:33:50Z</time>
      </trkpt>
      <trkpt lat="46.01476" lon="6.84996">
        <ele>2679.81</ele>
        <time>2015-08-02T09:33:52Z</time>
      </trkpt>
      <trkpt lat="46.01465" lon="6.84987">
        <ele>2675.49</ele>
        <time>2015-08-02T09:34:00Z</time>
      </trkpt>
      <trkpt lat="46.01463" lon="6.84986">
        <ele>2675.01</ele>
        <time>2015-08-02T09:34:01Z</time>
      </trkpt>
      <trkpt lat="46.01462" lon="6.84985">
        <ele>2674.04</ele>
        <time>2015-08-02T09:34:02Z</time>
      </trkpt>
      <trkpt lat="46.01457" lon="6.84982">
        <ele>2672.6</ele>
        <time>2015-08-02T09:34:05Z</time>
      </trkpt>
      <trkpt lat="46.01453" lon="6.84983">
        <ele>2671.64</ele>
        <time>2015-08-02T09:34:07Z</time>
      </trkpt>
      <trkpt lat="46.0145" lon="6.84984">
        <ele>2671.16</ele>
        <time>2015-08-02T09:34:09Z</time>
      </trkpt>
      <trkpt lat="46.01449" lon="6.84985">
        <ele>2671.16</ele>
        <time>2015-08-02T09:34:10Z</time>
      </trkpt>
      <trkpt lat="46.01438" lon="6.84992">
        <ele>2668.28</ele>
        <time>2015-08-02T09:34:17Z</time>
      </trkpt>
      <trkpt lat="46.01436" lon="6.84992">
        <ele>2667.31</ele>
        <time>2015-08-02T09:34:18Z</time>
      </trkpt>
      <trkpt lat="46.01434" lon="6.84991">
        <ele>2667.31</ele>
        <time>2015-08-02T09:34:19Z</time>
      </trkpt>
      <trkpt lat="46.0143" lon="6.84989">
        <ele>2665.87</ele>
        <time>2015-08-02T09:34:21Z</time>
      </trkpt>
      <trkpt lat="46.01424" lon="6.84987">
        <ele>2663.95</ele>
        <time>2015-08-02T09:34:24Z</time>
      </trkpt>
      <trkpt lat="46.01416" lon="6.84985">
        <ele>2661.07</ele>
        <time>2015-08-02T09:34:28Z</time>
      </trkpt>
      <trkpt lat="46.01414" lon="6.84985">
        <ele>2661.07</ele>
        <time>2015-08-02T09:34:29Z</time>
      </trkpt>
      <trkpt lat="46.01411" lon="6.84985">
        <ele>2659.62</ele>
        <time>2015-08-02T09:34:31Z</time>
      </trkpt>
      <trkpt lat="46.01409" lon="6.84987">
        <ele>2659.62</ele>
        <time>2015-08-02T09:34:32Z</time>
      </trkpt>
      <trkpt lat="46.01408" lon="6.84988">
        <ele>2658.18</ele>
        <time>2015-08-02T09:34:33Z</time>
      </trkpt>
      <trkpt lat="46.01407" lon="6.84989">
        <ele>2657.7</ele>
        <time>2015-08-02T09:34:34Z</time>
      </trkpt>
      <trkpt lat="46.01405" lon="6.84989">
        <ele>2657.22</ele>
        <time>2015-08-02T09:34:35Z</time>
      </trkpt>
      <trkpt lat="46.01404" lon="6.8499">
        <ele>2656.26</ele>
        <time>2015-08-02T09:34:36Z</time>
      </trkpt>
      <trkpt lat="46.01404" lon="6.84992">
        <ele>2656.26</ele>
        <time>2015-08-02T09:34:37Z</time>
      </trkpt>
      <trkpt lat="46.01402" lon="6.84993">
        <ele>2655.78</ele>
        <time>2015-08-02T09:34:38Z</time>
      </trkpt>
      <trkpt lat="46.01401" lon="6.84995">
        <ele>2655.3</ele>
        <time>2015-08-02T09:34:39Z</time>
      </trkpt>
      <trkpt lat="46.014" lon="6.84996">
        <ele>2654.82</ele>
        <time>2015-08-02T09:34:40Z</time>
      </trkpt>
      <trkpt lat="46.01399" lon="6.84998">
        <ele>2653.38</ele>
        <time>2015-08-02T09:34:41Z</time>
      </trkpt>
      <trkpt lat="46.01397" lon="6.84999">
        <ele>2653.38</ele>
        <time>2015-08-02T09:34:42Z</time>
      </trkpt>
      <trkpt lat="46.01395" lon="6.85001">
        <ele>2651.93</ele>
        <time>2015-08-02T09:34:43Z</time>
      </trkpt>
      <trkpt lat="46.01393" lon="6.85003">
        <ele>2650.97</ele>
        <time>2015-08-02T09:34:44Z</time>
      </trkpt>
      <trkpt lat="46.01391" lon="6.85005">
        <ele>2650.49</ele>
        <time>2015-08-02T09:34:45Z</time>
      </trkpt>
      <trkpt lat="46.01389" lon="6.85006">
        <ele>2649.53</ele>
        <time>2015-08-02T09:34:46Z</time>
      </trkpt>
      <trkpt lat="46.01387" lon="6.85007">
        <ele>2649.05</ele>
        <time>2015-08-02T09:34:47Z</time>
      </trkpt>
      <trkpt lat="46.01386" lon="6.85008">
        <ele>2648.57</ele>
        <time>2015-08-02T09:34:48Z</time>
      </trkpt>
      <trkpt lat="46.01375" lon="6.85016">
        <ele>2645.21</ele>
        <time>2015-08-02T09:34:54Z</time>
      </trkpt>
      <trkpt lat="46.01373" lon="6.8502">
        <ele>2643.76</ele>
        <time>2015-08-02T09:34:56Z</time>
      </trkpt>
      <trkpt lat="46.01371" lon="6.85022">
        <ele>2643.28</ele>
        <time>2015-08-02T09:34:57Z</time>
      </trkpt>
      <trkpt lat="46.0137" lon="6.85022">
        <ele>2642.32</ele>
        <time>2015-08-02T09:34:58Z</time>
      </trkpt>
      <trkpt lat="46.01368" lon="6.85023">
        <ele>2642.32</ele>
        <time>2015-08-02T09:34:59Z</time>
      </trkpt>
      <trkpt lat="46.01367" lon="6.85024">
        <ele>2641.84</ele>
        <time>2015-08-02T09:35:00Z</time>
      </trkpt>
      <trkpt lat="46.01366" lon="6.85024">
        <ele>2641.36</ele>
        <time>2015-08-02T09:35:01Z</time>
      </trkpt>
      <trkpt lat="46.01364" lon="6.85025">
        <ele>2640.88</ele>
        <time>2015-08-02T09:35:02Z</time>
      </trkpt>
      <trkpt lat="46.01362" lon="6.85026">
        <ele>2640.88</ele>
        <time>2015-08-02T09:35:03Z</time>
      </trkpt>
      <trkpt lat="46.01361" lon="6.85027">
        <ele>2639.92</ele>
        <time>2015-08-02T09:35:04Z</time>
      </trkpt>
      <trkpt lat="46.01359" lon="6.85028">
        <ele>2638.96</ele>
        <time>2015-08-02T09:35:05Z</time>
      </trkpt>
      <trkpt lat="46.01357" lon="6.8503">
        <ele>2638.96</ele>
        <time>2015-08-02T09:35:06Z</time>
      </trkpt>
      <trkpt lat="46.0135" lon="6.85031">
        <ele>2638.48</ele>
        <time>2015-08-02T09:35:09Z</time>
      </trkpt>
      <trkpt lat="46.01348" lon="6.85033">
        <ele>2637.51</ele>
        <time>2015-08-02T09:35:10Z</time>
      </trkpt>
      <trkpt lat="46.01346" lon="6.85034">
        <ele>2637.03</ele>
        <time>2015-08-02T09:35:11Z</time>
      </trkpt>
      <trkpt lat="46.01344" lon="6.85035">
        <ele>2637.03</ele>
        <time>2015-08-02T09:35:12Z</time>
      </trkpt>
      <trkpt lat="46.01342" lon="6.85036">
        <ele>2636.55</ele>
        <time>2015-08-02T09:35:13Z</time>
      </trkpt>
      <trkpt lat="46.0134" lon="6.85037">
        <ele>2636.07</ele>
        <time>2015-08-02T09:35:14Z</time>
      </trkpt>
      <trkpt lat="46.01338" lon="6.85038">
        <ele>2635.11</ele>
        <time>2015-08-02T09:35:15Z</time>
      </trkpt>
      <trkpt lat="46.01336" lon="6.85038">
        <ele>2634.63</ele>
        <time>2015-08-02T09:35:16Z</time>
      </trkpt>
      <trkpt lat="46.01325" lon="6.85042">
        <ele>2631.27</ele>
        <time>2015-08-02T09:35:22Z</time>
      </trkpt>
      <trkpt lat="46.01316" lon="6.85045">
        <ele>2628.38</ele>
        <time>2015-08-02T09:35:27Z</time>
      </trkpt>
      <trkpt lat="46.01304" lon="6.85054">
        <ele>2625.02</ele>
        <time>2015-08-02T09:35:33Z</time>
      </trkpt>
      <trkpt lat="46.01278" lon="6.85069">
        <ele>2622.13</ele>
        <time>2015-08-02T09:35:44Z</time>
      </trkpt>
      <trkpt lat="46.01272" lon="6.85072">
        <ele>2619.25</ele>
        <time>2015-08-02T09:35:47Z</time>
      </trkpt>
      <trkpt lat="46.01263" lon="6.85085">
        <ele>2615.88</ele>
        <time>2015-08-02T09:35:51Z</time>
      </trkpt>
      <trkpt lat="46.01259" lon="6.85091">
        <ele>2614.92</ele>
        <time>2015-08-02T09:35:53Z</time>
      </trkpt>
      <trkpt lat="46.01256" lon="6.85098">
        <ele>2613.48</ele>
        <time>2015-08-02T09:35:55Z</time>
      </trkpt>
      <trkpt lat="46.0125" lon="6.85107">
        <ele>2612.04</ele>
        <time>2015-08-02T09:35:58Z</time>
      </trkpt>
      <trkpt lat="46.01246" lon="6.85112">
        <ele>2611.08</ele>
        <time>2015-08-02T09:36:00Z</time>
      </trkpt>
      <trkpt lat="46.01244" lon="6.85114">
        <ele>2610.12</ele>
        <time>2015-08-02T09:36:01Z</time>
      </trkpt>
      <trkpt lat="46.01234" lon="6.85128">
        <ele>2606.27</ele>
        <time>2015-08-02T09:36:06Z</time>
      </trkpt>
      <trkpt lat="46.01232" lon="6.8513">
        <ele>2605.79</ele>
        <time>2015-08-02T09:36:07Z</time>
      </trkpt>
      <trkpt lat="46.01228" lon="6.85141">
        <ele>2602.91</ele>
        <time>2015-08-02T09:36:11Z</time>
      </trkpt>
      <trkpt lat="46.01227" lon="6.85142">
        <ele>2602.43</ele>
        <time>2015-08-02T09:36:12Z</time>
      </trkpt>
      <trkpt lat="46.01225" lon="6.85143">
        <ele>2601.95</ele>
        <time>2015-08-02T09:36:13Z</time>
      </trkpt>
      <trkpt lat="46.01224" lon="6.85144">
        <ele>2601.95</ele>
        <time>2015-08-02T09:36:14Z</time>
      </trkpt>
      <trkpt lat="46.01222" lon="6.85146">
        <ele>2600.98</ele>
        <time>2015-08-02T09:36:15Z</time>
      </trkpt>
      <trkpt lat="46.01221" lon="6.85148">
        <ele>2600.98</ele>
        <time>2015-08-02T09:36:16Z</time>
      </trkpt>
      <trkpt lat="46.01218" lon="6.85151">
        <ele>2600.5</ele>
        <time>2015-08-02T09:36:18Z</time>
      </trkpt>
      <trkpt lat="46.01218" lon="6.85153">
        <ele>2599.54</ele>
        <time>2015-08-02T09:36:19Z</time>
      </trkpt>
      <trkpt lat="46.01217" lon="6.85155">
        <ele>2599.06</ele>
        <time>2015-08-02T09:36:20Z</time>
      </trkpt>
      <trkpt lat="46.01215" lon="6.85156">
        <ele>2599.06</ele>
        <time>2015-08-02T09:36:21Z</time>
      </trkpt>
      <trkpt lat="46.01214" lon="6.85157">
        <ele>2599.06</ele>
        <time>2015-08-02T09:36:22Z</time>
      </trkpt>
      <trkpt lat="46.01212" lon="6.85159">
        <ele>2599.06</ele>
        <time>2015-08-02T09:36:23Z</time>
      </trkpt>
      <trkpt lat="46.0121" lon="6.85162">
        <ele>2599.06</ele>
        <time>2015-08-02T09:36:24Z</time>
      </trkpt>
      <trkpt lat="46.01209" lon="6.85164">
        <ele>2599.06</ele>
        <time>2015-08-02T09:36:25Z</time>
      </trkpt>
      <trkpt lat="46.01201" lon="6.85177">
        <ele>2595.22</ele>
        <time>2015-08-02T09:36:30Z</time>
      </trkpt>
      <trkpt lat="46.01195" lon="6.85188">
        <ele>2593.29</ele>
        <time>2015-08-02T09:36:34Z</time>
      </trkpt>
      <trkpt lat="46.01186" lon="6.85204">
        <ele>2590.41</ele>
        <time>2015-08-02T09:36:41Z</time>
      </trkpt>
      <trkpt lat="46.01184" lon="6.85205">
        <ele>2589.93</ele>
        <time>2015-08-02T09:36:42Z</time>
      </trkpt>
      <trkpt lat="46.01183" lon="6.85207">
        <ele>2589.45</ele>
        <time>2015-08-02T09:36:43Z</time>
      </trkpt>
      <trkpt lat="46.01184" lon="6.8521">
        <ele>2588.49</ele>
        <time>2015-08-02T09:36:44Z</time>
      </trkpt>
      <trkpt lat="46.01183" lon="6.85212">
        <ele>2588.49</ele>
        <time>2015-08-02T09:36:45Z</time>
      </trkpt>
      <trkpt lat="46.01183" lon="6.85214">
        <ele>2587.53</ele>
        <time>2015-08-02T09:36:46Z</time>
      </trkpt>
      <trkpt lat="46.01181" lon="6.85216">
        <ele>2587.53</ele>
        <time>2015-08-02T09:36:47Z</time>
      </trkpt>
      <trkpt lat="46.01178" lon="6.85219">
        <ele>2586.08</ele>
        <time>2015-08-02T09:36:49Z</time>
      </trkpt>
      <trkpt lat="46.01176" lon="6.85221">
        <ele>2585.6</ele>
        <time>2015-08-02T09:36:50Z</time>
      </trkpt>
      <trkpt lat="46.01165" lon="6.85236">
        <ele>2581.76</ele>
        <time>2015-08-02T09:36:57Z</time>
      </trkpt>
      <trkpt lat="46.0116" lon="6.85244">
        <ele>2579.35</ele>
        <time>2015-08-02T09:37:01Z</time>
      </trkpt>
      <trkpt lat="46.01158" lon="6.85245">
        <ele>2579.35</ele>
        <time>2015-08-02T09:37:02Z</time>
      </trkpt>
      <trkpt lat="46.01155" lon="6.85248">
        <ele>2577.91</ele>
        <time>2015-08-02T09:37:04Z</time>
      </trkpt>
      <trkpt lat="46.01151" lon="6.85254">
        <ele>2576.47</ele>
        <time>2015-08-02T09:37:07Z</time>
      </trkpt>
      <trkpt lat="46.01147" lon="6.85259">
        <ele>2574.55</ele>
        <time>2015-08-02T09:37:10Z</time>
      </trkpt>
      <trkpt lat="46.01145" lon="6.85261">
        <ele>2574.07</ele>
        <time>2015-08-02T09:37:11Z</time>
      </trkpt>
      <trkpt lat="46.01145" lon="6.85263">
        <ele>2574.07</ele>
        <time>2015-08-02T09:37:12Z</time>
      </trkpt>
      <trkpt lat="46.01144" lon="6.85265">
        <ele>2573.11</ele>
        <time>2015-08-02T09:37:13Z</time>
      </trkpt>
      <trkpt lat="46.01143" lon="6.85267">
        <ele>2572.63</ele>
        <time>2015-08-02T09:37:14Z</time>
      </trkpt>
      <trkpt lat="46.01142" lon="6.85268">
        <ele>2572.63</ele>
        <time>2015-08-02T09:37:15Z</time>
      </trkpt>
      <trkpt lat="46.01141" lon="6.85269">
        <ele>2571.66</ele>
        <time>2015-08-02T09:37:16Z</time>
      </trkpt>
      <trkpt lat="46.01141" lon="6.85271">
        <ele>2571.18</ele>
        <time>2015-08-02T09:37:17Z</time>
      </trkpt>
      <trkpt lat="46.0114" lon="6.85272">
        <ele>2570.22</ele>
        <time>2015-08-02T09:37:18Z</time>
      </trkpt>
      <trkpt lat="46.01134" lon="6.85277">
        <ele>2566.86</ele>
        <time>2015-08-02T09:37:22Z</time>
      </trkpt>
      <trkpt lat="46.01131" lon="6.8528">
        <ele>2566.38</ele>
        <time>2015-08-02T09:37:24Z</time>
      </trkpt>
      <trkpt lat="46.0113" lon="6.85282">
        <ele>2565.42</ele>
        <time>2015-08-02T09:37:25Z</time>
      </trkpt>
      <trkpt lat="46.01129" lon="6.85284">
        <ele>2564.45</ele>
        <time>2015-08-02T09:37:26Z</time>
      </trkpt>
      <trkpt lat="46.01127" lon="6.85286">
        <ele>2563.97</ele>
        <time>2015-08-02T09:37:28Z</time>
      </trkpt>
      <trkpt lat="46.01125" lon="6.85287">
        <ele>2563.01</ele>
        <time>2015-08-02T09:37:29Z</time>
      </trkpt>
      <trkpt lat="46.01123" lon="6.85289">
        <ele>2562.53</ele>
        <time>2015-08-02T09:37:30Z</time>
      </trkpt>
      <trkpt lat="46.01122" lon="6.85291">
        <ele>2562.05</ele>
        <time>2015-08-02T09:37:31Z</time>
      </trkpt>
      <trkpt lat="46.0112" lon="6.85293">
        <ele>2561.57</ele>
        <time>2015-08-02T09:37:32Z</time>
      </trkpt>
      <trkpt lat="46.0112" lon="6.85295">
        <ele>2560.13</ele>
        <time>2015-08-02T09:37:33Z</time>
      </trkpt>
      <trkpt lat="46.01119" lon="6.85297">
        <ele>2560.13</ele>
        <time>2015-08-02T09:37:34Z</time>
      </trkpt>
      <trkpt lat="46.01119" lon="6.853">
        <ele>2558.69</ele>
        <time>2015-08-02T09:37:35Z</time>
      </trkpt>
      <trkpt lat="46.01117" lon="6.85303">
        <ele>2558.69</ele>
        <time>2015-08-02T09:37:36Z</time>
      </trkpt>
      <trkpt lat="46.01114" lon="6.85307">
        <ele>2557.24</ele>
        <time>2015-08-02T09:37:38Z</time>
      </trkpt>
      <trkpt lat="46.01113" lon="6.85309">
        <ele>2556.28</ele>
        <time>2015-08-02T09:37:39Z</time>
      </trkpt>
      <trkpt lat="46.01113" lon="6.85311">
        <ele>2555.8</ele>
        <time>2015-08-02T09:37:40Z</time>
      </trkpt>
      <trkpt lat="46.01113" lon="6.85312">
        <ele>2555.8</ele>
        <time>2015-08-02T09:37:41Z</time>
      </trkpt>
      <trkpt lat="46.01114" lon="6.85314">
        <ele>2554.84</ele>
        <time>2015-08-02T09:37:42Z</time>
      </trkpt>
      <trkpt lat="46.01114" lon="6.85317">
        <ele>2553.88</ele>
        <time>2015-08-02T09:37:43Z</time>
      </trkpt>
      <trkpt lat="46.01114" lon="6.8532">
        <ele>2553.4</ele>
        <time>2015-08-02T09:37:44Z</time>
      </trkpt>
      <trkpt lat="46.01113" lon="6.85322">
        <ele>2552.92</ele>
        <time>2015-08-02T09:37:45Z</time>
      </trkpt>
      <trkpt lat="46.01111" lon="6.85325">
        <ele>2552.44</ele>
        <time>2015-08-02T09:37:46Z</time>
      </trkpt>
      <trkpt lat="46.01111" lon="6.85327">
        <ele>2551.96</ele>
        <time>2015-08-02T09:37:47Z</time>
      </trkpt>
      <trkpt lat="46.01112" lon="6.85329">
        <ele>2551.48</ele>
        <time>2015-08-02T09:37:48Z</time>
      </trkpt>
      <trkpt lat="46.01112" lon="6.85331">
        <ele>2550.51</ele>
        <time>2015-08-02T09:37:49Z</time>
      </trkpt>
      <trkpt lat="46.01114" lon="6.85332">
        <ele>2550.51</ele>
        <time>2015-08-02T09:37:50Z</time>
      </trkpt>
      <trkpt lat="46.01114" lon="6.85333">
        <ele>2549.55</ele>
        <time>2015-08-02T09:37:51Z</time>
      </trkpt>
      <trkpt lat="46.01117" lon="6.85333">
        <ele>2549.07</ele>
        <time>2015-08-02T09:37:53Z</time>
      </trkpt>
      <trkpt lat="46.0112" lon="6.85337">
        <ele>2547.63</ele>
        <time>2015-08-02T09:37:57Z</time>
      </trkpt>
      <trkpt lat="46.0112" lon="6.85341">
        <ele>2545.71</ele>
        <time>2015-08-02T09:38:00Z</time>
      </trkpt>
      <trkpt lat="46.01122" lon="6.85347">
        <ele>2543.79</ele>
        <time>2015-08-02T09:38:04Z</time>
      </trkpt>
      <trkpt lat="46.01122" lon="6.85357">
        <ele>2540.9</ele>
        <time>2015-08-02T09:38:09Z</time>
      </trkpt>
      <trkpt lat="46.0112" lon="6.85364">
        <ele>2538.98</ele>
        <time>2015-08-02T09:38:12Z</time>
      </trkpt>
      <trkpt lat="46.01117" lon="6.85373">
        <ele>2537.54</ele>
        <time>2015-08-02T09:38:16Z</time>
      </trkpt>
      <trkpt lat="46.01116" lon="6.85375">
        <ele>2537.54</ele>
        <time>2015-08-02T09:38:17Z</time>
      </trkpt>
      <trkpt lat="46.01114" lon="6.85377">
        <ele>2537.54</ele>
        <time>2015-08-02T09:38:18Z</time>
      </trkpt>
      <trkpt lat="46.01113" lon="6.85379">
        <ele>2537.54</ele>
        <time>2015-08-02T09:38:19Z</time>
      </trkpt>
      <trkpt lat="46.01111" lon="6.85382">
        <ele>2537.54</ele>
        <time>2015-08-02T09:38:20Z</time>
      </trkpt>
      <trkpt lat="46.01103" lon="6.85394">
        <ele>2535.61</ele>
        <time>2015-08-02T09:38:27Z</time>
      </trkpt>
      <trkpt lat="46.01102" lon="6.85397">
        <ele>2535.61</ele>
        <time>2015-08-02T09:38:28Z</time>
      </trkpt>
      <trkpt lat="46.01099" lon="6.85405">
        <ele>2534.17</ele>
        <time>2015-08-02T09:38:31Z</time>
      </trkpt>
      <trkpt lat="46.01097" lon="6.85408">
        <ele>2533.69</ele>
        <time>2015-08-02T09:38:32Z</time>
      </trkpt>
      <trkpt lat="46.01096" lon="6.85411">
        <ele>2533.21</ele>
        <time>2015-08-02T09:38:33Z</time>
      </trkpt>
      <trkpt lat="46.01096" lon="6.85415">
        <ele>2532.25</ele>
        <time>2015-08-02T09:38:34Z</time>
      </trkpt>
      <trkpt lat="46.01096" lon="6.85419">
        <ele>2531.77</ele>
        <time>2015-08-02T09:38:35Z</time>
      </trkpt>
      <trkpt lat="46.01095" lon="6.85423">
        <ele>2531.77</ele>
        <time>2015-08-02T09:38:36Z</time>
      </trkpt>
      <trkpt lat="46.01094" lon="6.85427">
        <ele>2530.81</ele>
        <time>2015-08-02T09:38:37Z</time>
      </trkpt>
      <trkpt lat="46.01083" lon="6.85468">
        <ele>2529.37</ele>
        <time>2015-08-02T09:38:47Z</time>
      </trkpt>
      <trkpt lat="46.0108" lon="6.85488">
        <ele>2527.44</ele>
        <time>2015-08-02T09:38:52Z</time>
      </trkpt>
      <trkpt lat="46.0108" lon="6.85492">
        <ele>2527.44</ele>
        <time>2015-08-02T09:38:53Z</time>
      </trkpt>
      <trkpt lat="46.01075" lon="6.85519">
        <ele>2526.48</ele>
        <time>2015-08-02T09:39:00Z</time>
      </trkpt>
      <trkpt lat="46.01075" lon="6.85522">
        <ele>2526</ele>
        <time>2015-08-02T09:39:01Z</time>
      </trkpt>
      <trkpt lat="46.01074" lon="6.85525">
        <ele>2526</ele>
        <time>2015-08-02T09:39:02Z</time>
      </trkpt>
      <trkpt lat="46.01074" lon="6.85528">
        <ele>2525.52</ele>
        <time>2015-08-02T09:39:03Z</time>
      </trkpt>
      <trkpt lat="46.01073" lon="6.85532">
        <ele>2525.52</ele>
        <time>2015-08-02T09:39:04Z</time>
      </trkpt>
      <trkpt lat="46.01072" lon="6.85535">
        <ele>2525.52</ele>
        <time>2015-08-02T09:39:05Z</time>
      </trkpt>
      <trkpt lat="46.01069" lon="6.85557">
        <ele>2525.04</ele>
        <time>2015-08-02T09:39:11Z</time>
      </trkpt>
      <trkpt lat="46.01069" lon="6.8556">
        <ele>2524.08</ele>
        <time>2015-08-02T09:39:12Z</time>
      </trkpt>
      <trkpt lat="46.01068" lon="6.85563">
        <ele>2524.08</ele>
        <time>2015-08-02T09:39:13Z</time>
      </trkpt>
      <trkpt lat="46.01067" lon="6.85566">
        <ele>2523.6</ele>
        <time>2015-08-02T09:39:14Z</time>
      </trkpt>
      <trkpt lat="46.01066" lon="6.85568">
        <ele>2523.12</ele>
        <time>2015-08-02T09:39:15Z</time>
      </trkpt>
      <trkpt lat="46.01065" lon="6.8557">
        <ele>2522.16</ele>
        <time>2015-08-02T09:39:16Z</time>
      </trkpt>
      <trkpt lat="46.01065" lon="6.85572">
        <ele>2521.68</ele>
        <time>2015-08-02T09:39:17Z</time>
      </trkpt>
      <trkpt lat="46.01065" lon="6.85575">
        <ele>2521.68</ele>
        <time>2015-08-02T09:39:18Z</time>
      </trkpt>
      <trkpt lat="46.01064" lon="6.85577">
        <ele>2520.71</ele>
        <time>2015-08-02T09:39:19Z</time>
      </trkpt>
      <trkpt lat="46.01064" lon="6.85578">
        <ele>2520.23</ele>
        <time>2015-08-02T09:39:20Z</time>
      </trkpt>
      <trkpt lat="46.01063" lon="6.85579">
        <ele>2520.23</ele>
        <time>2015-08-02T09:39:21Z</time>
      </trkpt>
      <trkpt lat="46.01066" lon="6.85583">
        <ele>2519.27</ele>
        <time>2015-08-02T09:39:37Z</time>
      </trkpt>
      <trkpt lat="46.01067" lon="6.85583">
        <ele>2518.79</ele>
        <time>2015-08-02T09:39:59Z</time>
      </trkpt>
      <trkpt lat="46.01067" lon="6.85591">
        <ele>2515.91</ele>
        <time>2015-08-02T09:40:12Z</time>
      </trkpt>
      <trkpt lat="46.01063" lon="6.856">
        <ele>2512.54</ele>
        <time>2015-08-02T09:40:21Z</time>
      </trkpt>
      <trkpt lat="46.01063" lon="6.85601">
        <ele>2512.54</ele>
        <time>2015-08-02T09:40:22Z</time>
      </trkpt>
      <trkpt lat="46.01062" lon="6.85603">
        <ele>2512.06</ele>
        <time>2015-08-02T09:40:24Z</time>
      </trkpt>
      <trkpt lat="46.01062" lon="6.85605">
        <ele>2511.58</ele>
        <time>2015-08-02T09:40:25Z</time>
      </trkpt>
      <trkpt lat="46.01061" lon="6.85607">
        <ele>2511.58</ele>
        <time>2015-08-02T09:40:26Z</time>
      </trkpt>
      <trkpt lat="46.0106" lon="6.85608">
        <ele>2510.14</ele>
        <time>2015-08-02T09:40:27Z</time>
      </trkpt>
      <trkpt lat="46.01059" lon="6.85608">
        <ele>2509.66</ele>
        <time>2015-08-02T09:40:28Z</time>
      </trkpt>
      <trkpt lat="46.01057" lon="6.85609">
        <ele>2508.7</ele>
        <time>2015-08-02T09:40:30Z</time>
      </trkpt>
      <trkpt lat="46.01054" lon="6.85611">
        <ele>2507.26</ele>
        <time>2015-08-02T09:40:33Z</time>
      </trkpt>
      <trkpt lat="46.01053" lon="6.85611">
        <ele>2507.26</ele>
        <time>2015-08-02T09:40:34Z</time>
      </trkpt>
      <trkpt lat="46.01051" lon="6.85613">
        <ele>2506.29</ele>
        <time>2015-08-02T09:40:36Z</time>
      </trkpt>
      <trkpt lat="46.0105" lon="6.85614">
        <ele>2505.33</ele>
        <time>2015-08-02T09:40:37Z</time>
      </trkpt>
      <trkpt lat="46.01049" lon="6.85614">
        <ele>2505.33</ele>
        <time>2015-08-02T09:40:38Z</time>
      </trkpt>
      <trkpt lat="46.01048" lon="6.85615">
        <ele>2505.33</ele>
        <time>2015-08-02T09:40:39Z</time>
      </trkpt>
      <trkpt lat="46.01047" lon="6.85616">
        <ele>2505.33</ele>
        <time>2015-08-02T09:40:40Z</time>
      </trkpt>
      <trkpt lat="46.01045" lon="6.85616">
        <ele>2504.37</ele>
        <time>2015-08-02T09:40:41Z</time>
      </trkpt>
      <trkpt lat="46.01044" lon="6.85617">
        <ele>2504.37</ele>
        <time>2015-08-02T09:40:42Z</time>
      </trkpt>
      <trkpt lat="46.01042" lon="6.85617">
        <ele>2504.37</ele>
        <time>2015-08-02T09:40:43Z</time>
      </trkpt>
      <trkpt lat="46.01034" lon="6.85624">
        <ele>2501.49</ele>
        <time>2015-08-02T09:40:51Z</time>
      </trkpt>
      <trkpt lat="46.01033" lon="6.85624">
        <ele>2501.49</ele>
        <time>2015-08-02T09:40:52Z</time>
      </trkpt>
      <trkpt lat="46.01031" lon="6.85625">
        <ele>2501.49</ele>
        <time>2015-08-02T09:40:53Z</time>
      </trkpt>
      <trkpt lat="46.01029" lon="6.85624">
        <ele>2501.01</ele>
        <time>2015-08-02T09:40:54Z</time>
      </trkpt>
      <trkpt lat="46.01027" lon="6.85624">
        <ele>2501.01</ele>
        <time>2015-08-02T09:40:55Z</time>
      </trkpt>
      <trkpt lat="46.01013" lon="6.85623">
        <ele>2497.64</ele>
        <time>2015-08-02T09:41:03Z</time>
      </trkpt>
      <trkpt lat="46.01009" lon="6.85623">
        <ele>2496.68</ele>
        <time>2015-08-02T09:41:05Z</time>
      </trkpt>
      <trkpt lat="46.01006" lon="6.85626">
        <ele>2496.2</ele>
        <time>2015-08-02T09:41:08Z</time>
      </trkpt>
      <trkpt lat="46.01005" lon="6.85627">
        <ele>2495.24</ele>
        <time>2015-08-02T09:41:09Z</time>
      </trkpt>
      <trkpt lat="46.01004" lon="6.85628">
        <ele>2495.24</ele>
        <time>2015-08-02T09:41:10Z</time>
      </trkpt>
      <trkpt lat="46.01002" lon="6.85629">
        <ele>2494.28</ele>
        <time>2015-08-02T09:41:11Z</time>
      </trkpt>
      <trkpt lat="46.01001" lon="6.85629">
        <ele>2494.28</ele>
        <time>2015-08-02T09:41:12Z</time>
      </trkpt>
      <trkpt lat="46.00999" lon="6.8563">
        <ele>2493.8</ele>
        <time>2015-08-02T09:41:13Z</time>
      </trkpt>
      <trkpt lat="46.00997" lon="6.8563">
        <ele>2493.32</ele>
        <time>2015-08-02T09:41:14Z</time>
      </trkpt>
      <trkpt lat="46.00995" lon="6.85629">
        <ele>2492.84</ele>
        <time>2015-08-02T09:41:15Z</time>
      </trkpt>
      <trkpt lat="46.00975" lon="6.85626">
        <ele>2490.91</ele>
        <time>2015-08-02T09:41:24Z</time>
      </trkpt>
      <trkpt lat="46.00969" lon="6.85625">
        <ele>2490.43</ele>
        <time>2015-08-02T09:41:27Z</time>
      </trkpt>
      <trkpt lat="46.00968" lon="6.85626">
        <ele>2490.43</ele>
        <time>2015-08-02T09:41:28Z</time>
      </trkpt>
      <trkpt lat="46.00965" lon="6.85627">
        <ele>2489.95</ele>
        <time>2015-08-02T09:41:30Z</time>
      </trkpt>
      <trkpt lat="46.00963" lon="6.85627">
        <ele>2489.95</ele>
        <time>2015-08-02T09:41:31Z</time>
      </trkpt>
      <trkpt lat="46.00961" lon="6.85628">
        <ele>2488.99</ele>
        <time>2015-08-02T09:41:32Z</time>
      </trkpt>
      <trkpt lat="46.0096" lon="6.8563">
        <ele>2488.99</ele>
        <time>2015-08-02T09:41:33Z</time>
      </trkpt>
      <trkpt lat="46.00958" lon="6.85633">
        <ele>2488.99</ele>
        <time>2015-08-02T09:41:34Z</time>
      </trkpt>
      <trkpt lat="46.00956" lon="6.85634">
        <ele>2488.99</ele>
        <time>2015-08-02T09:41:35Z</time>
      </trkpt>
      <trkpt lat="46.00954" lon="6.85635">
        <ele>2488.51</ele>
        <time>2015-08-02T09:41:36Z</time>
      </trkpt>
      <trkpt lat="46.00952" lon="6.85635">
        <ele>2488.51</ele>
        <time>2015-08-02T09:41:37Z</time>
      </trkpt>
      <trkpt lat="46.00951" lon="6.85636">
        <ele>2488.51</ele>
        <time>2015-08-02T09:41:38Z</time>
      </trkpt>
      <trkpt lat="46.00948" lon="6.85637">
        <ele>2488.51</ele>
        <time>2015-08-02T09:41:39Z</time>
      </trkpt>
      <trkpt lat="46.00947" lon="6.85638">
        <ele>2488.51</ele>
        <time>2015-08-02T09:41:40Z</time>
      </trkpt>
      <trkpt lat="46.00945" lon="6.8564">
        <ele>2488.51</ele>
        <time>2015-08-02T09:41:41Z</time>
      </trkpt>
      <trkpt lat="46.00943" lon="6.85641">
        <ele>2490.43</ele>
        <time>2015-08-02T09:41:42Z</time>
      </trkpt>
      <trkpt lat="46.00941" lon="6.85641">
        <ele>2490.43</ele>
        <time>2015-08-02T09:41:43Z</time>
      </trkpt>
      <trkpt lat="46.00939" lon="6.85642">
        <ele>2490.43</ele>
        <time>2015-08-02T09:41:44Z</time>
      </trkpt>
      <trkpt lat="46.00938" lon="6.85643">
        <ele>2490.43</ele>
        <time>2015-08-02T09:41:45Z</time>
      </trkpt>
      <trkpt lat="46.00937" lon="6.85644">
        <ele>2490.43</ele>
        <time>2015-08-02T09:41:46Z</time>
      </trkpt>
      <trkpt lat="46.00937" lon="6.85646">
        <ele>2490.91</ele>
        <time>2015-08-02T09:41:47Z</time>
      </trkpt>
      <trkpt lat="46.00935" lon="6.85653">
        <ele>2489.95</ele>
        <time>2015-08-02T09:41:51Z</time>
      </trkpt>
      <trkpt lat="46.00934" lon="6.85656">
        <ele>2489.95</ele>
        <time>2015-08-02T09:41:52Z</time>
      </trkpt>
      <trkpt lat="46.00933" lon="6.85658">
        <ele>2489.47</ele>
        <time>2015-08-02T09:41:53Z</time>
      </trkpt>
      <trkpt lat="46.00931" lon="6.85659">
        <ele>2489.47</ele>
        <time>2015-08-02T09:41:54Z</time>
      </trkpt>
      <trkpt lat="46.00929" lon="6.85661">
        <ele>2489.47</ele>
        <time>2015-08-02T09:41:55Z</time>
      </trkpt>
      <trkpt lat="46.00927" lon="6.85662">
        <ele>2489.47</ele>
        <time>2015-08-02T09:41:56Z</time>
      </trkpt>
      <trkpt lat="46.00926" lon="6.85664">
        <ele>2489.47</ele>
        <time>2015-08-02T09:41:57Z</time>
      </trkpt>
      <trkpt lat="46.00924" lon="6.85664">
        <ele>2489.47</ele>
        <time>2015-08-02T09:41:58Z</time>
      </trkpt>
      <trkpt lat="46.00918" lon="6.8566">
        <ele>2489.47</ele>
        <time>2015-08-02T09:42:12Z</time>
      </trkpt>
      <trkpt lat="46.00907" lon="6.8566">
        <ele>2488.51</ele>
        <time>2015-08-02T09:42:50Z</time>
      </trkpt>
      <trkpt lat="46.00904" lon="6.85663">
        <ele>2488.51</ele>
        <time>2015-08-02T09:43:00Z</time>
      </trkpt>
      <trkpt lat="46.00902" lon="6.85662">
        <ele>2488.51</ele>
        <time>2015-08-02T09:43:04Z</time>
      </trkpt>
      <trkpt lat="46.00897" lon="6.85667">
        <ele>2488.51</ele>
        <time>2015-08-02T09:43:10Z</time>
      </trkpt>
      <trkpt lat="46.0089" lon="6.85671">
        <ele>2485.15</ele>
        <time>2015-08-02T09:43:21Z</time>
      </trkpt>
      <trkpt lat="46.00886" lon="6.85674">
        <ele>2482.74</ele>
        <time>2015-08-02T09:43:30Z</time>
      </trkpt>
      <trkpt lat="46.00882" lon="6.85677">
        <ele>2480.34</ele>
        <time>2015-08-02T09:43:36Z</time>
      </trkpt>
      <trkpt lat="46.00879" lon="6.85681">
        <ele>2478.9</ele>
        <time>2015-08-02T09:43:41Z</time>
      </trkpt>
      <trkpt lat="46.0088" lon="6.8568">
        <ele>2477.45</ele>
        <time>2015-08-02T09:43:43Z</time>
      </trkpt>
      <trkpt lat="46.00881" lon="6.85681">
        <ele>2476.97</ele>
        <time>2015-08-02T09:43:45Z</time>
      </trkpt>
      <trkpt lat="46.00878" lon="6.85686">
        <ele>2475.05</ele>
        <time>2015-08-02T09:43:49Z</time>
      </trkpt>
      <trkpt lat="46.00877" lon="6.85689">
        <ele>2475.05</ele>
        <time>2015-08-02T09:43:51Z</time>
      </trkpt>
      <trkpt lat="46.00874" lon="6.85698">
        <ele>2474.09</ele>
        <time>2015-08-02T09:43:56Z</time>
      </trkpt>
      <trkpt lat="46.00872" lon="6.85701">
        <ele>2472.65</ele>
        <time>2015-08-02T09:43:58Z</time>
      </trkpt>
      <trkpt lat="46.00871" lon="6.85703">
        <ele>2471.69</ele>
        <time>2015-08-02T09:44:00Z</time>
      </trkpt>
      <trkpt lat="46.00869" lon="6.85705">
        <ele>2470.24</ele>
        <time>2015-08-02T09:44:03Z</time>
      </trkpt>
      <trkpt lat="46.00866" lon="6.85717">
        <ele>2466.88</ele>
        <time>2015-08-02T09:44:13Z</time>
      </trkpt>
      <trkpt lat="46.00865" lon="6.8572">
        <ele>2465.92</ele>
        <time>2015-08-02T09:44:16Z</time>
      </trkpt>
      <trkpt lat="46.0086" lon="6.85726">
        <ele>2462.55</ele>
        <time>2015-08-02T09:44:25Z</time>
      </trkpt>
      <trkpt lat="46.00858" lon="6.85729">
        <ele>2461.11</ele>
        <time>2015-08-02T09:44:28Z</time>
      </trkpt>
      <trkpt lat="46.00841" lon="6.85726">
        <ele>2460.15</ele>
        <time>2015-08-02T09:44:37Z</time>
      </trkpt>
      <trkpt lat="46.00836" lon="6.85722">
        <ele>2461.59</ele>
        <time>2015-08-02T09:44:41Z</time>
      </trkpt>
      <trkpt lat="46.00835" lon="6.85722">
        <ele>2461.59</ele>
        <time>2015-08-02T09:44:42Z</time>
      </trkpt>
      <trkpt lat="46.00831" lon="6.85725">
        <ele>2462.07</ele>
        <time>2015-08-02T09:44:45Z</time>
      </trkpt>
      <trkpt lat="46.00828" lon="6.85729">
        <ele>2462.07</ele>
        <time>2015-08-02T09:44:48Z</time>
      </trkpt>
      <trkpt lat="46.00823" lon="6.85731">
        <ele>2460.15</ele>
        <time>2015-08-02T09:44:52Z</time>
      </trkpt>
      <trkpt lat="46.00816" lon="6.85733">
        <ele>2458.71</ele>
        <time>2015-08-02T09:45:06Z</time>
      </trkpt>
      <trkpt lat="46.00811" lon="6.85738">
        <ele>2456.31</ele>
        <time>2015-08-02T09:45:17Z</time>
      </trkpt>
      <trkpt lat="46.0081" lon="6.85741">
        <ele>2454.38</ele>
        <time>2015-08-02T09:45:28Z</time>
      </trkpt>
      <trkpt lat="46.00809" lon="6.85742">
        <ele>2454.38</ele>
        <time>2015-08-02T09:45:31Z</time>
      </trkpt>
      <trkpt lat="46.00804" lon="6.85741">
        <ele>2453.42</ele>
        <time>2015-08-02T09:45:36Z</time>
      </trkpt>
      <trkpt lat="46.00801" lon="6.85739">
        <ele>2455.34</ele>
        <time>2015-08-02T09:45:39Z</time>
      </trkpt>
      <trkpt lat="46.00799" lon="6.85738">
        <ele>2454.38</ele>
        <time>2015-08-02T09:45:49Z</time>
      </trkpt>
      <trkpt lat="46.00796" lon="6.85735">
        <ele>2452.46</ele>
        <time>2015-08-02T09:46:02Z</time>
      </trkpt>
      <trkpt lat="46.00798" lon="6.85735">
        <ele>2452.46</ele>
        <time>2015-08-02T09:46:15Z</time>
      </trkpt>
      <trkpt lat="46.00797" lon="6.85737">
        <ele>2451.5</ele>
        <time>2015-08-02T09:46:23Z</time>
      </trkpt>
      <trkpt lat="46.00796" lon="6.85743">
        <ele>2449.58</ele>
        <time>2015-08-02T09:46:26Z</time>
      </trkpt>
      <trkpt lat="46.00792" lon="6.85745">
        <ele>2449.1</ele>
        <time>2015-08-02T09:46:30Z</time>
      </trkpt>
      <trkpt lat="46.00786" lon="6.85759">
        <ele>2447.65</ele>
        <time>2015-08-02T09:46:36Z</time>
      </trkpt>
      <trkpt lat="46.0078" lon="6.85776">
        <ele>2443.81</ele>
        <time>2015-08-02T09:46:46Z</time>
      </trkpt>
      <trkpt lat="46.00778" lon="6.8578">
        <ele>2442.37</ele>
        <time>2015-08-02T09:46:50Z</time>
      </trkpt>
      <trkpt lat="46.00776" lon="6.85787">
        <ele>2440.44</ele>
        <time>2015-08-02T09:46:56Z</time>
      </trkpt>
      <trkpt lat="46.00772" lon="6.85794">
        <ele>2438.04</ele>
        <time>2015-08-02T09:47:03Z</time>
      </trkpt>
      <trkpt lat="46.00769" lon="6.85803">
        <ele>2434.68</ele>
        <time>2015-08-02T09:47:14Z</time>
      </trkpt>
      <trkpt lat="46.00768" lon="6.85802">
        <ele>2433.71</ele>
        <time>2015-08-02T09:47:26Z</time>
      </trkpt>
      <trkpt lat="46.00765" lon="6.85808">
        <ele>2431.31</ele>
        <time>2015-08-02T09:47:37Z</time>
      </trkpt>
      <trkpt lat="46.00759" lon="6.85815">
        <ele>2427.95</ele>
        <time>2015-08-02T09:47:48Z</time>
      </trkpt>
      <trkpt lat="46.00757" lon="6.85822">
        <ele>2425.06</ele>
        <time>2015-08-02T09:47:56Z</time>
      </trkpt>
      <trkpt lat="46.00755" lon="6.85824">
        <ele>2424.1</ele>
        <time>2015-08-02T09:47:58Z</time>
      </trkpt>
      <trkpt lat="46.00752" lon="6.85827">
        <ele>2423.62</ele>
        <time>2015-08-02T09:48:02Z</time>
      </trkpt>
      <trkpt lat="46.0075" lon="6.85829">
        <ele>2422.66</ele>
        <time>2015-08-02T09:48:04Z</time>
      </trkpt>
      <trkpt lat="46.00746" lon="6.85832">
        <ele>2421.7</ele>
        <time>2015-08-02T09:48:08Z</time>
      </trkpt>
      <trkpt lat="46.00744" lon="6.85836">
        <ele>2420.26</ele>
        <time>2015-08-02T09:48:11Z</time>
      </trkpt>
      <trkpt lat="46.00733" lon="6.85838">
        <ele>2417.37</ele>
        <time>2015-08-02T09:48:21Z</time>
      </trkpt>
      <trkpt lat="46.00726" lon="6.85833">
        <ele>2415.93</ele>
        <time>2015-08-02T09:48:34Z</time>
      </trkpt>
      <trkpt lat="46.00719" lon="6.85831">
        <ele>2414.01</ele>
        <time>2015-08-02T09:48:48Z</time>
      </trkpt>
      <trkpt lat="46.00716" lon="6.85836">
        <ele>2411.12</ele>
        <time>2015-08-02T09:48:59Z</time>
      </trkpt>
      <trkpt lat="46.00715" lon="6.85838">
        <ele>2409.68</ele>
        <time>2015-08-02T09:49:02Z</time>
      </trkpt>
      <trkpt lat="46.00711" lon="6.85845">
        <ele>2406.32</ele>
        <time>2015-08-02T09:49:12Z</time>
      </trkpt>
      <trkpt lat="46.00711" lon="6.85846">
        <ele>2406.32</ele>
        <time>2015-08-02T09:49:13Z</time>
      </trkpt>
      <trkpt lat="46.00708" lon="6.85853">
        <ele>2402.47</ele>
        <time>2015-08-02T09:49:25Z</time>
      </trkpt>
      <trkpt lat="46.00702" lon="6.85863">
        <ele>2400.55</ele>
        <time>2015-08-02T09:49:37Z</time>
      </trkpt>
      <trkpt lat="46.00697" lon="6.85873">
        <ele>2397.18</ele>
        <time>2015-08-02T09:49:48Z</time>
      </trkpt>
      <trkpt lat="46.00693" lon="6.85878">
        <ele>2395.74</ele>
        <time>2015-08-02T09:49:59Z</time>
      </trkpt>
      <trkpt lat="46.00686" lon="6.85881">
        <ele>2394.78</ele>
        <time>2015-08-02T09:50:10Z</time>
      </trkpt>
      <trkpt lat="46.0068" lon="6.85884">
        <ele>2394.3</ele>
        <time>2015-08-02T09:50:19Z</time>
      </trkpt>
      <trkpt lat="46.00674" lon="6.85879">
        <ele>2395.74</ele>
        <time>2015-08-02T09:50:25Z</time>
      </trkpt>
      <trkpt lat="46.00669" lon="6.85876">
        <ele>2394.3</ele>
        <time>2015-08-02T09:50:31Z</time>
      </trkpt>
      <trkpt lat="46.00665" lon="6.85872">
        <ele>2390.94</ele>
        <time>2015-08-02T09:50:43Z</time>
      </trkpt>
      <trkpt lat="46.0066" lon="6.85865">
        <ele>2390.94</ele>
        <time>2015-08-02T09:50:56Z</time>
      </trkpt>
      <trkpt lat="46.00656" lon="6.85866">
        <ele>2388.53</ele>
        <time>2015-08-02T09:51:09Z</time>
      </trkpt>
      <trkpt lat="46.00653" lon="6.85872">
        <ele>2387.57</ele>
        <time>2015-08-02T09:51:18Z</time>
      </trkpt>
      <trkpt lat="46.00649" lon="6.85878">
        <ele>2386.61</ele>
        <time>2015-08-02T09:51:30Z</time>
      </trkpt>
      <trkpt lat="46.00647" lon="6.85881">
        <ele>2385.17</ele>
        <time>2015-08-02T09:51:39Z</time>
      </trkpt>
      <trkpt lat="46.00645" lon="6.85891">
        <ele>2383.25</ele>
        <time>2015-08-02T09:51:46Z</time>
      </trkpt>
      <trkpt lat="46.00643" lon="6.85895">
        <ele>2381.8</ele>
        <time>2015-08-02T09:51:49Z</time>
      </trkpt>
      <trkpt lat="46.00641" lon="6.85905">
        <ele>2378.44</ele>
        <time>2015-08-02T09:52:02Z</time>
      </trkpt>
      <trkpt lat="46.00641" lon="6.85911">
        <ele>2375.55</ele>
        <time>2015-08-02T09:52:12Z</time>
      </trkpt>
      <trkpt lat="46.00641" lon="6.85915">
        <ele>2374.11</ele>
        <time>2015-08-02T09:52:15Z</time>
      </trkpt>
      <trkpt lat="46.00633" lon="6.85923">
        <ele>2372.19</ele>
        <time>2015-08-02T09:52:26Z</time>
      </trkpt>
      <trkpt lat="46.00628" lon="6.85929">
        <ele>2370.27</ele>
        <time>2015-08-02T09:52:37Z</time>
      </trkpt>
      <trkpt lat="46.00626" lon="6.85933">
        <ele>2368.35</ele>
        <time>2015-08-02T09:52:48Z</time>
      </trkpt>
      <trkpt lat="46.00621" lon="6.85938">
        <ele>2365.94</ele>
        <time>2015-08-02T09:52:59Z</time>
      </trkpt>
      <trkpt lat="46.00613" lon="6.85936">
        <ele>2363.06</ele>
        <time>2015-08-02T09:53:11Z</time>
      </trkpt>
      <trkpt lat="46.0061" lon="6.8594">
        <ele>2360.65</ele>
        <time>2015-08-02T09:53:21Z</time>
      </trkpt>
      <trkpt lat="46.00603" lon="6.8595">
        <ele>2358.25</ele>
        <time>2015-08-02T09:53:34Z</time>
      </trkpt>
      <trkpt lat="46.00603" lon="6.85955">
        <ele>2356.81</ele>
        <time>2015-08-02T09:53:38Z</time>
      </trkpt>
      <trkpt lat="46.006" lon="6.85956">
        <ele>2355.37</ele>
        <time>2015-08-02T09:53:41Z</time>
      </trkpt>
      <trkpt lat="46.00593" lon="6.85959">
        <ele>2352.48</ele>
        <time>2015-08-02T09:53:47Z</time>
      </trkpt>
      <trkpt lat="46.00589" lon="6.85966">
        <ele>2349.6</ele>
        <time>2015-08-02T09:53:56Z</time>
      </trkpt>
      <trkpt lat="46.00585" lon="6.85974">
        <ele>2345.75</ele>
        <time>2015-08-02T09:54:06Z</time>
      </trkpt>
      <trkpt lat="46.00583" lon="6.8598">
        <ele>2342.39</ele>
        <time>2015-08-02T09:54:17Z</time>
      </trkpt>
      <trkpt lat="46.00581" lon="6.85986">
        <ele>2339.99</ele>
        <time>2015-08-02T09:54:27Z</time>
      </trkpt>
      <trkpt lat="46.00581" lon="6.85989">
        <ele>2339.51</ele>
        <time>2015-08-02T09:54:29Z</time>
      </trkpt>
      <trkpt lat="46.00581" lon="6.85995">
        <ele>2338.06</ele>
        <time>2015-08-02T09:54:32Z</time>
      </trkpt>
      <trkpt lat="46.00574" lon="6.86005">
        <ele>2337.58</ele>
        <time>2015-08-02T09:54:39Z</time>
      </trkpt>
      <trkpt lat="46.00568" lon="6.86012">
        <ele>2335.66</ele>
        <time>2015-08-02T09:54:44Z</time>
      </trkpt>
      <trkpt lat="46.00565" lon="6.86023">
        <ele>2331.33</ele>
        <time>2015-08-02T09:54:55Z</time>
      </trkpt>
      <trkpt lat="46.00561" lon="6.86028">
        <ele>2330.37</ele>
        <time>2015-08-02T09:55:00Z</time>
      </trkpt>
      <trkpt lat="46.00557" lon="6.86042">
        <ele>2326.05</ele>
        <time>2015-08-02T09:55:10Z</time>
      </trkpt>
      <trkpt lat="46.00552" lon="6.86044">
        <ele>2325.09</ele>
        <time>2015-08-02T09:55:14Z</time>
      </trkpt>
      <trkpt lat="46.00539" lon="6.86042">
        <ele>2321.72</ele>
        <time>2015-08-02T09:55:26Z</time>
      </trkpt>
      <trkpt lat="46.00539" lon="6.86041">
        <ele>2321.72</ele>
        <time>2015-08-02T09:55:27Z</time>
      </trkpt>
      <trkpt lat="46.00535" lon="6.86042">
        <ele>2318.84</ele>
        <time>2015-08-02T09:55:34Z</time>
      </trkpt>
      <trkpt lat="46.0053" lon="6.86043">
        <ele>2316.91</ele>
        <time>2015-08-02T09:55:44Z</time>
      </trkpt>
      <trkpt lat="46.00529" lon="6.86046">
        <ele>2314.99</ele>
        <time>2015-08-02T09:55:48Z</time>
      </trkpt>
      <trkpt lat="46.00525" lon="6.86047">
        <ele>2311.63</ele>
        <time>2015-08-02T09:55:59Z</time>
      </trkpt>
      <trkpt lat="46.00524" lon="6.86049">
        <ele>2310.19</ele>
        <time>2015-08-02T09:56:04Z</time>
      </trkpt>
      <trkpt lat="46.00524" lon="6.86054">
        <ele>2308.74</ele>
        <time>2015-08-02T09:56:09Z</time>
      </trkpt>
      <trkpt lat="46.00525" lon="6.86059">
        <ele>2307.3</ele>
        <time>2015-08-02T09:56:12Z</time>
      </trkpt>
      <trkpt lat="46.00523" lon="6.86062">
        <ele>2305.86</ele>
        <time>2015-08-02T09:56:14Z</time>
      </trkpt>
      <trkpt lat="46.00519" lon="6.8606">
        <ele>2303.94</ele>
        <time>2015-08-02T09:56:18Z</time>
      </trkpt>
      <trkpt lat="46.00516" lon="6.86063">
        <ele>2302.98</ele>
        <time>2015-08-02T09:56:21Z</time>
      </trkpt>
      <trkpt lat="46.00513" lon="6.86062">
        <ele>2302.01</ele>
        <time>2015-08-02T09:56:24Z</time>
      </trkpt>
      <trkpt lat="46.00508" lon="6.86063">
        <ele>2300.09</ele>
        <time>2015-08-02T09:56:28Z</time>
      </trkpt>
      <trkpt lat="46.00499" lon="6.86064">
        <ele>2296.73</ele>
        <time>2015-08-02T09:56:36Z</time>
      </trkpt>
      <trkpt lat="46.00498" lon="6.86065">
        <ele>2296.73</ele>
        <time>2015-08-02T09:56:37Z</time>
      </trkpt>
      <trkpt lat="46.00493" lon="6.86065">
        <ele>2294.8</ele>
        <time>2015-08-02T09:56:41Z</time>
      </trkpt>
      <trkpt lat="46.00491" lon="6.86067">
        <ele>2292.4</ele>
        <time>2015-08-02T09:56:46Z</time>
      </trkpt>
      <trkpt lat="46.00494" lon="6.8607">
        <ele>2289.52</ele>
        <time>2015-08-02T09:56:52Z</time>
      </trkpt>
      <trkpt lat="46.00498" lon="6.86075">
        <ele>2286.63</ele>
        <time>2015-08-02T09:56:59Z</time>
      </trkpt>
      <trkpt lat="46.00499" lon="6.86076">
        <ele>2286.63</ele>
        <time>2015-08-02T09:57:00Z</time>
      </trkpt>
      <trkpt lat="46.00501" lon="6.86078">
        <ele>2285.19</ele>
        <time>2015-08-02T09:57:04Z</time>
      </trkpt>
      <trkpt lat="46.00499" lon="6.86087">
        <ele>2281.35</ele>
        <time>2015-08-02T09:57:13Z</time>
      </trkpt>
      <trkpt lat="46.00503" lon="6.8609">
        <ele>2279.9</ele>
        <time>2015-08-02T09:57:19Z</time>
      </trkpt>
      <trkpt lat="46.00509" lon="6.86101">
        <ele>2277.02</ele>
        <time>2015-08-02T09:57:27Z</time>
      </trkpt>
      <trkpt lat="46.00514" lon="6.86113">
        <ele>2273.66</ele>
        <time>2015-08-02T09:57:36Z</time>
      </trkpt>
      <trkpt lat="46.00516" lon="6.8612">
        <ele>2270.29</ele>
        <time>2015-08-02T09:57:43Z</time>
      </trkpt>
      <trkpt lat="46.00515" lon="6.86124">
        <ele>2269.33</ele>
        <time>2015-08-02T09:57:46Z</time>
      </trkpt>
      <trkpt lat="46.00517" lon="6.86125">
        <ele>2268.85</ele>
        <time>2015-08-02T09:57:48Z</time>
      </trkpt>
      <trkpt lat="46.00523" lon="6.86129">
        <ele>2266.45</ele>
        <time>2015-08-02T09:57:53Z</time>
      </trkpt>
      <trkpt lat="46.00525" lon="6.86131">
        <ele>2265.48</ele>
        <time>2015-08-02T09:57:55Z</time>
      </trkpt>
      <trkpt lat="46.00527" lon="6.86135">
        <ele>2264.52</ele>
        <time>2015-08-02T09:57:58Z</time>
      </trkpt>
      <trkpt lat="46.00531" lon="6.8615">
        <ele>2261.16</ele>
        <time>2015-08-02T09:58:06Z</time>
      </trkpt>
      <trkpt lat="46.00533" lon="6.86157">
        <ele>2258.27</ele>
        <time>2015-08-02T09:58:11Z</time>
      </trkpt>
      <trkpt lat="46.00533" lon="6.86159">
        <ele>2257.79</ele>
        <time>2015-08-02T09:58:13Z</time>
      </trkpt>
      <trkpt lat="46.00532" lon="6.86162">
        <ele>2256.83</ele>
        <time>2015-08-02T09:58:15Z</time>
      </trkpt>
      <trkpt lat="46.00528" lon="6.86172">
        <ele>2253.95</ele>
        <time>2015-08-02T09:58:23Z</time>
      </trkpt>
      <trkpt lat="46.00526" lon="6.86179">
        <ele>2252.51</ele>
        <time>2015-08-02T09:58:27Z</time>
      </trkpt>
      <trkpt lat="46.00527" lon="6.86181">
        <ele>2252.03</ele>
        <time>2015-08-02T09:58:29Z</time>
      </trkpt>
      <trkpt lat="46.00531" lon="6.86192">
        <ele>2248.66</ele>
        <time>2015-08-02T09:58:39Z</time>
      </trkpt>
      <trkpt lat="46.0053" lon="6.86194">
        <ele>2248.18</ele>
        <time>2015-08-02T09:58:40Z</time>
      </trkpt>
      <trkpt lat="46.00518" lon="6.86198">
        <ele>2244.82</ele>
        <time>2015-08-02T09:58:51Z</time>
      </trkpt>
      <trkpt lat="46.00511" lon="6.86193">
        <ele>2240.97</ele>
        <time>2015-08-02T09:59:03Z</time>
      </trkpt>
      <trkpt lat="46.00507" lon="6.86191">
        <ele>2239.53</ele>
        <time>2015-08-02T09:59:07Z</time>
      </trkpt>
      <trkpt lat="46.00503" lon="6.86189">
        <ele>2238.09</ele>
        <time>2015-08-02T09:59:11Z</time>
      </trkpt>
      <trkpt lat="46.00499" lon="6.86189">
        <ele>2236.16</ele>
        <time>2015-08-02T09:59:15Z</time>
      </trkpt>
      <trkpt lat="46.00499" lon="6.86192">
        <ele>2234.72</ele>
        <time>2015-08-02T09:59:18Z</time>
      </trkpt>
      <trkpt lat="46.00501" lon="6.86202">
        <ele>2232.8</ele>
        <time>2015-08-02T09:59:24Z</time>
      </trkpt>
      <trkpt lat="46.00504" lon="6.86207">
        <ele>2230.4</ele>
        <time>2015-08-02T09:59:29Z</time>
      </trkpt>
      <trkpt lat="46.00503" lon="6.86213">
        <ele>2228.47</ele>
        <time>2015-08-02T09:59:33Z</time>
      </trkpt>
      <trkpt lat="46.00506" lon="6.86221">
        <ele>2226.55</ele>
        <time>2015-08-02T09:59:37Z</time>
      </trkpt>
      <trkpt lat="46.00507" lon="6.86226">
        <ele>2225.11</ele>
        <time>2015-08-02T09:59:40Z</time>
      </trkpt>
      <trkpt lat="46.00499" lon="6.86232">
        <ele>2221.74</ele>
        <time>2015-08-02T09:59:46Z</time>
      </trkpt>
      <trkpt lat="46.00491" lon="6.86228">
        <ele>2218.86</ele>
        <time>2015-08-02T09:59:51Z</time>
      </trkpt>
      <trkpt lat="46.00482" lon="6.86234">
        <ele>2215.98</ele>
        <time>2015-08-02T09:59:58Z</time>
      </trkpt>
      <trkpt lat="46.00479" lon="6.86236">
        <ele>2215.5</ele>
        <time>2015-08-02T09:59:59Z</time>
      </trkpt>
      <trkpt lat="46.00478" lon="6.86237">
        <ele>2215.01</ele>
        <time>2015-08-02T10:00:00Z</time>
      </trkpt>
      <trkpt lat="46.00476" lon="6.86238">
        <ele>2214.53</ele>
        <time>2015-08-02T10:00:01Z</time>
      </trkpt>
      <trkpt lat="46.00474" lon="6.86239">
        <ele>2214.05</ele>
        <time>2015-08-02T10:00:02Z</time>
      </trkpt>
      <trkpt lat="46.00471" lon="6.8624">
        <ele>2214.05</ele>
        <time>2015-08-02T10:00:03Z</time>
      </trkpt>
      <trkpt lat="46.0047" lon="6.86239">
        <ele>2213.57</ele>
        <time>2015-08-02T10:00:04Z</time>
      </trkpt>
      <trkpt lat="46.00469" lon="6.86239">
        <ele>2213.57</ele>
        <time>2015-08-02T10:00:05Z</time>
      </trkpt>
      <trkpt lat="46.00463" lon="6.86239">
        <ele>2211.17</ele>
        <time>2015-08-02T10:00:10Z</time>
      </trkpt>
      <trkpt lat="46.00463" lon="6.8624">
        <ele>2211.17</ele>
        <time>2015-08-02T10:00:11Z</time>
      </trkpt>
      <trkpt lat="46.00462" lon="6.86242">
        <ele>2210.69</ele>
        <time>2015-08-02T10:00:12Z</time>
      </trkpt>
      <trkpt lat="46.00461" lon="6.86243">
        <ele>2209.73</ele>
        <time>2015-08-02T10:00:13Z</time>
      </trkpt>
      <trkpt lat="46.00459" lon="6.86242">
        <ele>2208.77</ele>
        <time>2015-08-02T10:00:14Z</time>
      </trkpt>
      <trkpt lat="46.00458" lon="6.86242">
        <ele>2208.77</ele>
        <time>2015-08-02T10:00:15Z</time>
      </trkpt>
      <trkpt lat="46.00454" lon="6.86246">
        <ele>2207.32</ele>
        <time>2015-08-02T10:00:19Z</time>
      </trkpt>
      <trkpt lat="46.00453" lon="6.86247">
        <ele>2206.84</ele>
        <time>2015-08-02T10:00:20Z</time>
      </trkpt>
      <trkpt lat="46.00452" lon="6.86248">
        <ele>2206.84</ele>
        <time>2015-08-02T10:00:21Z</time>
      </trkpt>
      <trkpt lat="46.0045" lon="6.86248">
        <ele>2205.88</ele>
        <time>2015-08-02T10:00:22Z</time>
      </trkpt>
      <trkpt lat="46.00448" lon="6.86248">
        <ele>2205.88</ele>
        <time>2015-08-02T10:00:23Z</time>
      </trkpt>
      <trkpt lat="46.00446" lon="6.86248">
        <ele>2204.92</ele>
        <time>2015-08-02T10:00:24Z</time>
      </trkpt>
      <trkpt lat="46.0044" lon="6.86246">
        <ele>2203</ele>
        <time>2015-08-02T10:00:29Z</time>
      </trkpt>
      <trkpt lat="46.00437" lon="6.86245">
        <ele>2202.04</ele>
        <time>2015-08-02T10:00:31Z</time>
      </trkpt>
      <trkpt lat="46.00436" lon="6.86245">
        <ele>2202.04</ele>
        <time>2015-08-02T10:00:32Z</time>
      </trkpt>
      <trkpt lat="46.00434" lon="6.86244">
        <ele>2201.56</ele>
        <time>2015-08-02T10:00:33Z</time>
      </trkpt>
      <trkpt lat="46.00433" lon="6.86243">
        <ele>2201.08</ele>
        <time>2015-08-02T10:00:34Z</time>
      </trkpt>
      <trkpt lat="46.00431" lon="6.86243">
        <ele>2200.59</ele>
        <time>2015-08-02T10:00:35Z</time>
      </trkpt>
      <trkpt lat="46.00429" lon="6.86244">
        <ele>2199.63</ele>
        <time>2015-08-02T10:00:36Z</time>
      </trkpt>
      <trkpt lat="46.00428" lon="6.86244">
        <ele>2199.15</ele>
        <time>2015-08-02T10:00:37Z</time>
      </trkpt>
      <trkpt lat="46.00426" lon="6.86242">
        <ele>2198.67</ele>
        <time>2015-08-02T10:00:38Z</time>
      </trkpt>
      <trkpt lat="46.00424" lon="6.86241">
        <ele>2198.67</ele>
        <time>2015-08-02T10:00:39Z</time>
      </trkpt>
      <trkpt lat="46.00417" lon="6.86241">
        <ele>2195.31</ele>
        <time>2015-08-02T10:00:48Z</time>
      </trkpt>
      <trkpt lat="46.00415" lon="6.8624">
        <ele>2195.31</ele>
        <time>2015-08-02T10:00:51Z</time>
      </trkpt>
      <trkpt lat="46.00414" lon="6.86239">
        <ele>2194.35</ele>
        <time>2015-08-02T10:00:52Z</time>
      </trkpt>
      <trkpt lat="46.00405" lon="6.86238">
        <ele>2191.94</ele>
        <time>2015-08-02T10:01:02Z</time>
      </trkpt>
      <trkpt lat="46.004" lon="6.86236">
        <ele>2190.02</ele>
        <time>2015-08-02T10:01:09Z</time>
      </trkpt>
      <trkpt lat="46.00396" lon="6.86233">
        <ele>2189.06</ele>
        <time>2015-08-02T10:01:14Z</time>
      </trkpt>
      <trkpt lat="46.0039" lon="6.86231">
        <ele>2188.58</ele>
        <time>2015-08-02T10:01:20Z</time>
      </trkpt>
      <trkpt lat="46.00389" lon="6.86231">
        <ele>2187.62</ele>
        <time>2015-08-02T10:01:21Z</time>
      </trkpt>
      <trkpt lat="46.00386" lon="6.86233">
        <ele>2186.66</ele>
        <time>2015-08-02T10:01:24Z</time>
      </trkpt>
      <trkpt lat="46.00384" lon="6.86237">
        <ele>2185.69</ele>
        <time>2015-08-02T10:01:28Z</time>
      </trkpt>
      <trkpt lat="46.00381" lon="6.86241">
        <ele>2184.25</ele>
        <time>2015-08-02T10:01:31Z</time>
      </trkpt>
      <trkpt lat="46.00378" lon="6.86248">
        <ele>2182.81</ele>
        <time>2015-08-02T10:01:34Z</time>
      </trkpt>
      <trkpt lat="46.0037" lon="6.86254">
        <ele>2181.85</ele>
        <time>2015-08-02T10:01:39Z</time>
      </trkpt>
      <trkpt lat="46.00362" lon="6.86255">
        <ele>2179.93</ele>
        <time>2015-08-02T10:01:43Z</time>
      </trkpt>
      <trkpt lat="46.00352" lon="6.86258">
        <ele>2176.08</ele>
        <time>2015-08-02T10:01:50Z</time>
      </trkpt>
      <trkpt lat="46.00352" lon="6.86259">
        <ele>2176.08</ele>
        <time>2015-08-02T10:01:51Z</time>
      </trkpt>
      <trkpt lat="46.00358" lon="6.86268">
        <ele>2171.76</ele>
        <time>2015-08-02T10:02:00Z</time>
      </trkpt>
      <trkpt lat="46.0036" lon="6.86271">
        <ele>2170.31</ele>
        <time>2015-08-02T10:02:02Z</time>
      </trkpt>
      <trkpt lat="46.00362" lon="6.86277">
        <ele>2168.39</ele>
        <time>2015-08-02T10:02:06Z</time>
      </trkpt>
      <trkpt lat="46.00366" lon="6.86285">
        <ele>2165.99</ele>
        <time>2015-08-02T10:02:11Z</time>
      </trkpt>
      <trkpt lat="46.00369" lon="6.86291">
        <ele>2164.06</ele>
        <time>2015-08-02T10:02:15Z</time>
      </trkpt>
      <trkpt lat="46.00369" lon="6.86295">
        <ele>2163.58</ele>
        <time>2015-08-02T10:02:17Z</time>
      </trkpt>
      <trkpt lat="46.00374" lon="6.86305">
        <ele>2160.22</ele>
        <time>2015-08-02T10:02:24Z</time>
      </trkpt>
      <trkpt lat="46.00376" lon="6.86308">
        <ele>2158.78</ele>
        <time>2015-08-02T10:02:27Z</time>
      </trkpt>
      <trkpt lat="46.00375" lon="6.86322">
        <ele>2156.37</ele>
        <time>2015-08-02T10:02:34Z</time>
      </trkpt>
      <trkpt lat="46.00367" lon="6.86321">
        <ele>2154.45</ele>
        <time>2015-08-02T10:02:40Z</time>
      </trkpt>
      <trkpt lat="46.00356" lon="6.86331">
        <ele>2150.13</ele>
        <time>2015-08-02T10:02:50Z</time>
      </trkpt>
      <trkpt lat="46.00354" lon="6.86334">
        <ele>2149.16</ele>
        <time>2015-08-02T10:02:52Z</time>
      </trkpt>
      <trkpt lat="46.00346" lon="6.86339">
        <ele>2145.8</ele>
        <time>2015-08-02T10:02:57Z</time>
      </trkpt>
      <trkpt lat="46.00343" lon="6.86339">
        <ele>2145.8</ele>
        <time>2015-08-02T10:02:58Z</time>
      </trkpt>
      <trkpt lat="46.00341" lon="6.86338">
        <ele>2144.84</ele>
        <time>2015-08-02T10:02:59Z</time>
      </trkpt>
      <trkpt lat="46.0034" lon="6.86339">
        <ele>2145.32</ele>
        <time>2015-08-02T10:03:00Z</time>
      </trkpt>
      <trkpt lat="46.00338" lon="6.8634">
        <ele>2144.36</ele>
        <time>2015-08-02T10:03:01Z</time>
      </trkpt>
      <trkpt lat="46.00335" lon="6.86343">
        <ele>2142.44</ele>
        <time>2015-08-02T10:03:05Z</time>
      </trkpt>
      <trkpt lat="46.00334" lon="6.86344">
        <ele>2141.95</ele>
        <time>2015-08-02T10:03:06Z</time>
      </trkpt>
      <trkpt lat="46.00332" lon="6.86345">
        <ele>2141.47</ele>
        <time>2015-08-02T10:03:07Z</time>
      </trkpt>
      <trkpt lat="46.0033" lon="6.86345">
        <ele>2141.47</ele>
        <time>2015-08-02T10:03:08Z</time>
      </trkpt>
      <trkpt lat="46.00329" lon="6.86347">
        <ele>2140.99</ele>
        <time>2015-08-02T10:03:09Z</time>
      </trkpt>
      <trkpt lat="46.00328" lon="6.86348">
        <ele>2140.99</ele>
        <time>2015-08-02T10:03:10Z</time>
      </trkpt>
      <trkpt lat="46.00327" lon="6.86349">
        <ele>2140.99</ele>
        <time>2015-08-02T10:03:11Z</time>
      </trkpt>
      <trkpt lat="46.00326" lon="6.8635">
        <ele>2140.99</ele>
        <time>2015-08-02T10:03:12Z</time>
      </trkpt>
      <trkpt lat="46.00325" lon="6.86352">
        <ele>2141.47</ele>
        <time>2015-08-02T10:03:13Z</time>
      </trkpt>
      <trkpt lat="46.00324" lon="6.86355">
        <ele>2140.51</ele>
        <time>2015-08-02T10:03:16Z</time>
      </trkpt>
      <trkpt lat="46.00323" lon="6.86357">
        <ele>2140.03</ele>
        <time>2015-08-02T10:03:17Z</time>
      </trkpt>
      <trkpt lat="46.00322" lon="6.86358">
        <ele>2139.55</ele>
        <time>2015-08-02T10:03:18Z</time>
      </trkpt>
      <trkpt lat="46.0032" lon="6.86359">
        <ele>2139.07</ele>
        <time>2015-08-02T10:03:19Z</time>
      </trkpt>
      <trkpt lat="46.00317" lon="6.86365">
        <ele>2137.15</ele>
        <time>2015-08-02T10:03:31Z</time>
      </trkpt>
      <trkpt lat="46.00319" lon="6.86366">
        <ele>2137.15</ele>
        <time>2015-08-02T10:03:33Z</time>
      </trkpt>
      <trkpt lat="46.00325" lon="6.86365">
        <ele>2135.23</ele>
        <time>2015-08-02T10:03:39Z</time>
      </trkpt>
      <trkpt lat="46.00327" lon="6.86368">
        <ele>2133.3</ele>
        <time>2015-08-02T10:03:44Z</time>
      </trkpt>
      <trkpt lat="46.00327" lon="6.86369">
        <ele>2133.3</ele>
        <time>2015-08-02T10:03:45Z</time>
      </trkpt>
      <trkpt lat="46.00327" lon="6.86371">
        <ele>2132.34</ele>
        <time>2015-08-02T10:03:46Z</time>
      </trkpt>
      <trkpt lat="46.00327" lon="6.86375">
        <ele>2130.9</ele>
        <time>2015-08-02T10:03:50Z</time>
      </trkpt>
      <trkpt lat="46.00326" lon="6.86378">
        <ele>2129.94</ele>
        <time>2015-08-02T10:03:53Z</time>
      </trkpt>
      <trkpt lat="46.00325" lon="6.86379">
        <ele>2128.98</ele>
        <time>2015-08-02T10:03:54Z</time>
      </trkpt>
      <trkpt lat="46.00323" lon="6.86379">
        <ele>2128.98</ele>
        <time>2015-08-02T10:03:55Z</time>
      </trkpt>
      <trkpt lat="46.00322" lon="6.86381">
        <ele>2128.98</ele>
        <time>2015-08-02T10:03:56Z</time>
      </trkpt>
      <trkpt lat="46.00321" lon="6.86383">
        <ele>2128.02</ele>
        <time>2015-08-02T10:03:57Z</time>
      </trkpt>
      <trkpt lat="46.00317" lon="6.86386">
        <ele>2126.57</ele>
        <time>2015-08-02T10:04:00Z</time>
      </trkpt>
      <trkpt lat="46.00312" lon="6.86385">
        <ele>2125.13</ele>
        <time>2015-08-02T10:04:03Z</time>
      </trkpt>
      <trkpt lat="46.00311" lon="6.86386">
        <ele>2125.13</ele>
        <time>2015-08-02T10:04:04Z</time>
      </trkpt>
      <trkpt lat="46.0031" lon="6.86387">
        <ele>2124.17</ele>
        <time>2015-08-02T10:04:05Z</time>
      </trkpt>
      <trkpt lat="46.00309" lon="6.86389">
        <ele>2123.69</ele>
        <time>2015-08-02T10:04:06Z</time>
      </trkpt>
      <trkpt lat="46.00307" lon="6.86389">
        <ele>2123.21</ele>
        <time>2015-08-02T10:04:07Z</time>
      </trkpt>
      <trkpt lat="46.00305" lon="6.86389">
        <ele>2122.25</ele>
        <time>2015-08-02T10:04:08Z</time>
      </trkpt>
      <trkpt lat="46.00304" lon="6.8639">
        <ele>2121.29</ele>
        <time>2015-08-02T10:04:12Z</time>
      </trkpt>
      <trkpt lat="46.00305" lon="6.86392">
        <ele>2120.32</ele>
        <time>2015-08-02T10:04:14Z</time>
      </trkpt>
      <trkpt lat="46.00306" lon="6.86393">
        <ele>2120.32</ele>
        <time>2015-08-02T10:04:15Z</time>
      </trkpt>
      <trkpt lat="46.00307" lon="6.86395">
        <ele>2119.36</ele>
        <time>2015-08-02T10:04:16Z</time>
      </trkpt>
      <trkpt lat="46.00309" lon="6.86396">
        <ele>2117.92</ele>
        <time>2015-08-02T10:04:17Z</time>
      </trkpt>
      <trkpt lat="46.00311" lon="6.86396">
        <ele>2117.92</ele>
        <time>2015-08-02T10:04:18Z</time>
      </trkpt>
      <trkpt lat="46.00312" lon="6.86397">
        <ele>2117.92</ele>
        <time>2015-08-02T10:04:19Z</time>
      </trkpt>
      <trkpt lat="46.00314" lon="6.86399">
        <ele>2117.44</ele>
        <time>2015-08-02T10:04:21Z</time>
      </trkpt>
      <trkpt lat="46.00315" lon="6.86399">
        <ele>2117.44</ele>
        <time>2015-08-02T10:04:22Z</time>
      </trkpt>
      <trkpt lat="46.00316" lon="6.864">
        <ele>2117.44</ele>
        <time>2015-08-02T10:04:23Z</time>
      </trkpt>
      <trkpt lat="46.00318" lon="6.864">
        <ele>2116.48</ele>
        <time>2015-08-02T10:04:24Z</time>
      </trkpt>
      <trkpt lat="46.00319" lon="6.86401">
        <ele>2116</ele>
        <time>2015-08-02T10:04:25Z</time>
      </trkpt>
      <trkpt lat="46.0032" lon="6.86402">
        <ele>2115.04</ele>
        <time>2015-08-02T10:04:26Z</time>
      </trkpt>
      <trkpt lat="46.00323" lon="6.86407">
        <ele>2114.08</ele>
        <time>2015-08-02T10:04:30Z</time>
      </trkpt>
      <trkpt lat="46.00322" lon="6.8641">
        <ele>2113.12</ele>
        <time>2015-08-02T10:04:31Z</time>
      </trkpt>
      <trkpt lat="46.0032" lon="6.86413">
        <ele>2112.15</ele>
        <time>2015-08-02T10:04:33Z</time>
      </trkpt>
      <trkpt lat="46.00317" lon="6.86416">
        <ele>2111.19</ele>
        <time>2015-08-02T10:04:36Z</time>
      </trkpt>
      <trkpt lat="46.00311" lon="6.86422">
        <ele>2109.27</ele>
        <time>2015-08-02T10:04:41Z</time>
      </trkpt>
      <trkpt lat="46.00307" lon="6.8643">
        <ele>2105.91</ele>
        <time>2015-08-02T10:04:50Z</time>
      </trkpt>
      <trkpt lat="46.00308" lon="6.86433">
        <ele>2103.02</ele>
        <time>2015-08-02T10:04:56Z</time>
      </trkpt>
      <trkpt lat="46.00308" lon="6.86433">
        <ele>2103.02</ele>
        <time>2015-08-02T10:04:57Z</time>
      </trkpt>
      <trkpt lat="46.00312" lon="6.86437">
        <ele>2101.1</ele>
        <time>2015-08-02T10:05:09Z</time>
      </trkpt>
      <trkpt lat="46.00316" lon="6.8644">
        <ele>2100.14</ele>
        <time>2015-08-02T10:05:17Z</time>
      </trkpt>
      <trkpt lat="46.00323" lon="6.86443">
        <ele>2098.21</ele>
        <time>2015-08-02T10:05:24Z</time>
      </trkpt>
      <trkpt lat="46.00333" lon="6.86442">
        <ele>2096.29</ele>
        <time>2015-08-02T10:05:37Z</time>
      </trkpt>
      <trkpt lat="46.00337" lon="6.86448">
        <ele>2093.41</ele>
        <time>2015-08-02T10:05:48Z</time>
      </trkpt>
      <trkpt lat="46.00337" lon="6.86452">
        <ele>2091.49</ele>
        <time>2015-08-02T10:05:52Z</time>
      </trkpt>
      <trkpt lat="46.00339" lon="6.86452">
        <ele>2091</ele>
        <time>2015-08-02T10:05:54Z</time>
      </trkpt>
      <trkpt lat="46.00346" lon="6.86453">
        <ele>2089.08</ele>
        <time>2015-08-02T10:06:01Z</time>
      </trkpt>
      <trkpt lat="46.00351" lon="6.86452">
        <ele>2088.12</ele>
        <time>2015-08-02T10:06:07Z</time>
      </trkpt>
      <trkpt lat="46.00354" lon="6.86457">
        <ele>2086.2</ele>
        <time>2015-08-02T10:06:10Z</time>
      </trkpt>
      <trkpt lat="46.00355" lon="6.86457">
        <ele>2086.2</ele>
        <time>2015-08-02T10:06:12Z</time>
      </trkpt>
      <trkpt lat="46.00357" lon="6.86457">
        <ele>2084.76</ele>
        <time>2015-08-02T10:06:14Z</time>
      </trkpt>
      <trkpt lat="46.00361" lon="6.86457">
        <ele>2082.83</ele>
        <time>2015-08-02T10:06:17Z</time>
      </trkpt>
      <trkpt lat="46.00368" lon="6.86459">
        <ele>2080.91</ele>
        <time>2015-08-02T10:06:22Z</time>
      </trkpt>
      <trkpt lat="46.0037" lon="6.86459">
        <ele>2080.91</ele>
        <time>2015-08-02T10:06:23Z</time>
      </trkpt>
      <trkpt lat="46.00379" lon="6.86467">
        <ele>2077.55</ele>
        <time>2015-08-02T10:06:35Z</time>
      </trkpt>
      <trkpt lat="46.00391" lon="6.86469">
        <ele>2075.14</ele>
        <time>2015-08-02T10:06:42Z</time>
      </trkpt>
      <trkpt lat="46.00393" lon="6.86469">
        <ele>2075.14</ele>
        <time>2015-08-02T10:06:43Z</time>
      </trkpt>
      <trkpt lat="46.00395" lon="6.86468">
        <ele>2075.14</ele>
        <time>2015-08-02T10:06:44Z</time>
      </trkpt>
      <trkpt lat="46.00397" lon="6.86467">
        <ele>2074.18</ele>
        <time>2015-08-02T10:06:45Z</time>
      </trkpt>
      <trkpt lat="46.004" lon="6.86465">
        <ele>2074.18</ele>
        <time>2015-08-02T10:06:46Z</time>
      </trkpt>
      <trkpt lat="46.00401" lon="6.86467">
        <ele>2073.22</ele>
        <time>2015-08-02T10:06:47Z</time>
      </trkpt>
      <trkpt lat="46.00403" lon="6.86466">
        <ele>2073.22</ele>
        <time>2015-08-02T10:06:48Z</time>
      </trkpt>
      <trkpt lat="46.00412" lon="6.86473">
        <ele>2071.3</ele>
        <time>2015-08-02T10:06:54Z</time>
      </trkpt>
      <trkpt lat="46.00433" lon="6.86464">
        <ele>2067.93</ele>
        <time>2015-08-02T10:07:03Z</time>
      </trkpt>
      <trkpt lat="46.00445" lon="6.86458">
        <ele>2066.97</ele>
        <time>2015-08-02T10:07:07Z</time>
      </trkpt>
      <trkpt lat="46.00465" lon="6.86458">
        <ele>2064.09</ele>
        <time>2015-08-02T10:07:16Z</time>
      </trkpt>
      <trkpt lat="46.00466" lon="6.86473">
        <ele>2063.13</ele>
        <time>2015-08-02T10:07:20Z</time>
      </trkpt>
      <trkpt lat="46.00464" lon="6.86486">
        <ele>2062.17</ele>
        <time>2015-08-02T10:07:22Z</time>
      </trkpt>
      <trkpt lat="46.00463" lon="6.86494">
        <ele>2061.2</ele>
        <time>2015-08-02T10:07:25Z</time>
      </trkpt>
      <trkpt lat="46.00462" lon="6.86501">
        <ele>2059.76</ele>
        <time>2015-08-02T10:07:27Z</time>
      </trkpt>
      <trkpt lat="46.00462" lon="6.86504">
        <ele>2059.28</ele>
        <time>2015-08-02T10:07:30Z</time>
      </trkpt>
      <trkpt lat="46.00463" lon="6.86521">
        <ele>2057.36</ele>
        <time>2015-08-02T10:07:37Z</time>
      </trkpt>
      <trkpt lat="46.0047" lon="6.86534">
        <ele>2054.96</ele>
        <time>2015-08-02T10:07:43Z</time>
      </trkpt>
      <trkpt lat="46.00473" lon="6.86536">
        <ele>2054.47</ele>
        <time>2015-08-02T10:07:45Z</time>
      </trkpt>
      <trkpt lat="46.00485" lon="6.86534">
        <ele>2052.07</ele>
        <time>2015-08-02T10:07:51Z</time>
      </trkpt>
      <trkpt lat="46.00484" lon="6.86544">
        <ele>2051.11</ele>
        <time>2015-08-02T10:07:54Z</time>
      </trkpt>
      <trkpt lat="46.00475" lon="6.86574">
        <ele>2047.75</ele>
        <time>2015-08-02T10:08:03Z</time>
      </trkpt>
      <trkpt lat="46.00473" lon="6.86587">
        <ele>2044.86</ele>
        <time>2015-08-02T10:08:09Z</time>
      </trkpt>
      <trkpt lat="46.00476" lon="6.86598">
        <ele>2042.94</ele>
        <time>2015-08-02T10:08:13Z</time>
      </trkpt>
      <trkpt lat="46.00479" lon="6.86608">
        <ele>2041.5</ele>
        <time>2015-08-02T10:08:17Z</time>
      </trkpt>
      <trkpt lat="46.00483" lon="6.86611">
        <ele>2041.02</ele>
        <time>2015-08-02T10:08:19Z</time>
      </trkpt>
      <trkpt lat="46.00486" lon="6.86614">
        <ele>2041.02</ele>
        <time>2015-08-02T10:08:20Z</time>
      </trkpt>
      <trkpt lat="46.00488" lon="6.86615">
        <ele>2040.54</ele>
        <time>2015-08-02T10:08:21Z</time>
      </trkpt>
      <trkpt lat="46.00489" lon="6.86616">
        <ele>2040.05</ele>
        <time>2015-08-02T10:08:22Z</time>
      </trkpt>
      <trkpt lat="46.0049" lon="6.86618">
        <ele>2040.05</ele>
        <time>2015-08-02T10:08:23Z</time>
      </trkpt>
      <trkpt lat="46.00492" lon="6.86619">
        <ele>2039.09</ele>
        <time>2015-08-02T10:08:24Z</time>
      </trkpt>
      <trkpt lat="46.00493" lon="6.86621">
        <ele>2038.61</ele>
        <time>2015-08-02T10:08:25Z</time>
      </trkpt>
      <trkpt lat="46.00494" lon="6.86623">
        <ele>2038.61</ele>
        <time>2015-08-02T10:08:26Z</time>
      </trkpt>
      <trkpt lat="46.00495" lon="6.86625">
        <ele>2038.13</ele>
        <time>2015-08-02T10:08:27Z</time>
      </trkpt>
      <trkpt lat="46.00497" lon="6.86627">
        <ele>2037.65</ele>
        <time>2015-08-02T10:08:28Z</time>
      </trkpt>
      <trkpt lat="46.00498" lon="6.86629">
        <ele>2037.17</ele>
        <time>2015-08-02T10:08:29Z</time>
      </trkpt>
      <trkpt lat="46.00499" lon="6.86631">
        <ele>2037.17</ele>
        <time>2015-08-02T10:08:30Z</time>
      </trkpt>
      <trkpt lat="46.00502" lon="6.86638">
        <ele>2036.21</ele>
        <time>2015-08-02T10:08:33Z</time>
      </trkpt>
      <trkpt lat="46.00499" lon="6.86645">
        <ele>2033.81</ele>
        <time>2015-08-02T10:08:41Z</time>
      </trkpt>
      <trkpt lat="46.00495" lon="6.86646">
        <ele>2032.36</ele>
        <time>2015-08-02T10:08:48Z</time>
      </trkpt>
      <trkpt lat="46.00495" lon="6.86645">
        <ele>2031.4</ele>
        <time>2015-08-02T10:08:50Z</time>
      </trkpt>
      <trkpt lat="46.00489" lon="6.86649">
        <ele>2029</ele>
        <time>2015-08-02T10:09:02Z</time>
      </trkpt>
      <trkpt lat="46.00493" lon="6.86657">
        <ele>2026.6</ele>
        <time>2015-08-02T10:09:12Z</time>
      </trkpt>
      <trkpt lat="46.00493" lon="6.86661">
        <ele>2026.6</ele>
        <time>2015-08-02T10:09:14Z</time>
      </trkpt>
      <trkpt lat="46.0049" lon="6.86666">
        <ele>2024.67</ele>
        <time>2015-08-02T10:09:18Z</time>
      </trkpt>
      <trkpt lat="46.00489" lon="6.8667">
        <ele>2023.23</ele>
        <time>2015-08-02T10:09:22Z</time>
      </trkpt>
      <trkpt lat="46.00487" lon="6.86684">
        <ele>2020.35</ele>
        <time>2015-08-02T10:09:30Z</time>
      </trkpt>
      <trkpt lat="46.00483" lon="6.86692">
        <ele>2016.98</ele>
        <time>2015-08-02T10:09:37Z</time>
      </trkpt>
      <trkpt lat="46.00479" lon="6.86692">
        <ele>2015.54</ele>
        <time>2015-08-02T10:09:42Z</time>
      </trkpt>
      <trkpt lat="46.00477" lon="6.86693">
        <ele>2014.58</ele>
        <time>2015-08-02T10:09:46Z</time>
      </trkpt>
      <trkpt lat="46.00474" lon="6.86695">
        <ele>2012.66</ele>
        <time>2015-08-02T10:09:50Z</time>
      </trkpt>
      <trkpt lat="46.00471" lon="6.86695">
        <ele>2011.22</ele>
        <time>2015-08-02T10:09:54Z</time>
      </trkpt>
      <trkpt lat="46.00467" lon="6.86695">
        <ele>2008.81</ele>
        <time>2015-08-02T10:09:59Z</time>
      </trkpt>
      <trkpt lat="46.00465" lon="6.86695">
        <ele>2007.85</ele>
        <time>2015-08-02T10:10:00Z</time>
      </trkpt>
      <trkpt lat="46.00464" lon="6.86695">
        <ele>2007.37</ele>
        <time>2015-08-02T10:10:01Z</time>
      </trkpt>
      <trkpt lat="46.00462" lon="6.86695">
        <ele>2006.89</ele>
        <time>2015-08-02T10:10:02Z</time>
      </trkpt>
      <trkpt lat="46.00461" lon="6.86695">
        <ele>2006.89</ele>
        <time>2015-08-02T10:10:03Z</time>
      </trkpt>
      <trkpt lat="46.00456" lon="6.86692">
        <ele>2004.97</ele>
        <time>2015-08-02T10:10:12Z</time>
      </trkpt>
      <trkpt lat="46.00454" lon="6.86691">
        <ele>2004.97</ele>
        <time>2015-08-02T10:10:13Z</time>
      </trkpt>
      <trkpt lat="46.00453" lon="6.86691">
        <ele>2004.97</ele>
        <time>2015-08-02T10:10:14Z</time>
      </trkpt>
      <trkpt lat="46.00451" lon="6.86691">
        <ele>2004.97</ele>
        <time>2015-08-02T10:10:16Z</time>
      </trkpt>
      <trkpt lat="46.0045" lon="6.86693">
        <ele>2004.97</ele>
        <time>2015-08-02T10:10:17Z</time>
      </trkpt>
      <trkpt lat="46.00448" lon="6.86694">
        <ele>2004.97</ele>
        <time>2015-08-02T10:10:18Z</time>
      </trkpt>
      <trkpt lat="46.00446" lon="6.86694">
        <ele>2004.49</ele>
        <time>2015-08-02T10:10:19Z</time>
      </trkpt>
      <trkpt lat="46.00445" lon="6.86693">
        <ele>2004.49</ele>
        <time>2015-08-02T10:10:20Z</time>
      </trkpt>
      <trkpt lat="46.00443" lon="6.86692">
        <ele>2004.01</ele>
        <time>2015-08-02T10:10:21Z</time>
      </trkpt>
      <trkpt lat="46.00442" lon="6.86692">
        <ele>2004.01</ele>
        <time>2015-08-02T10:10:22Z</time>
      </trkpt>
      <trkpt lat="46.0044" lon="6.86693">
        <ele>2002.56</ele>
        <time>2015-08-02T10:10:24Z</time>
      </trkpt>
      <trkpt lat="46.00438" lon="6.86693">
        <ele>2001.6</ele>
        <time>2015-08-02T10:10:25Z</time>
      </trkpt>
      <trkpt lat="46.00435" lon="6.86694">
        <ele>2001.12</ele>
        <time>2015-08-02T10:10:26Z</time>
      </trkpt>
      <trkpt lat="46.00433" lon="6.86694">
        <ele>2001.12</ele>
        <time>2015-08-02T10:10:27Z</time>
      </trkpt>
      <trkpt lat="46.0043" lon="6.86694">
        <ele>1999.68</ele>
        <time>2015-08-02T10:10:28Z</time>
      </trkpt>
      <trkpt lat="46.00427" lon="6.86694">
        <ele>1999.2</ele>
        <time>2015-08-02T10:10:29Z</time>
      </trkpt>
      <trkpt lat="46.00425" lon="6.86692">
        <ele>1999.2</ele>
        <time>2015-08-02T10:10:30Z</time>
      </trkpt>
      <trkpt lat="46.00423" lon="6.86691">
        <ele>1999.2</ele>
        <time>2015-08-02T10:10:31Z</time>
      </trkpt>
      <trkpt lat="46.00421" lon="6.8669">
        <ele>1999.2</ele>
        <time>2015-08-02T10:10:32Z</time>
      </trkpt>
      <trkpt lat="46.00419" lon="6.86688">
        <ele>1998.24</ele>
        <time>2015-08-02T10:10:33Z</time>
      </trkpt>
      <trkpt lat="46.00418" lon="6.86687">
        <ele>1998.24</ele>
        <time>2015-08-02T10:10:34Z</time>
      </trkpt>
      <trkpt lat="46.00416" lon="6.86688">
        <ele>1997.28</ele>
        <time>2015-08-02T10:10:35Z</time>
      </trkpt>
      <trkpt lat="46.00414" lon="6.86687">
        <ele>1997.28</ele>
        <time>2015-08-02T10:10:36Z</time>
      </trkpt>
      <trkpt lat="46.00412" lon="6.86685">
        <ele>1996.8</ele>
        <time>2015-08-02T10:10:37Z</time>
      </trkpt>
      <trkpt lat="46.0041" lon="6.86684">
        <ele>1996.32</ele>
        <time>2015-08-02T10:10:39Z</time>
      </trkpt>
      <trkpt lat="46.00412" lon="6.86687">
        <ele>1993.91</ele>
        <time>2015-08-02T10:10:46Z</time>
      </trkpt>
      <trkpt lat="46.00413" lon="6.86688">
        <ele>1993.43</ele>
        <time>2015-08-02T10:10:47Z</time>
      </trkpt>
      <trkpt lat="46.00418" lon="6.86691">
        <ele>1990.55</ele>
        <time>2015-08-02T10:10:53Z</time>
      </trkpt>
      <trkpt lat="46.00418" lon="6.86692">
        <ele>1990.55</ele>
        <time>2015-08-02T10:10:54Z</time>
      </trkpt>
      <trkpt lat="46.00419" lon="6.86695">
        <ele>1989.59</ele>
        <time>2015-08-02T10:10:55Z</time>
      </trkpt>
      <trkpt lat="46.0042" lon="6.86696">
        <ele>1988.62</ele>
        <time>2015-08-02T10:10:56Z</time>
      </trkpt>
      <trkpt lat="46.00421" lon="6.86698">
        <ele>1988.62</ele>
        <time>2015-08-02T10:10:57Z</time>
      </trkpt>
      <trkpt lat="46.00421" lon="6.86699">
        <ele>1988.14</ele>
        <time>2015-08-02T10:10:58Z</time>
      </trkpt>
      <trkpt lat="46.00422" lon="6.86715">
        <ele>1985.26</ele>
        <time>2015-08-02T10:11:07Z</time>
      </trkpt>
      <trkpt lat="46.00422" lon="6.86717">
        <ele>1984.78</ele>
        <time>2015-08-02T10:11:08Z</time>
      </trkpt>
      <trkpt lat="46.0042" lon="6.8672">
        <ele>1983.34</ele>
        <time>2015-08-02T10:11:18Z</time>
      </trkpt>
      <trkpt lat="46.0042" lon="6.86723">
        <ele>1983.34</ele>
        <time>2015-08-02T10:11:28Z</time>
      </trkpt>
      <trkpt lat="46.00419" lon="6.86732">
        <ele>1981.41</ele>
        <time>2015-08-02T10:11:37Z</time>
      </trkpt>
      <trkpt lat="46.0042" lon="6.86734">
        <ele>1980.45</ele>
        <time>2015-08-02T10:11:38Z</time>
      </trkpt>
      <trkpt lat="46.0042" lon="6.86736">
        <ele>1979.97</ele>
        <time>2015-08-02T10:11:39Z</time>
      </trkpt>
      <trkpt lat="46.00419" lon="6.86737">
        <ele>1979.97</ele>
        <time>2015-08-02T10:11:40Z</time>
      </trkpt>
      <trkpt lat="46.00417" lon="6.86738">
        <ele>1978.53</ele>
        <time>2015-08-02T10:11:41Z</time>
      </trkpt>
      <trkpt lat="46.00415" lon="6.86738">
        <ele>1978.53</ele>
        <time>2015-08-02T10:11:42Z</time>
      </trkpt>
      <trkpt lat="46.00414" lon="6.86738">
        <ele>1978.53</ele>
        <time>2015-08-02T10:11:43Z</time>
      </trkpt>
      <trkpt lat="46.00412" lon="6.86738">
        <ele>1977.57</ele>
        <time>2015-08-02T10:11:44Z</time>
      </trkpt>
      <trkpt lat="46.00411" lon="6.86738">
        <ele>1977.09</ele>
        <time>2015-08-02T10:11:45Z</time>
      </trkpt>
      <trkpt lat="46.00407" lon="6.86738">
        <ele>1975.65</ele>
        <time>2015-08-02T10:11:49Z</time>
      </trkpt>
      <trkpt lat="46.00404" lon="6.86739">
        <ele>1973.72</ele>
        <time>2015-08-02T10:11:54Z</time>
      </trkpt>
      <trkpt lat="46.00403" lon="6.8674">
        <ele>1973.24</ele>
        <time>2015-08-02T10:11:55Z</time>
      </trkpt>
      <trkpt lat="46.00402" lon="6.86741">
        <ele>1973.24</ele>
        <time>2015-08-02T10:11:56Z</time>
      </trkpt>
      <trkpt lat="46.00401" lon="6.86741">
        <ele>1972.28</ele>
        <time>2015-08-02T10:11:57Z</time>
      </trkpt>
      <trkpt lat="46.004" lon="6.86742">
        <ele>1972.28</ele>
        <time>2015-08-02T10:11:58Z</time>
      </trkpt>
      <trkpt lat="46.00399" lon="6.86742">
        <ele>1971.8</ele>
        <time>2015-08-02T10:11:59Z</time>
      </trkpt>
      <trkpt lat="46.00397" lon="6.86743">
        <ele>1970.84</ele>
        <time>2015-08-02T10:12:00Z</time>
      </trkpt>
      <trkpt lat="46.00396" lon="6.86744">
        <ele>1970.84</ele>
        <time>2015-08-02T10:12:01Z</time>
      </trkpt>
      <trkpt lat="46.00394" lon="6.86745">
        <ele>1969.88</ele>
        <time>2015-08-02T10:12:02Z</time>
      </trkpt>
      <trkpt lat="46.0038" lon="6.86747">
        <ele>1966.03</ele>
        <time>2015-08-02T10:12:08Z</time>
      </trkpt>
      <trkpt lat="46.00368" lon="6.86753">
        <ele>1963.15</ele>
        <time>2015-08-02T10:12:14Z</time>
      </trkpt>
      <trkpt lat="46.00367" lon="6.86756">
        <ele>1962.67</ele>
        <time>2015-08-02T10:12:16Z</time>
      </trkpt>
      <trkpt lat="46.00366" lon="6.86757">
        <ele>1961.71</ele>
        <time>2015-08-02T10:12:17Z</time>
      </trkpt>
      <trkpt lat="46.00365" lon="6.86758">
        <ele>1961.23</ele>
        <time>2015-08-02T10:12:18Z</time>
      </trkpt>
      <trkpt lat="46.00363" lon="6.8676">
        <ele>1961.23</ele>
        <time>2015-08-02T10:12:19Z</time>
      </trkpt>
      <trkpt lat="46.00362" lon="6.86762">
        <ele>1960.27</ele>
        <time>2015-08-02T10:12:20Z</time>
      </trkpt>
      <trkpt lat="46.00361" lon="6.86763">
        <ele>1959.3</ele>
        <time>2015-08-02T10:12:21Z</time>
      </trkpt>
      <trkpt lat="46.00359" lon="6.86765">
        <ele>1958.82</ele>
        <time>2015-08-02T10:12:22Z</time>
      </trkpt>
      <trkpt lat="46.00358" lon="6.86767">
        <ele>1958.82</ele>
        <time>2015-08-02T10:12:23Z</time>
      </trkpt>
      <trkpt lat="46.00357" lon="6.86769">
        <ele>1957.38</ele>
        <time>2015-08-02T10:12:24Z</time>
      </trkpt>
      <trkpt lat="46.00356" lon="6.8677">
        <ele>1956.42</ele>
        <time>2015-08-02T10:12:25Z</time>
      </trkpt>
      <trkpt lat="46.00355" lon="6.8677">
        <ele>1956.42</ele>
        <time>2015-08-02T10:12:26Z</time>
      </trkpt>
      <trkpt lat="46.00353" lon="6.8677">
        <ele>1955.94</ele>
        <time>2015-08-02T10:12:27Z</time>
      </trkpt>
      <trkpt lat="46.00352" lon="6.86772">
        <ele>1955.94</ele>
        <time>2015-08-02T10:12:29Z</time>
      </trkpt>
      <trkpt lat="46.00351" lon="6.86774">
        <ele>1955.94</ele>
        <time>2015-08-02T10:12:30Z</time>
      </trkpt>
      <trkpt lat="46.00351" lon="6.86775">
        <ele>1955.46</ele>
        <time>2015-08-02T10:12:31Z</time>
      </trkpt>
      <trkpt lat="46.00349" lon="6.86788">
        <ele>1953.54</ele>
        <time>2015-08-02T10:12:36Z</time>
      </trkpt>
      <trkpt lat="46.00348" lon="6.86791">
        <ele>1952.09</ele>
        <time>2015-08-02T10:12:37Z</time>
      </trkpt>
      <trkpt lat="46.00348" lon="6.86793">
        <ele>1952.09</ele>
        <time>2015-08-02T10:12:38Z</time>
      </trkpt>
      <trkpt lat="46.00347" lon="6.86796">
        <ele>1951.61</ele>
        <time>2015-08-02T10:12:39Z</time>
      </trkpt>
      <trkpt lat="46.00345" lon="6.86799">
        <ele>1950.65</ele>
        <time>2015-08-02T10:12:40Z</time>
      </trkpt>
      <trkpt lat="46.00344" lon="6.86803">
        <ele>1950.65</ele>
        <time>2015-08-02T10:12:41Z</time>
      </trkpt>
      <trkpt lat="46.00333" lon="6.86817">
        <ele>1948.73</ele>
        <time>2015-08-02T10:12:47Z</time>
      </trkpt>
      <trkpt lat="46.00331" lon="6.86819">
        <ele>1948.73</ele>
        <time>2015-08-02T10:12:48Z</time>
      </trkpt>
      <trkpt lat="46.00329" lon="6.86821">
        <ele>1947.29</ele>
        <time>2015-08-02T10:12:49Z</time>
      </trkpt>
      <trkpt lat="46.00327" lon="6.86823">
        <ele>1947.29</ele>
        <time>2015-08-02T10:12:50Z</time>
      </trkpt>
      <trkpt lat="46.00325" lon="6.86825">
        <ele>1946.33</ele>
        <time>2015-08-02T10:12:51Z</time>
      </trkpt>
      <trkpt lat="46.00323" lon="6.86828">
        <ele>1946.33</ele>
        <time>2015-08-02T10:12:52Z</time>
      </trkpt>
      <trkpt lat="46.00321" lon="6.86829">
        <ele>1944.88</ele>
        <time>2015-08-02T10:12:53Z</time>
      </trkpt>
      <trkpt lat="46.00319" lon="6.8683">
        <ele>1944.4</ele>
        <time>2015-08-02T10:12:54Z</time>
      </trkpt>
      <trkpt lat="46.00318" lon="6.86832">
        <ele>1944.4</ele>
        <time>2015-08-02T10:12:55Z</time>
      </trkpt>
      <trkpt lat="46.00317" lon="6.86833">
        <ele>1944.4</ele>
        <time>2015-08-02T10:12:56Z</time>
      </trkpt>
      <trkpt lat="46.00315" lon="6.86834">
        <ele>1944.88</ele>
        <time>2015-08-02T10:12:57Z</time>
      </trkpt>
      <trkpt lat="46.00311" lon="6.8684">
        <ele>1941.52</ele>
        <time>2015-08-02T10:13:05Z</time>
      </trkpt>
      <trkpt lat="46.0031" lon="6.86842">
        <ele>1941.52</ele>
        <time>2015-08-02T10:13:06Z</time>
      </trkpt>
      <trkpt lat="46.00307" lon="6.86855">
        <ele>1939.12</ele>
        <time>2015-08-02T10:13:18Z</time>
      </trkpt>
      <trkpt lat="46.00304" lon="6.8686">
        <ele>1938.64</ele>
        <time>2015-08-02T10:13:23Z</time>
      </trkpt>
      <trkpt lat="46.00299" lon="6.86868">
        <ele>1938.64</ele>
        <time>2015-08-02T10:13:37Z</time>
      </trkpt>
      <trkpt lat="46.00297" lon="6.86868">
        <ele>1937.19</ele>
        <time>2015-08-02T10:13:50Z</time>
      </trkpt>
      <trkpt lat="46.00288" lon="6.8687">
        <ele>1936.71</ele>
        <time>2015-08-02T10:14:18Z</time>
      </trkpt>
      <trkpt lat="46.00293" lon="6.86872">
        <ele>1936.23</ele>
        <time>2015-08-02T10:14:45Z</time>
      </trkpt>
      <trkpt lat="46.00299" lon="6.86878">
        <ele>1935.75</ele>
        <time>2015-08-02T10:15:16Z</time>
      </trkpt>
      <trkpt lat="46.00302" lon="6.8688">
        <ele>1935.75</ele>
        <time>2015-08-02T10:15:44Z</time>
      </trkpt>
      <trkpt lat="46.00303" lon="6.86876">
        <ele>1935.75</ele>
        <time>2015-08-02T10:16:11Z</time>
      </trkpt>
      <trkpt lat="46.00302" lon="6.86879">
        <ele>1935.27</ele>
        <time>2015-08-02T10:16:44Z</time>
      </trkpt>
      <trkpt lat="46.00304" lon="6.86875">
        <ele>1935.27</ele>
        <time>2015-08-02T10:17:10Z</time>
      </trkpt>
      <trkpt lat="46.00302" lon="6.86875">
        <ele>1934.79</ele>
        <time>2015-08-02T10:17:56Z</time>
      </trkpt>
      <trkpt lat="46.00301" lon="6.86874">
        <ele>1934.79</ele>
        <time>2015-08-02T10:18:26Z</time>
      </trkpt>
      <trkpt lat="46.00308" lon="6.86869">
        <ele>1934.79</ele>
        <time>2015-08-02T10:18:37Z</time>
      </trkpt>
      <trkpt lat="46.00304" lon="6.86869">
        <ele>1934.31</ele>
        <time>2015-08-02T10:19:08Z</time>
      </trkpt>
      <trkpt lat="46.00307" lon="6.8687">
        <ele>1934.31</ele>
        <time>2015-08-02T10:19:37Z</time>
      </trkpt>
      <trkpt lat="46.00306" lon="6.86866">
        <ele>1933.83</ele>
        <time>2015-08-02T10:20:10Z</time>
      </trkpt>
      <trkpt lat="46.00306" lon="6.86871">
        <ele>1933.83</ele>
        <time>2015-08-02T10:20:37Z</time>
      </trkpt>
      <trkpt lat="46.00305" lon="6.8687">
        <ele>1933.35</ele>
        <time>2015-08-02T10:21:09Z</time>
      </trkpt>
      <trkpt lat="46.00303" lon="6.86868">
        <ele>1933.35</ele>
        <time>2015-08-02T10:21:40Z</time>
      </trkpt>
      <trkpt lat="46.00305" lon="6.86869">
        <ele>1932.87</ele>
        <time>2015-08-02T10:22:09Z</time>
      </trkpt>
      <trkpt lat="46.00305" lon="6.86868">
        <ele>1933.83</ele>
        <time>2015-08-02T10:22:25Z</time>
      </trkpt>
      <trkpt lat="46.00304" lon="6.86867">
        <ele>1933.35</ele>
        <time>2015-08-02T10:22:57Z</time>
      </trkpt>
      <trkpt lat="46.00302" lon="6.86866">
        <ele>1933.83</ele>
        <time>2015-08-02T10:23:29Z</time>
      </trkpt>
      <trkpt lat="46.00304" lon="6.86863">
        <ele>1933.35</ele>
        <time>2015-08-02T10:23:58Z</time>
      </trkpt>
      <trkpt lat="46.00305" lon="6.86868">
        <ele>1933.35</ele>
        <time>2015-08-02T10:24:19Z</time>
      </trkpt>
      <trkpt lat="46.00305" lon="6.86868">
        <ele>1933.35</ele>
        <time>2015-08-02T10:24:47Z</time>
      </trkpt>
      <trkpt lat="46.00305" lon="6.8687">
        <ele>1933.35</ele>
        <time>2015-08-02T10:25:16Z</time>
      </trkpt>
      <trkpt lat="46.00304" lon="6.86869">
        <ele>1932.87</ele>
        <time>2015-08-02T10:25:51Z</time>
      </trkpt>
      <trkpt lat="46.00308" lon="6.86871">
        <ele>1932.87</ele>
        <time>2015-08-02T10:26:19Z</time>
      </trkpt>
      <trkpt lat="46.00308" lon="6.86872">
        <ele>1932.87</ele>
        <time>2015-08-02T10:26:39Z</time>
      </trkpt>
      <trkpt lat="46.00308" lon="6.86872">
        <ele>1932.87</ele>
        <time>2015-08-02T10:27:07Z</time>
      </trkpt>
      <trkpt lat="46.00306" lon="6.86868">
        <ele>1932.87</ele>
        <time>2015-08-02T10:27:34Z</time>
      </trkpt>
      <trkpt lat="46.00307" lon="6.86865">
        <ele>1932.87</ele>
        <time>2015-08-02T10:28:00Z</time>
      </trkpt>
      <trkpt lat="46.00306" lon="6.8687">
        <ele>1932.39</ele>
        <time>2015-08-02T10:28:33Z</time>
      </trkpt>
      <trkpt lat="46.00305" lon="6.86871">
        <ele>1932.39</ele>
        <time>2015-08-02T10:29:00Z</time>
      </trkpt>
      <trkpt lat="46.00304" lon="6.86869">
        <ele>1932.39</ele>
        <time>2015-08-02T10:29:27Z</time>
      </trkpt>
      <trkpt lat="46.00306" lon="6.86871">
        <ele>1932.39</ele>
        <time>2015-08-02T10:29:57Z</time>
      </trkpt>
      <trkpt lat="46.00306" lon="6.86869">
        <ele>1932.39</ele>
        <time>2015-08-02T10:30:34Z</time>
      </trkpt>
      <trkpt lat="46.00305" lon="6.8687">
        <ele>1932.39</ele>
        <time>2015-08-02T10:31:02Z</time>
      </trkpt>
      <trkpt lat="46.00306" lon="6.8687">
        <ele>1932.39</ele>
        <time>2015-08-02T10:31:30Z</time>
      </trkpt>
      <trkpt lat="46.00305" lon="6.86871">
        <ele>1932.39</ele>
        <time>2015-08-02T10:32:01Z</time>
      </trkpt>
      <trkpt lat="46.00306" lon="6.86872">
        <ele>1932.39</ele>
        <time>2015-08-02T10:32:36Z</time>
      </trkpt>
      <trkpt lat="46.00304" lon="6.86868">
        <ele>1931.91</ele>
        <time>2015-08-02T10:33:10Z</time>
      </trkpt>
      <trkpt lat="46.00303" lon="6.86869">
        <ele>1931.91</ele>
        <time>2015-08-02T10:33:44Z</time>
      </trkpt>
      <trkpt lat="46.00302" lon="6.86868">
        <ele>1931.91</ele>
        <time>2015-08-02T10:34:14Z</time>
      </trkpt>
      <trkpt lat="46.00302" lon="6.86867">
        <ele>1931.91</ele>
        <time>2015-08-02T10:34:44Z</time>
      </trkpt>
      <trkpt lat="46.00303" lon="6.86867">
        <ele>1931.91</ele>
        <time>2015-08-02T10:35:10Z</time>
      </trkpt>
      <trkpt lat="46.00303" lon="6.86866">
        <ele>1931.91</ele>
        <time>2015-08-02T10:35:44Z</time>
      </trkpt>
      <trkpt lat="46.003" lon="6.86864">
        <ele>1931.43</ele>
        <time>2015-08-02T10:36:21Z</time>
      </trkpt>
      <trkpt lat="46.003" lon="6.86867">
        <ele>1931.43</ele>
        <time>2015-08-02T10:36:55Z</time>
      </trkpt>
      <trkpt lat="46.00301" lon="6.86864">
        <ele>1931.43</ele>
        <time>2015-08-02T10:37:20Z</time>
      </trkpt>
      <trkpt lat="46.00302" lon="6.86866">
        <ele>1931.43</ele>
        <time>2015-08-02T10:37:47Z</time>
      </trkpt>
      <trkpt lat="46.00302" lon="6.86866">
        <ele>1929.98</ele>
        <time>2015-08-02T10:38:15Z</time>
      </trkpt>
      <trkpt lat="46.00302" lon="6.86866">
        <ele>1929.98</ele>
        <time>2015-08-02T10:38:46Z</time>
      </trkpt>
      <trkpt lat="46.00303" lon="6.86867">
        <ele>1929.5</ele>
        <time>2015-08-02T10:39:20Z</time>
      </trkpt>
      <trkpt lat="46.00303" lon="6.86867">
        <ele>1929.5</ele>
        <time>2015-08-02T10:39:53Z</time>
      </trkpt>
      <trkpt lat="46.00301" lon="6.86866">
        <ele>1929.5</ele>
        <time>2015-08-02T10:40:30Z</time>
      </trkpt>
      <trkpt lat="46.00301" lon="6.86867">
        <ele>1929.5</ele>
        <time>2015-08-02T10:41:01Z</time>
      </trkpt>
      <trkpt lat="46.003" lon="6.86868">
        <ele>1929.02</ele>
        <time>2015-08-02T10:41:35Z</time>
      </trkpt>
      <trkpt lat="46.003" lon="6.86868">
        <ele>1929.02</ele>
        <time>2015-08-02T10:42:11Z</time>
      </trkpt>
      <trkpt lat="46.003" lon="6.86867">
        <ele>1929.02</ele>
        <time>2015-08-02T10:42:45Z</time>
      </trkpt>
      <trkpt lat="46.003" lon="6.86868">
        <ele>1929.02</ele>
        <time>2015-08-02T10:43:22Z</time>
      </trkpt>
      <trkpt lat="46.00297" lon="6.86867">
        <ele>1929.02</ele>
        <time>2015-08-02T10:43:58Z</time>
      </trkpt>
      <trkpt lat="46.00296" lon="6.86867">
        <ele>1929.02</ele>
        <time>2015-08-02T10:44:29Z</time>
      </trkpt>
      <trkpt lat="46.00297" lon="6.86866">
        <ele>1929.02</ele>
        <time>2015-08-02T10:45:10Z</time>
      </trkpt>
      <trkpt lat="46.00299" lon="6.86867">
        <ele>1929.02</ele>
        <time>2015-08-02T10:45:45Z</time>
      </trkpt>
      <trkpt lat="46.00297" lon="6.86869">
        <ele>1929.02</ele>
        <time>2015-08-02T10:46:22Z</time>
      </trkpt>
      <trkpt lat="46.00293" lon="6.86866">
        <ele>1929.02</ele>
        <time>2015-08-02T10:47:00Z</time>
      </trkpt>
      <trkpt lat="46.00296" lon="6.86868">
        <ele>1929.02</ele>
        <time>2015-08-02T10:47:36Z</time>
      </trkpt>
      <trkpt lat="46.00294" lon="6.86865">
        <ele>1929.02</ele>
        <time>2015-08-02T10:48:07Z</time>
      </trkpt>
      <trkpt lat="46.00294" lon="6.86869">
        <ele>1929.02</ele>
        <time>2015-08-02T10:48:29Z</time>
      </trkpt>
      <trkpt lat="46.00298" lon="6.86868">
        <ele>1929.02</ele>
        <time>2015-08-02T10:48:58Z</time>
      </trkpt>
      <trkpt lat="46.00299" lon="6.86869">
        <ele>1929.5</ele>
        <time>2015-08-02T10:49:33Z</time>
      </trkpt>
      <trkpt lat="46.00301" lon="6.86868">
        <ele>1929.5</ele>
        <time>2015-08-02T10:50:04Z</time>
      </trkpt>
      <trkpt lat="46.00302" lon="6.8687">
        <ele>1929.02</ele>
        <time>2015-08-02T10:50:36Z</time>
      </trkpt>
      <trkpt lat="46.00298" lon="6.86874">
        <ele>1929.02</ele>
        <time>2015-08-02T10:51:04Z</time>
      </trkpt>
      <trkpt lat="46.00302" lon="6.86872">
        <ele>1929.02</ele>
        <time>2015-08-02T10:51:38Z</time>
      </trkpt>
      <trkpt lat="46.00301" lon="6.86869">
        <ele>1929.02</ele>
        <time>2015-08-02T10:52:17Z</time>
      </trkpt>
      <trkpt lat="46.00302" lon="6.8687">
        <ele>1929.02</ele>
        <time>2015-08-02T10:52:50Z</time>
      </trkpt>
      <trkpt lat="46.00301" lon="6.86868">
        <ele>1929.02</ele>
        <time>2015-08-02T10:53:23Z</time>
      </trkpt>
      <trkpt lat="46.00303" lon="6.86869">
        <ele>1928.54</ele>
        <time>2015-08-02T10:53:53Z</time>
      </trkpt>
      <trkpt lat="46.00304" lon="6.86869">
        <ele>1928.54</ele>
        <time>2015-08-02T10:54:19Z</time>
      </trkpt>
      <trkpt lat="46.0031" lon="6.86869">
        <ele>1928.54</ele>
        <time>2015-08-02T10:54:48Z</time>
      </trkpt>
      <trkpt lat="46.00312" lon="6.86873">
        <ele>1928.54</ele>
        <time>2015-08-02T10:55:15Z</time>
      </trkpt>
      <trkpt lat="46.00309" lon="6.86872">
        <ele>1928.54</ele>
        <time>2015-08-02T10:55:42Z</time>
      </trkpt>
      <trkpt lat="46.00307" lon="6.86872">
        <ele>1928.54</ele>
        <time>2015-08-02T10:56:06Z</time>
      </trkpt>
      <trkpt lat="46.00305" lon="6.86871">
        <ele>1928.54</ele>
        <time>2015-08-02T10:56:34Z</time>
      </trkpt>
      <trkpt lat="46.00306" lon="6.8687">
        <ele>1928.54</ele>
        <time>2015-08-02T10:56:54Z</time>
      </trkpt>
      <trkpt lat="46.00304" lon="6.86867">
        <ele>1928.54</ele>
        <time>2015-08-02T10:57:23Z</time>
      </trkpt>
      <trkpt lat="46.00306" lon="6.86869">
        <ele>1928.54</ele>
        <time>2015-08-02T10:57:55Z</time>
      </trkpt>
      <trkpt lat="46.0031" lon="6.86871">
        <ele>1928.54</ele>
        <time>2015-08-02T10:58:30Z</time>
      </trkpt>
      <trkpt lat="46.00306" lon="6.86869">
        <ele>1928.54</ele>
        <time>2015-08-02T10:59:03Z</time>
      </trkpt>
      <trkpt lat="46.00303" lon="6.86866">
        <ele>1928.54</ele>
        <time>2015-08-02T10:59:30Z</time>
      </trkpt>
      <trkpt lat="46.003" lon="6.86866">
        <ele>1928.54</ele>
        <time>2015-08-02T10:59:55Z</time>
      </trkpt>
      <trkpt lat="46.00302" lon="6.8687">
        <ele>1928.06</ele>
        <time>2015-08-02T11:00:23Z</time>
      </trkpt>
      <trkpt lat="46.00304" lon="6.86871">
        <ele>1928.06</ele>
        <time>2015-08-02T11:00:44Z</time>
      </trkpt>
      <trkpt lat="46.00304" lon="6.86869">
        <ele>1928.06</ele>
        <time>2015-08-02T11:01:12Z</time>
      </trkpt>
      <trkpt lat="46.00309" lon="6.86872">
        <ele>1928.06</ele>
        <time>2015-08-02T11:01:47Z</time>
      </trkpt>
      <trkpt lat="46.00308" lon="6.86873">
        <ele>1928.06</ele>
        <time>2015-08-02T11:02:16Z</time>
      </trkpt>
      <trkpt lat="46.00307" lon="6.86871">
        <ele>1928.06</ele>
        <time>2015-08-02T11:02:41Z</time>
      </trkpt>
      <trkpt lat="46.0031" lon="6.86871">
        <ele>1928.06</ele>
        <time>2015-08-02T11:03:11Z</time>
      </trkpt>
      <trkpt lat="46.00308" lon="6.86873">
        <ele>1928.06</ele>
        <time>2015-08-02T11:03:41Z</time>
      </trkpt>
      <trkpt lat="46.00309" lon="6.8687">
        <ele>1928.06</ele>
        <time>2015-08-02T11:04:16Z</time>
      </trkpt>
      <trkpt lat="46.0031" lon="6.86869">
        <ele>1928.06</ele>
        <time>2015-08-02T11:04:51Z</time>
      </trkpt>
      <trkpt lat="46.00305" lon="6.86868">
        <ele>1928.06</ele>
        <time>2015-08-02T11:05:15Z</time>
      </trkpt>
      <trkpt lat="46.00305" lon="6.86871">
        <ele>1929.5</ele>
        <time>2015-08-02T11:05:32Z</time>
      </trkpt>
      <trkpt lat="46.00304" lon="6.86872">
        <ele>1929.5</ele>
        <time>2015-08-02T11:05:49Z</time>
      </trkpt>
      <trkpt lat="46.00304" lon="6.86875">
        <ele>1929.5</ele>
        <time>2015-08-02T11:06:14Z</time>
      </trkpt>
      <trkpt lat="46.00305" lon="6.8687">
        <ele>1929.5</ele>
        <time>2015-08-02T11:06:42Z</time>
      </trkpt>
      <trkpt lat="46.00304" lon="6.86871">
        <ele>1929.5</ele>
        <time>2015-08-02T11:07:11Z</time>
      </trkpt>
      <trkpt lat="46.00305" lon="6.86875">
        <ele>1929.5</ele>
        <time>2015-08-02T11:07:39Z</time>
      </trkpt>
      <trkpt lat="46.00308" lon="6.86872">
        <ele>1929.5</ele>
        <time>2015-08-02T11:08:03Z</time>
      </trkpt>
      <trkpt lat="46.00311" lon="6.86863">
        <ele>1930.95</ele>
        <time>2015-08-02T11:08:17Z</time>
      </trkpt>
      <trkpt lat="46.00309" lon="6.86857">
        <ele>1931.91</ele>
        <time>2015-08-02T11:08:30Z</time>
      </trkpt>
      <trkpt lat="46.00305" lon="6.86857">
        <ele>1932.87</ele>
        <time>2015-08-02T11:08:50Z</time>
      </trkpt>
      <trkpt lat="46.00299" lon="6.86854">
        <ele>1934.79</ele>
        <time>2015-08-02T11:09:05Z</time>
      </trkpt>
      <trkpt lat="46.00296" lon="6.86854">
        <ele>1935.27</ele>
        <time>2015-08-02T11:09:12Z</time>
      </trkpt>
      <trkpt lat="46.00286" lon="6.86857">
        <ele>1936.71</ele>
        <time>2015-08-02T11:09:27Z</time>
      </trkpt>
      <trkpt lat="46.00284" lon="6.86861">
        <ele>1936.71</ele>
        <time>2015-08-02T11:09:41Z</time>
      </trkpt>
      <trkpt lat="46.00283" lon="6.86862">
        <ele>1935.27</ele>
        <time>2015-08-02T11:09:44Z</time>
      </trkpt>
      <trkpt lat="46.00283" lon="6.86866">
        <ele>1934.79</ele>
        <time>2015-08-02T11:09:59Z</time>
      </trkpt>
      <trkpt lat="46.0028" lon="6.86869">
        <ele>1934.79</ele>
        <time>2015-08-02T11:10:20Z</time>
      </trkpt>
      <trkpt lat="46.00278" lon="6.86867">
        <ele>1936.23</ele>
        <time>2015-08-02T11:10:23Z</time>
      </trkpt>
      <trkpt lat="46.00278" lon="6.86859">
        <ele>1937.67</ele>
        <time>2015-08-02T11:10:36Z</time>
      </trkpt>
      <trkpt lat="46.00275" lon="6.86852">
        <ele>1939.6</ele>
        <time>2015-08-02T11:10:52Z</time>
      </trkpt>
      <trkpt lat="46.00275" lon="6.86851">
        <ele>1939.6</ele>
        <time>2015-08-02T11:11:10Z</time>
      </trkpt>
      <trkpt lat="46.00275" lon="6.8685">
        <ele>1939.6</ele>
        <time>2015-08-02T11:11:29Z</time>
      </trkpt>
      <trkpt lat="46.00276" lon="6.86843">
        <ele>1939.6</ele>
        <time>2015-08-02T11:12:13Z</time>
      </trkpt>
      <trkpt lat="46.00275" lon="6.86847">
        <ele>1939.6</ele>
        <time>2015-08-02T11:12:33Z</time>
      </trkpt>
      <trkpt lat="46.00273" lon="6.86848">
        <ele>1940.08</ele>
        <time>2015-08-02T11:12:48Z</time>
      </trkpt>
      <trkpt lat="46.00268" lon="6.86844">
        <ele>1942.48</ele>
        <time>2015-08-02T11:13:01Z</time>
      </trkpt>
      <trkpt lat="46.0026" lon="6.86839">
        <ele>1945.36</ele>
        <time>2015-08-02T11:13:15Z</time>
      </trkpt>
      <trkpt lat="46.00252" lon="6.86838">
        <ele>1947.29</ele>
        <time>2015-08-02T11:13:29Z</time>
      </trkpt>
      <trkpt lat="46.00249" lon="6.86833">
        <ele>1948.25</ele>
        <time>2015-08-02T11:13:41Z</time>
      </trkpt>
      <trkpt lat="46.00242" lon="6.86831">
        <ele>1951.13</ele>
        <time>2015-08-02T11:13:55Z</time>
      </trkpt>
      <trkpt lat="46.00233" lon="6.86827">
        <ele>1954.02</ele>
        <time>2015-08-02T11:14:11Z</time>
      </trkpt>
      <trkpt lat="46.00224" lon="6.86835">
        <ele>1956.9</ele>
        <time>2015-08-02T11:14:28Z</time>
      </trkpt>
      <trkpt lat="46.00217" lon="6.86836">
        <ele>1958.34</ele>
        <time>2015-08-02T11:14:44Z</time>
      </trkpt>
      <trkpt lat="46.00213" lon="6.86831">
        <ele>1960.27</ele>
        <time>2015-08-02T11:14:58Z</time>
      </trkpt>
      <trkpt lat="46.00209" lon="6.86825">
        <ele>1962.19</ele>
        <time>2015-08-02T11:15:14Z</time>
      </trkpt>
      <trkpt lat="46.00207" lon="6.8682">
        <ele>1963.63</ele>
        <time>2015-08-02T11:15:25Z</time>
      </trkpt>
      <trkpt lat="46.00206" lon="6.86818">
        <ele>1964.59</ele>
        <time>2015-08-02T11:15:39Z</time>
      </trkpt>
      <trkpt lat="46.00203" lon="6.86817">
        <ele>1964.59</ele>
        <time>2015-08-02T11:16:25Z</time>
      </trkpt>
      <trkpt lat="46.00204" lon="6.86809">
        <ele>1965.07</ele>
        <time>2015-08-02T11:16:41Z</time>
      </trkpt>
      <trkpt lat="46.00199" lon="6.86805">
        <ele>1966.99</ele>
        <time>2015-08-02T11:16:53Z</time>
      </trkpt>
      <trkpt lat="46.00197" lon="6.868">
        <ele>1968.44</ele>
        <time>2015-08-02T11:17:04Z</time>
      </trkpt>
      <trkpt lat="46.00194" lon="6.86795">
        <ele>1970.84</ele>
        <time>2015-08-02T11:17:18Z</time>
      </trkpt>
      <trkpt lat="46.00191" lon="6.86793">
        <ele>1973.24</ele>
        <time>2015-08-02T11:17:31Z</time>
      </trkpt>
      <trkpt lat="46.00189" lon="6.86791">
        <ele>1974.2</ele>
        <time>2015-08-02T11:17:45Z</time>
      </trkpt>
      <trkpt lat="46.00187" lon="6.86787">
        <ele>1974.2</ele>
        <time>2015-08-02T11:18:22Z</time>
      </trkpt>
      <trkpt lat="46.00186" lon="6.86784">
        <ele>1974.69</ele>
        <time>2015-08-02T11:18:59Z</time>
      </trkpt>
      <trkpt lat="46.00186" lon="6.8679">
        <ele>1974.69</ele>
        <time>2015-08-02T11:19:25Z</time>
      </trkpt>
      <trkpt lat="46.00184" lon="6.86807">
        <ele>1974.69</ele>
        <time>2015-08-02T11:19:40Z</time>
      </trkpt>
      <trkpt lat="46.00185" lon="6.86823">
        <ele>1974.69</ele>
        <time>2015-08-02T11:19:55Z</time>
      </trkpt>
      <trkpt lat="46.00181" lon="6.8683">
        <ele>1975.17</ele>
        <time>2015-08-02T11:20:04Z</time>
      </trkpt>
      <trkpt lat="46.0017" lon="6.86832">
        <ele>1976.13</ele>
        <time>2015-08-02T11:20:20Z</time>
      </trkpt>
      <trkpt lat="46.00157" lon="6.86823">
        <ele>1976.13</ele>
        <time>2015-08-02T11:20:36Z</time>
      </trkpt>
      <trkpt lat="46.0015" lon="6.86817">
        <ele>1977.09</ele>
        <time>2015-08-02T11:20:51Z</time>
      </trkpt>
      <trkpt lat="46.00149" lon="6.86816">
        <ele>1977.09</ele>
        <time>2015-08-02T11:21:23Z</time>
      </trkpt>
      <trkpt lat="46.00142" lon="6.86813">
        <ele>1977.09</ele>
        <time>2015-08-02T11:21:38Z</time>
      </trkpt>
      <trkpt lat="46.00133" lon="6.86809">
        <ele>1977.09</ele>
        <time>2015-08-02T11:21:51Z</time>
      </trkpt>
      <trkpt lat="46.00122" lon="6.86806">
        <ele>1977.57</ele>
        <time>2015-08-02T11:22:06Z</time>
      </trkpt>
      <trkpt lat="46.00113" lon="6.86797">
        <ele>1978.05</ele>
        <time>2015-08-02T11:22:20Z</time>
      </trkpt>
      <trkpt lat="46.00105" lon="6.86785">
        <ele>1980.45</ele>
        <time>2015-08-02T11:22:36Z</time>
      </trkpt>
      <trkpt lat="46.00102" lon="6.86773">
        <ele>1982.86</ele>
        <time>2015-08-02T11:22:51Z</time>
      </trkpt>
      <trkpt lat="46.00099" lon="6.8677">
        <ele>1983.34</ele>
        <time>2015-08-02T11:23:02Z</time>
      </trkpt>
      <trkpt lat="46.00097" lon="6.86773">
        <ele>1983.34</ele>
        <time>2015-08-02T11:23:26Z</time>
      </trkpt>
      <trkpt lat="46.00096" lon="6.86773">
        <ele>1983.34</ele>
        <time>2015-08-02T11:23:59Z</time>
      </trkpt>
      <trkpt lat="46.00099" lon="6.86767">
        <ele>1983.34</ele>
        <time>2015-08-02T11:24:15Z</time>
      </trkpt>
      <trkpt lat="46.00093" lon="6.86766">
        <ele>1983.82</ele>
        <time>2015-08-02T11:24:27Z</time>
      </trkpt>
      <trkpt lat="46.0009" lon="6.86768">
        <ele>1984.3</ele>
        <time>2015-08-02T11:24:43Z</time>
      </trkpt>
      <trkpt lat="46.00088" lon="6.86767">
        <ele>1984.78</ele>
        <time>2015-08-02T11:25:04Z</time>
      </trkpt>
      <trkpt lat="46.00083" lon="6.86762">
        <ele>1987.18</ele>
        <time>2015-08-02T11:25:18Z</time>
      </trkpt>
      <trkpt lat="46.00076" lon="6.8676">
        <ele>1988.14</ele>
        <time>2015-08-02T11:25:31Z</time>
      </trkpt>
      <trkpt lat="46.0007" lon="6.86754">
        <ele>1989.59</ele>
        <time>2015-08-02T11:25:44Z</time>
      </trkpt>
      <trkpt lat="46.00064" lon="6.86745">
        <ele>1991.51</ele>
        <time>2015-08-02T11:25:59Z</time>
      </trkpt>
      <trkpt lat="46.00058" lon="6.86735">
        <ele>1993.43</ele>
        <time>2015-08-02T11:26:15Z</time>
      </trkpt>
      <trkpt lat="46.00052" lon="6.86729">
        <ele>1995.35</ele>
        <time>2015-08-02T11:26:30Z</time>
      </trkpt>
      <trkpt lat="46.00046" lon="6.86732">
        <ele>1997.28</ele>
        <time>2015-08-02T11:26:45Z</time>
      </trkpt>
      <trkpt lat="46.00042" lon="6.86734">
        <ele>1998.72</ele>
        <time>2015-08-02T11:26:57Z</time>
      </trkpt>
      <trkpt lat="46.00034" lon="6.86729">
        <ele>2000.64</ele>
        <time>2015-08-02T11:27:11Z</time>
      </trkpt>
      <trkpt lat="46.00026" lon="6.86726">
        <ele>2002.56</ele>
        <time>2015-08-02T11:27:27Z</time>
      </trkpt>
      <trkpt lat="46.00016" lon="6.86723">
        <ele>2004.49</ele>
        <time>2015-08-02T11:27:43Z</time>
      </trkpt>
      <trkpt lat="46.00007" lon="6.86717">
        <ele>2006.41</ele>
        <time>2015-08-02T11:28:00Z</time>
      </trkpt>
      <trkpt lat="46.00002" lon="6.86716">
        <ele>2007.85</ele>
        <time>2015-08-02T11:28:14Z</time>
      </trkpt>
      <trkpt lat="45.99996" lon="6.86711">
        <ele>2010.25</ele>
        <time>2015-08-02T11:28:29Z</time>
      </trkpt>
      <trkpt lat="45.9999" lon="6.86707">
        <ele>2011.7</ele>
        <time>2015-08-02T11:28:43Z</time>
      </trkpt>
      <trkpt lat="45.99985" lon="6.86705">
        <ele>2012.66</ele>
        <time>2015-08-02T11:28:57Z</time>
      </trkpt>
      <trkpt lat="45.99978" lon="6.86696">
        <ele>2015.06</ele>
        <time>2015-08-02T11:29:14Z</time>
      </trkpt>
      <trkpt lat="45.9997" lon="6.8669">
        <ele>2016.5</ele>
        <time>2015-08-02T11:29:29Z</time>
      </trkpt>
      <trkpt lat="45.99963" lon="6.86686">
        <ele>2018.43</ele>
        <time>2015-08-02T11:29:44Z</time>
      </trkpt>
      <trkpt lat="45.99956" lon="6.86689">
        <ele>2021.31</ele>
        <time>2015-08-02T11:30:02Z</time>
      </trkpt>
      <trkpt lat="45.99949" lon="6.86687">
        <ele>2022.75</ele>
        <time>2015-08-02T11:30:18Z</time>
      </trkpt>
      <trkpt lat="45.99942" lon="6.86688">
        <ele>2026.12</ele>
        <time>2015-08-02T11:30:35Z</time>
      </trkpt>
      <trkpt lat="45.99933" lon="6.86692">
        <ele>2028.52</ele>
        <time>2015-08-02T11:30:54Z</time>
      </trkpt>
      <trkpt lat="45.99926" lon="6.86699">
        <ele>2029.96</ele>
        <time>2015-08-02T11:31:09Z</time>
      </trkpt>
      <trkpt lat="45.9992" lon="6.86699">
        <ele>2032.36</ele>
        <time>2015-08-02T11:31:24Z</time>
      </trkpt>
      <trkpt lat="45.99912" lon="6.86703">
        <ele>2034.77</ele>
        <time>2015-08-02T11:31:42Z</time>
      </trkpt>
      <trkpt lat="45.99904" lon="6.86704">
        <ele>2036.21</ele>
        <time>2015-08-02T11:31:57Z</time>
      </trkpt>
      <trkpt lat="45.999" lon="6.86708">
        <ele>2038.13</ele>
        <time>2015-08-02T11:32:11Z</time>
      </trkpt>
      <trkpt lat="45.99894" lon="6.86713">
        <ele>2040.54</ele>
        <time>2015-08-02T11:32:28Z</time>
      </trkpt>
      <trkpt lat="45.99888" lon="6.86715">
        <ele>2042.94</ele>
        <time>2015-08-02T11:32:44Z</time>
      </trkpt>
      <trkpt lat="45.9988" lon="6.86718">
        <ele>2044.86</ele>
        <time>2015-08-02T11:32:59Z</time>
      </trkpt>
      <trkpt lat="45.99874" lon="6.8672">
        <ele>2047.26</ele>
        <time>2015-08-02T11:33:17Z</time>
      </trkpt>
      <trkpt lat="45.99868" lon="6.86725">
        <ele>2050.15</ele>
        <time>2015-08-02T11:33:34Z</time>
      </trkpt>
      <trkpt lat="45.99864" lon="6.86727">
        <ele>2051.59</ele>
        <time>2015-08-02T11:33:48Z</time>
      </trkpt>
      <trkpt lat="45.99862" lon="6.86731">
        <ele>2053.03</ele>
        <time>2015-08-02T11:33:59Z</time>
      </trkpt>
      <trkpt lat="45.99858" lon="6.86736">
        <ele>2055.92</ele>
        <time>2015-08-02T11:34:15Z</time>
      </trkpt>
      <trkpt lat="45.99855" lon="6.86744">
        <ele>2057.36</ele>
        <time>2015-08-02T11:34:27Z</time>
      </trkpt>
      <trkpt lat="45.99852" lon="6.86747">
        <ele>2059.76</ele>
        <time>2015-08-02T11:34:40Z</time>
      </trkpt>
      <trkpt lat="45.99846" lon="6.86755">
        <ele>2062.65</ele>
        <time>2015-08-02T11:34:59Z</time>
      </trkpt>
      <trkpt lat="45.9984" lon="6.86764">
        <ele>2065.05</ele>
        <time>2015-08-02T11:35:15Z</time>
      </trkpt>
      <trkpt lat="45.99836" lon="6.86769">
        <ele>2067.45</ele>
        <time>2015-08-02T11:35:33Z</time>
      </trkpt>
      <trkpt lat="45.99836" lon="6.86775">
        <ele>2068.41</ele>
        <time>2015-08-02T11:35:49Z</time>
      </trkpt>
      <trkpt lat="45.99835" lon="6.86773">
        <ele>2068.89</ele>
        <time>2015-08-02T11:36:22Z</time>
      </trkpt>
      <trkpt lat="45.99832" lon="6.86778">
        <ele>2071.3</ele>
        <time>2015-08-02T11:36:35Z</time>
      </trkpt>
      <trkpt lat="45.99826" lon="6.86784">
        <ele>2074.18</ele>
        <time>2015-08-02T11:36:52Z</time>
      </trkpt>
      <trkpt lat="45.99821" lon="6.86789">
        <ele>2076.1</ele>
        <time>2015-08-02T11:37:09Z</time>
      </trkpt>
      <trkpt lat="45.99817" lon="6.86796">
        <ele>2078.51</ele>
        <time>2015-08-02T11:37:24Z</time>
      </trkpt>
      <trkpt lat="45.99814" lon="6.86802">
        <ele>2081.39</ele>
        <time>2015-08-02T11:37:42Z</time>
      </trkpt>
      <trkpt lat="45.99812" lon="6.86805">
        <ele>2083.79</ele>
        <time>2015-08-02T11:37:58Z</time>
      </trkpt>
      <trkpt lat="45.99812" lon="6.86804">
        <ele>2083.79</ele>
        <time>2015-08-02T11:38:24Z</time>
      </trkpt>
      <trkpt lat="45.99807" lon="6.86809">
        <ele>2085.24</ele>
        <time>2015-08-02T11:38:36Z</time>
      </trkpt>
      <trkpt lat="45.99803" lon="6.86815">
        <ele>2088.12</ele>
        <time>2015-08-02T11:38:50Z</time>
      </trkpt>
      <trkpt lat="45.99797" lon="6.86817">
        <ele>2090.04</ele>
        <time>2015-08-02T11:39:07Z</time>
      </trkpt>
      <trkpt lat="45.99793" lon="6.8682">
        <ele>2092.45</ele>
        <time>2015-08-02T11:39:18Z</time>
      </trkpt>
      <trkpt lat="45.99789" lon="6.86824">
        <ele>2094.37</ele>
        <time>2015-08-02T11:39:30Z</time>
      </trkpt>
      <trkpt lat="45.99785" lon="6.86823">
        <ele>2096.77</ele>
        <time>2015-08-02T11:39:44Z</time>
      </trkpt>
      <trkpt lat="45.9978" lon="6.86827">
        <ele>2099.18</ele>
        <time>2015-08-02T11:39:59Z</time>
      </trkpt>
      <trkpt lat="45.99779" lon="6.86831">
        <ele>2101.1</ele>
        <time>2015-08-02T11:40:12Z</time>
      </trkpt>
      <trkpt lat="45.99773" lon="6.86833">
        <ele>2102.06</ele>
        <time>2015-08-02T11:40:26Z</time>
      </trkpt>
      <trkpt lat="45.99767" lon="6.86827">
        <ele>2102.06</ele>
        <time>2015-08-02T11:40:39Z</time>
      </trkpt>
      <trkpt lat="45.99758" lon="6.86823">
        <ele>2105.42</ele>
        <time>2015-08-02T11:40:53Z</time>
      </trkpt>
      <trkpt lat="45.99753" lon="6.86821">
        <ele>2106.39</ele>
        <time>2015-08-02T11:41:08Z</time>
      </trkpt>
      <trkpt lat="45.99749" lon="6.8682">
        <ele>2109.27</ele>
        <time>2015-08-02T11:41:24Z</time>
      </trkpt>
      <trkpt lat="45.99745" lon="6.86819">
        <ele>2112.15</ele>
        <time>2015-08-02T11:41:41Z</time>
      </trkpt>
      <trkpt lat="45.9974" lon="6.86814">
        <ele>2114.56</ele>
        <time>2015-08-02T11:41:56Z</time>
      </trkpt>
      <trkpt lat="45.99737" lon="6.86815">
        <ele>2117.44</ele>
        <time>2015-08-02T11:42:10Z</time>
      </trkpt>
      <trkpt lat="45.99731" lon="6.86814">
        <ele>2119.84</ele>
        <time>2015-08-02T11:42:25Z</time>
      </trkpt>
      <trkpt lat="45.99725" lon="6.86812">
        <ele>2123.21</ele>
        <time>2015-08-02T11:42:41Z</time>
      </trkpt>
      <trkpt lat="45.99721" lon="6.8681">
        <ele>2125.61</ele>
        <time>2015-08-02T11:42:58Z</time>
      </trkpt>
      <trkpt lat="45.99717" lon="6.86807">
        <ele>2128.02</ele>
        <time>2015-08-02T11:43:12Z</time>
      </trkpt>
      <trkpt lat="45.99713" lon="6.86805">
        <ele>2130.42</ele>
        <time>2015-08-02T11:43:25Z</time>
      </trkpt>
      <trkpt lat="45.99709" lon="6.86805">
        <ele>2133.3</ele>
        <time>2015-08-02T11:43:40Z</time>
      </trkpt>
      <trkpt lat="45.99706" lon="6.868">
        <ele>2135.71</ele>
        <time>2015-08-02T11:43:56Z</time>
      </trkpt>
      <trkpt lat="45.99704" lon="6.86794">
        <ele>2136.19</ele>
        <time>2015-08-02T11:44:14Z</time>
      </trkpt>
      <trkpt lat="45.99701" lon="6.86786">
        <ele>2137.15</ele>
        <time>2015-08-02T11:44:27Z</time>
      </trkpt>
      <trkpt lat="45.99698" lon="6.8678">
        <ele>2140.03</ele>
        <time>2015-08-02T11:44:44Z</time>
      </trkpt>
      <trkpt lat="45.99696" lon="6.86775">
        <ele>2140.99</ele>
        <time>2015-08-02T11:45:00Z</time>
      </trkpt>
      <trkpt lat="45.99695" lon="6.86777">
        <ele>2143.88</ele>
        <time>2015-08-02T11:45:16Z</time>
      </trkpt>
      <trkpt lat="45.99691" lon="6.86773">
        <ele>2146.28</ele>
        <time>2015-08-02T11:45:31Z</time>
      </trkpt>
      <trkpt lat="45.99689" lon="6.86772">
        <ele>2147.72</ele>
        <time>2015-08-02T11:45:43Z</time>
      </trkpt>
      <trkpt lat="45.99686" lon="6.86764">
        <ele>2149.65</ele>
        <time>2015-08-02T11:45:57Z</time>
      </trkpt>
      <trkpt lat="45.99686" lon="6.86753">
        <ele>2151.57</ele>
        <time>2015-08-02T11:46:10Z</time>
      </trkpt>
      <trkpt lat="45.99682" lon="6.8675">
        <ele>2154.45</ele>
        <time>2015-08-02T11:46:23Z</time>
      </trkpt>
      <trkpt lat="45.99681" lon="6.86747">
        <ele>2156.37</ele>
        <time>2015-08-02T11:46:36Z</time>
      </trkpt>
      <trkpt lat="45.99677" lon="6.86745">
        <ele>2158.78</ele>
        <time>2015-08-02T11:46:49Z</time>
      </trkpt>
      <trkpt lat="45.99671" lon="6.8674">
        <ele>2161.18</ele>
        <time>2015-08-02T11:47:06Z</time>
      </trkpt>
      <trkpt lat="45.99668" lon="6.86734">
        <ele>2163.58</ele>
        <time>2015-08-02T11:47:21Z</time>
      </trkpt>
      <trkpt lat="45.99665" lon="6.86733">
        <ele>2166.47</ele>
        <time>2015-08-02T11:47:36Z</time>
      </trkpt>
      <trkpt lat="45.9966" lon="6.86733">
        <ele>2168.87</ele>
        <time>2015-08-02T11:47:54Z</time>
      </trkpt>
      <trkpt lat="45.99654" lon="6.8673">
        <ele>2168.87</ele>
        <time>2015-08-02T11:48:27Z</time>
      </trkpt>
      <trkpt lat="45.99653" lon="6.86728">
        <ele>2168.87</ele>
        <time>2015-08-02T11:49:04Z</time>
      </trkpt>
      <trkpt lat="45.9965" lon="6.86722">
        <ele>2169.35</ele>
        <time>2015-08-02T11:49:19Z</time>
      </trkpt>
      <trkpt lat="45.9965" lon="6.86715">
        <ele>2170.31</ele>
        <time>2015-08-02T11:49:33Z</time>
      </trkpt>
      <trkpt lat="45.99654" lon="6.86712">
        <ele>2168.87</ele>
        <time>2015-08-02T11:49:57Z</time>
      </trkpt>
      <trkpt lat="45.99661" lon="6.86707">
        <ele>2165.51</ele>
        <time>2015-08-02T11:50:10Z</time>
      </trkpt>
      <trkpt lat="45.99666" lon="6.86702">
        <ele>2163.58</ele>
        <time>2015-08-02T11:50:23Z</time>
      </trkpt>
      <trkpt lat="45.99671" lon="6.86696">
        <ele>2165.51</ele>
        <time>2015-08-02T11:50:37Z</time>
      </trkpt>
      <trkpt lat="45.99674" lon="6.86688">
        <ele>2168.87</ele>
        <time>2015-08-02T11:50:54Z</time>
      </trkpt>
      <trkpt lat="45.99677" lon="6.8668">
        <ele>2170.79</ele>
        <time>2015-08-02T11:51:08Z</time>
      </trkpt>
      <trkpt lat="45.99676" lon="6.86674">
        <ele>2173.2</ele>
        <time>2015-08-02T11:51:22Z</time>
      </trkpt>
      <trkpt lat="45.99677" lon="6.86664">
        <ele>2174.16</ele>
        <time>2015-08-02T11:51:40Z</time>
      </trkpt>
      <trkpt lat="45.99677" lon="6.86651">
        <ele>2176.56</ele>
        <time>2015-08-02T11:51:57Z</time>
      </trkpt>
      <trkpt lat="45.99675" lon="6.86649">
        <ele>2177.52</ele>
        <time>2015-08-02T11:52:15Z</time>
      </trkpt>
      <trkpt lat="45.99675" lon="6.86635">
        <ele>2180.41</ele>
        <time>2015-08-02T11:52:31Z</time>
      </trkpt>
      <trkpt lat="45.99673" lon="6.86626">
        <ele>2182.33</ele>
        <time>2015-08-02T11:52:43Z</time>
      </trkpt>
      <trkpt lat="45.99672" lon="6.86616">
        <ele>2183.29</ele>
        <time>2015-08-02T11:52:58Z</time>
      </trkpt>
      <trkpt lat="45.9967" lon="6.86612">
        <ele>2183.29</ele>
        <time>2015-08-02T11:53:28Z</time>
      </trkpt>
      <trkpt lat="45.99666" lon="6.86603">
        <ele>2185.21</ele>
        <time>2015-08-02T11:53:44Z</time>
      </trkpt>
      <trkpt lat="45.99661" lon="6.86601">
        <ele>2188.1</ele>
        <time>2015-08-02T11:53:59Z</time>
      </trkpt>
      <trkpt lat="45.99658" lon="6.86601">
        <ele>2190.5</ele>
        <time>2015-08-02T11:54:10Z</time>
      </trkpt>
      <trkpt lat="45.99654" lon="6.86598">
        <ele>2192.9</ele>
        <time>2015-08-02T11:54:23Z</time>
      </trkpt>
      <trkpt lat="45.99655" lon="6.866">
        <ele>2192.9</ele>
        <time>2015-08-02T11:54:43Z</time>
      </trkpt>
      <trkpt lat="45.99656" lon="6.8659">
        <ele>2194.35</ele>
        <time>2015-08-02T11:54:55Z</time>
      </trkpt>
      <trkpt lat="45.99655" lon="6.86584">
        <ele>2195.79</ele>
        <time>2015-08-02T11:55:08Z</time>
      </trkpt>
      <trkpt lat="45.9965" lon="6.8658">
        <ele>2198.19</ele>
        <time>2015-08-02T11:55:23Z</time>
      </trkpt>
      <trkpt lat="45.99646" lon="6.86579">
        <ele>2200.59</ele>
        <time>2015-08-02T11:55:34Z</time>
      </trkpt>
      <trkpt lat="45.99642" lon="6.86578">
        <ele>2202.04</ele>
        <time>2015-08-02T11:55:47Z</time>
      </trkpt>
      <trkpt lat="45.99637" lon="6.8657">
        <ele>2203</ele>
        <time>2015-08-02T11:56:06Z</time>
      </trkpt>
      <trkpt lat="45.99633" lon="6.86563">
        <ele>2203.48</ele>
        <time>2015-08-02T11:56:19Z</time>
      </trkpt>
      <trkpt lat="45.99631" lon="6.86557">
        <ele>2205.88</ele>
        <time>2015-08-02T11:56:34Z</time>
      </trkpt>
      <trkpt lat="45.99633" lon="6.8655">
        <ele>2207.32</ele>
        <time>2015-08-02T11:56:44Z</time>
      </trkpt>
      <trkpt lat="45.99631" lon="6.86544">
        <ele>2209.25</ele>
        <time>2015-08-02T11:56:58Z</time>
      </trkpt>
      <trkpt lat="45.99629" lon="6.86532">
        <ele>2212.13</ele>
        <time>2015-08-02T11:57:13Z</time>
      </trkpt>
      <trkpt lat="45.9963" lon="6.86523">
        <ele>2214.53</ele>
        <time>2015-08-02T11:57:29Z</time>
      </trkpt>
      <trkpt lat="45.9963" lon="6.86514">
        <ele>2217.9</ele>
        <time>2015-08-02T11:57:45Z</time>
      </trkpt>
      <trkpt lat="45.9963" lon="6.86505">
        <ele>2221.26</ele>
        <time>2015-08-02T11:58:01Z</time>
      </trkpt>
      <trkpt lat="45.99631" lon="6.86496">
        <ele>2223.19</ele>
        <time>2015-08-02T11:58:17Z</time>
      </trkpt>
      <trkpt lat="45.99631" lon="6.8649">
        <ele>2224.63</ele>
        <time>2015-08-02T11:58:29Z</time>
      </trkpt>
      <trkpt lat="45.9963" lon="6.86489">
        <ele>2227.03</ele>
        <time>2015-08-02T11:58:44Z</time>
      </trkpt>
      <trkpt lat="45.9963" lon="6.86485">
        <ele>2227.99</ele>
        <time>2015-08-02T11:59:07Z</time>
      </trkpt>
      <trkpt lat="45.9963" lon="6.8648">
        <ele>2229.92</ele>
        <time>2015-08-02T11:59:20Z</time>
      </trkpt>
      <trkpt lat="45.99629" lon="6.86475">
        <ele>2233.28</ele>
        <time>2015-08-02T11:59:36Z</time>
      </trkpt>
      <trkpt lat="45.99627" lon="6.8647">
        <ele>2235.68</ele>
        <time>2015-08-02T11:59:52Z</time>
      </trkpt>
      <trkpt lat="45.99629" lon="6.86462">
        <ele>2238.09</ele>
        <time>2015-08-02T12:00:06Z</time>
      </trkpt>
      <trkpt lat="45.99625" lon="6.86451">
        <ele>2240.49</ele>
        <time>2015-08-02T12:00:21Z</time>
      </trkpt>
      <trkpt lat="45.99624" lon="6.86447">
        <ele>2241.93</ele>
        <time>2015-08-02T12:00:33Z</time>
      </trkpt>
      <trkpt lat="45.99623" lon="6.8644">
        <ele>2244.33</ele>
        <time>2015-08-02T12:00:47Z</time>
      </trkpt>
      <trkpt lat="45.99623" lon="6.86432">
        <ele>2247.22</ele>
        <time>2015-08-02T12:01:04Z</time>
      </trkpt>
      <trkpt lat="45.99621" lon="6.86418">
        <ele>2249.14</ele>
        <time>2015-08-02T12:01:25Z</time>
      </trkpt>
      <trkpt lat="45.99618" lon="6.86407">
        <ele>2250.1</ele>
        <time>2015-08-02T12:01:40Z</time>
      </trkpt>
      <trkpt lat="45.99618" lon="6.86399">
        <ele>2251.54</ele>
        <time>2015-08-02T12:01:52Z</time>
      </trkpt>
      <trkpt lat="45.99615" lon="6.86389">
        <ele>2253.95</ele>
        <time>2015-08-02T12:02:08Z</time>
      </trkpt>
      <trkpt lat="45.99616" lon="6.86378">
        <ele>2255.87</ele>
        <time>2015-08-02T12:02:22Z</time>
      </trkpt>
      <trkpt lat="45.99614" lon="6.86366">
        <ele>2257.79</ele>
        <time>2015-08-02T12:02:37Z</time>
      </trkpt>
      <trkpt lat="45.99613" lon="6.86352">
        <ele>2260.68</ele>
        <time>2015-08-02T12:02:54Z</time>
      </trkpt>
      <trkpt lat="45.99609" lon="6.8634">
        <ele>2263.08</ele>
        <time>2015-08-02T12:03:11Z</time>
      </trkpt>
      <trkpt lat="45.99607" lon="6.86331">
        <ele>2265.48</ele>
        <time>2015-08-02T12:03:24Z</time>
      </trkpt>
      <trkpt lat="45.99604" lon="6.86322">
        <ele>2267.89</ele>
        <time>2015-08-02T12:03:39Z</time>
      </trkpt>
      <trkpt lat="45.99602" lon="6.86312">
        <ele>2269.33</ele>
        <time>2015-08-02T12:03:56Z</time>
      </trkpt>
      <trkpt lat="45.99602" lon="6.86307">
        <ele>2270.77</ele>
        <time>2015-08-02T12:04:13Z</time>
      </trkpt>
      <trkpt lat="45.99601" lon="6.86297">
        <ele>2270.77</ele>
        <time>2015-08-02T12:04:38Z</time>
      </trkpt>
      <trkpt lat="45.99596" lon="6.86285">
        <ele>2268.37</ele>
        <time>2015-08-02T12:04:53Z</time>
      </trkpt>
      <trkpt lat="45.9959" lon="6.86278">
        <ele>2268.37</ele>
        <time>2015-08-02T12:05:06Z</time>
      </trkpt>
      <trkpt lat="45.99585" lon="6.86271">
        <ele>2268.37</ele>
        <time>2015-08-02T12:05:19Z</time>
      </trkpt>
      <trkpt lat="45.99582" lon="6.86265">
        <ele>2269.81</ele>
        <time>2015-08-02T12:05:28Z</time>
      </trkpt>
      <trkpt lat="45.99579" lon="6.86259">
        <ele>2271.25</ele>
        <time>2015-08-02T12:05:41Z</time>
      </trkpt>
      <trkpt lat="45.99575" lon="6.86248">
        <ele>2272.69</ele>
        <time>2015-08-02T12:05:56Z</time>
      </trkpt>
      <trkpt lat="45.9957" lon="6.86239">
        <ele>2273.66</ele>
        <time>2015-08-02T12:06:07Z</time>
      </trkpt>
      <trkpt lat="45.99567" lon="6.86232">
        <ele>2276.06</ele>
        <time>2015-08-02T12:06:20Z</time>
      </trkpt>
      <trkpt lat="45.99565" lon="6.86231">
        <ele>2277.5</ele>
        <time>2015-08-02T12:06:39Z</time>
      </trkpt>
      <trkpt lat="45.99563" lon="6.86224">
        <ele>2280.38</ele>
        <time>2015-08-02T12:06:54Z</time>
      </trkpt>
      <trkpt lat="45.99564" lon="6.86221">
        <ele>2281.35</ele>
        <time>2015-08-02T12:07:09Z</time>
      </trkpt>
      <trkpt lat="45.99563" lon="6.86219">
        <ele>2282.79</ele>
        <time>2015-08-02T12:07:24Z</time>
      </trkpt>
      <trkpt lat="45.99561" lon="6.86214">
        <ele>2284.23</ele>
        <time>2015-08-02T12:07:36Z</time>
      </trkpt>
      <trkpt lat="45.99557" lon="6.86205">
        <ele>2287.11</ele>
        <time>2015-08-02T12:07:53Z</time>
      </trkpt>
      <trkpt lat="45.99554" lon="6.86198">
        <ele>2289.04</ele>
        <time>2015-08-02T12:08:06Z</time>
      </trkpt>
      <trkpt lat="45.99556" lon="6.86186">
        <ele>2291.92</ele>
        <time>2015-08-02T12:08:25Z</time>
      </trkpt>
      <trkpt lat="45.99551" lon="6.86182">
        <ele>2293.36</ele>
        <time>2015-08-02T12:08:40Z</time>
      </trkpt>
      <trkpt lat="45.9955" lon="6.86183">
        <ele>2294.8</ele>
        <time>2015-08-02T12:09:04Z</time>
      </trkpt>
      <trkpt lat="45.99548" lon="6.86176">
        <ele>2296.73</ele>
        <time>2015-08-02T12:09:18Z</time>
      </trkpt>
      <trkpt lat="45.9955" lon="6.8617">
        <ele>2299.61</ele>
        <time>2015-08-02T12:09:34Z</time>
      </trkpt>
      <trkpt lat="45.9955" lon="6.86168">
        <ele>2301.05</ele>
        <time>2015-08-02T12:09:47Z</time>
      </trkpt>
      <trkpt lat="45.9955" lon="6.86159">
        <ele>2302.49</ele>
        <time>2015-08-02T12:10:09Z</time>
      </trkpt>
      <trkpt lat="45.9955" lon="6.86151">
        <ele>2303.94</ele>
        <time>2015-08-02T12:10:23Z</time>
      </trkpt>
      <trkpt lat="45.99542" lon="6.86147">
        <ele>2303.94</ele>
        <time>2015-08-02T12:10:42Z</time>
      </trkpt>
      <trkpt lat="45.9954" lon="6.86147">
        <ele>2304.42</ele>
        <time>2015-08-02T12:10:55Z</time>
      </trkpt>
      <trkpt lat="45.99538" lon="6.86145">
        <ele>2305.86</ele>
        <time>2015-08-02T12:11:11Z</time>
      </trkpt>
      <trkpt lat="45.99535" lon="6.86145">
        <ele>2305.86</ele>
        <time>2015-08-02T12:11:28Z</time>
      </trkpt>
      <trkpt lat="45.99531" lon="6.86139">
        <ele>2304.42</ele>
        <time>2015-08-02T12:11:43Z</time>
      </trkpt>
      <trkpt lat="45.9953" lon="6.86135">
        <ele>2303.94</ele>
        <time>2015-08-02T12:11:59Z</time>
      </trkpt>
      <trkpt lat="45.99529" lon="6.86134">
        <ele>2303.94</ele>
        <time>2015-08-02T12:12:17Z</time>
      </trkpt>
      <trkpt lat="45.99528" lon="6.86131">
        <ele>2302.98</ele>
        <time>2015-08-02T12:12:35Z</time>
      </trkpt>
      <trkpt lat="45.99524" lon="6.86121">
        <ele>2302.98</ele>
        <time>2015-08-02T12:12:49Z</time>
      </trkpt>
      <trkpt lat="45.9952" lon="6.86117">
        <ele>2303.46</ele>
        <time>2015-08-02T12:13:05Z</time>
      </trkpt>
      <trkpt lat="45.99519" lon="6.86111">
        <ele>2302.98</ele>
        <time>2015-08-02T12:13:26Z</time>
      </trkpt>
      <trkpt lat="45.99516" lon="6.86102">
        <ele>2302.01</ele>
        <time>2015-08-02T12:13:41Z</time>
      </trkpt>
      <trkpt lat="45.99515" lon="6.86097">
        <ele>2300.09</ele>
        <time>2015-08-02T12:13:56Z</time>
      </trkpt>
      <trkpt lat="45.99512" lon="6.8609">
        <ele>2298.65</ele>
        <time>2015-08-02T12:14:09Z</time>
      </trkpt>
      <trkpt lat="45.99507" lon="6.86087">
        <ele>2297.69</ele>
        <time>2015-08-02T12:14:31Z</time>
      </trkpt>
      <trkpt lat="45.99506" lon="6.86084">
        <ele>2296.73</ele>
        <time>2015-08-02T12:14:45Z</time>
      </trkpt>
      <trkpt lat="45.99501" lon="6.86083">
        <ele>2296.73</ele>
        <time>2015-08-02T12:15:00Z</time>
      </trkpt>
      <trkpt lat="45.99498" lon="6.8608">
        <ele>2296.25</ele>
        <time>2015-08-02T12:15:21Z</time>
      </trkpt>
      <trkpt lat="45.99494" lon="6.86079">
        <ele>2294.8</ele>
        <time>2015-08-02T12:15:35Z</time>
      </trkpt>
      <trkpt lat="45.99487" lon="6.8608">
        <ele>2295.28</ele>
        <time>2015-08-02T12:15:52Z</time>
      </trkpt>
      <trkpt lat="45.9948" lon="6.86078">
        <ele>2297.21</ele>
        <time>2015-08-02T12:16:07Z</time>
      </trkpt>
      <trkpt lat="45.99474" lon="6.86077">
        <ele>2299.13</ele>
        <time>2015-08-02T12:16:19Z</time>
      </trkpt>
      <trkpt lat="45.99465" lon="6.86071">
        <ele>2301.05</ele>
        <time>2015-08-02T12:16:34Z</time>
      </trkpt>
      <trkpt lat="45.99464" lon="6.86068">
        <ele>2302.01</ele>
        <time>2015-08-02T12:16:52Z</time>
      </trkpt>
      <trkpt lat="45.99462" lon="6.86067">
        <ele>2304.42</ele>
        <time>2015-08-02T12:17:03Z</time>
      </trkpt>
      <trkpt lat="45.99457" lon="6.86065">
        <ele>2305.86</ele>
        <time>2015-08-02T12:17:19Z</time>
      </trkpt>
      <trkpt lat="45.99452" lon="6.86068">
        <ele>2308.74</ele>
        <time>2015-08-02T12:17:36Z</time>
      </trkpt>
      <trkpt lat="45.99447" lon="6.86066">
        <ele>2310.67</ele>
        <time>2015-08-02T12:17:51Z</time>
      </trkpt>
      <trkpt lat="45.99441" lon="6.8607">
        <ele>2312.11</ele>
        <time>2015-08-02T12:18:06Z</time>
      </trkpt>
      <trkpt lat="45.99435" lon="6.86078">
        <ele>2311.63</ele>
        <time>2015-08-02T12:18:20Z</time>
      </trkpt>
      <trkpt lat="45.99428" lon="6.86079">
        <ele>2312.11</ele>
        <time>2015-08-02T12:18:28Z</time>
      </trkpt>
      <trkpt lat="45.9942" lon="6.86081">
        <ele>2312.59</ele>
        <time>2015-08-02T12:18:41Z</time>
      </trkpt>
      <trkpt lat="45.99412" lon="6.86082">
        <ele>2314.03</ele>
        <time>2015-08-02T12:18:54Z</time>
      </trkpt>
      <trkpt lat="45.99405" lon="6.86082">
        <ele>2315.47</ele>
        <time>2015-08-02T12:19:08Z</time>
      </trkpt>
      <trkpt lat="45.99399" lon="6.86085">
        <ele>2317.4</ele>
        <time>2015-08-02T12:19:24Z</time>
      </trkpt>
      <trkpt lat="45.99391" lon="6.86083">
        <ele>2318.36</ele>
        <time>2015-08-02T12:19:37Z</time>
      </trkpt>
      <trkpt lat="45.99381" lon="6.86081">
        <ele>2320.28</ele>
        <time>2015-08-02T12:19:51Z</time>
      </trkpt>
      <trkpt lat="45.99374" lon="6.8608">
        <ele>2321.72</ele>
        <time>2015-08-02T12:20:03Z</time>
      </trkpt>
      <trkpt lat="45.99367" lon="6.86074">
        <ele>2324.12</ele>
        <time>2015-08-02T12:20:17Z</time>
      </trkpt>
      <trkpt lat="45.99358" lon="6.86075">
        <ele>2325.57</ele>
        <time>2015-08-02T12:20:34Z</time>
      </trkpt>
      <trkpt lat="45.9935" lon="6.86071">
        <ele>2326.05</ele>
        <time>2015-08-02T12:20:48Z</time>
      </trkpt>
      <trkpt lat="45.99344" lon="6.8607">
        <ele>2326.05</ele>
        <time>2015-08-02T12:21:03Z</time>
      </trkpt>
      <trkpt lat="45.99341" lon="6.86069">
        <ele>2326.05</ele>
        <time>2015-08-02T12:21:17Z</time>
      </trkpt>
      <trkpt lat="45.99337" lon="6.86063">
        <ele>2326.53</ele>
        <time>2015-08-02T12:21:43Z</time>
      </trkpt>
      <trkpt lat="45.99334" lon="6.86066">
        <ele>2326.53</ele>
        <time>2015-08-02T12:22:17Z</time>
      </trkpt>
      <trkpt lat="45.99331" lon="6.86063">
        <ele>2326.05</ele>
        <time>2015-08-02T12:22:54Z</time>
      </trkpt>
      <trkpt lat="45.99332" lon="6.86063">
        <ele>2326.05</ele>
        <time>2015-08-02T12:23:25Z</time>
      </trkpt>
      <trkpt lat="45.99336" lon="6.86061">
        <ele>2326.05</ele>
        <time>2015-08-02T12:24:00Z</time>
      </trkpt>
      <trkpt lat="45.99336" lon="6.86062">
        <ele>2327.49</ele>
        <time>2015-08-02T12:24:16Z</time>
      </trkpt>
      <trkpt lat="45.99329" lon="6.86065">
        <ele>2327.97</ele>
        <time>2015-08-02T12:24:30Z</time>
      </trkpt>
      <trkpt lat="45.99323" lon="6.86059">
        <ele>2329.89</ele>
        <time>2015-08-02T12:24:43Z</time>
      </trkpt>
      <trkpt lat="45.99317" lon="6.86052">
        <ele>2331.81</ele>
        <time>2015-08-02T12:24:57Z</time>
      </trkpt>
      <trkpt lat="45.9931" lon="6.86046">
        <ele>2333.26</ele>
        <time>2015-08-02T12:25:11Z</time>
      </trkpt>
      <trkpt lat="45.99306" lon="6.8604">
        <ele>2335.18</ele>
        <time>2015-08-02T12:25:23Z</time>
      </trkpt>
      <trkpt lat="45.99302" lon="6.86035">
        <ele>2337.1</ele>
        <time>2015-08-02T12:25:37Z</time>
      </trkpt>
      <trkpt lat="45.99298" lon="6.86026">
        <ele>2339.51</ele>
        <time>2015-08-02T12:25:51Z</time>
      </trkpt>
      <trkpt lat="45.99292" lon="6.86017">
        <ele>2342.39</ele>
        <time>2015-08-02T12:26:07Z</time>
      </trkpt>
      <trkpt lat="45.99288" lon="6.86012">
        <ele>2344.79</ele>
        <time>2015-08-02T12:26:22Z</time>
      </trkpt>
      <trkpt lat="45.99281" lon="6.86007">
        <ele>2346.23</ele>
        <time>2015-08-02T12:26:36Z</time>
      </trkpt>
      <trkpt lat="45.99274" lon="6.86003">
        <ele>2349.12</ele>
        <time>2015-08-02T12:26:51Z</time>
      </trkpt>
      <trkpt lat="45.99269" lon="6.85997">
        <ele>2351.52</ele>
        <time>2015-08-02T12:27:06Z</time>
      </trkpt>
      <trkpt lat="45.99263" lon="6.85993">
        <ele>2353.44</ele>
        <time>2015-08-02T12:27:21Z</time>
      </trkpt>
      <trkpt lat="45.99257" lon="6.85987">
        <ele>2356.33</ele>
        <time>2015-08-02T12:27:34Z</time>
      </trkpt>
      <trkpt lat="45.99251" lon="6.8598">
        <ele>2358.73</ele>
        <time>2015-08-02T12:27:51Z</time>
      </trkpt>
      <trkpt lat="45.99247" lon="6.85977">
        <ele>2360.65</ele>
        <time>2015-08-02T12:28:02Z</time>
      </trkpt>
      <trkpt lat="45.99245" lon="6.85972">
        <ele>2363.06</ele>
        <time>2015-08-02T12:28:18Z</time>
      </trkpt>
      <trkpt lat="45.99238" lon="6.85966">
        <ele>2365.46</ele>
        <time>2015-08-02T12:28:34Z</time>
      </trkpt>
      <trkpt lat="45.99233" lon="6.85962">
        <ele>2368.35</ele>
        <time>2015-08-02T12:28:50Z</time>
      </trkpt>
      <trkpt lat="45.99229" lon="6.85959">
        <ele>2370.75</ele>
        <time>2015-08-02T12:29:06Z</time>
      </trkpt>
      <trkpt lat="45.99225" lon="6.85954">
        <ele>2371.71</ele>
        <time>2015-08-02T12:29:23Z</time>
      </trkpt>
      <trkpt lat="45.99222" lon="6.85949">
        <ele>2373.63</ele>
        <time>2015-08-02T12:29:35Z</time>
      </trkpt>
      <trkpt lat="45.99219" lon="6.85945">
        <ele>2375.07</ele>
        <time>2015-08-02T12:29:46Z</time>
      </trkpt>
      <trkpt lat="45.99219" lon="6.85943">
        <ele>2375.07</ele>
        <time>2015-08-02T12:29:48Z</time>
      </trkpt>
      <trkpt lat="45.99214" lon="6.85934">
        <ele>2376.52</ele>
        <time>2015-08-02T12:30:01Z</time>
      </trkpt>
      <trkpt lat="45.9921" lon="6.85929">
        <ele>2378.92</ele>
        <time>2015-08-02T12:30:12Z</time>
      </trkpt>
      <trkpt lat="45.99206" lon="6.85924">
        <ele>2380.84</ele>
        <time>2015-08-02T12:30:26Z</time>
      </trkpt>
      <trkpt lat="45.99207" lon="6.85922">
        <ele>2381.8</ele>
        <time>2015-08-02T12:30:47Z</time>
      </trkpt>
      <trkpt lat="45.99203" lon="6.85918">
        <ele>2383.25</ele>
        <time>2015-08-02T12:31:07Z</time>
      </trkpt>
      <trkpt lat="45.99202" lon="6.85913">
        <ele>2385.17</ele>
        <time>2015-08-02T12:31:18Z</time>
      </trkpt>
      <trkpt lat="45.99202" lon="6.85912">
        <ele>2386.13</ele>
        <time>2015-08-02T12:31:34Z</time>
      </trkpt>
      <trkpt lat="45.99203" lon="6.85915">
        <ele>2386.13</ele>
        <time>2015-08-02T12:32:02Z</time>
      </trkpt>
      <trkpt lat="45.99203" lon="6.85912">
        <ele>2386.61</ele>
        <time>2015-08-02T12:32:28Z</time>
      </trkpt>
      <trkpt lat="45.99201" lon="6.85909">
        <ele>2386.61</ele>
        <time>2015-08-02T12:33:00Z</time>
      </trkpt>
      <trkpt lat="45.99198" lon="6.85907">
        <ele>2387.09</ele>
        <time>2015-08-02T12:33:34Z</time>
      </trkpt>
      <trkpt lat="45.99194" lon="6.85906">
        <ele>2387.09</ele>
        <time>2015-08-02T12:33:56Z</time>
      </trkpt>
      <trkpt lat="45.99196" lon="6.8591">
        <ele>2387.09</ele>
        <time>2015-08-02T12:34:16Z</time>
      </trkpt>
      <trkpt lat="45.99195" lon="6.85911">
        <ele>2387.09</ele>
        <time>2015-08-02T12:34:38Z</time>
      </trkpt>
      <trkpt lat="45.99197" lon="6.85911">
        <ele>2387.09</ele>
        <time>2015-08-02T12:35:04Z</time>
      </trkpt>
      <trkpt lat="45.99197" lon="6.85908">
        <ele>2388.05</ele>
        <time>2015-08-02T12:35:20Z</time>
      </trkpt>
      <trkpt lat="45.99195" lon="6.85908">
        <ele>2390.94</ele>
        <time>2015-08-02T12:35:32Z</time>
      </trkpt>
      <trkpt lat="45.99192" lon="6.85906">
        <ele>2392.86</ele>
        <time>2015-08-02T12:35:46Z</time>
      </trkpt>
      <trkpt lat="45.99186" lon="6.85902">
        <ele>2395.26</ele>
        <time>2015-08-02T12:36:00Z</time>
      </trkpt>
      <trkpt lat="45.99188" lon="6.85903">
        <ele>2395.26</ele>
        <time>2015-08-02T12:36:30Z</time>
      </trkpt>
      <trkpt lat="45.99186" lon="6.85896">
        <ele>2397.18</ele>
        <time>2015-08-02T12:36:43Z</time>
      </trkpt>
      <trkpt lat="45.99185" lon="6.85895">
        <ele>2398.15</ele>
        <time>2015-08-02T12:36:53Z</time>
      </trkpt>
      <trkpt lat="45.99185" lon="6.85893">
        <ele>2398.63</ele>
        <time>2015-08-02T12:37:17Z</time>
      </trkpt>
      <trkpt lat="45.99186" lon="6.85888">
        <ele>2399.11</ele>
        <time>2015-08-02T12:37:32Z</time>
      </trkpt>
      <trkpt lat="45.99188" lon="6.85889">
        <ele>2399.11</ele>
        <time>2015-08-02T12:37:53Z</time>
      </trkpt>
      <trkpt lat="45.99187" lon="6.85886">
        <ele>2399.11</ele>
        <time>2015-08-02T12:38:09Z</time>
      </trkpt>
      <trkpt lat="45.99189" lon="6.8588">
        <ele>2399.11</ele>
        <time>2015-08-02T12:38:23Z</time>
      </trkpt>
      <trkpt lat="45.99189" lon="6.85873">
        <ele>2400.07</ele>
        <time>2015-08-02T12:38:36Z</time>
      </trkpt>
      <trkpt lat="45.9919" lon="6.85873">
        <ele>2400.55</ele>
        <time>2015-08-02T12:38:55Z</time>
      </trkpt>
      <trkpt lat="45.9919" lon="6.85873">
        <ele>2400.55</ele>
        <time>2015-08-02T12:39:20Z</time>
      </trkpt>
      <trkpt lat="45.99189" lon="6.8587">
        <ele>2402.95</ele>
        <time>2015-08-02T12:39:31Z</time>
      </trkpt>
      <trkpt lat="45.99188" lon="6.85865">
        <ele>2405.84</ele>
        <time>2015-08-02T12:39:44Z</time>
      </trkpt>
      <trkpt lat="45.99185" lon="6.85862">
        <ele>2408.72</ele>
        <time>2015-08-02T12:39:58Z</time>
      </trkpt>
      <trkpt lat="45.99184" lon="6.85864">
        <ele>2410.16</ele>
        <time>2015-08-02T12:40:11Z</time>
      </trkpt>
      <trkpt lat="45.99185" lon="6.85867">
        <ele>2410.64</ele>
        <time>2015-08-02T12:40:35Z</time>
      </trkpt>
      <trkpt lat="45.9918" lon="6.85864">
        <ele>2411.6</ele>
        <time>2015-08-02T12:40:46Z</time>
      </trkpt>
      <trkpt lat="45.99177" lon="6.85853">
        <ele>2414.97</ele>
        <time>2015-08-02T12:41:03Z</time>
      </trkpt>
      <trkpt lat="45.99176" lon="6.85846">
        <ele>2417.37</ele>
        <time>2015-08-02T12:41:18Z</time>
      </trkpt>
      <trkpt lat="45.99176" lon="6.85844">
        <ele>2417.37</ele>
        <time>2015-08-02T12:41:38Z</time>
      </trkpt>
      <trkpt lat="45.99173" lon="6.8584">
        <ele>2418.81</ele>
        <time>2015-08-02T12:41:56Z</time>
      </trkpt>
      <trkpt lat="45.99171" lon="6.85841">
        <ele>2421.22</ele>
        <time>2015-08-02T12:42:09Z</time>
      </trkpt>
      <trkpt lat="45.99168" lon="6.85837">
        <ele>2424.1</ele>
        <time>2015-08-02T12:42:24Z</time>
      </trkpt>
      <trkpt lat="45.99162" lon="6.8583">
        <ele>2426.5</ele>
        <time>2015-08-02T12:42:38Z</time>
      </trkpt>
      <trkpt lat="45.99161" lon="6.85828">
        <ele>2428.43</ele>
        <time>2015-08-02T12:42:51Z</time>
      </trkpt>
      <trkpt lat="45.99159" lon="6.85825">
        <ele>2429.87</ele>
        <time>2015-08-02T12:43:05Z</time>
      </trkpt>
      <trkpt lat="45.99156" lon="6.85821">
        <ele>2431.79</ele>
        <time>2015-08-02T12:43:19Z</time>
      </trkpt>
      <trkpt lat="45.99154" lon="6.85816">
        <ele>2433.71</ele>
        <time>2015-08-02T12:43:34Z</time>
      </trkpt>
      <trkpt lat="45.99154" lon="6.85818">
        <ele>2435.64</ele>
        <time>2015-08-02T12:43:47Z</time>
      </trkpt>
      <trkpt lat="45.99153" lon="6.85823">
        <ele>2437.56</ele>
        <time>2015-08-02T12:44:01Z</time>
      </trkpt>
      <trkpt lat="45.99147" lon="6.85821">
        <ele>2439.96</ele>
        <time>2015-08-02T12:44:16Z</time>
      </trkpt>
      <trkpt lat="45.99143" lon="6.85816">
        <ele>2442.37</ele>
        <time>2015-08-02T12:44:29Z</time>
      </trkpt>
      <trkpt lat="45.9914" lon="6.8581">
        <ele>2445.25</ele>
        <time>2015-08-02T12:44:43Z</time>
      </trkpt>
      <trkpt lat="45.99139" lon="6.85802">
        <ele>2446.69</ele>
        <time>2015-08-02T12:44:54Z</time>
      </trkpt>
      <trkpt lat="45.99138" lon="6.85797">
        <ele>2449.58</ele>
        <time>2015-08-02T12:45:08Z</time>
      </trkpt>
      <trkpt lat="45.99137" lon="6.85787">
        <ele>2452.94</ele>
        <time>2015-08-02T12:45:22Z</time>
      </trkpt>
      <trkpt lat="45.99137" lon="6.85776">
        <ele>2455.82</ele>
        <time>2015-08-02T12:45:39Z</time>
      </trkpt>
      <trkpt lat="45.99132" lon="6.85775">
        <ele>2457.27</ele>
        <time>2015-08-02T12:45:51Z</time>
      </trkpt>
      <trkpt lat="45.99129" lon="6.85772">
        <ele>2457.75</ele>
        <time>2015-08-02T12:46:05Z</time>
      </trkpt>
      <trkpt lat="45.99133" lon="6.85774">
        <ele>2457.75</ele>
        <time>2015-08-02T12:46:22Z</time>
      </trkpt>
      <trkpt lat="45.99134" lon="6.85771">
        <ele>2457.75</ele>
        <time>2015-08-02T12:46:42Z</time>
      </trkpt>
      <trkpt lat="45.99133" lon="6.85771">
        <ele>2457.75</ele>
        <time>2015-08-02T12:47:00Z</time>
      </trkpt>
      <trkpt lat="45.99132" lon="6.85772">
        <ele>2458.23</ele>
        <time>2015-08-02T12:47:18Z</time>
      </trkpt>
      <trkpt lat="45.99132" lon="6.8577">
        <ele>2458.23</ele>
        <time>2015-08-02T12:47:38Z</time>
      </trkpt>
      <trkpt lat="45.99131" lon="6.85771">
        <ele>2458.23</ele>
        <time>2015-08-02T12:47:52Z</time>
      </trkpt>
      <trkpt lat="45.99131" lon="6.85773">
        <ele>2456.79</ele>
        <time>2015-08-02T12:48:00Z</time>
      </trkpt>
      <trkpt lat="45.9913" lon="6.85773">
        <ele>2456.79</ele>
        <time>2015-08-02T12:48:28Z</time>
      </trkpt>
      <trkpt lat="45.99133" lon="6.85776">
        <ele>2456.79</ele>
        <time>2015-08-02T12:49:01Z</time>
      </trkpt>
      <trkpt lat="45.99133" lon="6.85776">
        <ele>2457.27</ele>
        <time>2015-08-02T12:49:38Z</time>
      </trkpt>
      <trkpt lat="45.99133" lon="6.85776">
        <ele>2457.27</ele>
        <time>2015-08-02T12:50:19Z</time>
      </trkpt>
      <trkpt lat="45.99134" lon="6.85775">
        <ele>2456.79</ele>
        <time>2015-08-02T12:51:02Z</time>
      </trkpt>
      <trkpt lat="45.99133" lon="6.85775">
        <ele>2456.79</ele>
        <time>2015-08-02T12:51:46Z</time>
      </trkpt>
      <trkpt lat="45.99131" lon="6.85775">
        <ele>2456.31</ele>
        <time>2015-08-02T12:52:04Z</time>
      </trkpt>
      <trkpt lat="45.99129" lon="6.85774">
        <ele>2456.79</ele>
        <time>2015-08-02T12:52:54Z</time>
      </trkpt>
      <trkpt lat="45.99131" lon="6.85773">
        <ele>2457.75</ele>
        <time>2015-08-02T12:53:35Z</time>
      </trkpt>
      <trkpt lat="45.9913" lon="6.85771">
        <ele>2458.71</ele>
        <time>2015-08-02T12:53:54Z</time>
      </trkpt>
      <trkpt lat="45.99132" lon="6.85773">
        <ele>2458.71</ele>
        <time>2015-08-02T12:54:13Z</time>
      </trkpt>
      <trkpt lat="45.99135" lon="6.85772">
        <ele>2457.27</ele>
        <time>2015-08-02T12:54:18Z</time>
      </trkpt>
      <trkpt lat="45.99137" lon="6.85778">
        <ele>2455.34</ele>
        <time>2015-08-02T12:54:31Z</time>
      </trkpt>
      <trkpt lat="45.99139" lon="6.85787">
        <ele>2452.46</ele>
        <time>2015-08-02T12:54:44Z</time>
      </trkpt>
      <trkpt lat="45.99139" lon="6.85794">
        <ele>2450.06</ele>
        <time>2015-08-02T12:54:55Z</time>
      </trkpt>
      <trkpt lat="45.99139" lon="6.85802">
        <ele>2447.65</ele>
        <time>2015-08-02T12:55:07Z</time>
      </trkpt>
      <trkpt lat="45.99141" lon="6.85809">
        <ele>2445.73</ele>
        <time>2015-08-02T12:55:17Z</time>
      </trkpt>
      <trkpt lat="45.99146" lon="6.85815">
        <ele>2442.85</ele>
        <time>2015-08-02T12:55:30Z</time>
      </trkpt>
      <trkpt lat="45.99151" lon="6.8582">
        <ele>2440.92</ele>
        <time>2015-08-02T12:55:41Z</time>
      </trkpt>
      <trkpt lat="45.99155" lon="6.85825">
        <ele>2438.52</ele>
        <time>2015-08-02T12:55:53Z</time>
      </trkpt>
      <trkpt lat="45.99158" lon="6.85831">
        <ele>2436.12</ele>
        <time>2015-08-02T12:56:03Z</time>
      </trkpt>
      <trkpt lat="45.99159" lon="6.85837">
        <ele>2434.2</ele>
        <time>2015-08-02T12:56:15Z</time>
      </trkpt>
      <trkpt lat="45.99161" lon="6.85845">
        <ele>2431.79</ele>
        <time>2015-08-02T12:56:27Z</time>
      </trkpt>
      <trkpt lat="45.99165" lon="6.8585">
        <ele>2429.39</ele>
        <time>2015-08-02T12:56:39Z</time>
      </trkpt>
      <trkpt lat="45.99166" lon="6.85854">
        <ele>2427.47</ele>
        <time>2015-08-02T12:56:51Z</time>
      </trkpt>
      <trkpt lat="45.99169" lon="6.85853">
        <ele>2425.06</ele>
        <time>2015-08-02T12:57:03Z</time>
      </trkpt>
      <trkpt lat="45.99172" lon="6.85855">
        <ele>2422.66</ele>
        <time>2015-08-02T12:57:15Z</time>
      </trkpt>
      <trkpt lat="45.99174" lon="6.85856">
        <ele>2421.22</ele>
        <time>2015-08-02T12:57:25Z</time>
      </trkpt>
      <trkpt lat="45.99181" lon="6.85862">
        <ele>2418.81</ele>
        <time>2015-08-02T12:57:39Z</time>
      </trkpt>
      <trkpt lat="45.99183" lon="6.85867">
        <ele>2415.93</ele>
        <time>2015-08-02T12:57:52Z</time>
      </trkpt>
      <trkpt lat="45.99185" lon="6.85866">
        <ele>2414.01</ele>
        <time>2015-08-02T12:58:03Z</time>
      </trkpt>
      <trkpt lat="45.99188" lon="6.85862">
        <ele>2412.09</ele>
        <time>2015-08-02T12:58:15Z</time>
      </trkpt>
      <trkpt lat="45.99189" lon="6.85866">
        <ele>2410.16</ele>
        <time>2015-08-02T12:58:25Z</time>
      </trkpt>
      <trkpt lat="45.99195" lon="6.8587">
        <ele>2407.76</ele>
        <time>2015-08-02T12:58:39Z</time>
      </trkpt>
      <trkpt lat="45.99193" lon="6.85875">
        <ele>2405.36</ele>
        <time>2015-08-02T12:58:49Z</time>
      </trkpt>
      <trkpt lat="45.99197" lon="6.85873">
        <ele>2403.43</ele>
        <time>2015-08-02T12:59:02Z</time>
      </trkpt>
      <trkpt lat="45.99198" lon="6.85871">
        <ele>2402.95</ele>
        <time>2015-08-02T12:59:23Z</time>
      </trkpt>
      <trkpt lat="45.992" lon="6.85875">
        <ele>2401.51</ele>
        <time>2015-08-02T12:59:34Z</time>
      </trkpt>
      <trkpt lat="45.99205" lon="6.85878">
        <ele>2399.11</ele>
        <time>2015-08-02T12:59:43Z</time>
      </trkpt>
      <trkpt lat="45.9921" lon="6.85884">
        <ele>2396.7</ele>
        <time>2015-08-02T12:59:49Z</time>
      </trkpt>
    </trkseg>
  </trk>
</gpx>